<?xml version="1.0" encoding="UTF-8" standalone="no" ?>
<gpx xmlns="http://www.topografix.com/GPX/1/1" xmlns:xsi="http://www.w3.org/2001/XMLSchema-instance" xsi:schemaLocation="http://www.topografix.com/GPX/1/1 http://www.topografix.com/GPX/1/1/gpx.xsd" version="1.1" creator="VisuGPX - https://www.visugpx.com">
  <metadata>
    <name>Les Ollières sur Eyrieux</name>
    <desc><![CDATA[Randonnées J3 ]]></desc>
  </metadata>
  <wpt lat="44.79049" lon="4.64164">
    <ele>449</ele>
    <name><![CDATA[Pause à 2/4 12:04]]></name>
  </wpt>
  <wpt lat="44.79033" lon="4.6416">
    <ele>450</ele>
    <name><![CDATA[Pause à 2/4 12:44]]></name>
    <desc><![CDATA[Pause de 21min 26s]]></desc>
  </wpt>
  <wpt lat="44.78689" lon="4.63585">
    <ele>452</ele>
    <name><![CDATA[Pause à 2/4 11:30]]></name>
    <desc><![CDATA[Pause de 6min 57s]]></desc>
  </wpt>
  <wpt lat="44.80267" lon="4.61072">
    <ele>270</ele>
    <name><![CDATA[Pause à 2/4 09:32]]></name>
    <desc><![CDATA[Pause de 2min 9s]]></desc>
  </wpt>
  <wpt lat="44.80277" lon="4.61197">
    <ele>226</ele>
    <name><![CDATA[Pause à 2/4 09:26]]></name>
    <desc><![CDATA[Pause de 4min 9s]]></desc>
  </wpt>
  <wpt lat="44.80029" lon="4.60713">
    <ele>344</ele>
    <name><![CDATA[Pause à 2/4 09:46]]></name>
    <desc><![CDATA[Pause de 2min 54s]]></desc>
  </wpt>
  <wpt lat="44.79313" lon="4.60196">
    <ele>444</ele>
    <name><![CDATA[Pause à 2/4 10:13]]></name>
    <desc><![CDATA[Pause de 1min 42s]]></desc>
  </wpt>
  <wpt lat="44.79345" lon="4.60144">
    <ele>442</ele>
    <name><![CDATA[Pause à 2/4 10:09]]></name>
    <desc><![CDATA[Pause de 2min 58s]]></desc>
  </wpt>
  <wpt lat="44.80052" lon="4.60734">
    <ele>343</ele>
    <name><![CDATA[Pause à 2/4 09:42]]></name>
    <desc><![CDATA[Pause de 4min 11s]]></desc>
  </wpt>
  <wpt lat="44.79605" lon="4.6396">
    <ele>375</ele>
    <name><![CDATA[Pause à 2/4 13:31]]></name>
    <desc><![CDATA[Pause de 4min 24s]]></desc>
  </wpt>
  <wpt lat="44.80556" lon="4.61848">
    <ele>201</ele>
    <name><![CDATA[Pause à 2/4 09:07]]></name>
    <desc><![CDATA[Pause de 5min 7s]]></desc>
  </wpt>
  <wpt lat="44.80569" lon="4.61872">
    <ele>201</ele>
    <name><![CDATA[Pause à 2/4 15:30]]></name>
  </wpt>
  <trk>
    <name><![CDATA[Les ollieres sur heyrieux]]></name>
    <trkseg>
      <trkpt lat="44.80556" lon="4.61848">
        <ele>201</ele>
        <time>2015-04-02T07:05:44Z</time>
      </trkpt>
      <trkpt lat="44.80556" lon="4.61849">
        <ele>201</ele>
        <time>2015-04-02T07:05:59Z</time>
      </trkpt>
      <trkpt lat="44.80556" lon="4.61849">
        <ele>201</ele>
        <time>2015-04-02T07:06:14Z</time>
      </trkpt>
      <trkpt lat="44.80556" lon="4.61849">
        <ele>201</ele>
        <time>2015-04-02T07:06:15Z</time>
      </trkpt>
      <trkpt lat="44.80557" lon="4.61852">
        <ele>201</ele>
        <time>2015-04-02T07:06:29Z</time>
      </trkpt>
      <trkpt lat="44.80557" lon="4.61852">
        <ele>201</ele>
        <time>2015-04-02T07:06:45Z</time>
      </trkpt>
      <trkpt lat="44.80557" lon="4.61852">
        <ele>201</ele>
        <time>2015-04-02T07:07:00Z</time>
      </trkpt>
      <trkpt lat="44.80557" lon="4.61852">
        <ele>201</ele>
        <time>2015-04-02T07:07:15Z</time>
      </trkpt>
      <trkpt lat="44.80557" lon="4.61852">
        <ele>201</ele>
        <time>2015-04-02T07:07:30Z</time>
      </trkpt>
      <trkpt lat="44.80539" lon="4.61875">
        <ele>200</ele>
        <time>2015-04-02T07:10:51Z</time>
      </trkpt>
      <trkpt lat="44.80534" lon="4.61872">
        <ele>200</ele>
        <time>2015-04-02T07:10:55Z</time>
      </trkpt>
      <trkpt lat="44.80529" lon="4.61869">
        <ele>199</ele>
        <time>2015-04-02T07:10:59Z</time>
      </trkpt>
      <trkpt lat="44.80525" lon="4.61866">
        <ele>199</ele>
        <time>2015-04-02T07:11:03Z</time>
      </trkpt>
      <trkpt lat="44.80521" lon="4.61861">
        <ele>199</ele>
        <time>2015-04-02T07:11:07Z</time>
      </trkpt>
      <trkpt lat="44.80516" lon="4.61856">
        <ele>199</ele>
        <time>2015-04-02T07:11:11Z</time>
      </trkpt>
      <trkpt lat="44.80513" lon="4.61851">
        <ele>198</ele>
        <time>2015-04-02T07:11:14Z</time>
      </trkpt>
      <trkpt lat="44.80509" lon="4.61846">
        <ele>198</ele>
        <time>2015-04-02T07:11:17Z</time>
      </trkpt>
      <trkpt lat="44.80507" lon="4.6184">
        <ele>197</ele>
        <time>2015-04-02T07:11:22Z</time>
      </trkpt>
      <trkpt lat="44.80506" lon="4.61833">
        <ele>197</ele>
        <time>2015-04-02T07:11:27Z</time>
      </trkpt>
      <trkpt lat="44.80505" lon="4.61826">
        <ele>197</ele>
        <time>2015-04-02T07:11:32Z</time>
      </trkpt>
      <trkpt lat="44.80504" lon="4.6182">
        <ele>197</ele>
        <time>2015-04-02T07:11:37Z</time>
      </trkpt>
      <trkpt lat="44.80502" lon="4.61813">
        <ele>198</ele>
        <time>2015-04-02T07:11:41Z</time>
      </trkpt>
      <trkpt lat="44.80501" lon="4.61806">
        <ele>198</ele>
        <time>2015-04-02T07:11:45Z</time>
      </trkpt>
      <trkpt lat="44.80501" lon="4.61799">
        <ele>198</ele>
        <time>2015-04-02T07:11:50Z</time>
      </trkpt>
      <trkpt lat="44.805" lon="4.61791">
        <ele>197</ele>
        <time>2015-04-02T07:11:54Z</time>
      </trkpt>
      <trkpt lat="44.805" lon="4.61784">
        <ele>187</ele>
        <time>2015-04-02T07:11:57Z</time>
      </trkpt>
      <trkpt lat="44.805" lon="4.61777">
        <ele>187</ele>
        <time>2015-04-02T07:12:00Z</time>
      </trkpt>
      <trkpt lat="44.80502" lon="4.6177">
        <ele>196</ele>
        <time>2015-04-02T07:12:04Z</time>
      </trkpt>
      <trkpt lat="44.805" lon="4.61764">
        <ele>195</ele>
        <time>2015-04-02T07:12:10Z</time>
      </trkpt>
      <trkpt lat="44.805" lon="4.61756">
        <ele>190</ele>
        <time>2015-04-02T07:12:16Z</time>
      </trkpt>
      <trkpt lat="44.805" lon="4.61749">
        <ele>191</ele>
        <time>2015-04-02T07:12:20Z</time>
      </trkpt>
      <trkpt lat="44.80499" lon="4.61743">
        <ele>188</ele>
        <time>2015-04-02T07:12:24Z</time>
      </trkpt>
      <trkpt lat="44.80498" lon="4.61734">
        <ele>186</ele>
        <time>2015-04-02T07:12:28Z</time>
      </trkpt>
      <trkpt lat="44.80496" lon="4.61727">
        <ele>185</ele>
        <time>2015-04-02T07:12:32Z</time>
      </trkpt>
      <trkpt lat="44.80492" lon="4.6172">
        <ele>184</ele>
        <time>2015-04-02T07:12:36Z</time>
      </trkpt>
      <trkpt lat="44.8049" lon="4.61714">
        <ele>184</ele>
        <time>2015-04-02T07:12:42Z</time>
      </trkpt>
      <trkpt lat="44.80487" lon="4.61707">
        <ele>183</ele>
        <time>2015-04-02T07:12:46Z</time>
      </trkpt>
      <trkpt lat="44.80487" lon="4.61701">
        <ele>183</ele>
        <time>2015-04-02T07:12:52Z</time>
      </trkpt>
      <trkpt lat="44.80487" lon="4.61693">
        <ele>183</ele>
        <time>2015-04-02T07:12:56Z</time>
      </trkpt>
      <trkpt lat="44.80487" lon="4.61686">
        <ele>184</ele>
        <time>2015-04-02T07:13:00Z</time>
      </trkpt>
      <trkpt lat="44.80487" lon="4.61679">
        <ele>184</ele>
        <time>2015-04-02T07:13:04Z</time>
      </trkpt>
      <trkpt lat="44.80485" lon="4.61672">
        <ele>184</ele>
        <time>2015-04-02T07:13:07Z</time>
      </trkpt>
      <trkpt lat="44.80484" lon="4.61663">
        <ele>183</ele>
        <time>2015-04-02T07:13:10Z</time>
      </trkpt>
      <trkpt lat="44.80483" lon="4.61656">
        <ele>182</ele>
        <time>2015-04-02T07:13:13Z</time>
      </trkpt>
      <trkpt lat="44.80481" lon="4.61649">
        <ele>182</ele>
        <time>2015-04-02T07:13:17Z</time>
      </trkpt>
      <trkpt lat="44.80481" lon="4.61641">
        <ele>181</ele>
        <time>2015-04-02T07:13:22Z</time>
      </trkpt>
      <trkpt lat="44.80481" lon="4.61635">
        <ele>181</ele>
        <time>2015-04-02T07:13:26Z</time>
      </trkpt>
      <trkpt lat="44.80479" lon="4.61629">
        <ele>180</ele>
        <time>2015-04-02T07:13:29Z</time>
      </trkpt>
      <trkpt lat="44.80478" lon="4.61622">
        <ele>180</ele>
        <time>2015-04-02T07:13:32Z</time>
      </trkpt>
      <trkpt lat="44.80478" lon="4.61616">
        <ele>180</ele>
        <time>2015-04-02T07:13:36Z</time>
      </trkpt>
      <trkpt lat="44.80476" lon="4.61609">
        <ele>180</ele>
        <time>2015-04-02T07:13:39Z</time>
      </trkpt>
      <trkpt lat="44.80473" lon="4.61605">
        <ele>179</ele>
        <time>2015-04-02T07:13:43Z</time>
      </trkpt>
      <trkpt lat="44.8047" lon="4.61596">
        <ele>179</ele>
        <time>2015-04-02T07:13:46Z</time>
      </trkpt>
      <trkpt lat="44.80468" lon="4.61587">
        <ele>179</ele>
        <time>2015-04-02T07:13:48Z</time>
      </trkpt>
      <trkpt lat="44.80465" lon="4.61582">
        <ele>177</ele>
        <time>2015-04-02T07:13:50Z</time>
      </trkpt>
      <trkpt lat="44.80463" lon="4.61575">
        <ele>177</ele>
        <time>2015-04-02T07:13:56Z</time>
      </trkpt>
      <trkpt lat="44.80461" lon="4.61569">
        <ele>177</ele>
        <time>2015-04-02T07:14:01Z</time>
      </trkpt>
      <trkpt lat="44.80459" lon="4.61562">
        <ele>176</ele>
        <time>2015-04-02T07:14:05Z</time>
      </trkpt>
      <trkpt lat="44.80459" lon="4.61555">
        <ele>176</ele>
        <time>2015-04-02T07:14:10Z</time>
      </trkpt>
      <trkpt lat="44.80458" lon="4.61548">
        <ele>176</ele>
        <time>2015-04-02T07:14:14Z</time>
      </trkpt>
      <trkpt lat="44.80459" lon="4.6154">
        <ele>176</ele>
        <time>2015-04-02T07:14:18Z</time>
      </trkpt>
      <trkpt lat="44.80458" lon="4.61533">
        <ele>176</ele>
        <time>2015-04-02T07:14:24Z</time>
      </trkpt>
      <trkpt lat="44.80457" lon="4.61525">
        <ele>175</ele>
        <time>2015-04-02T07:14:28Z</time>
      </trkpt>
      <trkpt lat="44.80455" lon="4.61519">
        <ele>175</ele>
        <time>2015-04-02T07:14:31Z</time>
      </trkpt>
      <trkpt lat="44.80454" lon="4.61511">
        <ele>175</ele>
        <time>2015-04-02T07:14:35Z</time>
      </trkpt>
      <trkpt lat="44.80453" lon="4.61504">
        <ele>175</ele>
        <time>2015-04-02T07:14:39Z</time>
      </trkpt>
      <trkpt lat="44.80451" lon="4.61498">
        <ele>174</ele>
        <time>2015-04-02T07:14:44Z</time>
      </trkpt>
      <trkpt lat="44.80448" lon="4.61491">
        <ele>174</ele>
        <time>2015-04-02T07:14:49Z</time>
      </trkpt>
      <trkpt lat="44.80446" lon="4.61485">
        <ele>174</ele>
        <time>2015-04-02T07:14:53Z</time>
      </trkpt>
      <trkpt lat="44.80444" lon="4.61479">
        <ele>174</ele>
        <time>2015-04-02T07:14:57Z</time>
      </trkpt>
      <trkpt lat="44.80442" lon="4.61472">
        <ele>174</ele>
        <time>2015-04-02T07:15:01Z</time>
      </trkpt>
      <trkpt lat="44.8044" lon="4.61466">
        <ele>174</ele>
        <time>2015-04-02T07:15:05Z</time>
      </trkpt>
      <trkpt lat="44.80437" lon="4.6146">
        <ele>174</ele>
        <time>2015-04-02T07:15:10Z</time>
      </trkpt>
      <trkpt lat="44.80435" lon="4.61454">
        <ele>175</ele>
        <time>2015-04-02T07:15:14Z</time>
      </trkpt>
      <trkpt lat="44.80432" lon="4.61447">
        <ele>175</ele>
        <time>2015-04-02T07:15:18Z</time>
      </trkpt>
      <trkpt lat="44.8043" lon="4.6144">
        <ele>175</ele>
        <time>2015-04-02T07:15:22Z</time>
      </trkpt>
      <trkpt lat="44.80428" lon="4.61434">
        <ele>175</ele>
        <time>2015-04-02T07:15:26Z</time>
      </trkpt>
      <trkpt lat="44.80425" lon="4.61427">
        <ele>175</ele>
        <time>2015-04-02T07:15:30Z</time>
      </trkpt>
      <trkpt lat="44.80423" lon="4.6142">
        <ele>176</ele>
        <time>2015-04-02T07:15:35Z</time>
      </trkpt>
      <trkpt lat="44.80421" lon="4.61413">
        <ele>177</ele>
        <time>2015-04-02T07:15:42Z</time>
      </trkpt>
      <trkpt lat="44.80419" lon="4.61406">
        <ele>177</ele>
        <time>2015-04-02T07:15:47Z</time>
      </trkpt>
      <trkpt lat="44.80417" lon="4.61401">
        <ele>180</ele>
        <time>2015-04-02T07:15:50Z</time>
      </trkpt>
      <trkpt lat="44.80413" lon="4.61396">
        <ele>180</ele>
        <time>2015-04-02T07:15:55Z</time>
      </trkpt>
      <trkpt lat="44.80411" lon="4.6139">
        <ele>181</ele>
        <time>2015-04-02T07:15:58Z</time>
      </trkpt>
      <trkpt lat="44.8041" lon="4.61384">
        <ele>182</ele>
        <time>2015-04-02T07:16:01Z</time>
      </trkpt>
      <trkpt lat="44.80414" lon="4.61378">
        <ele>182</ele>
        <time>2015-04-02T07:16:05Z</time>
      </trkpt>
      <trkpt lat="44.80418" lon="4.61373">
        <ele>180</ele>
        <time>2015-04-02T07:16:09Z</time>
      </trkpt>
      <trkpt lat="44.80421" lon="4.61368">
        <ele>180</ele>
        <time>2015-04-02T07:16:13Z</time>
      </trkpt>
      <trkpt lat="44.80422" lon="4.61361">
        <ele>180</ele>
        <time>2015-04-02T07:16:19Z</time>
      </trkpt>
      <trkpt lat="44.8042" lon="4.61355">
        <ele>181</ele>
        <time>2015-04-02T07:16:25Z</time>
      </trkpt>
      <trkpt lat="44.80415" lon="4.6135">
        <ele>184</ele>
        <time>2015-04-02T07:16:31Z</time>
      </trkpt>
      <trkpt lat="44.80412" lon="4.61346">
        <ele>184</ele>
        <time>2015-04-02T07:16:36Z</time>
      </trkpt>
      <trkpt lat="44.80409" lon="4.6134">
        <ele>184</ele>
        <time>2015-04-02T07:16:41Z</time>
      </trkpt>
      <trkpt lat="44.80407" lon="4.61333">
        <ele>184</ele>
        <time>2015-04-02T07:16:46Z</time>
      </trkpt>
      <trkpt lat="44.80406" lon="4.61326">
        <ele>190</ele>
        <time>2015-04-02T07:16:50Z</time>
      </trkpt>
      <trkpt lat="44.80407" lon="4.61318">
        <ele>191</ele>
        <time>2015-04-02T07:16:53Z</time>
      </trkpt>
      <trkpt lat="44.80408" lon="4.61309">
        <ele>193</ele>
        <time>2015-04-02T07:16:56Z</time>
      </trkpt>
      <trkpt lat="44.8041" lon="4.61302">
        <ele>194</ele>
        <time>2015-04-02T07:16:59Z</time>
      </trkpt>
      <trkpt lat="44.80412" lon="4.61295">
        <ele>195</ele>
        <time>2015-04-02T07:17:03Z</time>
      </trkpt>
      <trkpt lat="44.80413" lon="4.61289">
        <ele>196</ele>
        <time>2015-04-02T07:17:10Z</time>
      </trkpt>
      <trkpt lat="44.80411" lon="4.61281">
        <ele>196</ele>
        <time>2015-04-02T07:17:15Z</time>
      </trkpt>
      <trkpt lat="44.80409" lon="4.61275">
        <ele>197</ele>
        <time>2015-04-02T07:17:20Z</time>
      </trkpt>
      <trkpt lat="44.80407" lon="4.61269">
        <ele>197</ele>
        <time>2015-04-02T07:17:26Z</time>
      </trkpt>
      <trkpt lat="44.80405" lon="4.61262">
        <ele>197</ele>
        <time>2015-04-02T07:17:30Z</time>
      </trkpt>
      <trkpt lat="44.80404" lon="4.61255">
        <ele>197</ele>
        <time>2015-04-02T07:17:33Z</time>
      </trkpt>
      <trkpt lat="44.80404" lon="4.61248">
        <ele>204</ele>
        <time>2015-04-02T07:17:40Z</time>
      </trkpt>
      <trkpt lat="44.80406" lon="4.61242">
        <ele>204</ele>
        <time>2015-04-02T07:17:46Z</time>
      </trkpt>
      <trkpt lat="44.80409" lon="4.61237">
        <ele>205</ele>
        <time>2015-04-02T07:17:50Z</time>
      </trkpt>
      <trkpt lat="44.80405" lon="4.61232">
        <ele>208</ele>
        <time>2015-04-02T07:18:00Z</time>
      </trkpt>
      <trkpt lat="44.80401" lon="4.61232">
        <ele>209</ele>
        <time>2015-04-02T07:18:13Z</time>
      </trkpt>
      <trkpt lat="44.80399" lon="4.6123">
        <ele>210</ele>
        <time>2015-04-02T07:18:33Z</time>
      </trkpt>
      <trkpt lat="44.804" lon="4.6123">
        <ele>209</ele>
        <time>2015-04-02T07:18:48Z</time>
      </trkpt>
      <trkpt lat="44.80399" lon="4.6123">
        <ele>210</ele>
        <time>2015-04-02T07:19:04Z</time>
      </trkpt>
      <trkpt lat="44.80399" lon="4.6123">
        <ele>210</ele>
        <time>2015-04-02T07:19:19Z</time>
      </trkpt>
      <trkpt lat="44.80398" lon="4.61226">
        <ele>211</ele>
        <time>2015-04-02T07:19:29Z</time>
      </trkpt>
      <trkpt lat="44.80393" lon="4.61222">
        <ele>212</ele>
        <time>2015-04-02T07:19:32Z</time>
      </trkpt>
      <trkpt lat="44.80387" lon="4.61221">
        <ele>213</ele>
        <time>2015-04-02T07:19:34Z</time>
      </trkpt>
      <trkpt lat="44.80383" lon="4.61219">
        <ele>214</ele>
        <time>2015-04-02T07:19:36Z</time>
      </trkpt>
      <trkpt lat="44.80378" lon="4.61217">
        <ele>215</ele>
        <time>2015-04-02T07:19:39Z</time>
      </trkpt>
      <trkpt lat="44.80375" lon="4.61212">
        <ele>216</ele>
        <time>2015-04-02T07:19:43Z</time>
      </trkpt>
      <trkpt lat="44.8037" lon="4.61211">
        <ele>216</ele>
        <time>2015-04-02T07:19:48Z</time>
      </trkpt>
      <trkpt lat="44.80366" lon="4.61208">
        <ele>217</ele>
        <time>2015-04-02T07:19:55Z</time>
      </trkpt>
      <trkpt lat="44.80362" lon="4.61204">
        <ele>218</ele>
        <time>2015-04-02T07:19:59Z</time>
      </trkpt>
      <trkpt lat="44.8036" lon="4.61197">
        <ele>219</ele>
        <time>2015-04-02T07:20:02Z</time>
      </trkpt>
      <trkpt lat="44.80359" lon="4.61189">
        <ele>220</ele>
        <time>2015-04-02T07:20:05Z</time>
      </trkpt>
      <trkpt lat="44.80361" lon="4.61195">
        <ele>219</ele>
        <time>2015-04-02T07:20:25Z</time>
      </trkpt>
      <trkpt lat="44.80362" lon="4.61195">
        <ele>219</ele>
        <time>2015-04-02T07:20:49Z</time>
      </trkpt>
      <trkpt lat="44.80362" lon="4.61195">
        <ele>219</ele>
        <time>2015-04-02T07:21:04Z</time>
      </trkpt>
      <trkpt lat="44.80361" lon="4.61195">
        <ele>219</ele>
        <time>2015-04-02T07:21:19Z</time>
      </trkpt>
      <trkpt lat="44.80355" lon="4.61196">
        <ele>220</ele>
        <time>2015-04-02T07:21:29Z</time>
      </trkpt>
      <trkpt lat="44.80351" lon="4.612">
        <ele>220</ele>
        <time>2015-04-02T07:21:34Z</time>
      </trkpt>
      <trkpt lat="44.80346" lon="4.61202">
        <ele>220</ele>
        <time>2015-04-02T07:21:39Z</time>
      </trkpt>
      <trkpt lat="44.80343" lon="4.61206">
        <ele>219</ele>
        <time>2015-04-02T07:21:44Z</time>
      </trkpt>
      <trkpt lat="44.80338" lon="4.6121">
        <ele>219</ele>
        <time>2015-04-02T07:21:48Z</time>
      </trkpt>
      <trkpt lat="44.80335" lon="4.61215">
        <ele>219</ele>
        <time>2015-04-02T07:21:54Z</time>
      </trkpt>
      <trkpt lat="44.80331" lon="4.6122">
        <ele>223</ele>
        <time>2015-04-02T07:21:59Z</time>
      </trkpt>
      <trkpt lat="44.80326" lon="4.61221">
        <ele>223</ele>
        <time>2015-04-02T07:22:02Z</time>
      </trkpt>
      <trkpt lat="44.80321" lon="4.61222">
        <ele>223</ele>
        <time>2015-04-02T07:22:05Z</time>
      </trkpt>
      <trkpt lat="44.80318" lon="4.61227">
        <ele>222</ele>
        <time>2015-04-02T07:22:16Z</time>
      </trkpt>
      <trkpt lat="44.80314" lon="4.61229">
        <ele>222</ele>
        <time>2015-04-02T07:22:26Z</time>
      </trkpt>
      <trkpt lat="44.80309" lon="4.61233">
        <ele>222</ele>
        <time>2015-04-02T07:22:41Z</time>
      </trkpt>
      <trkpt lat="44.80306" lon="4.61237">
        <ele>222</ele>
        <time>2015-04-02T07:22:47Z</time>
      </trkpt>
      <trkpt lat="44.80301" lon="4.61237">
        <ele>222</ele>
        <time>2015-04-02T07:22:57Z</time>
      </trkpt>
      <trkpt lat="44.80299" lon="4.6123">
        <ele>223</ele>
        <time>2015-04-02T07:23:15Z</time>
      </trkpt>
      <trkpt lat="44.80297" lon="4.61224">
        <ele>223</ele>
        <time>2015-04-02T07:23:28Z</time>
      </trkpt>
      <trkpt lat="44.80294" lon="4.61219">
        <ele>224</ele>
        <time>2015-04-02T07:23:39Z</time>
      </trkpt>
      <trkpt lat="44.80289" lon="4.61215">
        <ele>224</ele>
        <time>2015-04-02T07:23:45Z</time>
      </trkpt>
      <trkpt lat="44.80285" lon="4.61211">
        <ele>224</ele>
        <time>2015-04-02T07:23:49Z</time>
      </trkpt>
      <trkpt lat="44.80281" lon="4.6121">
        <ele>224</ele>
        <time>2015-04-02T07:23:54Z</time>
      </trkpt>
      <trkpt lat="44.80278" lon="4.61205">
        <ele>225</ele>
        <time>2015-04-02T07:24:03Z</time>
      </trkpt>
      <trkpt lat="44.80277" lon="4.61197">
        <ele>226</ele>
        <time>2015-04-02T07:24:06Z</time>
      </trkpt>
      <trkpt lat="44.80276" lon="4.61189">
        <ele>226</ele>
        <time>2015-04-02T07:24:08Z</time>
      </trkpt>
      <trkpt lat="44.80274" lon="4.61181">
        <ele>227</ele>
        <time>2015-04-02T07:24:11Z</time>
      </trkpt>
      <trkpt lat="44.80273" lon="4.61173">
        <ele>228</ele>
        <time>2015-04-02T07:24:15Z</time>
      </trkpt>
      <trkpt lat="44.8027" lon="4.61167">
        <ele>228</ele>
        <time>2015-04-02T07:24:18Z</time>
      </trkpt>
      <trkpt lat="44.80277" lon="4.6117">
        <ele>228</ele>
        <time>2015-04-02T07:24:22Z</time>
      </trkpt>
      <trkpt lat="44.80281" lon="4.61174">
        <ele>227</ele>
        <time>2015-04-02T07:24:25Z</time>
      </trkpt>
      <trkpt lat="44.80283" lon="4.61179">
        <ele>227</ele>
        <time>2015-04-02T07:24:37Z</time>
      </trkpt>
      <trkpt lat="44.80282" lon="4.61178">
        <ele>227</ele>
        <time>2015-04-02T07:25:05Z</time>
      </trkpt>
      <trkpt lat="44.80282" lon="4.61178">
        <ele>227</ele>
        <time>2015-04-02T07:25:20Z</time>
      </trkpt>
      <trkpt lat="44.80282" lon="4.61179">
        <ele>227</ele>
        <time>2015-04-02T07:25:35Z</time>
      </trkpt>
      <trkpt lat="44.80282" lon="4.61179">
        <ele>227</ele>
        <time>2015-04-02T07:25:50Z</time>
      </trkpt>
      <trkpt lat="44.80279" lon="4.61166">
        <ele>241</ele>
        <time>2015-04-02T07:28:15Z</time>
      </trkpt>
      <trkpt lat="44.80275" lon="4.6116">
        <ele>241</ele>
        <time>2015-04-02T07:28:19Z</time>
      </trkpt>
      <trkpt lat="44.80272" lon="4.61153">
        <ele>241</ele>
        <time>2015-04-02T07:28:23Z</time>
      </trkpt>
      <trkpt lat="44.8027" lon="4.61147">
        <ele>242</ele>
        <time>2015-04-02T07:28:27Z</time>
      </trkpt>
      <trkpt lat="44.80273" lon="4.6114">
        <ele>244</ele>
        <time>2015-04-02T07:28:33Z</time>
      </trkpt>
      <trkpt lat="44.80279" lon="4.61139">
        <ele>244</ele>
        <time>2015-04-02T07:28:37Z</time>
      </trkpt>
      <trkpt lat="44.8028" lon="4.61145">
        <ele>243</ele>
        <time>2015-04-02T07:28:43Z</time>
      </trkpt>
      <trkpt lat="44.80283" lon="4.6114">
        <ele>244</ele>
        <time>2015-04-02T07:28:50Z</time>
      </trkpt>
      <trkpt lat="44.80286" lon="4.61136">
        <ele>245</ele>
        <time>2015-04-02T07:28:55Z</time>
      </trkpt>
      <trkpt lat="44.80282" lon="4.61132">
        <ele>246</ele>
        <time>2015-04-02T07:29:00Z</time>
      </trkpt>
      <trkpt lat="44.80278" lon="4.61129">
        <ele>246</ele>
        <time>2015-04-02T07:29:05Z</time>
      </trkpt>
      <trkpt lat="44.80273" lon="4.61125">
        <ele>247</ele>
        <time>2015-04-02T07:29:11Z</time>
      </trkpt>
      <trkpt lat="44.8027" lon="4.6112">
        <ele>248</ele>
        <time>2015-04-02T07:29:15Z</time>
      </trkpt>
      <trkpt lat="44.80274" lon="4.61117">
        <ele>248</ele>
        <time>2015-04-02T07:29:26Z</time>
      </trkpt>
      <trkpt lat="44.80278" lon="4.6112">
        <ele>248</ele>
        <time>2015-04-02T07:29:31Z</time>
      </trkpt>
      <trkpt lat="44.80278" lon="4.61114">
        <ele>249</ele>
        <time>2015-04-02T07:29:49Z</time>
      </trkpt>
      <trkpt lat="44.80274" lon="4.61111">
        <ele>250</ele>
        <time>2015-04-02T07:29:55Z</time>
      </trkpt>
      <trkpt lat="44.80271" lon="4.61105">
        <ele>251</ele>
        <time>2015-04-02T07:30:02Z</time>
      </trkpt>
      <trkpt lat="44.80269" lon="4.61098">
        <ele>253</ele>
        <time>2015-04-02T07:30:07Z</time>
      </trkpt>
      <trkpt lat="44.80266" lon="4.61092">
        <ele>254</ele>
        <time>2015-04-02T07:30:11Z</time>
      </trkpt>
      <trkpt lat="44.80263" lon="4.61084">
        <ele>256</ele>
        <time>2015-04-02T07:30:14Z</time>
      </trkpt>
      <trkpt lat="44.80266" lon="4.61079">
        <ele>269</ele>
        <time>2015-04-02T07:30:24Z</time>
      </trkpt>
      <trkpt lat="44.80267" lon="4.61072">
        <ele>270</ele>
        <time>2015-04-02T07:30:31Z</time>
      </trkpt>
      <trkpt lat="44.80265" lon="4.61066">
        <ele>271</ele>
        <time>2015-04-02T07:30:35Z</time>
      </trkpt>
      <trkpt lat="44.80262" lon="4.6106">
        <ele>273</ele>
        <time>2015-04-02T07:30:40Z</time>
      </trkpt>
      <trkpt lat="44.80265" lon="4.61066">
        <ele>271</ele>
        <time>2015-04-02T07:30:54Z</time>
      </trkpt>
      <trkpt lat="44.8027" lon="4.61066">
        <ele>272</ele>
        <time>2015-04-02T07:30:59Z</time>
      </trkpt>
      <trkpt lat="44.80274" lon="4.61068">
        <ele>272</ele>
        <time>2015-04-02T07:31:04Z</time>
      </trkpt>
      <trkpt lat="44.80277" lon="4.61072">
        <ele>272</ele>
        <time>2015-04-02T07:31:10Z</time>
      </trkpt>
      <trkpt lat="44.80277" lon="4.61074">
        <ele>272</ele>
        <time>2015-04-02T07:31:37Z</time>
      </trkpt>
      <trkpt lat="44.80279" lon="4.61066">
        <ele>273</ele>
        <time>2015-04-02T07:31:48Z</time>
      </trkpt>
      <trkpt lat="44.80284" lon="4.61062">
        <ele>274</ele>
        <time>2015-04-02T07:31:54Z</time>
      </trkpt>
      <trkpt lat="44.80289" lon="4.61059">
        <ele>275</ele>
        <time>2015-04-02T07:31:59Z</time>
      </trkpt>
      <trkpt lat="44.80291" lon="4.61053">
        <ele>276</ele>
        <time>2015-04-02T07:32:04Z</time>
      </trkpt>
      <trkpt lat="44.80288" lon="4.61048">
        <ele>277</ele>
        <time>2015-04-02T07:32:10Z</time>
      </trkpt>
      <trkpt lat="44.80285" lon="4.61043">
        <ele>278</ele>
        <time>2015-04-02T07:32:19Z</time>
      </trkpt>
      <trkpt lat="44.8028" lon="4.61043">
        <ele>277</ele>
        <time>2015-04-02T07:32:26Z</time>
      </trkpt>
      <trkpt lat="44.80269" lon="4.61036">
        <ele>279</ele>
        <time>2015-04-02T07:32:40Z</time>
      </trkpt>
      <trkpt lat="44.80266" lon="4.61032">
        <ele>280</ele>
        <time>2015-04-02T07:32:44Z</time>
      </trkpt>
      <trkpt lat="44.8026" lon="4.61029">
        <ele>281</ele>
        <time>2015-04-02T07:32:48Z</time>
      </trkpt>
      <trkpt lat="44.80257" lon="4.61025">
        <ele>282</ele>
        <time>2015-04-02T07:32:53Z</time>
      </trkpt>
      <trkpt lat="44.80254" lon="4.61019">
        <ele>284</ele>
        <time>2015-04-02T07:32:58Z</time>
      </trkpt>
      <trkpt lat="44.80251" lon="4.61015">
        <ele>285</ele>
        <time>2015-04-02T07:33:02Z</time>
      </trkpt>
      <trkpt lat="44.80248" lon="4.61009">
        <ele>285</ele>
        <time>2015-04-02T07:33:07Z</time>
      </trkpt>
      <trkpt lat="44.80244" lon="4.61005">
        <ele>286</ele>
        <time>2015-04-02T07:33:12Z</time>
      </trkpt>
      <trkpt lat="44.8024" lon="4.61001">
        <ele>284</ele>
        <time>2015-04-02T07:33:17Z</time>
      </trkpt>
      <trkpt lat="44.80238" lon="4.61001">
        <ele>284</ele>
        <time>2015-04-02T07:33:39Z</time>
      </trkpt>
      <trkpt lat="44.80235" lon="4.60998">
        <ele>296</ele>
        <time>2015-04-02T07:33:50Z</time>
      </trkpt>
      <trkpt lat="44.8023" lon="4.60997">
        <ele>296</ele>
        <time>2015-04-02T07:33:53Z</time>
      </trkpt>
      <trkpt lat="44.80224" lon="4.60998">
        <ele>296</ele>
        <time>2015-04-02T07:33:56Z</time>
      </trkpt>
      <trkpt lat="44.80219" lon="4.61001">
        <ele>277</ele>
        <time>2015-04-02T07:33:59Z</time>
      </trkpt>
      <trkpt lat="44.80216" lon="4.60995">
        <ele>296</ele>
        <time>2015-04-02T07:34:03Z</time>
      </trkpt>
      <trkpt lat="44.80212" lon="4.60991">
        <ele>296</ele>
        <time>2015-04-02T07:34:08Z</time>
      </trkpt>
      <trkpt lat="44.80212" lon="4.60983">
        <ele>297</ele>
        <time>2015-04-02T07:34:12Z</time>
      </trkpt>
      <trkpt lat="44.80209" lon="4.60976">
        <ele>298</ele>
        <time>2015-04-02T07:34:17Z</time>
      </trkpt>
      <trkpt lat="44.80207" lon="4.6097">
        <ele>299</ele>
        <time>2015-04-02T07:34:25Z</time>
      </trkpt>
      <trkpt lat="44.80204" lon="4.60965">
        <ele>300</ele>
        <time>2015-04-02T07:34:29Z</time>
      </trkpt>
      <trkpt lat="44.80205" lon="4.60958">
        <ele>301</ele>
        <time>2015-04-02T07:34:39Z</time>
      </trkpt>
      <trkpt lat="44.80201" lon="4.60957">
        <ele>301</ele>
        <time>2015-04-02T07:34:53Z</time>
      </trkpt>
      <trkpt lat="44.802" lon="4.60957">
        <ele>301</ele>
        <time>2015-04-02T07:35:08Z</time>
      </trkpt>
      <trkpt lat="44.802" lon="4.60957">
        <ele>301</ele>
        <time>2015-04-02T07:35:09Z</time>
      </trkpt>
      <trkpt lat="44.80197" lon="4.60953">
        <ele>302</ele>
        <time>2015-04-02T07:35:14Z</time>
      </trkpt>
      <trkpt lat="44.80193" lon="4.60945">
        <ele>303</ele>
        <time>2015-04-02T07:35:17Z</time>
      </trkpt>
      <trkpt lat="44.80189" lon="4.6094">
        <ele>304</ele>
        <time>2015-04-02T07:35:20Z</time>
      </trkpt>
      <trkpt lat="44.80186" lon="4.60936">
        <ele>305</ele>
        <time>2015-04-02T07:35:24Z</time>
      </trkpt>
      <trkpt lat="44.8018" lon="4.60936">
        <ele>306</ele>
        <time>2015-04-02T07:35:27Z</time>
      </trkpt>
      <trkpt lat="44.80175" lon="4.60935">
        <ele>306</ele>
        <time>2015-04-02T07:35:30Z</time>
      </trkpt>
      <trkpt lat="44.8017" lon="4.60935">
        <ele>306</ele>
        <time>2015-04-02T07:35:34Z</time>
      </trkpt>
      <trkpt lat="44.80165" lon="4.60932">
        <ele>300</ele>
        <time>2015-04-02T07:35:41Z</time>
      </trkpt>
      <trkpt lat="44.80161" lon="4.60926">
        <ele>303</ele>
        <time>2015-04-02T07:35:45Z</time>
      </trkpt>
      <trkpt lat="44.80157" lon="4.60921">
        <ele>304</ele>
        <time>2015-04-02T07:35:50Z</time>
      </trkpt>
      <trkpt lat="44.80154" lon="4.60915">
        <ele>313</ele>
        <time>2015-04-02T07:35:55Z</time>
      </trkpt>
      <trkpt lat="44.80151" lon="4.60909">
        <ele>313</ele>
        <time>2015-04-02T07:36:01Z</time>
      </trkpt>
      <trkpt lat="44.80151" lon="4.60902">
        <ele>314</ele>
        <time>2015-04-02T07:36:10Z</time>
      </trkpt>
      <trkpt lat="44.80149" lon="4.60895">
        <ele>314</ele>
        <time>2015-04-02T07:36:14Z</time>
      </trkpt>
      <trkpt lat="44.80144" lon="4.60894">
        <ele>314</ele>
        <time>2015-04-02T07:36:20Z</time>
      </trkpt>
      <trkpt lat="44.8014" lon="4.6089">
        <ele>314</ele>
        <time>2015-04-02T07:36:26Z</time>
      </trkpt>
      <trkpt lat="44.80138" lon="4.60884">
        <ele>315</ele>
        <time>2015-04-02T07:36:30Z</time>
      </trkpt>
      <trkpt lat="44.80134" lon="4.6088">
        <ele>315</ele>
        <time>2015-04-02T07:36:35Z</time>
      </trkpt>
      <trkpt lat="44.8013" lon="4.60876">
        <ele>315</ele>
        <time>2015-04-02T07:36:39Z</time>
      </trkpt>
      <trkpt lat="44.80128" lon="4.6087">
        <ele>316</ele>
        <time>2015-04-02T07:36:46Z</time>
      </trkpt>
      <trkpt lat="44.80125" lon="4.60865">
        <ele>316</ele>
        <time>2015-04-02T07:36:54Z</time>
      </trkpt>
      <trkpt lat="44.80121" lon="4.60861">
        <ele>316</ele>
        <time>2015-04-02T07:37:03Z</time>
      </trkpt>
      <trkpt lat="44.80117" lon="4.60857">
        <ele>316</ele>
        <time>2015-04-02T07:37:08Z</time>
      </trkpt>
      <trkpt lat="44.80117" lon="4.60849">
        <ele>316</ele>
        <time>2015-04-02T07:37:20Z</time>
      </trkpt>
      <trkpt lat="44.80115" lon="4.60843">
        <ele>317</ele>
        <time>2015-04-02T07:37:32Z</time>
      </trkpt>
      <trkpt lat="44.80113" lon="4.60837">
        <ele>317</ele>
        <time>2015-04-02T07:37:37Z</time>
      </trkpt>
      <trkpt lat="44.80112" lon="4.6083">
        <ele>330</ele>
        <time>2015-04-02T07:37:43Z</time>
      </trkpt>
      <trkpt lat="44.80111" lon="4.60823">
        <ele>330</ele>
        <time>2015-04-02T07:37:48Z</time>
      </trkpt>
      <trkpt lat="44.80112" lon="4.60823">
        <ele>330</ele>
        <time>2015-04-02T07:38:08Z</time>
      </trkpt>
      <trkpt lat="44.80112" lon="4.60823">
        <ele>330</ele>
        <time>2015-04-02T07:38:23Z</time>
      </trkpt>
      <trkpt lat="44.80111" lon="4.60816">
        <ele>331</ele>
        <time>2015-04-02T07:38:32Z</time>
      </trkpt>
      <trkpt lat="44.80109" lon="4.6081">
        <ele>332</ele>
        <time>2015-04-02T07:38:36Z</time>
      </trkpt>
      <trkpt lat="44.80108" lon="4.60804">
        <ele>333</ele>
        <time>2015-04-02T07:38:40Z</time>
      </trkpt>
      <trkpt lat="44.80108" lon="4.60797">
        <ele>334</ele>
        <time>2015-04-02T07:38:44Z</time>
      </trkpt>
      <trkpt lat="44.80106" lon="4.60791">
        <ele>335</ele>
        <time>2015-04-02T07:38:51Z</time>
      </trkpt>
      <trkpt lat="44.80104" lon="4.60784">
        <ele>336</ele>
        <time>2015-04-02T07:38:56Z</time>
      </trkpt>
      <trkpt lat="44.80101" lon="4.60779">
        <ele>336</ele>
        <time>2015-04-02T07:39:01Z</time>
      </trkpt>
      <trkpt lat="44.80098" lon="4.60773">
        <ele>336</ele>
        <time>2015-04-02T07:39:06Z</time>
      </trkpt>
      <trkpt lat="44.80095" lon="4.60768">
        <ele>337</ele>
        <time>2015-04-02T07:39:13Z</time>
      </trkpt>
      <trkpt lat="44.80091" lon="4.60765">
        <ele>337</ele>
        <time>2015-04-02T07:39:17Z</time>
      </trkpt>
      <trkpt lat="44.80087" lon="4.60759">
        <ele>337</ele>
        <time>2015-04-02T07:39:22Z</time>
      </trkpt>
      <trkpt lat="44.80085" lon="4.60752">
        <ele>337</ele>
        <time>2015-04-02T07:39:27Z</time>
      </trkpt>
      <trkpt lat="44.8008" lon="4.60749">
        <ele>338</ele>
        <time>2015-04-02T07:39:32Z</time>
      </trkpt>
      <trkpt lat="44.80076" lon="4.60749">
        <ele>339</ele>
        <time>2015-04-02T07:39:36Z</time>
      </trkpt>
      <trkpt lat="44.80071" lon="4.60746">
        <ele>341</ele>
        <time>2015-04-02T07:39:41Z</time>
      </trkpt>
      <trkpt lat="44.80064" lon="4.60742">
        <ele>342</ele>
        <time>2015-04-02T07:39:47Z</time>
      </trkpt>
      <trkpt lat="44.8006" lon="4.60739">
        <ele>342</ele>
        <time>2015-04-02T07:39:53Z</time>
      </trkpt>
      <trkpt lat="44.80055" lon="4.60739">
        <ele>342</ele>
        <time>2015-04-02T07:39:59Z</time>
      </trkpt>
      <trkpt lat="44.80052" lon="4.60734">
        <ele>343</ele>
        <time>2015-04-02T07:40:06Z</time>
      </trkpt>
      <trkpt lat="44.80047" lon="4.60733">
        <ele>342</ele>
        <time>2015-04-02T07:40:13Z</time>
      </trkpt>
      <trkpt lat="44.80042" lon="4.60731">
        <ele>342</ele>
        <time>2015-04-02T07:40:17Z</time>
      </trkpt>
      <trkpt lat="44.80039" lon="4.60726">
        <ele>343</ele>
        <time>2015-04-02T07:40:22Z</time>
      </trkpt>
      <trkpt lat="44.80036" lon="4.60728">
        <ele>342</ele>
        <time>2015-04-02T07:40:40Z</time>
      </trkpt>
      <trkpt lat="44.80036" lon="4.60727">
        <ele>342</ele>
        <time>2015-04-02T07:40:56Z</time>
      </trkpt>
      <trkpt lat="44.80038" lon="4.6072">
        <ele>344</ele>
        <time>2015-04-02T07:41:09Z</time>
      </trkpt>
      <trkpt lat="44.80038" lon="4.60719">
        <ele>344</ele>
        <time>2015-04-02T07:41:26Z</time>
      </trkpt>
      <trkpt lat="44.80038" lon="4.60719">
        <ele>344</ele>
        <time>2015-04-02T07:41:41Z</time>
      </trkpt>
      <trkpt lat="44.80038" lon="4.60719">
        <ele>344</ele>
        <time>2015-04-02T07:41:56Z</time>
      </trkpt>
      <trkpt lat="44.80034" lon="4.60715">
        <ele>344</ele>
        <time>2015-04-02T07:44:17Z</time>
      </trkpt>
      <trkpt lat="44.80029" lon="4.60713">
        <ele>344</ele>
        <time>2015-04-02T07:44:20Z</time>
      </trkpt>
      <trkpt lat="44.80027" lon="4.60712">
        <ele>345</ele>
        <time>2015-04-02T07:44:41Z</time>
      </trkpt>
      <trkpt lat="44.80027" lon="4.60712">
        <ele>344</ele>
        <time>2015-04-02T07:44:57Z</time>
      </trkpt>
      <trkpt lat="44.80027" lon="4.60712">
        <ele>344</ele>
        <time>2015-04-02T07:45:12Z</time>
      </trkpt>
      <trkpt lat="44.80028" lon="4.60709">
        <ele>345</ele>
        <time>2015-04-02T07:45:27Z</time>
      </trkpt>
      <trkpt lat="44.80029" lon="4.60709">
        <ele>345</ele>
        <time>2015-04-02T07:45:42Z</time>
      </trkpt>
      <trkpt lat="44.80028" lon="4.60709">
        <ele>345</ele>
        <time>2015-04-02T07:45:57Z</time>
      </trkpt>
      <trkpt lat="44.80028" lon="4.60709">
        <ele>345</ele>
        <time>2015-04-02T07:46:13Z</time>
      </trkpt>
      <trkpt lat="44.80006" lon="4.60693">
        <ele>348</ele>
        <time>2015-04-02T07:47:14Z</time>
      </trkpt>
      <trkpt lat="44.80003" lon="4.60686">
        <ele>349</ele>
        <time>2015-04-02T07:47:19Z</time>
      </trkpt>
      <trkpt lat="44.80001" lon="4.6068">
        <ele>351</ele>
        <time>2015-04-02T07:47:24Z</time>
      </trkpt>
      <trkpt lat="44.79998" lon="4.60675">
        <ele>348</ele>
        <time>2015-04-02T07:47:28Z</time>
      </trkpt>
      <trkpt lat="44.79993" lon="4.60671">
        <ele>349</ele>
        <time>2015-04-02T07:47:36Z</time>
      </trkpt>
      <trkpt lat="44.7999" lon="4.60664">
        <ele>356</ele>
        <time>2015-04-02T07:47:39Z</time>
      </trkpt>
      <trkpt lat="44.79986" lon="4.60659">
        <ele>356</ele>
        <time>2015-04-02T07:47:43Z</time>
      </trkpt>
      <trkpt lat="44.79981" lon="4.60655">
        <ele>356</ele>
        <time>2015-04-02T07:47:47Z</time>
      </trkpt>
      <trkpt lat="44.79977" lon="4.60652">
        <ele>356</ele>
        <time>2015-04-02T07:47:51Z</time>
      </trkpt>
      <trkpt lat="44.79973" lon="4.60648">
        <ele>356</ele>
        <time>2015-04-02T07:47:55Z</time>
      </trkpt>
      <trkpt lat="44.79968" lon="4.60645">
        <ele>356</ele>
        <time>2015-04-02T07:47:59Z</time>
      </trkpt>
      <trkpt lat="44.79963" lon="4.60643">
        <ele>356</ele>
        <time>2015-04-02T07:48:04Z</time>
      </trkpt>
      <trkpt lat="44.79958" lon="4.60639">
        <ele>355</ele>
        <time>2015-04-02T07:48:09Z</time>
      </trkpt>
      <trkpt lat="44.79954" lon="4.60635">
        <ele>356</ele>
        <time>2015-04-02T07:48:14Z</time>
      </trkpt>
      <trkpt lat="44.7995" lon="4.60633">
        <ele>355</ele>
        <time>2015-04-02T07:48:19Z</time>
      </trkpt>
      <trkpt lat="44.79946" lon="4.60629">
        <ele>355</ele>
        <time>2015-04-02T07:48:25Z</time>
      </trkpt>
      <trkpt lat="44.79941" lon="4.60626">
        <ele>356</ele>
        <time>2015-04-02T07:48:29Z</time>
      </trkpt>
      <trkpt lat="44.79937" lon="4.60623">
        <ele>356</ele>
        <time>2015-04-02T07:48:33Z</time>
      </trkpt>
      <trkpt lat="44.79933" lon="4.60618">
        <ele>356</ele>
        <time>2015-04-02T07:48:37Z</time>
      </trkpt>
      <trkpt lat="44.79929" lon="4.60615">
        <ele>357</ele>
        <time>2015-04-02T07:48:42Z</time>
      </trkpt>
      <trkpt lat="44.79923" lon="4.60611">
        <ele>357</ele>
        <time>2015-04-02T07:48:46Z</time>
      </trkpt>
      <trkpt lat="44.79922" lon="4.60605">
        <ele>358</ele>
        <time>2015-04-02T07:48:49Z</time>
      </trkpt>
      <trkpt lat="44.79921" lon="4.60598">
        <ele>359</ele>
        <time>2015-04-02T07:48:52Z</time>
      </trkpt>
      <trkpt lat="44.79916" lon="4.60595">
        <ele>355</ele>
        <time>2015-04-02T07:48:56Z</time>
      </trkpt>
      <trkpt lat="44.7991" lon="4.60593">
        <ele>355</ele>
        <time>2015-04-02T07:49:00Z</time>
      </trkpt>
      <trkpt lat="44.79906" lon="4.60589">
        <ele>355</ele>
        <time>2015-04-02T07:49:04Z</time>
      </trkpt>
      <trkpt lat="44.79902" lon="4.60585">
        <ele>354</ele>
        <time>2015-04-02T07:49:10Z</time>
      </trkpt>
      <trkpt lat="44.79897" lon="4.60581">
        <ele>362</ele>
        <time>2015-04-02T07:49:15Z</time>
      </trkpt>
      <trkpt lat="44.79893" lon="4.60579">
        <ele>362</ele>
        <time>2015-04-02T07:49:18Z</time>
      </trkpt>
      <trkpt lat="44.7989" lon="4.60574">
        <ele>363</ele>
        <time>2015-04-02T07:49:21Z</time>
      </trkpt>
      <trkpt lat="44.79886" lon="4.60569">
        <ele>363</ele>
        <time>2015-04-02T07:49:25Z</time>
      </trkpt>
      <trkpt lat="44.79882" lon="4.60563">
        <ele>363</ele>
        <time>2015-04-02T07:49:29Z</time>
      </trkpt>
      <trkpt lat="44.79879" lon="4.60558">
        <ele>363</ele>
        <time>2015-04-02T07:49:35Z</time>
      </trkpt>
      <trkpt lat="44.79874" lon="4.60552">
        <ele>364</ele>
        <time>2015-04-02T07:49:41Z</time>
      </trkpt>
      <trkpt lat="44.79872" lon="4.60546">
        <ele>364</ele>
        <time>2015-04-02T07:49:45Z</time>
      </trkpt>
      <trkpt lat="44.7987" lon="4.6054">
        <ele>365</ele>
        <time>2015-04-02T07:49:51Z</time>
      </trkpt>
      <trkpt lat="44.79866" lon="4.60536">
        <ele>365</ele>
        <time>2015-04-02T07:49:58Z</time>
      </trkpt>
      <trkpt lat="44.79862" lon="4.60531">
        <ele>365</ele>
        <time>2015-04-02T07:50:02Z</time>
      </trkpt>
      <trkpt lat="44.79857" lon="4.60527">
        <ele>365</ele>
        <time>2015-04-02T07:50:06Z</time>
      </trkpt>
      <trkpt lat="44.79853" lon="4.60523">
        <ele>366</ele>
        <time>2015-04-02T07:50:11Z</time>
      </trkpt>
      <trkpt lat="44.79849" lon="4.60523">
        <ele>366</ele>
        <time>2015-04-02T07:50:15Z</time>
      </trkpt>
      <trkpt lat="44.79844" lon="4.60524">
        <ele>366</ele>
        <time>2015-04-02T07:50:19Z</time>
      </trkpt>
      <trkpt lat="44.79839" lon="4.60524">
        <ele>366</ele>
        <time>2015-04-02T07:50:23Z</time>
      </trkpt>
      <trkpt lat="44.79834" lon="4.60523">
        <ele>366</ele>
        <time>2015-04-02T07:50:29Z</time>
      </trkpt>
      <trkpt lat="44.79829" lon="4.60519">
        <ele>365</ele>
        <time>2015-04-02T07:50:35Z</time>
      </trkpt>
      <trkpt lat="44.79826" lon="4.60515">
        <ele>365</ele>
        <time>2015-04-02T07:50:38Z</time>
      </trkpt>
      <trkpt lat="44.79821" lon="4.60511">
        <ele>365</ele>
        <time>2015-04-02T07:50:41Z</time>
      </trkpt>
      <trkpt lat="44.79817" lon="4.60507">
        <ele>365</ele>
        <time>2015-04-02T07:50:45Z</time>
      </trkpt>
      <trkpt lat="44.79813" lon="4.60503">
        <ele>365</ele>
        <time>2015-04-02T07:50:50Z</time>
      </trkpt>
      <trkpt lat="44.7981" lon="4.60499">
        <ele>372</ele>
        <time>2015-04-02T07:50:59Z</time>
      </trkpt>
      <trkpt lat="44.79805" lon="4.60498">
        <ele>372</ele>
        <time>2015-04-02T07:51:03Z</time>
      </trkpt>
      <trkpt lat="44.798" lon="4.60495">
        <ele>372</ele>
        <time>2015-04-02T07:51:07Z</time>
      </trkpt>
      <trkpt lat="44.79796" lon="4.60493">
        <ele>372</ele>
        <time>2015-04-02T07:51:13Z</time>
      </trkpt>
      <trkpt lat="44.7979" lon="4.60492">
        <ele>372</ele>
        <time>2015-04-02T07:51:17Z</time>
      </trkpt>
      <trkpt lat="44.79785" lon="4.60492">
        <ele>372</ele>
        <time>2015-04-02T07:51:20Z</time>
      </trkpt>
      <trkpt lat="44.7978" lon="4.60492">
        <ele>372</ele>
        <time>2015-04-02T07:51:23Z</time>
      </trkpt>
      <trkpt lat="44.79776" lon="4.60489">
        <ele>372</ele>
        <time>2015-04-02T07:51:27Z</time>
      </trkpt>
      <trkpt lat="44.79771" lon="4.60489">
        <ele>371</ele>
        <time>2015-04-02T07:51:32Z</time>
      </trkpt>
      <trkpt lat="44.79766" lon="4.60491">
        <ele>371</ele>
        <time>2015-04-02T07:51:36Z</time>
      </trkpt>
      <trkpt lat="44.79761" lon="4.60493">
        <ele>371</ele>
        <time>2015-04-02T07:51:40Z</time>
      </trkpt>
      <trkpt lat="44.79755" lon="4.60494">
        <ele>370</ele>
        <time>2015-04-02T07:51:44Z</time>
      </trkpt>
      <trkpt lat="44.79751" lon="4.60496">
        <ele>370</ele>
        <time>2015-04-02T07:51:48Z</time>
      </trkpt>
      <trkpt lat="44.79746" lon="4.60497">
        <ele>370</ele>
        <time>2015-04-02T07:51:52Z</time>
      </trkpt>
      <trkpt lat="44.7974" lon="4.60496">
        <ele>371</ele>
        <time>2015-04-02T07:51:56Z</time>
      </trkpt>
      <trkpt lat="44.79735" lon="4.60495">
        <ele>371</ele>
        <time>2015-04-02T07:52:00Z</time>
      </trkpt>
      <trkpt lat="44.7973" lon="4.60495">
        <ele>372</ele>
        <time>2015-04-02T07:52:04Z</time>
      </trkpt>
      <trkpt lat="44.79725" lon="4.60495">
        <ele>372</ele>
        <time>2015-04-02T07:52:08Z</time>
      </trkpt>
      <trkpt lat="44.7972" lon="4.60494">
        <ele>372</ele>
        <time>2015-04-02T07:52:12Z</time>
      </trkpt>
      <trkpt lat="44.79715" lon="4.60494">
        <ele>373</ele>
        <time>2015-04-02T07:52:16Z</time>
      </trkpt>
      <trkpt lat="44.7971" lon="4.60494">
        <ele>373</ele>
        <time>2015-04-02T07:52:21Z</time>
      </trkpt>
      <trkpt lat="44.79705" lon="4.60495">
        <ele>373</ele>
        <time>2015-04-02T07:52:26Z</time>
      </trkpt>
      <trkpt lat="44.79699" lon="4.60495">
        <ele>373</ele>
        <time>2015-04-02T07:52:31Z</time>
      </trkpt>
      <trkpt lat="44.79695" lon="4.60492">
        <ele>373</ele>
        <time>2015-04-02T07:52:42Z</time>
      </trkpt>
      <trkpt lat="44.79691" lon="4.60488">
        <ele>373</ele>
        <time>2015-04-02T07:52:48Z</time>
      </trkpt>
      <trkpt lat="44.79688" lon="4.60486">
        <ele>373</ele>
        <time>2015-04-02T07:53:14Z</time>
      </trkpt>
      <trkpt lat="44.79686" lon="4.60486">
        <ele>373</ele>
        <time>2015-04-02T07:53:25Z</time>
      </trkpt>
      <trkpt lat="44.79683" lon="4.60479">
        <ele>374</ele>
        <time>2015-04-02T07:53:39Z</time>
      </trkpt>
      <trkpt lat="44.79681" lon="4.60473">
        <ele>374</ele>
        <time>2015-04-02T07:53:42Z</time>
      </trkpt>
      <trkpt lat="44.79679" lon="4.60466">
        <ele>374</ele>
        <time>2015-04-02T07:53:45Z</time>
      </trkpt>
      <trkpt lat="44.79679" lon="4.6046">
        <ele>374</ele>
        <time>2015-04-02T07:53:53Z</time>
      </trkpt>
      <trkpt lat="44.79681" lon="4.60454">
        <ele>374</ele>
        <time>2015-04-02T07:53:58Z</time>
      </trkpt>
      <trkpt lat="44.79683" lon="4.60447">
        <ele>375</ele>
        <time>2015-04-02T07:54:03Z</time>
      </trkpt>
      <trkpt lat="44.79684" lon="4.6044">
        <ele>375</ele>
        <time>2015-04-02T07:54:07Z</time>
      </trkpt>
      <trkpt lat="44.79686" lon="4.60433">
        <ele>375</ele>
        <time>2015-04-02T07:54:13Z</time>
      </trkpt>
      <trkpt lat="44.79686" lon="4.60427">
        <ele>376</ele>
        <time>2015-04-02T07:54:20Z</time>
      </trkpt>
      <trkpt lat="44.79688" lon="4.6042">
        <ele>376</ele>
        <time>2015-04-02T07:54:25Z</time>
      </trkpt>
      <trkpt lat="44.79689" lon="4.60414">
        <ele>379</ele>
        <time>2015-04-02T07:54:29Z</time>
      </trkpt>
      <trkpt lat="44.79692" lon="4.60409">
        <ele>379</ele>
        <time>2015-04-02T07:54:34Z</time>
      </trkpt>
      <trkpt lat="44.79696" lon="4.60403">
        <ele>380</ele>
        <time>2015-04-02T07:54:39Z</time>
      </trkpt>
      <trkpt lat="44.79696" lon="4.60397">
        <ele>380</ele>
        <time>2015-04-02T07:54:44Z</time>
      </trkpt>
      <trkpt lat="44.79696" lon="4.6039">
        <ele>380</ele>
        <time>2015-04-02T07:54:49Z</time>
      </trkpt>
      <trkpt lat="44.79699" lon="4.60384">
        <ele>380</ele>
        <time>2015-04-02T07:55:00Z</time>
      </trkpt>
      <trkpt lat="44.797" lon="4.60377">
        <ele>381</ele>
        <time>2015-04-02T07:55:04Z</time>
      </trkpt>
      <trkpt lat="44.79702" lon="4.60369">
        <ele>381</ele>
        <time>2015-04-02T07:55:08Z</time>
      </trkpt>
      <trkpt lat="44.79702" lon="4.60362">
        <ele>381</ele>
        <time>2015-04-02T07:55:11Z</time>
      </trkpt>
      <trkpt lat="44.79702" lon="4.60353">
        <ele>382</ele>
        <time>2015-04-02T07:55:15Z</time>
      </trkpt>
      <trkpt lat="44.79702" lon="4.60347">
        <ele>382</ele>
        <time>2015-04-02T07:55:19Z</time>
      </trkpt>
      <trkpt lat="44.79702" lon="4.60338">
        <ele>382</ele>
        <time>2015-04-02T07:55:24Z</time>
      </trkpt>
      <trkpt lat="44.79702" lon="4.60331">
        <ele>387</ele>
        <time>2015-04-02T07:55:28Z</time>
      </trkpt>
      <trkpt lat="44.79703" lon="4.60324">
        <ele>388</ele>
        <time>2015-04-02T07:55:32Z</time>
      </trkpt>
      <trkpt lat="44.79705" lon="4.60317">
        <ele>388</ele>
        <time>2015-04-02T07:55:36Z</time>
      </trkpt>
      <trkpt lat="44.79709" lon="4.60312">
        <ele>388</ele>
        <time>2015-04-02T07:55:40Z</time>
      </trkpt>
      <trkpt lat="44.79712" lon="4.60308">
        <ele>388</ele>
        <time>2015-04-02T07:55:44Z</time>
      </trkpt>
      <trkpt lat="44.79715" lon="4.60302">
        <ele>388</ele>
        <time>2015-04-02T07:55:50Z</time>
      </trkpt>
      <trkpt lat="44.79718" lon="4.60296">
        <ele>389</ele>
        <time>2015-04-02T07:55:55Z</time>
      </trkpt>
      <trkpt lat="44.7972" lon="4.6029">
        <ele>389</ele>
        <time>2015-04-02T07:56:06Z</time>
      </trkpt>
      <trkpt lat="44.79724" lon="4.60286">
        <ele>389</ele>
        <time>2015-04-02T07:56:10Z</time>
      </trkpt>
      <trkpt lat="44.79727" lon="4.6028">
        <ele>389</ele>
        <time>2015-04-02T07:56:15Z</time>
      </trkpt>
      <trkpt lat="44.79731" lon="4.60276">
        <ele>390</ele>
        <time>2015-04-02T07:56:20Z</time>
      </trkpt>
      <trkpt lat="44.79735" lon="4.60271">
        <ele>390</ele>
        <time>2015-04-02T07:56:26Z</time>
      </trkpt>
      <trkpt lat="44.79739" lon="4.60266">
        <ele>390</ele>
        <time>2015-04-02T07:56:31Z</time>
      </trkpt>
      <trkpt lat="44.79741" lon="4.6026">
        <ele>391</ele>
        <time>2015-04-02T07:56:36Z</time>
      </trkpt>
      <trkpt lat="44.79741" lon="4.60254">
        <ele>391</ele>
        <time>2015-04-02T07:56:42Z</time>
      </trkpt>
      <trkpt lat="44.79739" lon="4.60247">
        <ele>393</ele>
        <time>2015-04-02T07:56:46Z</time>
      </trkpt>
      <trkpt lat="44.79736" lon="4.6024">
        <ele>394</ele>
        <time>2015-04-02T07:56:50Z</time>
      </trkpt>
      <trkpt lat="44.79733" lon="4.60234">
        <ele>394</ele>
        <time>2015-04-02T07:56:54Z</time>
      </trkpt>
      <trkpt lat="44.7973" lon="4.60227">
        <ele>395</ele>
        <time>2015-04-02T07:56:58Z</time>
      </trkpt>
      <trkpt lat="44.79728" lon="4.60221">
        <ele>395</ele>
        <time>2015-04-02T07:57:02Z</time>
      </trkpt>
      <trkpt lat="44.79725" lon="4.60213">
        <ele>395</ele>
        <time>2015-04-02T07:57:07Z</time>
      </trkpt>
      <trkpt lat="44.79723" lon="4.60206">
        <ele>395</ele>
        <time>2015-04-02T07:57:13Z</time>
      </trkpt>
      <trkpt lat="44.79722" lon="4.60199">
        <ele>396</ele>
        <time>2015-04-02T07:57:17Z</time>
      </trkpt>
      <trkpt lat="44.79722" lon="4.60192">
        <ele>396</ele>
        <time>2015-04-02T07:57:21Z</time>
      </trkpt>
      <trkpt lat="44.79721" lon="4.60185">
        <ele>396</ele>
        <time>2015-04-02T07:57:25Z</time>
      </trkpt>
      <trkpt lat="44.79721" lon="4.60178">
        <ele>396</ele>
        <time>2015-04-02T07:57:32Z</time>
      </trkpt>
      <trkpt lat="44.7972" lon="4.60172">
        <ele>396</ele>
        <time>2015-04-02T07:57:37Z</time>
      </trkpt>
      <trkpt lat="44.79718" lon="4.60165">
        <ele>401</ele>
        <time>2015-04-02T07:57:43Z</time>
      </trkpt>
      <trkpt lat="44.79715" lon="4.60161">
        <ele>401</ele>
        <time>2015-04-02T07:57:50Z</time>
      </trkpt>
      <trkpt lat="44.7971" lon="4.60158">
        <ele>401</ele>
        <time>2015-04-02T07:57:54Z</time>
      </trkpt>
      <trkpt lat="44.79706" lon="4.60156">
        <ele>402</ele>
        <time>2015-04-02T07:57:58Z</time>
      </trkpt>
      <trkpt lat="44.79701" lon="4.60154">
        <ele>402</ele>
        <time>2015-04-02T07:58:03Z</time>
      </trkpt>
      <trkpt lat="44.79696" lon="4.60153">
        <ele>402</ele>
        <time>2015-04-02T07:58:08Z</time>
      </trkpt>
      <trkpt lat="44.79692" lon="4.60151">
        <ele>402</ele>
        <time>2015-04-02T07:58:12Z</time>
      </trkpt>
      <trkpt lat="44.79687" lon="4.60148">
        <ele>403</ele>
        <time>2015-04-02T07:58:16Z</time>
      </trkpt>
      <trkpt lat="44.79682" lon="4.60145">
        <ele>403</ele>
        <time>2015-04-02T07:58:20Z</time>
      </trkpt>
      <trkpt lat="44.79678" lon="4.60142">
        <ele>403</ele>
        <time>2015-04-02T07:58:25Z</time>
      </trkpt>
      <trkpt lat="44.79674" lon="4.60136">
        <ele>403</ele>
        <time>2015-04-02T07:58:31Z</time>
      </trkpt>
      <trkpt lat="44.79672" lon="4.60129">
        <ele>404</ele>
        <time>2015-04-02T07:58:36Z</time>
      </trkpt>
      <trkpt lat="44.79671" lon="4.60123">
        <ele>404</ele>
        <time>2015-04-02T07:58:40Z</time>
      </trkpt>
      <trkpt lat="44.7967" lon="4.60116">
        <ele>405</ele>
        <time>2015-04-02T07:58:44Z</time>
      </trkpt>
      <trkpt lat="44.79669" lon="4.60109">
        <ele>406</ele>
        <time>2015-04-02T07:58:48Z</time>
      </trkpt>
      <trkpt lat="44.79669" lon="4.60102">
        <ele>407</ele>
        <time>2015-04-02T07:58:52Z</time>
      </trkpt>
      <trkpt lat="44.7967" lon="4.60096">
        <ele>408</ele>
        <time>2015-04-02T07:58:58Z</time>
      </trkpt>
      <trkpt lat="44.79673" lon="4.6009">
        <ele>409</ele>
        <time>2015-04-02T07:59:06Z</time>
      </trkpt>
      <trkpt lat="44.79675" lon="4.60083">
        <ele>409</ele>
        <time>2015-04-02T07:59:12Z</time>
      </trkpt>
      <trkpt lat="44.79676" lon="4.60077">
        <ele>411</ele>
        <time>2015-04-02T07:59:19Z</time>
      </trkpt>
      <trkpt lat="44.79674" lon="4.60071">
        <ele>411</ele>
        <time>2015-04-02T07:59:24Z</time>
      </trkpt>
      <trkpt lat="44.79671" lon="4.60066">
        <ele>412</ele>
        <time>2015-04-02T07:59:29Z</time>
      </trkpt>
      <trkpt lat="44.79666" lon="4.60064">
        <ele>414</ele>
        <time>2015-04-02T07:59:36Z</time>
      </trkpt>
      <trkpt lat="44.79661" lon="4.60062">
        <ele>414</ele>
        <time>2015-04-02T07:59:41Z</time>
      </trkpt>
      <trkpt lat="44.79657" lon="4.60062">
        <ele>415</ele>
        <time>2015-04-02T07:59:45Z</time>
      </trkpt>
      <trkpt lat="44.79651" lon="4.60063">
        <ele>415</ele>
        <time>2015-04-02T07:59:49Z</time>
      </trkpt>
      <trkpt lat="44.79647" lon="4.60064">
        <ele>415</ele>
        <time>2015-04-02T07:59:53Z</time>
      </trkpt>
      <trkpt lat="44.79642" lon="4.60064">
        <ele>415</ele>
        <time>2015-04-02T07:59:57Z</time>
      </trkpt>
      <trkpt lat="44.79638" lon="4.60066">
        <ele>415</ele>
        <time>2015-04-02T08:00:00Z</time>
      </trkpt>
      <trkpt lat="44.79633" lon="4.60066">
        <ele>416</ele>
        <time>2015-04-02T08:00:04Z</time>
      </trkpt>
      <trkpt lat="44.79627" lon="4.60065">
        <ele>416</ele>
        <time>2015-04-02T08:00:09Z</time>
      </trkpt>
      <trkpt lat="44.79622" lon="4.60067">
        <ele>416</ele>
        <time>2015-04-02T08:00:13Z</time>
      </trkpt>
      <trkpt lat="44.79617" lon="4.60066">
        <ele>416</ele>
        <time>2015-04-02T08:00:17Z</time>
      </trkpt>
      <trkpt lat="44.79612" lon="4.60066">
        <ele>417</ele>
        <time>2015-04-02T08:00:22Z</time>
      </trkpt>
      <trkpt lat="44.79608" lon="4.60067">
        <ele>417</ele>
        <time>2015-04-02T08:00:26Z</time>
      </trkpt>
      <trkpt lat="44.79603" lon="4.60067">
        <ele>417</ele>
        <time>2015-04-02T08:00:30Z</time>
      </trkpt>
      <trkpt lat="44.79599" lon="4.60067">
        <ele>417</ele>
        <time>2015-04-02T08:00:34Z</time>
      </trkpt>
      <trkpt lat="44.79594" lon="4.60068">
        <ele>417</ele>
        <time>2015-04-02T08:00:38Z</time>
      </trkpt>
      <trkpt lat="44.79589" lon="4.60067">
        <ele>417</ele>
        <time>2015-04-02T08:00:44Z</time>
      </trkpt>
      <trkpt lat="44.79584" lon="4.60066">
        <ele>417</ele>
        <time>2015-04-02T08:00:49Z</time>
      </trkpt>
      <trkpt lat="44.79579" lon="4.60065">
        <ele>420</ele>
        <time>2015-04-02T08:00:54Z</time>
      </trkpt>
      <trkpt lat="44.79573" lon="4.60065">
        <ele>420</ele>
        <time>2015-04-02T08:00:59Z</time>
      </trkpt>
      <trkpt lat="44.79569" lon="4.60064">
        <ele>421</ele>
        <time>2015-04-02T08:01:04Z</time>
      </trkpt>
      <trkpt lat="44.79563" lon="4.60064">
        <ele>421</ele>
        <time>2015-04-02T08:01:10Z</time>
      </trkpt>
      <trkpt lat="44.79558" lon="4.60065">
        <ele>421</ele>
        <time>2015-04-02T08:01:14Z</time>
      </trkpt>
      <trkpt lat="44.79554" lon="4.60062">
        <ele>421</ele>
        <time>2015-04-02T08:01:19Z</time>
      </trkpt>
      <trkpt lat="44.79549" lon="4.60062">
        <ele>422</ele>
        <time>2015-04-02T08:01:25Z</time>
      </trkpt>
      <trkpt lat="44.79543" lon="4.60062">
        <ele>422</ele>
        <time>2015-04-02T08:01:30Z</time>
      </trkpt>
      <trkpt lat="44.79538" lon="4.6006">
        <ele>422</ele>
        <time>2015-04-02T08:01:34Z</time>
      </trkpt>
      <trkpt lat="44.79534" lon="4.60058">
        <ele>422</ele>
        <time>2015-04-02T08:01:38Z</time>
      </trkpt>
      <trkpt lat="44.7953" lon="4.60053">
        <ele>422</ele>
        <time>2015-04-02T08:01:43Z</time>
      </trkpt>
      <trkpt lat="44.79525" lon="4.60052">
        <ele>423</ele>
        <time>2015-04-02T08:01:48Z</time>
      </trkpt>
      <trkpt lat="44.7952" lon="4.60049">
        <ele>423</ele>
        <time>2015-04-02T08:01:52Z</time>
      </trkpt>
      <trkpt lat="44.79515" lon="4.60046">
        <ele>423</ele>
        <time>2015-04-02T08:01:56Z</time>
      </trkpt>
      <trkpt lat="44.7951" lon="4.60045">
        <ele>423</ele>
        <time>2015-04-02T08:02:06Z</time>
      </trkpt>
      <trkpt lat="44.79505" lon="4.60044">
        <ele>423</ele>
        <time>2015-04-02T08:02:10Z</time>
      </trkpt>
      <trkpt lat="44.795" lon="4.60042">
        <ele>423</ele>
        <time>2015-04-02T08:02:13Z</time>
      </trkpt>
      <trkpt lat="44.79496" lon="4.60041">
        <ele>425</ele>
        <time>2015-04-02T08:02:16Z</time>
      </trkpt>
      <trkpt lat="44.7949" lon="4.60041">
        <ele>425</ele>
        <time>2015-04-02T08:02:20Z</time>
      </trkpt>
      <trkpt lat="44.79486" lon="4.60043">
        <ele>425</ele>
        <time>2015-04-02T08:02:24Z</time>
      </trkpt>
      <trkpt lat="44.79483" lon="4.6005">
        <ele>425</ele>
        <time>2015-04-02T08:02:29Z</time>
      </trkpt>
      <trkpt lat="44.79482" lon="4.60056">
        <ele>426</ele>
        <time>2015-04-02T08:02:34Z</time>
      </trkpt>
      <trkpt lat="44.7948" lon="4.60062">
        <ele>426</ele>
        <time>2015-04-02T08:02:39Z</time>
      </trkpt>
      <trkpt lat="44.79478" lon="4.60068">
        <ele>426</ele>
        <time>2015-04-02T08:02:43Z</time>
      </trkpt>
      <trkpt lat="44.79475" lon="4.60074">
        <ele>427</ele>
        <time>2015-04-02T08:02:47Z</time>
      </trkpt>
      <trkpt lat="44.79474" lon="4.60081">
        <ele>427</ele>
        <time>2015-04-02T08:02:52Z</time>
      </trkpt>
      <trkpt lat="44.79472" lon="4.60087">
        <ele>431</ele>
        <time>2015-04-02T08:02:58Z</time>
      </trkpt>
      <trkpt lat="44.7947" lon="4.60094">
        <ele>431</ele>
        <time>2015-04-02T08:03:03Z</time>
      </trkpt>
      <trkpt lat="44.79468" lon="4.60101">
        <ele>431</ele>
        <time>2015-04-02T08:03:08Z</time>
      </trkpt>
      <trkpt lat="44.79466" lon="4.60107">
        <ele>432</ele>
        <time>2015-04-02T08:03:12Z</time>
      </trkpt>
      <trkpt lat="44.79464" lon="4.60113">
        <ele>432</ele>
        <time>2015-04-02T08:03:17Z</time>
      </trkpt>
      <trkpt lat="44.79461" lon="4.6012">
        <ele>432</ele>
        <time>2015-04-02T08:03:23Z</time>
      </trkpt>
      <trkpt lat="44.79459" lon="4.60127">
        <ele>432</ele>
        <time>2015-04-02T08:03:30Z</time>
      </trkpt>
      <trkpt lat="44.79458" lon="4.60133">
        <ele>433</ele>
        <time>2015-04-02T08:03:35Z</time>
      </trkpt>
      <trkpt lat="44.79456" lon="4.60139">
        <ele>433</ele>
        <time>2015-04-02T08:03:41Z</time>
      </trkpt>
      <trkpt lat="44.79454" lon="4.60145">
        <ele>433</ele>
        <time>2015-04-02T08:03:45Z</time>
      </trkpt>
      <trkpt lat="44.79451" lon="4.60152">
        <ele>434</ele>
        <time>2015-04-02T08:03:49Z</time>
      </trkpt>
      <trkpt lat="44.79451" lon="4.60158">
        <ele>434</ele>
        <time>2015-04-02T08:03:53Z</time>
      </trkpt>
      <trkpt lat="44.7945" lon="4.60164">
        <ele>435</ele>
        <time>2015-04-02T08:03:58Z</time>
      </trkpt>
      <trkpt lat="44.79449" lon="4.60171">
        <ele>433</ele>
        <time>2015-04-02T08:04:06Z</time>
      </trkpt>
      <trkpt lat="44.79449" lon="4.60179">
        <ele>433</ele>
        <time>2015-04-02T08:04:12Z</time>
      </trkpt>
      <trkpt lat="44.7945" lon="4.60187">
        <ele>432</ele>
        <time>2015-04-02T08:04:16Z</time>
      </trkpt>
      <trkpt lat="44.79448" lon="4.60193">
        <ele>432</ele>
        <time>2015-04-02T08:04:21Z</time>
      </trkpt>
      <trkpt lat="44.79447" lon="4.60201">
        <ele>432</ele>
        <time>2015-04-02T08:04:32Z</time>
      </trkpt>
      <trkpt lat="44.79444" lon="4.60203">
        <ele>432</ele>
        <time>2015-04-02T08:04:47Z</time>
      </trkpt>
      <trkpt lat="44.79443" lon="4.60203">
        <ele>432</ele>
        <time>2015-04-02T08:05:02Z</time>
      </trkpt>
      <trkpt lat="44.79443" lon="4.602">
        <ele>432</ele>
        <time>2015-04-02T08:05:17Z</time>
      </trkpt>
      <trkpt lat="44.79442" lon="4.60193">
        <ele>433</ele>
        <time>2015-04-02T08:05:21Z</time>
      </trkpt>
      <trkpt lat="44.79438" lon="4.60186">
        <ele>434</ele>
        <time>2015-04-02T08:05:24Z</time>
      </trkpt>
      <trkpt lat="44.79435" lon="4.60181">
        <ele>435</ele>
        <time>2015-04-02T08:05:27Z</time>
      </trkpt>
      <trkpt lat="44.79432" lon="4.60177">
        <ele>437</ele>
        <time>2015-04-02T08:05:31Z</time>
      </trkpt>
      <trkpt lat="44.79428" lon="4.60171">
        <ele>439</ele>
        <time>2015-04-02T08:05:35Z</time>
      </trkpt>
      <trkpt lat="44.79424" lon="4.60168">
        <ele>440</ele>
        <time>2015-04-02T08:05:39Z</time>
      </trkpt>
      <trkpt lat="44.7942" lon="4.60164">
        <ele>442</ele>
        <time>2015-04-02T08:05:44Z</time>
      </trkpt>
      <trkpt lat="44.79416" lon="4.60159">
        <ele>443</ele>
        <time>2015-04-02T08:05:49Z</time>
      </trkpt>
      <trkpt lat="44.79412" lon="4.60152">
        <ele>442</ele>
        <time>2015-04-02T08:05:52Z</time>
      </trkpt>
      <trkpt lat="44.7941" lon="4.60147">
        <ele>441</ele>
        <time>2015-04-02T08:05:55Z</time>
      </trkpt>
      <trkpt lat="44.79406" lon="4.60144">
        <ele>441</ele>
        <time>2015-04-02T08:06:02Z</time>
      </trkpt>
      <trkpt lat="44.79401" lon="4.60141">
        <ele>441</ele>
        <time>2015-04-02T08:06:09Z</time>
      </trkpt>
      <trkpt lat="44.79397" lon="4.60138">
        <ele>440</ele>
        <time>2015-04-02T08:06:13Z</time>
      </trkpt>
      <trkpt lat="44.79392" lon="4.60137">
        <ele>440</ele>
        <time>2015-04-02T08:06:18Z</time>
      </trkpt>
      <trkpt lat="44.79388" lon="4.60141">
        <ele>441</ele>
        <time>2015-04-02T08:06:25Z</time>
      </trkpt>
      <trkpt lat="44.79384" lon="4.60142">
        <ele>441</ele>
        <time>2015-04-02T08:06:32Z</time>
      </trkpt>
      <trkpt lat="44.79379" lon="4.60143">
        <ele>441</ele>
        <time>2015-04-02T08:06:38Z</time>
      </trkpt>
      <trkpt lat="44.79374" lon="4.60145">
        <ele>441</ele>
        <time>2015-04-02T08:06:43Z</time>
      </trkpt>
      <trkpt lat="44.79369" lon="4.60148">
        <ele>441</ele>
        <time>2015-04-02T08:06:48Z</time>
      </trkpt>
      <trkpt lat="44.79365" lon="4.60148">
        <ele>442</ele>
        <time>2015-04-02T08:06:55Z</time>
      </trkpt>
      <trkpt lat="44.7936" lon="4.60146">
        <ele>442</ele>
        <time>2015-04-02T08:07:01Z</time>
      </trkpt>
      <trkpt lat="44.79354" lon="4.60143">
        <ele>442</ele>
        <time>2015-04-02T08:07:05Z</time>
      </trkpt>
      <trkpt lat="44.7935" lon="4.6014">
        <ele>442</ele>
        <time>2015-04-02T08:07:08Z</time>
      </trkpt>
      <trkpt lat="44.79345" lon="4.60144">
        <ele>442</ele>
        <time>2015-04-02T08:07:12Z</time>
      </trkpt>
      <trkpt lat="44.79341" lon="4.60148">
        <ele>444</ele>
        <time>2015-04-02T08:07:16Z</time>
      </trkpt>
      <trkpt lat="44.79336" lon="4.60152">
        <ele>444</ele>
        <time>2015-04-02T08:07:21Z</time>
      </trkpt>
      <trkpt lat="44.79331" lon="4.60153">
        <ele>443</ele>
        <time>2015-04-02T08:07:26Z</time>
      </trkpt>
      <trkpt lat="44.79327" lon="4.60157">
        <ele>444</ele>
        <time>2015-04-02T08:07:31Z</time>
      </trkpt>
      <trkpt lat="44.79324" lon="4.60162">
        <ele>444</ele>
        <time>2015-04-02T08:07:36Z</time>
      </trkpt>
      <trkpt lat="44.79323" lon="4.60169">
        <ele>447</ele>
        <time>2015-04-02T08:07:41Z</time>
      </trkpt>
      <trkpt lat="44.79322" lon="4.60176">
        <ele>446</ele>
        <time>2015-04-02T08:07:47Z</time>
      </trkpt>
      <trkpt lat="44.7932" lon="4.6018">
        <ele>445</ele>
        <time>2015-04-02T08:08:02Z</time>
      </trkpt>
      <trkpt lat="44.7932" lon="4.60179">
        <ele>445</ele>
        <time>2015-04-02T08:08:17Z</time>
      </trkpt>
      <trkpt lat="44.7932" lon="4.60179">
        <ele>445</ele>
        <time>2015-04-02T08:08:32Z</time>
      </trkpt>
      <trkpt lat="44.79324" lon="4.60174">
        <ele>446</ele>
        <time>2015-04-02T08:08:47Z</time>
      </trkpt>
      <trkpt lat="44.79327" lon="4.60171">
        <ele>447</ele>
        <time>2015-04-02T08:08:49Z</time>
      </trkpt>
      <trkpt lat="44.79331" lon="4.60166">
        <ele>448</ele>
        <time>2015-04-02T08:08:53Z</time>
      </trkpt>
      <trkpt lat="44.79337" lon="4.60174">
        <ele>447</ele>
        <time>2015-04-02T08:10:10Z</time>
      </trkpt>
      <trkpt lat="44.79334" lon="4.6018">
        <ele>447</ele>
        <time>2015-04-02T08:10:26Z</time>
      </trkpt>
      <trkpt lat="44.79329" lon="4.60185">
        <ele>446</ele>
        <time>2015-04-02T08:10:30Z</time>
      </trkpt>
      <trkpt lat="44.79325" lon="4.60187">
        <ele>445</ele>
        <time>2015-04-02T08:10:34Z</time>
      </trkpt>
      <trkpt lat="44.7932" lon="4.60185">
        <ele>445</ele>
        <time>2015-04-02T08:10:41Z</time>
      </trkpt>
      <trkpt lat="44.79317" lon="4.6019">
        <ele>444</ele>
        <time>2015-04-02T08:10:44Z</time>
      </trkpt>
      <trkpt lat="44.79318" lon="4.60197">
        <ele>444</ele>
        <time>2015-04-02T08:10:49Z</time>
      </trkpt>
      <trkpt lat="44.79313" lon="4.60196">
        <ele>444</ele>
        <time>2015-04-02T08:11:01Z</time>
      </trkpt>
      <trkpt lat="44.79309" lon="4.60192">
        <ele>444</ele>
        <time>2015-04-02T08:11:11Z</time>
      </trkpt>
      <trkpt lat="44.79306" lon="4.60187">
        <ele>444</ele>
        <time>2015-04-02T08:11:16Z</time>
      </trkpt>
      <trkpt lat="44.79307" lon="4.6018">
        <ele>444</ele>
        <time>2015-04-02T08:11:21Z</time>
      </trkpt>
      <trkpt lat="44.79304" lon="4.60177">
        <ele>444</ele>
        <time>2015-04-02T08:11:47Z</time>
      </trkpt>
      <trkpt lat="44.79304" lon="4.60177">
        <ele>444</ele>
        <time>2015-04-02T08:12:02Z</time>
      </trkpt>
      <trkpt lat="44.79304" lon="4.60177">
        <ele>444</ele>
        <time>2015-04-02T08:12:17Z</time>
      </trkpt>
      <trkpt lat="44.79303" lon="4.6018">
        <ele>444</ele>
        <time>2015-04-02T08:12:28Z</time>
      </trkpt>
      <trkpt lat="44.79299" lon="4.60186">
        <ele>443</ele>
        <time>2015-04-02T08:12:33Z</time>
      </trkpt>
      <trkpt lat="44.79297" lon="4.60192">
        <ele>443</ele>
        <time>2015-04-02T08:12:43Z</time>
      </trkpt>
      <trkpt lat="44.793" lon="4.60185">
        <ele>443</ele>
        <time>2015-04-02T08:17:22Z</time>
      </trkpt>
      <trkpt lat="44.793" lon="4.60185">
        <ele>443</ele>
        <time>2015-04-02T08:17:37Z</time>
      </trkpt>
      <trkpt lat="44.793" lon="4.60185">
        <ele>443</ele>
        <time>2015-04-02T08:17:52Z</time>
      </trkpt>
      <trkpt lat="44.793" lon="4.60185">
        <ele>443</ele>
        <time>2015-04-02T08:18:08Z</time>
      </trkpt>
      <trkpt lat="44.793" lon="4.60185">
        <ele>443</ele>
        <time>2015-04-02T08:18:23Z</time>
      </trkpt>
      <trkpt lat="44.793" lon="4.60185">
        <ele>443</ele>
        <time>2015-04-02T08:18:38Z</time>
      </trkpt>
      <trkpt lat="44.793" lon="4.60185">
        <ele>443</ele>
        <time>2015-04-02T08:18:53Z</time>
      </trkpt>
      <trkpt lat="44.793" lon="4.60185">
        <ele>443</ele>
        <time>2015-04-02T08:19:08Z</time>
      </trkpt>
      <trkpt lat="44.793" lon="4.60185">
        <ele>443</ele>
        <time>2015-04-02T08:19:23Z</time>
      </trkpt>
      <trkpt lat="44.793" lon="4.60185">
        <ele>443</ele>
        <time>2015-04-02T08:19:38Z</time>
      </trkpt>
      <trkpt lat="44.79298" lon="4.60189">
        <ele>443</ele>
        <time>2015-04-02T08:19:53Z</time>
      </trkpt>
      <trkpt lat="44.79295" lon="4.6019">
        <ele>443</ele>
        <time>2015-04-02T08:19:56Z</time>
      </trkpt>
      <trkpt lat="44.79293" lon="4.60195">
        <ele>443</ele>
        <time>2015-04-02T08:20:02Z</time>
      </trkpt>
      <trkpt lat="44.7929" lon="4.60201">
        <ele>442</ele>
        <time>2015-04-02T08:20:09Z</time>
      </trkpt>
      <trkpt lat="44.79286" lon="4.60203">
        <ele>442</ele>
        <time>2015-04-02T08:20:15Z</time>
      </trkpt>
      <trkpt lat="44.79281" lon="4.60204">
        <ele>442</ele>
        <time>2015-04-02T08:20:20Z</time>
      </trkpt>
      <trkpt lat="44.79277" lon="4.60206">
        <ele>442</ele>
        <time>2015-04-02T08:20:25Z</time>
      </trkpt>
      <trkpt lat="44.79272" lon="4.60207">
        <ele>442</ele>
        <time>2015-04-02T08:20:30Z</time>
      </trkpt>
      <trkpt lat="44.79266" lon="4.60207">
        <ele>441</ele>
        <time>2015-04-02T08:20:36Z</time>
      </trkpt>
      <trkpt lat="44.79261" lon="4.60208">
        <ele>441</ele>
        <time>2015-04-02T08:20:41Z</time>
      </trkpt>
      <trkpt lat="44.79257" lon="4.6021">
        <ele>441</ele>
        <time>2015-04-02T08:20:47Z</time>
      </trkpt>
      <trkpt lat="44.79253" lon="4.60214">
        <ele>441</ele>
        <time>2015-04-02T08:20:51Z</time>
      </trkpt>
      <trkpt lat="44.79248" lon="4.60216">
        <ele>443</ele>
        <time>2015-04-02T08:20:55Z</time>
      </trkpt>
      <trkpt lat="44.79242" lon="4.60217">
        <ele>443</ele>
        <time>2015-04-02T08:20:59Z</time>
      </trkpt>
      <trkpt lat="44.79237" lon="4.60218">
        <ele>444</ele>
        <time>2015-04-02T08:21:03Z</time>
      </trkpt>
      <trkpt lat="44.79232" lon="4.60219">
        <ele>444</ele>
        <time>2015-04-02T08:21:08Z</time>
      </trkpt>
      <trkpt lat="44.79227" lon="4.60218">
        <ele>444</ele>
        <time>2015-04-02T08:21:13Z</time>
      </trkpt>
      <trkpt lat="44.79223" lon="4.6022">
        <ele>445</ele>
        <time>2015-04-02T08:21:17Z</time>
      </trkpt>
      <trkpt lat="44.79218" lon="4.60222">
        <ele>445</ele>
        <time>2015-04-02T08:21:22Z</time>
      </trkpt>
      <trkpt lat="44.79213" lon="4.60225">
        <ele>446</ele>
        <time>2015-04-02T08:21:26Z</time>
      </trkpt>
      <trkpt lat="44.79208" lon="4.60224">
        <ele>446</ele>
        <time>2015-04-02T08:21:31Z</time>
      </trkpt>
      <trkpt lat="44.79203" lon="4.60224">
        <ele>446</ele>
        <time>2015-04-02T08:21:50Z</time>
      </trkpt>
      <trkpt lat="44.79198" lon="4.60224">
        <ele>447</ele>
        <time>2015-04-02T08:21:55Z</time>
      </trkpt>
      <trkpt lat="44.79194" lon="4.60221">
        <ele>447</ele>
        <time>2015-04-02T08:22:00Z</time>
      </trkpt>
      <trkpt lat="44.79189" lon="4.60221">
        <ele>448</ele>
        <time>2015-04-02T08:22:05Z</time>
      </trkpt>
      <trkpt lat="44.79184" lon="4.60219">
        <ele>448</ele>
        <time>2015-04-02T08:22:10Z</time>
      </trkpt>
      <trkpt lat="44.79179" lon="4.60219">
        <ele>448</ele>
        <time>2015-04-02T08:22:15Z</time>
      </trkpt>
      <trkpt lat="44.79175" lon="4.60218">
        <ele>448</ele>
        <time>2015-04-02T08:22:20Z</time>
      </trkpt>
      <trkpt lat="44.79171" lon="4.60211">
        <ele>448</ele>
        <time>2015-04-02T08:22:25Z</time>
      </trkpt>
      <trkpt lat="44.79167" lon="4.60207">
        <ele>448</ele>
        <time>2015-04-02T08:22:29Z</time>
      </trkpt>
      <trkpt lat="44.79163" lon="4.60202">
        <ele>458</ele>
        <time>2015-04-02T08:22:34Z</time>
      </trkpt>
      <trkpt lat="44.79158" lon="4.60198">
        <ele>457</ele>
        <time>2015-04-02T08:22:41Z</time>
      </trkpt>
      <trkpt lat="44.79155" lon="4.60194">
        <ele>457</ele>
        <time>2015-04-02T08:22:47Z</time>
      </trkpt>
      <trkpt lat="44.7915" lon="4.6019">
        <ele>457</ele>
        <time>2015-04-02T08:22:52Z</time>
      </trkpt>
      <trkpt lat="44.79148" lon="4.60184">
        <ele>457</ele>
        <time>2015-04-02T08:22:56Z</time>
      </trkpt>
      <trkpt lat="44.79144" lon="4.6018">
        <ele>457</ele>
        <time>2015-04-02T08:23:01Z</time>
      </trkpt>
      <trkpt lat="44.7914" lon="4.60176">
        <ele>457</ele>
        <time>2015-04-02T08:23:07Z</time>
      </trkpt>
      <trkpt lat="44.79136" lon="4.60174">
        <ele>458</ele>
        <time>2015-04-02T08:23:11Z</time>
      </trkpt>
      <trkpt lat="44.7913" lon="4.60171">
        <ele>459</ele>
        <time>2015-04-02T08:23:16Z</time>
      </trkpt>
      <trkpt lat="44.79125" lon="4.60168">
        <ele>459</ele>
        <time>2015-04-02T08:23:20Z</time>
      </trkpt>
      <trkpt lat="44.79121" lon="4.60171">
        <ele>460</ele>
        <time>2015-04-02T08:23:26Z</time>
      </trkpt>
      <trkpt lat="44.79116" lon="4.60172">
        <ele>460</ele>
        <time>2015-04-02T08:23:31Z</time>
      </trkpt>
      <trkpt lat="44.79115" lon="4.60179">
        <ele>460</ele>
        <time>2015-04-02T08:23:35Z</time>
      </trkpt>
      <trkpt lat="44.7911" lon="4.60182">
        <ele>461</ele>
        <time>2015-04-02T08:23:40Z</time>
      </trkpt>
      <trkpt lat="44.79105" lon="4.60181">
        <ele>461</ele>
        <time>2015-04-02T08:23:44Z</time>
      </trkpt>
      <trkpt lat="44.79101" lon="4.60183">
        <ele>462</ele>
        <time>2015-04-02T08:23:49Z</time>
      </trkpt>
      <trkpt lat="44.79096" lon="4.60182">
        <ele>462</ele>
        <time>2015-04-02T08:23:54Z</time>
      </trkpt>
      <trkpt lat="44.79091" lon="4.60183">
        <ele>462</ele>
        <time>2015-04-02T08:23:59Z</time>
      </trkpt>
      <trkpt lat="44.79086" lon="4.60181">
        <ele>462</ele>
        <time>2015-04-02T08:24:04Z</time>
      </trkpt>
      <trkpt lat="44.79081" lon="4.60181">
        <ele>467</ele>
        <time>2015-04-02T08:24:09Z</time>
      </trkpt>
      <trkpt lat="44.79076" lon="4.60179">
        <ele>468</ele>
        <time>2015-04-02T08:24:14Z</time>
      </trkpt>
      <trkpt lat="44.79071" lon="4.60177">
        <ele>468</ele>
        <time>2015-04-02T08:24:19Z</time>
      </trkpt>
      <trkpt lat="44.79067" lon="4.60177">
        <ele>469</ele>
        <time>2015-04-02T08:24:24Z</time>
      </trkpt>
      <trkpt lat="44.79062" lon="4.60178">
        <ele>470</ele>
        <time>2015-04-02T08:24:29Z</time>
      </trkpt>
      <trkpt lat="44.79057" lon="4.60179">
        <ele>471</ele>
        <time>2015-04-02T08:24:34Z</time>
      </trkpt>
      <trkpt lat="44.79052" lon="4.60181">
        <ele>471</ele>
        <time>2015-04-02T08:24:39Z</time>
      </trkpt>
      <trkpt lat="44.79047" lon="4.60181">
        <ele>472</ele>
        <time>2015-04-02T08:24:44Z</time>
      </trkpt>
      <trkpt lat="44.79042" lon="4.6018">
        <ele>472</ele>
        <time>2015-04-02T08:24:50Z</time>
      </trkpt>
      <trkpt lat="44.79037" lon="4.60181">
        <ele>472</ele>
        <time>2015-04-02T08:24:56Z</time>
      </trkpt>
      <trkpt lat="44.79032" lon="4.60185">
        <ele>473</ele>
        <time>2015-04-02T08:25:01Z</time>
      </trkpt>
      <trkpt lat="44.79027" lon="4.60186">
        <ele>473</ele>
        <time>2015-04-02T08:25:05Z</time>
      </trkpt>
      <trkpt lat="44.79022" lon="4.60186">
        <ele>473</ele>
        <time>2015-04-02T08:25:10Z</time>
      </trkpt>
      <trkpt lat="44.79018" lon="4.60188">
        <ele>473</ele>
        <time>2015-04-02T08:25:14Z</time>
      </trkpt>
      <trkpt lat="44.79013" lon="4.6019">
        <ele>473</ele>
        <time>2015-04-02T08:25:18Z</time>
      </trkpt>
      <trkpt lat="44.79008" lon="4.60192">
        <ele>474</ele>
        <time>2015-04-02T08:25:23Z</time>
      </trkpt>
      <trkpt lat="44.79003" lon="4.60193">
        <ele>474</ele>
        <time>2015-04-02T08:25:30Z</time>
      </trkpt>
      <trkpt lat="44.78999" lon="4.60196">
        <ele>479</ele>
        <time>2015-04-02T08:25:34Z</time>
      </trkpt>
      <trkpt lat="44.78994" lon="4.602">
        <ele>480</ele>
        <time>2015-04-02T08:25:39Z</time>
      </trkpt>
      <trkpt lat="44.7899" lon="4.60202">
        <ele>481</ele>
        <time>2015-04-02T08:25:43Z</time>
      </trkpt>
      <trkpt lat="44.78986" lon="4.60206">
        <ele>482</ele>
        <time>2015-04-02T08:25:47Z</time>
      </trkpt>
      <trkpt lat="44.78982" lon="4.6021">
        <ele>483</ele>
        <time>2015-04-02T08:25:52Z</time>
      </trkpt>
      <trkpt lat="44.78976" lon="4.60212">
        <ele>483</ele>
        <time>2015-04-02T08:25:56Z</time>
      </trkpt>
      <trkpt lat="44.78971" lon="4.60213">
        <ele>483</ele>
        <time>2015-04-02T08:26:00Z</time>
      </trkpt>
      <trkpt lat="44.78965" lon="4.60214">
        <ele>484</ele>
        <time>2015-04-02T08:26:04Z</time>
      </trkpt>
      <trkpt lat="44.78961" lon="4.60217">
        <ele>484</ele>
        <time>2015-04-02T08:26:08Z</time>
      </trkpt>
      <trkpt lat="44.78956" lon="4.60219">
        <ele>485</ele>
        <time>2015-04-02T08:26:12Z</time>
      </trkpt>
      <trkpt lat="44.78952" lon="4.60223">
        <ele>485</ele>
        <time>2015-04-02T08:26:16Z</time>
      </trkpt>
      <trkpt lat="44.78947" lon="4.60225">
        <ele>486</ele>
        <time>2015-04-02T08:26:20Z</time>
      </trkpt>
      <trkpt lat="44.78942" lon="4.60228">
        <ele>487</ele>
        <time>2015-04-02T08:26:24Z</time>
      </trkpt>
      <trkpt lat="44.78937" lon="4.60229">
        <ele>487</ele>
        <time>2015-04-02T08:26:28Z</time>
      </trkpt>
      <trkpt lat="44.78933" lon="4.60228">
        <ele>487</ele>
        <time>2015-04-02T08:26:32Z</time>
      </trkpt>
      <trkpt lat="44.78928" lon="4.60223">
        <ele>487</ele>
        <time>2015-04-02T08:26:35Z</time>
      </trkpt>
      <trkpt lat="44.78923" lon="4.6022">
        <ele>486</ele>
        <time>2015-04-02T08:26:38Z</time>
      </trkpt>
      <trkpt lat="44.78919" lon="4.60216">
        <ele>485</ele>
        <time>2015-04-02T08:26:42Z</time>
      </trkpt>
      <trkpt lat="44.78914" lon="4.60214">
        <ele>495</ele>
        <time>2015-04-02T08:26:45Z</time>
      </trkpt>
      <trkpt lat="44.78909" lon="4.60212">
        <ele>495</ele>
        <time>2015-04-02T08:26:49Z</time>
      </trkpt>
      <trkpt lat="44.78904" lon="4.6021">
        <ele>495</ele>
        <time>2015-04-02T08:26:54Z</time>
      </trkpt>
      <trkpt lat="44.78898" lon="4.60207">
        <ele>495</ele>
        <time>2015-04-02T08:26:58Z</time>
      </trkpt>
      <trkpt lat="44.78893" lon="4.60204">
        <ele>495</ele>
        <time>2015-04-02T08:27:02Z</time>
      </trkpt>
      <trkpt lat="44.78889" lon="4.60201">
        <ele>496</ele>
        <time>2015-04-02T08:27:05Z</time>
      </trkpt>
      <trkpt lat="44.78885" lon="4.60196">
        <ele>496</ele>
        <time>2015-04-02T08:27:09Z</time>
      </trkpt>
      <trkpt lat="44.78881" lon="4.6019">
        <ele>496</ele>
        <time>2015-04-02T08:27:14Z</time>
      </trkpt>
      <trkpt lat="44.78877" lon="4.60185">
        <ele>496</ele>
        <time>2015-04-02T08:27:19Z</time>
      </trkpt>
      <trkpt lat="44.78873" lon="4.60182">
        <ele>497</ele>
        <time>2015-04-02T08:27:23Z</time>
      </trkpt>
      <trkpt lat="44.78869" lon="4.60177">
        <ele>497</ele>
        <time>2015-04-02T08:27:27Z</time>
      </trkpt>
      <trkpt lat="44.78865" lon="4.60172">
        <ele>498</ele>
        <time>2015-04-02T08:27:30Z</time>
      </trkpt>
      <trkpt lat="44.78861" lon="4.60168">
        <ele>499</ele>
        <time>2015-04-02T08:27:34Z</time>
      </trkpt>
      <trkpt lat="44.78857" lon="4.60163">
        <ele>490</ele>
        <time>2015-04-02T08:27:38Z</time>
      </trkpt>
      <trkpt lat="44.78854" lon="4.60157">
        <ele>490</ele>
        <time>2015-04-02T08:27:45Z</time>
      </trkpt>
      <trkpt lat="44.78851" lon="4.60152">
        <ele>491</ele>
        <time>2015-04-02T08:27:50Z</time>
      </trkpt>
      <trkpt lat="44.78848" lon="4.60147">
        <ele>490</ele>
        <time>2015-04-02T08:27:54Z</time>
      </trkpt>
      <trkpt lat="44.78845" lon="4.60141">
        <ele>489</ele>
        <time>2015-04-02T08:27:58Z</time>
      </trkpt>
      <trkpt lat="44.78842" lon="4.60137">
        <ele>489</ele>
        <time>2015-04-02T08:28:02Z</time>
      </trkpt>
      <trkpt lat="44.78838" lon="4.60133">
        <ele>488</ele>
        <time>2015-04-02T08:28:09Z</time>
      </trkpt>
      <trkpt lat="44.78835" lon="4.60126">
        <ele>487</ele>
        <time>2015-04-02T08:28:14Z</time>
      </trkpt>
      <trkpt lat="44.78833" lon="4.6012">
        <ele>499</ele>
        <time>2015-04-02T08:28:19Z</time>
      </trkpt>
      <trkpt lat="44.7883" lon="4.60114">
        <ele>498</ele>
        <time>2015-04-02T08:28:23Z</time>
      </trkpt>
      <trkpt lat="44.78827" lon="4.6011">
        <ele>497</ele>
        <time>2015-04-02T08:28:28Z</time>
      </trkpt>
      <trkpt lat="44.78822" lon="4.60105">
        <ele>497</ele>
        <time>2015-04-02T08:28:33Z</time>
      </trkpt>
      <trkpt lat="44.78819" lon="4.601">
        <ele>496</ele>
        <time>2015-04-02T08:28:38Z</time>
      </trkpt>
      <trkpt lat="44.78815" lon="4.60094">
        <ele>496</ele>
        <time>2015-04-02T08:28:42Z</time>
      </trkpt>
      <trkpt lat="44.7881" lon="4.60091">
        <ele>497</ele>
        <time>2015-04-02T08:28:46Z</time>
      </trkpt>
      <trkpt lat="44.78805" lon="4.60087">
        <ele>497</ele>
        <time>2015-04-02T08:28:50Z</time>
      </trkpt>
      <trkpt lat="44.788" lon="4.60083">
        <ele>498</ele>
        <time>2015-04-02T08:28:54Z</time>
      </trkpt>
      <trkpt lat="44.78796" lon="4.60081">
        <ele>488</ele>
        <time>2015-04-02T08:28:58Z</time>
      </trkpt>
      <trkpt lat="44.78791" lon="4.60079">
        <ele>488</ele>
        <time>2015-04-02T08:29:03Z</time>
      </trkpt>
      <trkpt lat="44.78786" lon="4.6008">
        <ele>489</ele>
        <time>2015-04-02T08:29:07Z</time>
      </trkpt>
      <trkpt lat="44.78781" lon="4.60081">
        <ele>489</ele>
        <time>2015-04-02T08:29:11Z</time>
      </trkpt>
      <trkpt lat="44.78776" lon="4.60083">
        <ele>490</ele>
        <time>2015-04-02T08:29:16Z</time>
      </trkpt>
      <trkpt lat="44.78781" lon="4.60084">
        <ele>500</ele>
        <time>2015-04-02T08:29:32Z</time>
      </trkpt>
      <trkpt lat="44.78785" lon="4.60086">
        <ele>500</ele>
        <time>2015-04-02T08:29:37Z</time>
      </trkpt>
      <trkpt lat="44.78789" lon="4.60093">
        <ele>500</ele>
        <time>2015-04-02T08:29:42Z</time>
      </trkpt>
      <trkpt lat="44.78791" lon="4.60098">
        <ele>500</ele>
        <time>2015-04-02T08:29:47Z</time>
      </trkpt>
      <trkpt lat="44.78793" lon="4.60105">
        <ele>501</ele>
        <time>2015-04-02T08:29:55Z</time>
      </trkpt>
      <trkpt lat="44.78795" lon="4.60111">
        <ele>501</ele>
        <time>2015-04-02T08:30:00Z</time>
      </trkpt>
      <trkpt lat="44.78798" lon="4.60116">
        <ele>501</ele>
        <time>2015-04-02T08:30:05Z</time>
      </trkpt>
      <trkpt lat="44.78801" lon="4.60122">
        <ele>502</ele>
        <time>2015-04-02T08:30:11Z</time>
      </trkpt>
      <trkpt lat="44.78802" lon="4.60128">
        <ele>503</ele>
        <time>2015-04-02T08:30:16Z</time>
      </trkpt>
      <trkpt lat="44.78802" lon="4.60136">
        <ele>503</ele>
        <time>2015-04-02T08:30:21Z</time>
      </trkpt>
      <trkpt lat="44.78805" lon="4.60141">
        <ele>504</ele>
        <time>2015-04-02T08:30:29Z</time>
      </trkpt>
      <trkpt lat="44.7881" lon="4.60145">
        <ele>504</ele>
        <time>2015-04-02T08:30:35Z</time>
      </trkpt>
      <trkpt lat="44.78814" lon="4.60148">
        <ele>504</ele>
        <time>2015-04-02T08:30:43Z</time>
      </trkpt>
      <trkpt lat="44.78818" lon="4.60153">
        <ele>504</ele>
        <time>2015-04-02T08:30:48Z</time>
      </trkpt>
      <trkpt lat="44.78822" lon="4.60158">
        <ele>504</ele>
        <time>2015-04-02T08:30:53Z</time>
      </trkpt>
      <trkpt lat="44.78825" lon="4.60162">
        <ele>504</ele>
        <time>2015-04-02T08:30:57Z</time>
      </trkpt>
      <trkpt lat="44.78824" lon="4.60169">
        <ele>510</ele>
        <time>2015-04-02T08:31:08Z</time>
      </trkpt>
      <trkpt lat="44.78823" lon="4.6017">
        <ele>511</ele>
        <time>2015-04-02T08:31:23Z</time>
      </trkpt>
      <trkpt lat="44.78824" lon="4.60174">
        <ele>511</ele>
        <time>2015-04-02T08:31:38Z</time>
      </trkpt>
      <trkpt lat="44.78824" lon="4.60176">
        <ele>512</ele>
        <time>2015-04-02T08:31:39Z</time>
      </trkpt>
      <trkpt lat="44.78825" lon="4.60183">
        <ele>514</ele>
        <time>2015-04-02T08:31:42Z</time>
      </trkpt>
      <trkpt lat="44.78827" lon="4.60189">
        <ele>516</ele>
        <time>2015-04-02T08:31:45Z</time>
      </trkpt>
      <trkpt lat="44.7883" lon="4.60194">
        <ele>517</ele>
        <time>2015-04-02T08:31:47Z</time>
      </trkpt>
      <trkpt lat="44.78833" lon="4.60201">
        <ele>518</ele>
        <time>2015-04-02T08:31:50Z</time>
      </trkpt>
      <trkpt lat="44.78835" lon="4.60208">
        <ele>504</ele>
        <time>2015-04-02T08:31:55Z</time>
      </trkpt>
      <trkpt lat="44.78838" lon="4.60214">
        <ele>505</ele>
        <time>2015-04-02T08:31:59Z</time>
      </trkpt>
      <trkpt lat="44.78838" lon="4.60221">
        <ele>507</ele>
        <time>2015-04-02T08:32:04Z</time>
      </trkpt>
      <trkpt lat="44.78835" lon="4.60227">
        <ele>509</ele>
        <time>2015-04-02T08:32:07Z</time>
      </trkpt>
      <trkpt lat="44.78833" lon="4.60233">
        <ele>522</ele>
        <time>2015-04-02T08:32:10Z</time>
      </trkpt>
      <trkpt lat="44.78836" lon="4.60238">
        <ele>513</ele>
        <time>2015-04-02T08:32:14Z</time>
      </trkpt>
      <trkpt lat="44.7884" lon="4.60241">
        <ele>514</ele>
        <time>2015-04-02T08:32:18Z</time>
      </trkpt>
      <trkpt lat="44.78842" lon="4.60248">
        <ele>515</ele>
        <time>2015-04-02T08:32:25Z</time>
      </trkpt>
      <trkpt lat="44.78845" lon="4.60254">
        <ele>520</ele>
        <time>2015-04-02T08:32:30Z</time>
      </trkpt>
      <trkpt lat="44.78848" lon="4.60259">
        <ele>519</ele>
        <time>2015-04-02T08:32:34Z</time>
      </trkpt>
      <trkpt lat="44.7885" lon="4.60265">
        <ele>519</ele>
        <time>2015-04-02T08:32:40Z</time>
      </trkpt>
      <trkpt lat="44.78853" lon="4.60271">
        <ele>519</ele>
        <time>2015-04-02T08:32:46Z</time>
      </trkpt>
      <trkpt lat="44.78857" lon="4.60276">
        <ele>519</ele>
        <time>2015-04-02T08:32:50Z</time>
      </trkpt>
      <trkpt lat="44.78861" lon="4.60281">
        <ele>519</ele>
        <time>2015-04-02T08:32:55Z</time>
      </trkpt>
      <trkpt lat="44.78862" lon="4.60287">
        <ele>519</ele>
        <time>2015-04-02T08:33:00Z</time>
      </trkpt>
      <trkpt lat="44.78864" lon="4.60295">
        <ele>519</ele>
        <time>2015-04-02T08:33:04Z</time>
      </trkpt>
      <trkpt lat="44.78867" lon="4.60301">
        <ele>520</ele>
        <time>2015-04-02T08:33:10Z</time>
      </trkpt>
      <trkpt lat="44.78871" lon="4.60304">
        <ele>519</ele>
        <time>2015-04-02T08:33:15Z</time>
      </trkpt>
      <trkpt lat="44.78875" lon="4.60309">
        <ele>519</ele>
        <time>2015-04-02T08:33:20Z</time>
      </trkpt>
      <trkpt lat="44.7888" lon="4.60312">
        <ele>519</ele>
        <time>2015-04-02T08:33:26Z</time>
      </trkpt>
      <trkpt lat="44.78884" lon="4.60316">
        <ele>518</ele>
        <time>2015-04-02T08:33:31Z</time>
      </trkpt>
      <trkpt lat="44.78888" lon="4.60319">
        <ele>518</ele>
        <time>2015-04-02T08:33:35Z</time>
      </trkpt>
      <trkpt lat="44.78892" lon="4.60323">
        <ele>518</ele>
        <time>2015-04-02T08:33:39Z</time>
      </trkpt>
      <trkpt lat="44.78896" lon="4.60329">
        <ele>517</ele>
        <time>2015-04-02T08:33:44Z</time>
      </trkpt>
      <trkpt lat="44.789" lon="4.60334">
        <ele>521</ele>
        <time>2015-04-02T08:33:47Z</time>
      </trkpt>
      <trkpt lat="44.78905" lon="4.60337">
        <ele>520</ele>
        <time>2015-04-02T08:33:50Z</time>
      </trkpt>
      <trkpt lat="44.78908" lon="4.60342">
        <ele>520</ele>
        <time>2015-04-02T08:33:53Z</time>
      </trkpt>
      <trkpt lat="44.7891" lon="4.60348">
        <ele>520</ele>
        <time>2015-04-02T08:33:58Z</time>
      </trkpt>
      <trkpt lat="44.78915" lon="4.60352">
        <ele>521</ele>
        <time>2015-04-02T08:34:04Z</time>
      </trkpt>
      <trkpt lat="44.7892" lon="4.60356">
        <ele>514</ele>
        <time>2015-04-02T08:34:08Z</time>
      </trkpt>
      <trkpt lat="44.78924" lon="4.60361">
        <ele>514</ele>
        <time>2015-04-02T08:34:22Z</time>
      </trkpt>
      <trkpt lat="44.78928" lon="4.60365">
        <ele>514</ele>
        <time>2015-04-02T08:34:26Z</time>
      </trkpt>
      <trkpt lat="44.78933" lon="4.60369">
        <ele>514</ele>
        <time>2015-04-02T08:34:29Z</time>
      </trkpt>
      <trkpt lat="44.78938" lon="4.60372">
        <ele>514</ele>
        <time>2015-04-02T08:34:31Z</time>
      </trkpt>
      <trkpt lat="44.78941" lon="4.60378">
        <ele>514</ele>
        <time>2015-04-02T08:34:34Z</time>
      </trkpt>
      <trkpt lat="44.7894" lon="4.60384">
        <ele>514</ele>
        <time>2015-04-02T08:34:39Z</time>
      </trkpt>
      <trkpt lat="44.78943" lon="4.6039">
        <ele>514</ele>
        <time>2015-04-02T08:34:47Z</time>
      </trkpt>
      <trkpt lat="44.78939" lon="4.60396">
        <ele>514</ele>
        <time>2015-04-02T08:34:56Z</time>
      </trkpt>
      <trkpt lat="44.78935" lon="4.60399">
        <ele>515</ele>
        <time>2015-04-02T08:35:00Z</time>
      </trkpt>
      <trkpt lat="44.78934" lon="4.60406">
        <ele>515</ele>
        <time>2015-04-02T08:35:05Z</time>
      </trkpt>
      <trkpt lat="44.78929" lon="4.60411">
        <ele>516</ele>
        <time>2015-04-02T08:35:10Z</time>
      </trkpt>
      <trkpt lat="44.78925" lon="4.60415">
        <ele>517</ele>
        <time>2015-04-02T08:35:13Z</time>
      </trkpt>
      <trkpt lat="44.78921" lon="4.60419">
        <ele>517</ele>
        <time>2015-04-02T08:35:17Z</time>
      </trkpt>
      <trkpt lat="44.78917" lon="4.60425">
        <ele>519</ele>
        <time>2015-04-02T08:35:22Z</time>
      </trkpt>
      <trkpt lat="44.78913" lon="4.6043">
        <ele>518</ele>
        <time>2015-04-02T08:35:26Z</time>
      </trkpt>
      <trkpt lat="44.78909" lon="4.60435">
        <ele>518</ele>
        <time>2015-04-02T08:35:31Z</time>
      </trkpt>
      <trkpt lat="44.78905" lon="4.6044">
        <ele>518</ele>
        <time>2015-04-02T08:35:35Z</time>
      </trkpt>
      <trkpt lat="44.789" lon="4.60444">
        <ele>518</ele>
        <time>2015-04-02T08:35:38Z</time>
      </trkpt>
      <trkpt lat="44.78896" lon="4.6045">
        <ele>517</ele>
        <time>2015-04-02T08:35:41Z</time>
      </trkpt>
      <trkpt lat="44.78893" lon="4.60455">
        <ele>517</ele>
        <time>2015-04-02T08:35:43Z</time>
      </trkpt>
      <trkpt lat="44.78888" lon="4.60455">
        <ele>517</ele>
        <time>2015-04-02T08:35:51Z</time>
      </trkpt>
      <trkpt lat="44.78883" lon="4.60458">
        <ele>518</ele>
        <time>2015-04-02T08:35:57Z</time>
      </trkpt>
      <trkpt lat="44.7888" lon="4.60463">
        <ele>517</ele>
        <time>2015-04-02T08:36:00Z</time>
      </trkpt>
      <trkpt lat="44.78875" lon="4.60466">
        <ele>517</ele>
        <time>2015-04-02T08:36:04Z</time>
      </trkpt>
      <trkpt lat="44.78871" lon="4.60471">
        <ele>517</ele>
        <time>2015-04-02T08:36:08Z</time>
      </trkpt>
      <trkpt lat="44.78873" lon="4.60477">
        <ele>517</ele>
        <time>2015-04-02T08:36:20Z</time>
      </trkpt>
      <trkpt lat="44.78871" lon="4.60481">
        <ele>517</ele>
        <time>2015-04-02T08:36:40Z</time>
      </trkpt>
      <trkpt lat="44.78873" lon="4.6048">
        <ele>517</ele>
        <time>2015-04-02T08:36:55Z</time>
      </trkpt>
      <trkpt lat="44.78872" lon="4.60482">
        <ele>516</ele>
        <time>2015-04-02T08:37:10Z</time>
      </trkpt>
      <trkpt lat="44.78872" lon="4.60484">
        <ele>516</ele>
        <time>2015-04-02T08:37:11Z</time>
      </trkpt>
      <trkpt lat="44.78869" lon="4.6049">
        <ele>516</ele>
        <time>2015-04-02T08:37:15Z</time>
      </trkpt>
      <trkpt lat="44.78865" lon="4.60495">
        <ele>516</ele>
        <time>2015-04-02T08:37:20Z</time>
      </trkpt>
      <trkpt lat="44.78862" lon="4.60501">
        <ele>506</ele>
        <time>2015-04-02T08:37:24Z</time>
      </trkpt>
      <trkpt lat="44.78859" lon="4.60506">
        <ele>506</ele>
        <time>2015-04-02T08:37:28Z</time>
      </trkpt>
      <trkpt lat="44.78856" lon="4.60511">
        <ele>507</ele>
        <time>2015-04-02T08:37:31Z</time>
      </trkpt>
      <trkpt lat="44.78853" lon="4.60517">
        <ele>506</ele>
        <time>2015-04-02T08:37:34Z</time>
      </trkpt>
      <trkpt lat="44.78851" lon="4.60523">
        <ele>505</ele>
        <time>2015-04-02T08:37:37Z</time>
      </trkpt>
      <trkpt lat="44.78849" lon="4.6053">
        <ele>505</ele>
        <time>2015-04-02T08:37:41Z</time>
      </trkpt>
      <trkpt lat="44.78847" lon="4.60537">
        <ele>504</ele>
        <time>2015-04-02T08:37:45Z</time>
      </trkpt>
      <trkpt lat="44.78845" lon="4.60542">
        <ele>503</ele>
        <time>2015-04-02T08:37:49Z</time>
      </trkpt>
      <trkpt lat="44.78845" lon="4.6055">
        <ele>502</ele>
        <time>2015-04-02T08:37:53Z</time>
      </trkpt>
      <trkpt lat="44.78843" lon="4.60557">
        <ele>501</ele>
        <time>2015-04-02T08:37:57Z</time>
      </trkpt>
      <trkpt lat="44.7884" lon="4.60563">
        <ele>501</ele>
        <time>2015-04-02T08:38:01Z</time>
      </trkpt>
      <trkpt lat="44.78837" lon="4.60569">
        <ele>500</ele>
        <time>2015-04-02T08:38:05Z</time>
      </trkpt>
      <trkpt lat="44.78833" lon="4.60575">
        <ele>500</ele>
        <time>2015-04-02T08:38:10Z</time>
      </trkpt>
      <trkpt lat="44.78833" lon="4.60582">
        <ele>501</ele>
        <time>2015-04-02T08:38:15Z</time>
      </trkpt>
      <trkpt lat="44.78831" lon="4.60589">
        <ele>501</ele>
        <time>2015-04-02T08:38:20Z</time>
      </trkpt>
      <trkpt lat="44.78829" lon="4.60596">
        <ele>501</ele>
        <time>2015-04-02T08:38:24Z</time>
      </trkpt>
      <trkpt lat="44.78827" lon="4.60603">
        <ele>502</ele>
        <time>2015-04-02T08:38:29Z</time>
      </trkpt>
      <trkpt lat="44.78825" lon="4.6061">
        <ele>502</ele>
        <time>2015-04-02T08:38:33Z</time>
      </trkpt>
      <trkpt lat="44.78823" lon="4.60616">
        <ele>502</ele>
        <time>2015-04-02T08:38:36Z</time>
      </trkpt>
      <trkpt lat="44.78821" lon="4.60622">
        <ele>502</ele>
        <time>2015-04-02T08:38:40Z</time>
      </trkpt>
      <trkpt lat="44.78819" lon="4.60628">
        <ele>501</ele>
        <time>2015-04-02T08:38:43Z</time>
      </trkpt>
      <trkpt lat="44.78817" lon="4.60634">
        <ele>501</ele>
        <time>2015-04-02T08:38:46Z</time>
      </trkpt>
      <trkpt lat="44.78815" lon="4.60641">
        <ele>501</ele>
        <time>2015-04-02T08:38:49Z</time>
      </trkpt>
      <trkpt lat="44.78812" lon="4.60646">
        <ele>500</ele>
        <time>2015-04-02T08:38:52Z</time>
      </trkpt>
      <trkpt lat="44.78811" lon="4.60653">
        <ele>500</ele>
        <time>2015-04-02T08:38:56Z</time>
      </trkpt>
      <trkpt lat="44.78808" lon="4.6066">
        <ele>500</ele>
        <time>2015-04-02T08:39:00Z</time>
      </trkpt>
      <trkpt lat="44.78807" lon="4.60667">
        <ele>496</ele>
        <time>2015-04-02T08:39:04Z</time>
      </trkpt>
      <trkpt lat="44.78807" lon="4.60674">
        <ele>496</ele>
        <time>2015-04-02T08:39:12Z</time>
      </trkpt>
      <trkpt lat="44.78806" lon="4.60682">
        <ele>496</ele>
        <time>2015-04-02T08:39:18Z</time>
      </trkpt>
      <trkpt lat="44.78804" lon="4.60688">
        <ele>496</ele>
        <time>2015-04-02T08:39:24Z</time>
      </trkpt>
      <trkpt lat="44.78802" lon="4.60696">
        <ele>496</ele>
        <time>2015-04-02T08:39:28Z</time>
      </trkpt>
      <trkpt lat="44.788" lon="4.60703">
        <ele>496</ele>
        <time>2015-04-02T08:39:32Z</time>
      </trkpt>
      <trkpt lat="44.78799" lon="4.6071">
        <ele>496</ele>
        <time>2015-04-02T08:39:36Z</time>
      </trkpt>
      <trkpt lat="44.78797" lon="4.60718">
        <ele>496</ele>
        <time>2015-04-02T08:39:41Z</time>
      </trkpt>
      <trkpt lat="44.78796" lon="4.60724">
        <ele>496</ele>
        <time>2015-04-02T08:39:44Z</time>
      </trkpt>
      <trkpt lat="44.78793" lon="4.60731">
        <ele>496</ele>
        <time>2015-04-02T08:39:47Z</time>
      </trkpt>
      <trkpt lat="44.78791" lon="4.60737">
        <ele>496</ele>
        <time>2015-04-02T08:39:50Z</time>
      </trkpt>
      <trkpt lat="44.78788" lon="4.60744">
        <ele>496</ele>
        <time>2015-04-02T08:39:53Z</time>
      </trkpt>
      <trkpt lat="44.78785" lon="4.60749">
        <ele>497</ele>
        <time>2015-04-02T08:39:56Z</time>
      </trkpt>
      <trkpt lat="44.78782" lon="4.60754">
        <ele>493</ele>
        <time>2015-04-02T08:39:59Z</time>
      </trkpt>
      <trkpt lat="44.78778" lon="4.60759">
        <ele>493</ele>
        <time>2015-04-02T08:40:03Z</time>
      </trkpt>
      <trkpt lat="44.78775" lon="4.60765">
        <ele>493</ele>
        <time>2015-04-02T08:40:07Z</time>
      </trkpt>
      <trkpt lat="44.78772" lon="4.6077">
        <ele>493</ele>
        <time>2015-04-02T08:40:12Z</time>
      </trkpt>
      <trkpt lat="44.78769" lon="4.60776">
        <ele>493</ele>
        <time>2015-04-02T08:40:16Z</time>
      </trkpt>
      <trkpt lat="44.78765" lon="4.60781">
        <ele>493</ele>
        <time>2015-04-02T08:40:20Z</time>
      </trkpt>
      <trkpt lat="44.78762" lon="4.60786">
        <ele>493</ele>
        <time>2015-04-02T08:40:24Z</time>
      </trkpt>
      <trkpt lat="44.78758" lon="4.60791">
        <ele>493</ele>
        <time>2015-04-02T08:40:29Z</time>
      </trkpt>
      <trkpt lat="44.78754" lon="4.60795">
        <ele>493</ele>
        <time>2015-04-02T08:40:33Z</time>
      </trkpt>
      <trkpt lat="44.78751" lon="4.608">
        <ele>493</ele>
        <time>2015-04-02T08:40:37Z</time>
      </trkpt>
      <trkpt lat="44.78746" lon="4.60805">
        <ele>497</ele>
        <time>2015-04-02T08:40:41Z</time>
      </trkpt>
      <trkpt lat="44.78742" lon="4.60809">
        <ele>497</ele>
        <time>2015-04-02T08:40:45Z</time>
      </trkpt>
      <trkpt lat="44.78738" lon="4.60813">
        <ele>497</ele>
        <time>2015-04-02T08:40:49Z</time>
      </trkpt>
      <trkpt lat="44.78734" lon="4.60818">
        <ele>497</ele>
        <time>2015-04-02T08:40:53Z</time>
      </trkpt>
      <trkpt lat="44.7873" lon="4.60822">
        <ele>497</ele>
        <time>2015-04-02T08:40:57Z</time>
      </trkpt>
      <trkpt lat="44.78726" lon="4.60827">
        <ele>497</ele>
        <time>2015-04-02T08:41:01Z</time>
      </trkpt>
      <trkpt lat="44.78722" lon="4.60832">
        <ele>497</ele>
        <time>2015-04-02T08:41:05Z</time>
      </trkpt>
      <trkpt lat="44.78718" lon="4.60837">
        <ele>493</ele>
        <time>2015-04-02T08:41:09Z</time>
      </trkpt>
      <trkpt lat="44.78714" lon="4.60841">
        <ele>493</ele>
        <time>2015-04-02T08:41:13Z</time>
      </trkpt>
      <trkpt lat="44.7871" lon="4.60846">
        <ele>492</ele>
        <time>2015-04-02T08:41:18Z</time>
      </trkpt>
      <trkpt lat="44.78707" lon="4.60851">
        <ele>492</ele>
        <time>2015-04-02T08:41:22Z</time>
      </trkpt>
      <trkpt lat="44.78704" lon="4.60857">
        <ele>492</ele>
        <time>2015-04-02T08:41:26Z</time>
      </trkpt>
      <trkpt lat="44.78701" lon="4.60863">
        <ele>492</ele>
        <time>2015-04-02T08:41:30Z</time>
      </trkpt>
      <trkpt lat="44.78698" lon="4.6087">
        <ele>492</ele>
        <time>2015-04-02T08:41:34Z</time>
      </trkpt>
      <trkpt lat="44.78694" lon="4.60876">
        <ele>492</ele>
        <time>2015-04-02T08:41:38Z</time>
      </trkpt>
      <trkpt lat="44.78691" lon="4.60881">
        <ele>492</ele>
        <time>2015-04-02T08:41:41Z</time>
      </trkpt>
      <trkpt lat="44.78688" lon="4.60886">
        <ele>491</ele>
        <time>2015-04-02T08:41:44Z</time>
      </trkpt>
      <trkpt lat="44.78684" lon="4.60891">
        <ele>491</ele>
        <time>2015-04-02T08:41:48Z</time>
      </trkpt>
      <trkpt lat="44.78679" lon="4.60895">
        <ele>491</ele>
        <time>2015-04-02T08:41:52Z</time>
      </trkpt>
      <trkpt lat="44.78674" lon="4.609">
        <ele>491</ele>
        <time>2015-04-02T08:41:56Z</time>
      </trkpt>
      <trkpt lat="44.7867" lon="4.60904">
        <ele>491</ele>
        <time>2015-04-02T08:42:00Z</time>
      </trkpt>
      <trkpt lat="44.78665" lon="4.60908">
        <ele>491</ele>
        <time>2015-04-02T08:42:04Z</time>
      </trkpt>
      <trkpt lat="44.78661" lon="4.60912">
        <ele>491</ele>
        <time>2015-04-02T08:42:08Z</time>
      </trkpt>
      <trkpt lat="44.78657" lon="4.60916">
        <ele>491</ele>
        <time>2015-04-02T08:42:12Z</time>
      </trkpt>
      <trkpt lat="44.78653" lon="4.6092">
        <ele>489</ele>
        <time>2015-04-02T08:42:16Z</time>
      </trkpt>
      <trkpt lat="44.78648" lon="4.60924">
        <ele>488</ele>
        <time>2015-04-02T08:42:20Z</time>
      </trkpt>
      <trkpt lat="44.78643" lon="4.60928">
        <ele>488</ele>
        <time>2015-04-02T08:42:24Z</time>
      </trkpt>
      <trkpt lat="44.78638" lon="4.60932">
        <ele>488</ele>
        <time>2015-04-02T08:42:28Z</time>
      </trkpt>
      <trkpt lat="44.78634" lon="4.60935">
        <ele>488</ele>
        <time>2015-04-02T08:42:31Z</time>
      </trkpt>
      <trkpt lat="44.78628" lon="4.60937">
        <ele>488</ele>
        <time>2015-04-02T08:42:35Z</time>
      </trkpt>
      <trkpt lat="44.78624" lon="4.60938">
        <ele>488</ele>
        <time>2015-04-02T08:42:39Z</time>
      </trkpt>
      <trkpt lat="44.7862" lon="4.60941">
        <ele>487</ele>
        <time>2015-04-02T08:42:43Z</time>
      </trkpt>
      <trkpt lat="44.78616" lon="4.60946">
        <ele>487</ele>
        <time>2015-04-02T08:42:47Z</time>
      </trkpt>
      <trkpt lat="44.78613" lon="4.60952">
        <ele>487</ele>
        <time>2015-04-02T08:42:51Z</time>
      </trkpt>
      <trkpt lat="44.7861" lon="4.60957">
        <ele>487</ele>
        <time>2015-04-02T08:42:55Z</time>
      </trkpt>
      <trkpt lat="44.78608" lon="4.60965">
        <ele>486</ele>
        <time>2015-04-02T08:43:00Z</time>
      </trkpt>
      <trkpt lat="44.78608" lon="4.60972">
        <ele>486</ele>
        <time>2015-04-02T08:43:05Z</time>
      </trkpt>
      <trkpt lat="44.78606" lon="4.60979">
        <ele>485</ele>
        <time>2015-04-02T08:43:09Z</time>
      </trkpt>
      <trkpt lat="44.78606" lon="4.60986">
        <ele>485</ele>
        <time>2015-04-02T08:43:13Z</time>
      </trkpt>
      <trkpt lat="44.78605" lon="4.60993">
        <ele>484</ele>
        <time>2015-04-02T08:43:17Z</time>
      </trkpt>
      <trkpt lat="44.78603" lon="4.61001">
        <ele>480</ele>
        <time>2015-04-02T08:43:21Z</time>
      </trkpt>
      <trkpt lat="44.78602" lon="4.61008">
        <ele>480</ele>
        <time>2015-04-02T08:43:25Z</time>
      </trkpt>
      <trkpt lat="44.78599" lon="4.61015">
        <ele>480</ele>
        <time>2015-04-02T08:43:29Z</time>
      </trkpt>
      <trkpt lat="44.78598" lon="4.61021">
        <ele>480</ele>
        <time>2015-04-02T08:43:33Z</time>
      </trkpt>
      <trkpt lat="44.78596" lon="4.61028">
        <ele>480</ele>
        <time>2015-04-02T08:43:38Z</time>
      </trkpt>
      <trkpt lat="44.78594" lon="4.61035">
        <ele>480</ele>
        <time>2015-04-02T08:43:42Z</time>
      </trkpt>
      <trkpt lat="44.78592" lon="4.61042">
        <ele>479</ele>
        <time>2015-04-02T08:43:46Z</time>
      </trkpt>
      <trkpt lat="44.7859" lon="4.61048">
        <ele>479</ele>
        <time>2015-04-02T08:43:49Z</time>
      </trkpt>
      <trkpt lat="44.78589" lon="4.61054">
        <ele>479</ele>
        <time>2015-04-02T08:43:52Z</time>
      </trkpt>
      <trkpt lat="44.78585" lon="4.6106">
        <ele>479</ele>
        <time>2015-04-02T08:43:56Z</time>
      </trkpt>
      <trkpt lat="44.78583" lon="4.61068">
        <ele>477</ele>
        <time>2015-04-02T08:44:00Z</time>
      </trkpt>
      <trkpt lat="44.78581" lon="4.61074">
        <ele>477</ele>
        <time>2015-04-02T08:44:04Z</time>
      </trkpt>
      <trkpt lat="44.7858" lon="4.61082">
        <ele>477</ele>
        <time>2015-04-02T08:44:08Z</time>
      </trkpt>
      <trkpt lat="44.78577" lon="4.61089">
        <ele>477</ele>
        <time>2015-04-02T08:44:12Z</time>
      </trkpt>
      <trkpt lat="44.78575" lon="4.61095">
        <ele>477</ele>
        <time>2015-04-02T08:44:15Z</time>
      </trkpt>
      <trkpt lat="44.78574" lon="4.61102">
        <ele>477</ele>
        <time>2015-04-02T08:44:18Z</time>
      </trkpt>
      <trkpt lat="44.78572" lon="4.61109">
        <ele>477</ele>
        <time>2015-04-02T08:44:22Z</time>
      </trkpt>
      <trkpt lat="44.7857" lon="4.61116">
        <ele>477</ele>
        <time>2015-04-02T08:44:26Z</time>
      </trkpt>
      <trkpt lat="44.78568" lon="4.61123">
        <ele>477</ele>
        <time>2015-04-02T08:44:30Z</time>
      </trkpt>
      <trkpt lat="44.78568" lon="4.6113">
        <ele>477</ele>
        <time>2015-04-02T08:44:34Z</time>
      </trkpt>
      <trkpt lat="44.78566" lon="4.61136">
        <ele>477</ele>
        <time>2015-04-02T08:44:38Z</time>
      </trkpt>
      <trkpt lat="44.78563" lon="4.61143">
        <ele>477</ele>
        <time>2015-04-02T08:44:43Z</time>
      </trkpt>
      <trkpt lat="44.78559" lon="4.61145">
        <ele>477</ele>
        <time>2015-04-02T08:44:51Z</time>
      </trkpt>
      <trkpt lat="44.78559" lon="4.61145">
        <ele>477</ele>
        <time>2015-04-02T08:45:19Z</time>
      </trkpt>
      <trkpt lat="44.78555" lon="4.61145">
        <ele>477</ele>
        <time>2015-04-02T08:45:31Z</time>
      </trkpt>
      <trkpt lat="44.78549" lon="4.61146">
        <ele>477</ele>
        <time>2015-04-02T08:45:35Z</time>
      </trkpt>
      <trkpt lat="44.78544" lon="4.61145">
        <ele>477</ele>
        <time>2015-04-02T08:45:39Z</time>
      </trkpt>
      <trkpt lat="44.78539" lon="4.61146">
        <ele>477</ele>
        <time>2015-04-02T08:45:43Z</time>
      </trkpt>
      <trkpt lat="44.78534" lon="4.61145">
        <ele>477</ele>
        <time>2015-04-02T08:45:47Z</time>
      </trkpt>
      <trkpt lat="44.78529" lon="4.61145">
        <ele>477</ele>
        <time>2015-04-02T08:45:51Z</time>
      </trkpt>
      <trkpt lat="44.78524" lon="4.61144">
        <ele>477</ele>
        <time>2015-04-02T08:45:55Z</time>
      </trkpt>
      <trkpt lat="44.78519" lon="4.61141">
        <ele>477</ele>
        <time>2015-04-02T08:46:00Z</time>
      </trkpt>
      <trkpt lat="44.78514" lon="4.61141">
        <ele>477</ele>
        <time>2015-04-02T08:46:04Z</time>
      </trkpt>
      <trkpt lat="44.78509" lon="4.61141">
        <ele>478</ele>
        <time>2015-04-02T08:46:09Z</time>
      </trkpt>
      <trkpt lat="44.78509" lon="4.61148">
        <ele>478</ele>
        <time>2015-04-02T08:46:25Z</time>
      </trkpt>
      <trkpt lat="44.78509" lon="4.61155">
        <ele>478</ele>
        <time>2015-04-02T08:46:32Z</time>
      </trkpt>
      <trkpt lat="44.78509" lon="4.61163">
        <ele>478</ele>
        <time>2015-04-02T08:46:36Z</time>
      </trkpt>
      <trkpt lat="44.78508" lon="4.61171">
        <ele>479</ele>
        <time>2015-04-02T08:46:40Z</time>
      </trkpt>
      <trkpt lat="44.78508" lon="4.61178">
        <ele>478</ele>
        <time>2015-04-02T08:46:44Z</time>
      </trkpt>
      <trkpt lat="44.78508" lon="4.61185">
        <ele>478</ele>
        <time>2015-04-02T08:46:48Z</time>
      </trkpt>
      <trkpt lat="44.78506" lon="4.61192">
        <ele>478</ele>
        <time>2015-04-02T08:46:53Z</time>
      </trkpt>
      <trkpt lat="44.78506" lon="4.61199">
        <ele>478</ele>
        <time>2015-04-02T08:46:57Z</time>
      </trkpt>
      <trkpt lat="44.78506" lon="4.61206">
        <ele>478</ele>
        <time>2015-04-02T08:47:01Z</time>
      </trkpt>
      <trkpt lat="44.78505" lon="4.61213">
        <ele>478</ele>
        <time>2015-04-02T08:47:05Z</time>
      </trkpt>
      <trkpt lat="44.78503" lon="4.61219">
        <ele>478</ele>
        <time>2015-04-02T08:47:10Z</time>
      </trkpt>
      <trkpt lat="44.78501" lon="4.61227">
        <ele>478</ele>
        <time>2015-04-02T08:47:15Z</time>
      </trkpt>
      <trkpt lat="44.78499" lon="4.61233">
        <ele>480</ele>
        <time>2015-04-02T08:47:19Z</time>
      </trkpt>
      <trkpt lat="44.78496" lon="4.6124">
        <ele>480</ele>
        <time>2015-04-02T08:47:24Z</time>
      </trkpt>
      <trkpt lat="44.78494" lon="4.61246">
        <ele>480</ele>
        <time>2015-04-02T08:47:27Z</time>
      </trkpt>
      <trkpt lat="44.78492" lon="4.61252">
        <ele>480</ele>
        <time>2015-04-02T08:47:34Z</time>
      </trkpt>
      <trkpt lat="44.78489" lon="4.61258">
        <ele>481</ele>
        <time>2015-04-02T08:47:39Z</time>
      </trkpt>
      <trkpt lat="44.78487" lon="4.61265">
        <ele>481</ele>
        <time>2015-04-02T08:47:43Z</time>
      </trkpt>
      <trkpt lat="44.78487" lon="4.61271">
        <ele>481</ele>
        <time>2015-04-02T08:47:46Z</time>
      </trkpt>
      <trkpt lat="44.78486" lon="4.61279">
        <ele>481</ele>
        <time>2015-04-02T08:47:50Z</time>
      </trkpt>
      <trkpt lat="44.78481" lon="4.61282">
        <ele>481</ele>
        <time>2015-04-02T08:47:54Z</time>
      </trkpt>
      <trkpt lat="44.7848" lon="4.61289">
        <ele>481</ele>
        <time>2015-04-02T08:47:59Z</time>
      </trkpt>
      <trkpt lat="44.78478" lon="4.61297">
        <ele>481</ele>
        <time>2015-04-02T08:48:03Z</time>
      </trkpt>
      <trkpt lat="44.78476" lon="4.61304">
        <ele>481</ele>
        <time>2015-04-02T08:48:06Z</time>
      </trkpt>
      <trkpt lat="44.78474" lon="4.6131">
        <ele>481</ele>
        <time>2015-04-02T08:48:09Z</time>
      </trkpt>
      <trkpt lat="44.78473" lon="4.61316">
        <ele>481</ele>
        <time>2015-04-02T08:48:12Z</time>
      </trkpt>
      <trkpt lat="44.78471" lon="4.61322">
        <ele>481</ele>
        <time>2015-04-02T08:48:15Z</time>
      </trkpt>
      <trkpt lat="44.78468" lon="4.61329">
        <ele>481</ele>
        <time>2015-04-02T08:48:19Z</time>
      </trkpt>
      <trkpt lat="44.78466" lon="4.61335">
        <ele>481</ele>
        <time>2015-04-02T08:48:22Z</time>
      </trkpt>
      <trkpt lat="44.78464" lon="4.61342">
        <ele>481</ele>
        <time>2015-04-02T08:48:25Z</time>
      </trkpt>
      <trkpt lat="44.78462" lon="4.61348">
        <ele>481</ele>
        <time>2015-04-02T08:48:28Z</time>
      </trkpt>
      <trkpt lat="44.7846" lon="4.61356">
        <ele>481</ele>
        <time>2015-04-02T08:48:32Z</time>
      </trkpt>
      <trkpt lat="44.78458" lon="4.61362">
        <ele>482</ele>
        <time>2015-04-02T08:48:36Z</time>
      </trkpt>
      <trkpt lat="44.78456" lon="4.61369">
        <ele>482</ele>
        <time>2015-04-02T08:48:40Z</time>
      </trkpt>
      <trkpt lat="44.78454" lon="4.61376">
        <ele>482</ele>
        <time>2015-04-02T08:48:45Z</time>
      </trkpt>
      <trkpt lat="44.78453" lon="4.61382">
        <ele>482</ele>
        <time>2015-04-02T08:48:50Z</time>
      </trkpt>
      <trkpt lat="44.78453" lon="4.61389">
        <ele>482</ele>
        <time>2015-04-02T08:49:04Z</time>
      </trkpt>
      <trkpt lat="44.78455" lon="4.61398">
        <ele>482</ele>
        <time>2015-04-02T08:49:09Z</time>
      </trkpt>
      <trkpt lat="44.78456" lon="4.61405">
        <ele>482</ele>
        <time>2015-04-02T08:49:12Z</time>
      </trkpt>
      <trkpt lat="44.78456" lon="4.61412">
        <ele>482</ele>
        <time>2015-04-02T08:49:15Z</time>
      </trkpt>
      <trkpt lat="44.78456" lon="4.61419">
        <ele>481</ele>
        <time>2015-04-02T08:49:20Z</time>
      </trkpt>
      <trkpt lat="44.78456" lon="4.61426">
        <ele>481</ele>
        <time>2015-04-02T08:49:26Z</time>
      </trkpt>
      <trkpt lat="44.78454" lon="4.61434">
        <ele>481</ele>
        <time>2015-04-02T08:49:29Z</time>
      </trkpt>
      <trkpt lat="44.78454" lon="4.61442">
        <ele>481</ele>
        <time>2015-04-02T08:49:32Z</time>
      </trkpt>
      <trkpt lat="44.78455" lon="4.61449">
        <ele>481</ele>
        <time>2015-04-02T08:49:35Z</time>
      </trkpt>
      <trkpt lat="44.78452" lon="4.61455">
        <ele>481</ele>
        <time>2015-04-02T08:49:38Z</time>
      </trkpt>
      <trkpt lat="44.78451" lon="4.61462">
        <ele>481</ele>
        <time>2015-04-02T08:49:41Z</time>
      </trkpt>
      <trkpt lat="44.78448" lon="4.61469">
        <ele>481</ele>
        <time>2015-04-02T08:49:44Z</time>
      </trkpt>
      <trkpt lat="44.78448" lon="4.61476">
        <ele>481</ele>
        <time>2015-04-02T08:49:48Z</time>
      </trkpt>
      <trkpt lat="44.78447" lon="4.61483">
        <ele>482</ele>
        <time>2015-04-02T08:49:51Z</time>
      </trkpt>
      <trkpt lat="44.78445" lon="4.61489">
        <ele>482</ele>
        <time>2015-04-02T08:49:54Z</time>
      </trkpt>
      <trkpt lat="44.78444" lon="4.61495">
        <ele>483</ele>
        <time>2015-04-02T08:49:57Z</time>
      </trkpt>
      <trkpt lat="44.78442" lon="4.61502">
        <ele>480</ele>
        <time>2015-04-02T08:50:00Z</time>
      </trkpt>
      <trkpt lat="44.78443" lon="4.61508">
        <ele>479</ele>
        <time>2015-04-02T08:50:03Z</time>
      </trkpt>
      <trkpt lat="44.78443" lon="4.61516">
        <ele>479</ele>
        <time>2015-04-02T08:50:07Z</time>
      </trkpt>
      <trkpt lat="44.78441" lon="4.61523">
        <ele>478</ele>
        <time>2015-04-02T08:50:11Z</time>
      </trkpt>
      <trkpt lat="44.78439" lon="4.61529">
        <ele>478</ele>
        <time>2015-04-02T08:50:14Z</time>
      </trkpt>
      <trkpt lat="44.78437" lon="4.61535">
        <ele>477</ele>
        <time>2015-04-02T08:50:18Z</time>
      </trkpt>
      <trkpt lat="44.78434" lon="4.61542">
        <ele>477</ele>
        <time>2015-04-02T08:50:22Z</time>
      </trkpt>
      <trkpt lat="44.78432" lon="4.61547">
        <ele>477</ele>
        <time>2015-04-02T08:50:26Z</time>
      </trkpt>
      <trkpt lat="44.78431" lon="4.61555">
        <ele>476</ele>
        <time>2015-04-02T08:50:30Z</time>
      </trkpt>
      <trkpt lat="44.78429" lon="4.61562">
        <ele>476</ele>
        <time>2015-04-02T08:50:34Z</time>
      </trkpt>
      <trkpt lat="44.78427" lon="4.61569">
        <ele>476</ele>
        <time>2015-04-02T08:50:38Z</time>
      </trkpt>
      <trkpt lat="44.78426" lon="4.61577">
        <ele>477</ele>
        <time>2015-04-02T08:50:42Z</time>
      </trkpt>
      <trkpt lat="44.78425" lon="4.61583">
        <ele>477</ele>
        <time>2015-04-02T08:50:45Z</time>
      </trkpt>
      <trkpt lat="44.78423" lon="4.61591">
        <ele>475</ele>
        <time>2015-04-02T08:50:49Z</time>
      </trkpt>
      <trkpt lat="44.78421" lon="4.61598">
        <ele>473</ele>
        <time>2015-04-02T08:50:52Z</time>
      </trkpt>
      <trkpt lat="44.78419" lon="4.61604">
        <ele>472</ele>
        <time>2015-04-02T08:50:55Z</time>
      </trkpt>
      <trkpt lat="44.78417" lon="4.6161">
        <ele>471</ele>
        <time>2015-04-02T08:50:59Z</time>
      </trkpt>
      <trkpt lat="44.78415" lon="4.61616">
        <ele>477</ele>
        <time>2015-04-02T08:51:03Z</time>
      </trkpt>
      <trkpt lat="44.78412" lon="4.61623">
        <ele>477</ele>
        <time>2015-04-02T08:51:07Z</time>
      </trkpt>
      <trkpt lat="44.78409" lon="4.61629">
        <ele>476</ele>
        <time>2015-04-02T08:51:10Z</time>
      </trkpt>
      <trkpt lat="44.78407" lon="4.61634">
        <ele>476</ele>
        <time>2015-04-02T08:51:13Z</time>
      </trkpt>
      <trkpt lat="44.78403" lon="4.6164">
        <ele>476</ele>
        <time>2015-04-02T08:51:17Z</time>
      </trkpt>
      <trkpt lat="44.784" lon="4.61646">
        <ele>475</ele>
        <time>2015-04-02T08:51:21Z</time>
      </trkpt>
      <trkpt lat="44.78399" lon="4.61653">
        <ele>475</ele>
        <time>2015-04-02T08:51:26Z</time>
      </trkpt>
      <trkpt lat="44.78398" lon="4.61661">
        <ele>474</ele>
        <time>2015-04-02T08:51:31Z</time>
      </trkpt>
      <trkpt lat="44.78398" lon="4.61667">
        <ele>471</ele>
        <time>2015-04-02T08:51:35Z</time>
      </trkpt>
      <trkpt lat="44.78399" lon="4.61673">
        <ele>471</ele>
        <time>2015-04-02T08:51:38Z</time>
      </trkpt>
      <trkpt lat="44.78399" lon="4.61681">
        <ele>471</ele>
        <time>2015-04-02T08:51:42Z</time>
      </trkpt>
      <trkpt lat="44.78401" lon="4.61688">
        <ele>471</ele>
        <time>2015-04-02T08:51:46Z</time>
      </trkpt>
      <trkpt lat="44.78403" lon="4.61695">
        <ele>470</ele>
        <time>2015-04-02T08:51:50Z</time>
      </trkpt>
      <trkpt lat="44.78405" lon="4.61701">
        <ele>470</ele>
        <time>2015-04-02T08:51:54Z</time>
      </trkpt>
      <trkpt lat="44.78405" lon="4.61707">
        <ele>470</ele>
        <time>2015-04-02T08:51:58Z</time>
      </trkpt>
      <trkpt lat="44.78406" lon="4.61714">
        <ele>470</ele>
        <time>2015-04-02T08:52:02Z</time>
      </trkpt>
      <trkpt lat="44.78405" lon="4.6172">
        <ele>470</ele>
        <time>2015-04-02T08:52:06Z</time>
      </trkpt>
      <trkpt lat="44.78406" lon="4.61726">
        <ele>470</ele>
        <time>2015-04-02T08:52:17Z</time>
      </trkpt>
      <trkpt lat="44.78407" lon="4.61733">
        <ele>470</ele>
        <time>2015-04-02T08:52:21Z</time>
      </trkpt>
      <trkpt lat="44.78409" lon="4.61739">
        <ele>470</ele>
        <time>2015-04-02T08:52:25Z</time>
      </trkpt>
      <trkpt lat="44.78413" lon="4.61745">
        <ele>471</ele>
        <time>2015-04-02T08:52:30Z</time>
      </trkpt>
      <trkpt lat="44.78417" lon="4.6175">
        <ele>471</ele>
        <time>2015-04-02T08:52:35Z</time>
      </trkpt>
      <trkpt lat="44.7842" lon="4.61755">
        <ele>471</ele>
        <time>2015-04-02T08:52:57Z</time>
      </trkpt>
      <trkpt lat="44.78421" lon="4.61761">
        <ele>471</ele>
        <time>2015-04-02T08:53:01Z</time>
      </trkpt>
      <trkpt lat="44.78425" lon="4.61768">
        <ele>472</ele>
        <time>2015-04-02T08:53:05Z</time>
      </trkpt>
      <trkpt lat="44.78428" lon="4.61774">
        <ele>472</ele>
        <time>2015-04-02T08:53:09Z</time>
      </trkpt>
      <trkpt lat="44.78429" lon="4.61781">
        <ele>472</ele>
        <time>2015-04-02T08:53:13Z</time>
      </trkpt>
      <trkpt lat="44.7843" lon="4.61787">
        <ele>472</ele>
        <time>2015-04-02T08:53:17Z</time>
      </trkpt>
      <trkpt lat="44.78431" lon="4.61794">
        <ele>472</ele>
        <time>2015-04-02T08:53:21Z</time>
      </trkpt>
      <trkpt lat="44.78434" lon="4.618">
        <ele>473</ele>
        <time>2015-04-02T08:53:27Z</time>
      </trkpt>
      <trkpt lat="44.78436" lon="4.61806">
        <ele>473</ele>
        <time>2015-04-02T08:53:38Z</time>
      </trkpt>
      <trkpt lat="44.78439" lon="4.61812">
        <ele>473</ele>
        <time>2015-04-02T08:53:49Z</time>
      </trkpt>
      <trkpt lat="44.78442" lon="4.61806">
        <ele>473</ele>
        <time>2015-04-02T08:54:06Z</time>
      </trkpt>
      <trkpt lat="44.78448" lon="4.61805">
        <ele>473</ele>
        <time>2015-04-02T08:54:10Z</time>
      </trkpt>
      <trkpt lat="44.78453" lon="4.61804">
        <ele>473</ele>
        <time>2015-04-02T08:54:17Z</time>
      </trkpt>
      <trkpt lat="44.78458" lon="4.61804">
        <ele>473</ele>
        <time>2015-04-02T08:54:22Z</time>
      </trkpt>
      <trkpt lat="44.78464" lon="4.61804">
        <ele>473</ele>
        <time>2015-04-02T08:54:27Z</time>
      </trkpt>
      <trkpt lat="44.78469" lon="4.61802">
        <ele>473</ele>
        <time>2015-04-02T08:54:31Z</time>
      </trkpt>
      <trkpt lat="44.78474" lon="4.61801">
        <ele>473</ele>
        <time>2015-04-02T08:54:34Z</time>
      </trkpt>
      <trkpt lat="44.7848" lon="4.618">
        <ele>473</ele>
        <time>2015-04-02T08:54:38Z</time>
      </trkpt>
      <trkpt lat="44.78485" lon="4.618">
        <ele>473</ele>
        <time>2015-04-02T08:54:42Z</time>
      </trkpt>
      <trkpt lat="44.7849" lon="4.61803">
        <ele>474</ele>
        <time>2015-04-02T08:54:46Z</time>
      </trkpt>
      <trkpt lat="44.78496" lon="4.61805">
        <ele>474</ele>
        <time>2015-04-02T08:54:50Z</time>
      </trkpt>
      <trkpt lat="44.78502" lon="4.61805">
        <ele>470</ele>
        <time>2015-04-02T08:54:54Z</time>
      </trkpt>
      <trkpt lat="44.78507" lon="4.61805">
        <ele>470</ele>
        <time>2015-04-02T08:54:58Z</time>
      </trkpt>
      <trkpt lat="44.78512" lon="4.61806">
        <ele>469</ele>
        <time>2015-04-02T08:55:02Z</time>
      </trkpt>
      <trkpt lat="44.78517" lon="4.6181">
        <ele>469</ele>
        <time>2015-04-02T08:55:06Z</time>
      </trkpt>
      <trkpt lat="44.78522" lon="4.61812">
        <ele>469</ele>
        <time>2015-04-02T08:55:10Z</time>
      </trkpt>
      <trkpt lat="44.78528" lon="4.61813">
        <ele>468</ele>
        <time>2015-04-02T08:55:14Z</time>
      </trkpt>
      <trkpt lat="44.78532" lon="4.61813">
        <ele>468</ele>
        <time>2015-04-02T08:55:17Z</time>
      </trkpt>
      <trkpt lat="44.78537" lon="4.61816">
        <ele>467</ele>
        <time>2015-04-02T08:55:21Z</time>
      </trkpt>
      <trkpt lat="44.78542" lon="4.61817">
        <ele>467</ele>
        <time>2015-04-02T08:55:25Z</time>
      </trkpt>
      <trkpt lat="44.78547" lon="4.6182">
        <ele>467</ele>
        <time>2015-04-02T08:55:29Z</time>
      </trkpt>
      <trkpt lat="44.78552" lon="4.61822">
        <ele>466</ele>
        <time>2015-04-02T08:55:33Z</time>
      </trkpt>
      <trkpt lat="44.78558" lon="4.61824">
        <ele>466</ele>
        <time>2015-04-02T08:55:37Z</time>
      </trkpt>
      <trkpt lat="44.78562" lon="4.61825">
        <ele>466</ele>
        <time>2015-04-02T08:55:40Z</time>
      </trkpt>
      <trkpt lat="44.78568" lon="4.61828">
        <ele>465</ele>
        <time>2015-04-02T08:55:44Z</time>
      </trkpt>
      <trkpt lat="44.78573" lon="4.6183">
        <ele>465</ele>
        <time>2015-04-02T08:55:48Z</time>
      </trkpt>
      <trkpt lat="44.78578" lon="4.61831">
        <ele>465</ele>
        <time>2015-04-02T08:55:52Z</time>
      </trkpt>
      <trkpt lat="44.78582" lon="4.61835">
        <ele>465</ele>
        <time>2015-04-02T08:55:56Z</time>
      </trkpt>
      <trkpt lat="44.78587" lon="4.61836">
        <ele>464</ele>
        <time>2015-04-02T08:56:00Z</time>
      </trkpt>
      <trkpt lat="44.78593" lon="4.61839">
        <ele>464</ele>
        <time>2015-04-02T08:56:05Z</time>
      </trkpt>
      <trkpt lat="44.78598" lon="4.61842">
        <ele>463</ele>
        <time>2015-04-02T08:56:09Z</time>
      </trkpt>
      <trkpt lat="44.78603" lon="4.61845">
        <ele>462</ele>
        <time>2015-04-02T08:56:13Z</time>
      </trkpt>
      <trkpt lat="44.78607" lon="4.61849">
        <ele>462</ele>
        <time>2015-04-02T08:56:17Z</time>
      </trkpt>
      <trkpt lat="44.78611" lon="4.61855">
        <ele>462</ele>
        <time>2015-04-02T08:56:22Z</time>
      </trkpt>
      <trkpt lat="44.78615" lon="4.6186">
        <ele>462</ele>
        <time>2015-04-02T08:56:27Z</time>
      </trkpt>
      <trkpt lat="44.78618" lon="4.61865">
        <ele>462</ele>
        <time>2015-04-02T08:56:31Z</time>
      </trkpt>
      <trkpt lat="44.78622" lon="4.6187">
        <ele>461</ele>
        <time>2015-04-02T08:56:35Z</time>
      </trkpt>
      <trkpt lat="44.78624" lon="4.61877">
        <ele>462</ele>
        <time>2015-04-02T08:56:39Z</time>
      </trkpt>
      <trkpt lat="44.78626" lon="4.61883">
        <ele>462</ele>
        <time>2015-04-02T08:56:44Z</time>
      </trkpt>
      <trkpt lat="44.78629" lon="4.6189">
        <ele>462</ele>
        <time>2015-04-02T08:56:48Z</time>
      </trkpt>
      <trkpt lat="44.78631" lon="4.61896">
        <ele>462</ele>
        <time>2015-04-02T08:56:52Z</time>
      </trkpt>
      <trkpt lat="44.78632" lon="4.61903">
        <ele>462</ele>
        <time>2015-04-02T08:56:57Z</time>
      </trkpt>
      <trkpt lat="44.78635" lon="4.61908">
        <ele>462</ele>
        <time>2015-04-02T08:57:02Z</time>
      </trkpt>
      <trkpt lat="44.78638" lon="4.61913">
        <ele>462</ele>
        <time>2015-04-02T08:57:06Z</time>
      </trkpt>
      <trkpt lat="44.7864" lon="4.61919">
        <ele>460</ele>
        <time>2015-04-02T08:57:10Z</time>
      </trkpt>
      <trkpt lat="44.78643" lon="4.61925">
        <ele>460</ele>
        <time>2015-04-02T08:57:14Z</time>
      </trkpt>
      <trkpt lat="44.78645" lon="4.61931">
        <ele>460</ele>
        <time>2015-04-02T08:57:18Z</time>
      </trkpt>
      <trkpt lat="44.78643" lon="4.61939">
        <ele>459</ele>
        <time>2015-04-02T08:57:22Z</time>
      </trkpt>
      <trkpt lat="44.78643" lon="4.61946">
        <ele>459</ele>
        <time>2015-04-02T08:57:26Z</time>
      </trkpt>
      <trkpt lat="44.78644" lon="4.61954">
        <ele>458</ele>
        <time>2015-04-02T08:57:31Z</time>
      </trkpt>
      <trkpt lat="44.78647" lon="4.61959">
        <ele>458</ele>
        <time>2015-04-02T08:57:35Z</time>
      </trkpt>
      <trkpt lat="44.78652" lon="4.61963">
        <ele>458</ele>
        <time>2015-04-02T08:57:39Z</time>
      </trkpt>
      <trkpt lat="44.78656" lon="4.61967">
        <ele>458</ele>
        <time>2015-04-02T08:57:42Z</time>
      </trkpt>
      <trkpt lat="44.78659" lon="4.61973">
        <ele>457</ele>
        <time>2015-04-02T08:57:48Z</time>
      </trkpt>
      <trkpt lat="44.78661" lon="4.61981">
        <ele>457</ele>
        <time>2015-04-02T08:57:56Z</time>
      </trkpt>
      <trkpt lat="44.78663" lon="4.61987">
        <ele>457</ele>
        <time>2015-04-02T08:58:01Z</time>
      </trkpt>
      <trkpt lat="44.78668" lon="4.61992">
        <ele>459</ele>
        <time>2015-04-02T08:58:05Z</time>
      </trkpt>
      <trkpt lat="44.78672" lon="4.61996">
        <ele>458</ele>
        <time>2015-04-02T08:58:09Z</time>
      </trkpt>
      <trkpt lat="44.78676" lon="4.62">
        <ele>459</ele>
        <time>2015-04-02T08:58:13Z</time>
      </trkpt>
      <trkpt lat="44.7868" lon="4.62004">
        <ele>456</ele>
        <time>2015-04-02T08:58:17Z</time>
      </trkpt>
      <trkpt lat="44.78684" lon="4.62009">
        <ele>455</ele>
        <time>2015-04-02T08:58:22Z</time>
      </trkpt>
      <trkpt lat="44.78689" lon="4.62021">
        <ele>454</ele>
        <time>2015-04-02T08:58:31Z</time>
      </trkpt>
      <trkpt lat="44.78689" lon="4.62028">
        <ele>454</ele>
        <time>2015-04-02T08:58:36Z</time>
      </trkpt>
      <trkpt lat="44.78693" lon="4.62033">
        <ele>453</ele>
        <time>2015-04-02T08:58:41Z</time>
      </trkpt>
      <trkpt lat="44.78695" lon="4.62038">
        <ele>453</ele>
        <time>2015-04-02T08:58:45Z</time>
      </trkpt>
      <trkpt lat="44.78698" lon="4.62043">
        <ele>453</ele>
        <time>2015-04-02T08:58:49Z</time>
      </trkpt>
      <trkpt lat="44.78701" lon="4.62049">
        <ele>452</ele>
        <time>2015-04-02T08:58:53Z</time>
      </trkpt>
      <trkpt lat="44.78705" lon="4.62054">
        <ele>452</ele>
        <time>2015-04-02T08:58:57Z</time>
      </trkpt>
      <trkpt lat="44.78708" lon="4.62059">
        <ele>452</ele>
        <time>2015-04-02T08:59:01Z</time>
      </trkpt>
      <trkpt lat="44.78711" lon="4.62065">
        <ele>452</ele>
        <time>2015-04-02T08:59:05Z</time>
      </trkpt>
      <trkpt lat="44.78714" lon="4.6207">
        <ele>452</ele>
        <time>2015-04-02T08:59:09Z</time>
      </trkpt>
      <trkpt lat="44.78717" lon="4.62077">
        <ele>452</ele>
        <time>2015-04-02T08:59:14Z</time>
      </trkpt>
      <trkpt lat="44.78721" lon="4.62083">
        <ele>452</ele>
        <time>2015-04-02T08:59:19Z</time>
      </trkpt>
      <trkpt lat="44.78723" lon="4.6209">
        <ele>443</ele>
        <time>2015-04-02T08:59:24Z</time>
      </trkpt>
      <trkpt lat="44.78725" lon="4.62096">
        <ele>443</ele>
        <time>2015-04-02T08:59:29Z</time>
      </trkpt>
      <trkpt lat="44.78727" lon="4.62102">
        <ele>443</ele>
        <time>2015-04-02T08:59:33Z</time>
      </trkpt>
      <trkpt lat="44.78728" lon="4.62109">
        <ele>442</ele>
        <time>2015-04-02T08:59:37Z</time>
      </trkpt>
      <trkpt lat="44.78729" lon="4.62116">
        <ele>441</ele>
        <time>2015-04-02T08:59:41Z</time>
      </trkpt>
      <trkpt lat="44.7873" lon="4.62123">
        <ele>441</ele>
        <time>2015-04-02T08:59:45Z</time>
      </trkpt>
      <trkpt lat="44.7873" lon="4.62129">
        <ele>440</ele>
        <time>2015-04-02T08:59:48Z</time>
      </trkpt>
      <trkpt lat="44.7873" lon="4.62136">
        <ele>439</ele>
        <time>2015-04-02T08:59:52Z</time>
      </trkpt>
      <trkpt lat="44.78729" lon="4.62143">
        <ele>439</ele>
        <time>2015-04-02T08:59:56Z</time>
      </trkpt>
      <trkpt lat="44.78731" lon="4.62151">
        <ele>439</ele>
        <time>2015-04-02T09:00:01Z</time>
      </trkpt>
      <trkpt lat="44.78734" lon="4.62159">
        <ele>439</ele>
        <time>2015-04-02T09:00:06Z</time>
      </trkpt>
      <trkpt lat="44.78736" lon="4.62165">
        <ele>439</ele>
        <time>2015-04-02T09:00:10Z</time>
      </trkpt>
      <trkpt lat="44.78737" lon="4.62172">
        <ele>434</ele>
        <time>2015-04-02T09:00:14Z</time>
      </trkpt>
      <trkpt lat="44.78737" lon="4.62179">
        <ele>432</ele>
        <time>2015-04-02T09:00:19Z</time>
      </trkpt>
      <trkpt lat="44.78738" lon="4.62186">
        <ele>431</ele>
        <time>2015-04-02T09:00:25Z</time>
      </trkpt>
      <trkpt lat="44.7874" lon="4.62192">
        <ele>430</ele>
        <time>2015-04-02T09:00:30Z</time>
      </trkpt>
      <trkpt lat="44.78743" lon="4.62198">
        <ele>429</ele>
        <time>2015-04-02T09:00:35Z</time>
      </trkpt>
      <trkpt lat="44.78745" lon="4.62203">
        <ele>429</ele>
        <time>2015-04-02T09:00:40Z</time>
      </trkpt>
      <trkpt lat="44.78748" lon="4.62209">
        <ele>428</ele>
        <time>2015-04-02T09:00:45Z</time>
      </trkpt>
      <trkpt lat="44.78748" lon="4.62217">
        <ele>427</ele>
        <time>2015-04-02T09:00:50Z</time>
      </trkpt>
      <trkpt lat="44.78751" lon="4.62223">
        <ele>433</ele>
        <time>2015-04-02T09:00:55Z</time>
      </trkpt>
      <trkpt lat="44.78753" lon="4.6223">
        <ele>432</ele>
        <time>2015-04-02T09:00:59Z</time>
      </trkpt>
      <trkpt lat="44.78756" lon="4.62237">
        <ele>432</ele>
        <time>2015-04-02T09:01:03Z</time>
      </trkpt>
      <trkpt lat="44.78759" lon="4.62245">
        <ele>431</ele>
        <time>2015-04-02T09:01:08Z</time>
      </trkpt>
      <trkpt lat="44.78762" lon="4.62251">
        <ele>429</ele>
        <time>2015-04-02T09:01:15Z</time>
      </trkpt>
      <trkpt lat="44.78766" lon="4.62255">
        <ele>428</ele>
        <time>2015-04-02T09:01:20Z</time>
      </trkpt>
      <trkpt lat="44.78769" lon="4.6226">
        <ele>428</ele>
        <time>2015-04-02T09:01:24Z</time>
      </trkpt>
      <trkpt lat="44.78773" lon="4.62264">
        <ele>428</ele>
        <time>2015-04-02T09:01:28Z</time>
      </trkpt>
      <trkpt lat="44.78777" lon="4.62269">
        <ele>428</ele>
        <time>2015-04-02T09:01:32Z</time>
      </trkpt>
      <trkpt lat="44.78781" lon="4.62274">
        <ele>428</ele>
        <time>2015-04-02T09:01:36Z</time>
      </trkpt>
      <trkpt lat="44.78785" lon="4.62279">
        <ele>428</ele>
        <time>2015-04-02T09:01:40Z</time>
      </trkpt>
      <trkpt lat="44.78789" lon="4.62283">
        <ele>428</ele>
        <time>2015-04-02T09:01:43Z</time>
      </trkpt>
      <trkpt lat="44.78793" lon="4.62286">
        <ele>428</ele>
        <time>2015-04-02T09:01:46Z</time>
      </trkpt>
      <trkpt lat="44.78798" lon="4.6229">
        <ele>429</ele>
        <time>2015-04-02T09:01:50Z</time>
      </trkpt>
      <trkpt lat="44.78804" lon="4.62293">
        <ele>429</ele>
        <time>2015-04-02T09:01:54Z</time>
      </trkpt>
      <trkpt lat="44.78808" lon="4.62294">
        <ele>429</ele>
        <time>2015-04-02T09:01:58Z</time>
      </trkpt>
      <trkpt lat="44.78813" lon="4.62292">
        <ele>430</ele>
        <time>2015-04-02T09:02:03Z</time>
      </trkpt>
      <trkpt lat="44.78817" lon="4.62289">
        <ele>430</ele>
        <time>2015-04-02T09:02:08Z</time>
      </trkpt>
      <trkpt lat="44.7882" lon="4.62283">
        <ele>430</ele>
        <time>2015-04-02T09:02:12Z</time>
      </trkpt>
      <trkpt lat="44.78822" lon="4.62276">
        <ele>431</ele>
        <time>2015-04-02T09:02:16Z</time>
      </trkpt>
      <trkpt lat="44.78824" lon="4.6227">
        <ele>431</ele>
        <time>2015-04-02T09:02:21Z</time>
      </trkpt>
      <trkpt lat="44.78826" lon="4.62261">
        <ele>432</ele>
        <time>2015-04-02T09:02:29Z</time>
      </trkpt>
      <trkpt lat="44.78829" lon="4.62255">
        <ele>434</ele>
        <time>2015-04-02T09:02:34Z</time>
      </trkpt>
      <trkpt lat="44.78832" lon="4.62249">
        <ele>435</ele>
        <time>2015-04-02T09:02:43Z</time>
      </trkpt>
      <trkpt lat="44.78836" lon="4.62251">
        <ele>434</ele>
        <time>2015-04-02T09:02:49Z</time>
      </trkpt>
      <trkpt lat="44.78839" lon="4.62258">
        <ele>433</ele>
        <time>2015-04-02T09:02:54Z</time>
      </trkpt>
      <trkpt lat="44.78839" lon="4.62264">
        <ele>432</ele>
        <time>2015-04-02T09:02:57Z</time>
      </trkpt>
      <trkpt lat="44.78835" lon="4.62271">
        <ele>431</ele>
        <time>2015-04-02T09:03:01Z</time>
      </trkpt>
      <trkpt lat="44.78834" lon="4.62278">
        <ele>431</ele>
        <time>2015-04-02T09:03:05Z</time>
      </trkpt>
      <trkpt lat="44.78833" lon="4.62285">
        <ele>431</ele>
        <time>2015-04-02T09:03:09Z</time>
      </trkpt>
      <trkpt lat="44.7883" lon="4.62291">
        <ele>431</ele>
        <time>2015-04-02T09:03:15Z</time>
      </trkpt>
      <trkpt lat="44.78827" lon="4.62296">
        <ele>430</ele>
        <time>2015-04-02T09:03:19Z</time>
      </trkpt>
      <trkpt lat="44.78822" lon="4.62301">
        <ele>430</ele>
        <time>2015-04-02T09:03:22Z</time>
      </trkpt>
      <trkpt lat="44.78816" lon="4.62306">
        <ele>430</ele>
        <time>2015-04-02T09:03:27Z</time>
      </trkpt>
      <trkpt lat="44.78811" lon="4.62309">
        <ele>429</ele>
        <time>2015-04-02T09:03:32Z</time>
      </trkpt>
      <trkpt lat="44.78806" lon="4.6231">
        <ele>429</ele>
        <time>2015-04-02T09:03:36Z</time>
      </trkpt>
      <trkpt lat="44.78801" lon="4.62309">
        <ele>428</ele>
        <time>2015-04-02T09:03:40Z</time>
      </trkpt>
      <trkpt lat="44.78797" lon="4.62307">
        <ele>428</ele>
        <time>2015-04-02T09:03:44Z</time>
      </trkpt>
      <trkpt lat="44.78791" lon="4.62306">
        <ele>427</ele>
        <time>2015-04-02T09:03:48Z</time>
      </trkpt>
      <trkpt lat="44.78787" lon="4.62302">
        <ele>427</ele>
        <time>2015-04-02T09:03:52Z</time>
      </trkpt>
      <trkpt lat="44.78782" lon="4.62301">
        <ele>427</ele>
        <time>2015-04-02T09:03:56Z</time>
      </trkpt>
      <trkpt lat="44.78778" lon="4.62298">
        <ele>426</ele>
        <time>2015-04-02T09:04:01Z</time>
      </trkpt>
      <trkpt lat="44.78773" lon="4.62292">
        <ele>426</ele>
        <time>2015-04-02T09:04:07Z</time>
      </trkpt>
      <trkpt lat="44.78769" lon="4.62287">
        <ele>427</ele>
        <time>2015-04-02T09:04:11Z</time>
      </trkpt>
      <trkpt lat="44.78766" lon="4.62281">
        <ele>427</ele>
        <time>2015-04-02T09:04:15Z</time>
      </trkpt>
      <trkpt lat="44.78761" lon="4.62277">
        <ele>427</ele>
        <time>2015-04-02T09:04:20Z</time>
      </trkpt>
      <trkpt lat="44.78757" lon="4.62272">
        <ele>427</ele>
        <time>2015-04-02T09:04:29Z</time>
      </trkpt>
      <trkpt lat="44.78753" lon="4.6227">
        <ele>428</ele>
        <time>2015-04-02T09:04:34Z</time>
      </trkpt>
      <trkpt lat="44.78749" lon="4.62266">
        <ele>421</ele>
        <time>2015-04-02T09:04:38Z</time>
      </trkpt>
      <trkpt lat="44.78745" lon="4.62261">
        <ele>422</ele>
        <time>2015-04-02T09:04:41Z</time>
      </trkpt>
      <trkpt lat="44.78742" lon="4.62255">
        <ele>423</ele>
        <time>2015-04-02T09:04:44Z</time>
      </trkpt>
      <trkpt lat="44.7874" lon="4.62247">
        <ele>427</ele>
        <time>2015-04-02T09:04:47Z</time>
      </trkpt>
      <trkpt lat="44.78736" lon="4.62241">
        <ele>426</ele>
        <time>2015-04-02T09:04:51Z</time>
      </trkpt>
      <trkpt lat="44.78732" lon="4.62236">
        <ele>426</ele>
        <time>2015-04-02T09:04:59Z</time>
      </trkpt>
      <trkpt lat="44.78728" lon="4.62232">
        <ele>425</ele>
        <time>2015-04-02T09:05:04Z</time>
      </trkpt>
      <trkpt lat="44.78724" lon="4.62227">
        <ele>425</ele>
        <time>2015-04-02T09:05:08Z</time>
      </trkpt>
      <trkpt lat="44.7872" lon="4.62222">
        <ele>425</ele>
        <time>2015-04-02T09:05:12Z</time>
      </trkpt>
      <trkpt lat="44.78716" lon="4.62218">
        <ele>424</ele>
        <time>2015-04-02T09:05:16Z</time>
      </trkpt>
      <trkpt lat="44.78713" lon="4.62214">
        <ele>424</ele>
        <time>2015-04-02T09:05:20Z</time>
      </trkpt>
      <trkpt lat="44.7871" lon="4.62208">
        <ele>424</ele>
        <time>2015-04-02T09:05:24Z</time>
      </trkpt>
      <trkpt lat="44.78708" lon="4.62203">
        <ele>424</ele>
        <time>2015-04-02T09:05:29Z</time>
      </trkpt>
      <trkpt lat="44.78704" lon="4.62198">
        <ele>424</ele>
        <time>2015-04-02T09:05:33Z</time>
      </trkpt>
      <trkpt lat="44.787" lon="4.62193">
        <ele>424</ele>
        <time>2015-04-02T09:05:38Z</time>
      </trkpt>
      <trkpt lat="44.78696" lon="4.62188">
        <ele>424</ele>
        <time>2015-04-02T09:05:42Z</time>
      </trkpt>
      <trkpt lat="44.78692" lon="4.62183">
        <ele>423</ele>
        <time>2015-04-02T09:05:46Z</time>
      </trkpt>
      <trkpt lat="44.78687" lon="4.62185">
        <ele>423</ele>
        <time>2015-04-02T09:05:49Z</time>
      </trkpt>
      <trkpt lat="44.78684" lon="4.62181">
        <ele>422</ele>
        <time>2015-04-02T09:05:54Z</time>
      </trkpt>
      <trkpt lat="44.78682" lon="4.62175">
        <ele>422</ele>
        <time>2015-04-02T09:05:57Z</time>
      </trkpt>
      <trkpt lat="44.78682" lon="4.62168">
        <ele>422</ele>
        <time>2015-04-02T09:06:00Z</time>
      </trkpt>
      <trkpt lat="44.78679" lon="4.62162">
        <ele>428</ele>
        <time>2015-04-02T09:06:03Z</time>
      </trkpt>
      <trkpt lat="44.78676" lon="4.62156">
        <ele>428</ele>
        <time>2015-04-02T09:06:07Z</time>
      </trkpt>
      <trkpt lat="44.78672" lon="4.62151">
        <ele>429</ele>
        <time>2015-04-02T09:06:11Z</time>
      </trkpt>
      <trkpt lat="44.78667" lon="4.62149">
        <ele>429</ele>
        <time>2015-04-02T09:06:15Z</time>
      </trkpt>
      <trkpt lat="44.78663" lon="4.62144">
        <ele>421</ele>
        <time>2015-04-02T09:06:19Z</time>
      </trkpt>
      <trkpt lat="44.78659" lon="4.62139">
        <ele>422</ele>
        <time>2015-04-02T09:06:23Z</time>
      </trkpt>
      <trkpt lat="44.78656" lon="4.62133">
        <ele>422</ele>
        <time>2015-04-02T09:06:28Z</time>
      </trkpt>
      <trkpt lat="44.78653" lon="4.62127">
        <ele>423</ele>
        <time>2015-04-02T09:06:33Z</time>
      </trkpt>
      <trkpt lat="44.7865" lon="4.62121">
        <ele>424</ele>
        <time>2015-04-02T09:06:37Z</time>
      </trkpt>
      <trkpt lat="44.78648" lon="4.62115">
        <ele>424</ele>
        <time>2015-04-02T09:06:41Z</time>
      </trkpt>
      <trkpt lat="44.78645" lon="4.6211">
        <ele>425</ele>
        <time>2015-04-02T09:06:45Z</time>
      </trkpt>
      <trkpt lat="44.7864" lon="4.6211">
        <ele>424</ele>
        <time>2015-04-02T09:06:49Z</time>
      </trkpt>
      <trkpt lat="44.78637" lon="4.62103">
        <ele>425</ele>
        <time>2015-04-02T09:06:54Z</time>
      </trkpt>
      <trkpt lat="44.78634" lon="4.62099">
        <ele>424</ele>
        <time>2015-04-02T09:06:59Z</time>
      </trkpt>
      <trkpt lat="44.78629" lon="4.62095">
        <ele>424</ele>
        <time>2015-04-02T09:07:04Z</time>
      </trkpt>
      <trkpt lat="44.78625" lon="4.62091">
        <ele>423</ele>
        <time>2015-04-02T09:07:09Z</time>
      </trkpt>
      <trkpt lat="44.7862" lon="4.62088">
        <ele>423</ele>
        <time>2015-04-02T09:07:13Z</time>
      </trkpt>
      <trkpt lat="44.78614" lon="4.62084">
        <ele>422</ele>
        <time>2015-04-02T09:07:18Z</time>
      </trkpt>
      <trkpt lat="44.7861" lon="4.6208">
        <ele>432</ele>
        <time>2015-04-02T09:07:22Z</time>
      </trkpt>
      <trkpt lat="44.78606" lon="4.62076">
        <ele>431</ele>
        <time>2015-04-02T09:07:26Z</time>
      </trkpt>
      <trkpt lat="44.786" lon="4.62072">
        <ele>430</ele>
        <time>2015-04-02T09:07:31Z</time>
      </trkpt>
      <trkpt lat="44.78596" lon="4.62069">
        <ele>430</ele>
        <time>2015-04-02T09:07:35Z</time>
      </trkpt>
      <trkpt lat="44.78592" lon="4.62068">
        <ele>429</ele>
        <time>2015-04-02T09:07:39Z</time>
      </trkpt>
      <trkpt lat="44.78587" lon="4.62069">
        <ele>428</ele>
        <time>2015-04-02T09:07:42Z</time>
      </trkpt>
      <trkpt lat="44.78582" lon="4.62068">
        <ele>423</ele>
        <time>2015-04-02T09:07:46Z</time>
      </trkpt>
      <trkpt lat="44.78576" lon="4.62069">
        <ele>423</ele>
        <time>2015-04-02T09:07:50Z</time>
      </trkpt>
      <trkpt lat="44.78571" lon="4.62068">
        <ele>424</ele>
        <time>2015-04-02T09:07:54Z</time>
      </trkpt>
      <trkpt lat="44.78566" lon="4.62066">
        <ele>424</ele>
        <time>2015-04-02T09:07:58Z</time>
      </trkpt>
      <trkpt lat="44.78561" lon="4.62063">
        <ele>425</ele>
        <time>2015-04-02T09:08:03Z</time>
      </trkpt>
      <trkpt lat="44.78559" lon="4.62057">
        <ele>426</ele>
        <time>2015-04-02T09:08:06Z</time>
      </trkpt>
      <trkpt lat="44.78553" lon="4.62055">
        <ele>426</ele>
        <time>2015-04-02T09:08:11Z</time>
      </trkpt>
      <trkpt lat="44.78548" lon="4.62059">
        <ele>425</ele>
        <time>2015-04-02T09:08:18Z</time>
      </trkpt>
      <trkpt lat="44.78546" lon="4.62065">
        <ele>424</ele>
        <time>2015-04-02T09:08:22Z</time>
      </trkpt>
      <trkpt lat="44.78545" lon="4.62072">
        <ele>424</ele>
        <time>2015-04-02T09:08:25Z</time>
      </trkpt>
      <trkpt lat="44.78547" lon="4.62078">
        <ele>423</ele>
        <time>2015-04-02T09:08:30Z</time>
      </trkpt>
      <trkpt lat="44.7855" lon="4.62083">
        <ele>423</ele>
        <time>2015-04-02T09:08:41Z</time>
      </trkpt>
      <trkpt lat="44.78552" lon="4.62089">
        <ele>413</ele>
        <time>2015-04-02T09:08:45Z</time>
      </trkpt>
      <trkpt lat="44.78551" lon="4.62097">
        <ele>412</ele>
        <time>2015-04-02T09:08:49Z</time>
      </trkpt>
      <trkpt lat="44.78549" lon="4.62105">
        <ele>412</ele>
        <time>2015-04-02T09:08:53Z</time>
      </trkpt>
      <trkpt lat="44.78547" lon="4.62112">
        <ele>411</ele>
        <time>2015-04-02T09:08:56Z</time>
      </trkpt>
      <trkpt lat="44.78548" lon="4.62119">
        <ele>410</ele>
        <time>2015-04-02T09:08:59Z</time>
      </trkpt>
      <trkpt lat="44.7855" lon="4.62126">
        <ele>410</ele>
        <time>2015-04-02T09:09:03Z</time>
      </trkpt>
      <trkpt lat="44.78553" lon="4.62132">
        <ele>409</ele>
        <time>2015-04-02T09:09:11Z</time>
      </trkpt>
      <trkpt lat="44.78552" lon="4.62139">
        <ele>409</ele>
        <time>2015-04-02T09:09:17Z</time>
      </trkpt>
      <trkpt lat="44.78553" lon="4.62146">
        <ele>408</ele>
        <time>2015-04-02T09:09:21Z</time>
      </trkpt>
      <trkpt lat="44.78554" lon="4.62152">
        <ele>408</ele>
        <time>2015-04-02T09:09:25Z</time>
      </trkpt>
      <trkpt lat="44.78553" lon="4.62159">
        <ele>408</ele>
        <time>2015-04-02T09:09:29Z</time>
      </trkpt>
      <trkpt lat="44.78553" lon="4.62166">
        <ele>407</ele>
        <time>2015-04-02T09:09:33Z</time>
      </trkpt>
      <trkpt lat="44.78551" lon="4.62173">
        <ele>404</ele>
        <time>2015-04-02T09:09:38Z</time>
      </trkpt>
      <trkpt lat="44.78548" lon="4.62179">
        <ele>404</ele>
        <time>2015-04-02T09:09:42Z</time>
      </trkpt>
      <trkpt lat="44.78547" lon="4.62186">
        <ele>404</ele>
        <time>2015-04-02T09:09:46Z</time>
      </trkpt>
      <trkpt lat="44.78545" lon="4.62193">
        <ele>404</ele>
        <time>2015-04-02T09:09:50Z</time>
      </trkpt>
      <trkpt lat="44.78545" lon="4.622">
        <ele>404</ele>
        <time>2015-04-02T09:09:53Z</time>
      </trkpt>
      <trkpt lat="44.78544" lon="4.62207">
        <ele>404</ele>
        <time>2015-04-02T09:09:57Z</time>
      </trkpt>
      <trkpt lat="44.78547" lon="4.62213">
        <ele>404</ele>
        <time>2015-04-02T09:10:01Z</time>
      </trkpt>
      <trkpt lat="44.78551" lon="4.62216">
        <ele>404</ele>
        <time>2015-04-02T09:10:05Z</time>
      </trkpt>
      <trkpt lat="44.78555" lon="4.62219">
        <ele>404</ele>
        <time>2015-04-02T09:10:09Z</time>
      </trkpt>
      <trkpt lat="44.78559" lon="4.62222">
        <ele>404</ele>
        <time>2015-04-02T09:10:13Z</time>
      </trkpt>
      <trkpt lat="44.78564" lon="4.62226">
        <ele>404</ele>
        <time>2015-04-02T09:10:18Z</time>
      </trkpt>
      <trkpt lat="44.78568" lon="4.6223">
        <ele>404</ele>
        <time>2015-04-02T09:10:22Z</time>
      </trkpt>
      <trkpt lat="44.78573" lon="4.62236">
        <ele>403</ele>
        <time>2015-04-02T09:10:26Z</time>
      </trkpt>
      <trkpt lat="44.78577" lon="4.62242">
        <ele>403</ele>
        <time>2015-04-02T09:10:30Z</time>
      </trkpt>
      <trkpt lat="44.78581" lon="4.62247">
        <ele>402</ele>
        <time>2015-04-02T09:10:34Z</time>
      </trkpt>
      <trkpt lat="44.78586" lon="4.62255">
        <ele>402</ele>
        <time>2015-04-02T09:10:40Z</time>
      </trkpt>
      <trkpt lat="44.78589" lon="4.6226">
        <ele>403</ele>
        <time>2015-04-02T09:10:44Z</time>
      </trkpt>
      <trkpt lat="44.78591" lon="4.62266">
        <ele>403</ele>
        <time>2015-04-02T09:10:48Z</time>
      </trkpt>
      <trkpt lat="44.78594" lon="4.62273">
        <ele>403</ele>
        <time>2015-04-02T09:10:53Z</time>
      </trkpt>
      <trkpt lat="44.78596" lon="4.6228">
        <ele>403</ele>
        <time>2015-04-02T09:10:57Z</time>
      </trkpt>
      <trkpt lat="44.78599" lon="4.62287">
        <ele>403</ele>
        <time>2015-04-02T09:11:01Z</time>
      </trkpt>
      <trkpt lat="44.78601" lon="4.62293">
        <ele>403</ele>
        <time>2015-04-02T09:11:05Z</time>
      </trkpt>
      <trkpt lat="44.78603" lon="4.62299">
        <ele>403</ele>
        <time>2015-04-02T09:11:09Z</time>
      </trkpt>
      <trkpt lat="44.78604" lon="4.62306">
        <ele>403</ele>
        <time>2015-04-02T09:11:13Z</time>
      </trkpt>
      <trkpt lat="44.78605" lon="4.62313">
        <ele>404</ele>
        <time>2015-04-02T09:11:17Z</time>
      </trkpt>
      <trkpt lat="44.78606" lon="4.6232">
        <ele>404</ele>
        <time>2015-04-02T09:11:22Z</time>
      </trkpt>
      <trkpt lat="44.78608" lon="4.62326">
        <ele>404</ele>
        <time>2015-04-02T09:11:26Z</time>
      </trkpt>
      <trkpt lat="44.7861" lon="4.62332">
        <ele>404</ele>
        <time>2015-04-02T09:11:30Z</time>
      </trkpt>
      <trkpt lat="44.78612" lon="4.62339">
        <ele>404</ele>
        <time>2015-04-02T09:11:34Z</time>
      </trkpt>
      <trkpt lat="44.78614" lon="4.62345">
        <ele>404</ele>
        <time>2015-04-02T09:11:38Z</time>
      </trkpt>
      <trkpt lat="44.78615" lon="4.62351">
        <ele>404</ele>
        <time>2015-04-02T09:11:43Z</time>
      </trkpt>
      <trkpt lat="44.78615" lon="4.62359">
        <ele>404</ele>
        <time>2015-04-02T09:11:48Z</time>
      </trkpt>
      <trkpt lat="44.78616" lon="4.62367">
        <ele>404</ele>
        <time>2015-04-02T09:11:52Z</time>
      </trkpt>
      <trkpt lat="44.78618" lon="4.62375">
        <ele>404</ele>
        <time>2015-04-02T09:11:56Z</time>
      </trkpt>
      <trkpt lat="44.78619" lon="4.62382">
        <ele>404</ele>
        <time>2015-04-02T09:12:00Z</time>
      </trkpt>
      <trkpt lat="44.7862" lon="4.6239">
        <ele>404</ele>
        <time>2015-04-02T09:12:05Z</time>
      </trkpt>
      <trkpt lat="44.78621" lon="4.62396">
        <ele>404</ele>
        <time>2015-04-02T09:12:09Z</time>
      </trkpt>
      <trkpt lat="44.78624" lon="4.62401">
        <ele>404</ele>
        <time>2015-04-02T09:12:13Z</time>
      </trkpt>
      <trkpt lat="44.78627" lon="4.62408">
        <ele>404</ele>
        <time>2015-04-02T09:12:17Z</time>
      </trkpt>
      <trkpt lat="44.78628" lon="4.62417">
        <ele>405</ele>
        <time>2015-04-02T09:12:22Z</time>
      </trkpt>
      <trkpt lat="44.78628" lon="4.62425">
        <ele>405</ele>
        <time>2015-04-02T09:12:26Z</time>
      </trkpt>
      <trkpt lat="44.78628" lon="4.62432">
        <ele>405</ele>
        <time>2015-04-02T09:12:30Z</time>
      </trkpt>
      <trkpt lat="44.78629" lon="4.62439">
        <ele>405</ele>
        <time>2015-04-02T09:12:35Z</time>
      </trkpt>
      <trkpt lat="44.7863" lon="4.62445">
        <ele>405</ele>
        <time>2015-04-02T09:12:39Z</time>
      </trkpt>
      <trkpt lat="44.7863" lon="4.62452">
        <ele>405</ele>
        <time>2015-04-02T09:12:43Z</time>
      </trkpt>
      <trkpt lat="44.78632" lon="4.62458">
        <ele>405</ele>
        <time>2015-04-02T09:12:47Z</time>
      </trkpt>
      <trkpt lat="44.78634" lon="4.62465">
        <ele>405</ele>
        <time>2015-04-02T09:12:51Z</time>
      </trkpt>
      <trkpt lat="44.78635" lon="4.62473">
        <ele>405</ele>
        <time>2015-04-02T09:13:02Z</time>
      </trkpt>
      <trkpt lat="44.78636" lon="4.6248">
        <ele>405</ele>
        <time>2015-04-02T09:13:05Z</time>
      </trkpt>
      <trkpt lat="44.78638" lon="4.62487">
        <ele>404</ele>
        <time>2015-04-02T09:13:08Z</time>
      </trkpt>
      <trkpt lat="44.78639" lon="4.62493">
        <ele>404</ele>
        <time>2015-04-02T09:13:11Z</time>
      </trkpt>
      <trkpt lat="44.7864" lon="4.62501">
        <ele>404</ele>
        <time>2015-04-02T09:13:15Z</time>
      </trkpt>
      <trkpt lat="44.7864" lon="4.6251">
        <ele>404</ele>
        <time>2015-04-02T09:13:19Z</time>
      </trkpt>
      <trkpt lat="44.78642" lon="4.62516">
        <ele>404</ele>
        <time>2015-04-02T09:13:22Z</time>
      </trkpt>
      <trkpt lat="44.78643" lon="4.62524">
        <ele>404</ele>
        <time>2015-04-02T09:13:26Z</time>
      </trkpt>
      <trkpt lat="44.78645" lon="4.62532">
        <ele>404</ele>
        <time>2015-04-02T09:13:30Z</time>
      </trkpt>
      <trkpt lat="44.78647" lon="4.62539">
        <ele>404</ele>
        <time>2015-04-02T09:13:34Z</time>
      </trkpt>
      <trkpt lat="44.78647" lon="4.62547">
        <ele>404</ele>
        <time>2015-04-02T09:13:38Z</time>
      </trkpt>
      <trkpt lat="44.78648" lon="4.62554">
        <ele>404</ele>
        <time>2015-04-02T09:13:42Z</time>
      </trkpt>
      <trkpt lat="44.78648" lon="4.62562">
        <ele>404</ele>
        <time>2015-04-02T09:13:46Z</time>
      </trkpt>
      <trkpt lat="44.78649" lon="4.62569">
        <ele>403</ele>
        <time>2015-04-02T09:13:50Z</time>
      </trkpt>
      <trkpt lat="44.78651" lon="4.62574">
        <ele>403</ele>
        <time>2015-04-02T09:13:54Z</time>
      </trkpt>
      <trkpt lat="44.78654" lon="4.62581">
        <ele>402</ele>
        <time>2015-04-02T09:13:59Z</time>
      </trkpt>
      <trkpt lat="44.78655" lon="4.62587">
        <ele>403</ele>
        <time>2015-04-02T09:14:03Z</time>
      </trkpt>
      <trkpt lat="44.78657" lon="4.62593">
        <ele>403</ele>
        <time>2015-04-02T09:14:07Z</time>
      </trkpt>
      <trkpt lat="44.78658" lon="4.626">
        <ele>404</ele>
        <time>2015-04-02T09:14:11Z</time>
      </trkpt>
      <trkpt lat="44.78659" lon="4.62608">
        <ele>404</ele>
        <time>2015-04-02T09:14:15Z</time>
      </trkpt>
      <trkpt lat="44.78659" lon="4.62615">
        <ele>405</ele>
        <time>2015-04-02T09:14:20Z</time>
      </trkpt>
      <trkpt lat="44.78661" lon="4.62621">
        <ele>405</ele>
        <time>2015-04-02T09:14:24Z</time>
      </trkpt>
      <trkpt lat="44.78663" lon="4.62628">
        <ele>405</ele>
        <time>2015-04-02T09:14:28Z</time>
      </trkpt>
      <trkpt lat="44.78663" lon="4.62634">
        <ele>405</ele>
        <time>2015-04-02T09:14:32Z</time>
      </trkpt>
      <trkpt lat="44.78664" lon="4.62642">
        <ele>405</ele>
        <time>2015-04-02T09:14:36Z</time>
      </trkpt>
      <trkpt lat="44.78664" lon="4.62649">
        <ele>405</ele>
        <time>2015-04-02T09:14:40Z</time>
      </trkpt>
      <trkpt lat="44.78664" lon="4.62656">
        <ele>404</ele>
        <time>2015-04-02T09:14:44Z</time>
      </trkpt>
      <trkpt lat="44.78665" lon="4.62663">
        <ele>404</ele>
        <time>2015-04-02T09:14:48Z</time>
      </trkpt>
      <trkpt lat="44.78664" lon="4.6267">
        <ele>405</ele>
        <time>2015-04-02T09:14:52Z</time>
      </trkpt>
      <trkpt lat="44.78664" lon="4.62677">
        <ele>406</ele>
        <time>2015-04-02T09:14:57Z</time>
      </trkpt>
      <trkpt lat="44.78664" lon="4.62683">
        <ele>408</ele>
        <time>2015-04-02T09:15:00Z</time>
      </trkpt>
      <trkpt lat="44.78665" lon="4.62691">
        <ele>409</ele>
        <time>2015-04-02T09:15:04Z</time>
      </trkpt>
      <trkpt lat="44.78666" lon="4.62699">
        <ele>410</ele>
        <time>2015-04-02T09:15:08Z</time>
      </trkpt>
      <trkpt lat="44.78667" lon="4.62706">
        <ele>405</ele>
        <time>2015-04-02T09:15:12Z</time>
      </trkpt>
      <trkpt lat="44.78667" lon="4.62714">
        <ele>405</ele>
        <time>2015-04-02T09:15:16Z</time>
      </trkpt>
      <trkpt lat="44.78666" lon="4.62721">
        <ele>411</ele>
        <time>2015-04-02T09:15:20Z</time>
      </trkpt>
      <trkpt lat="44.78666" lon="4.62727">
        <ele>411</ele>
        <time>2015-04-02T09:15:24Z</time>
      </trkpt>
      <trkpt lat="44.78665" lon="4.62735">
        <ele>411</ele>
        <time>2015-04-02T09:15:29Z</time>
      </trkpt>
      <trkpt lat="44.78665" lon="4.62741">
        <ele>411</ele>
        <time>2015-04-02T09:15:33Z</time>
      </trkpt>
      <trkpt lat="44.78666" lon="4.62748">
        <ele>410</ele>
        <time>2015-04-02T09:15:37Z</time>
      </trkpt>
      <trkpt lat="44.78665" lon="4.62755">
        <ele>412</ele>
        <time>2015-04-02T09:15:41Z</time>
      </trkpt>
      <trkpt lat="44.78666" lon="4.62762">
        <ele>414</ele>
        <time>2015-04-02T09:15:46Z</time>
      </trkpt>
      <trkpt lat="44.78665" lon="4.6277">
        <ele>415</ele>
        <time>2015-04-02T09:15:51Z</time>
      </trkpt>
      <trkpt lat="44.78663" lon="4.62776">
        <ele>416</ele>
        <time>2015-04-02T09:15:57Z</time>
      </trkpt>
      <trkpt lat="44.78662" lon="4.62784">
        <ele>417</ele>
        <time>2015-04-02T09:16:06Z</time>
      </trkpt>
      <trkpt lat="44.7866" lon="4.62791">
        <ele>417</ele>
        <time>2015-04-02T09:16:09Z</time>
      </trkpt>
      <trkpt lat="44.78658" lon="4.62798">
        <ele>418</ele>
        <time>2015-04-02T09:16:13Z</time>
      </trkpt>
      <trkpt lat="44.78656" lon="4.62805">
        <ele>418</ele>
        <time>2015-04-02T09:16:16Z</time>
      </trkpt>
      <trkpt lat="44.78653" lon="4.6281">
        <ele>418</ele>
        <time>2015-04-02T09:16:19Z</time>
      </trkpt>
      <trkpt lat="44.7865" lon="4.62817">
        <ele>418</ele>
        <time>2015-04-02T09:16:23Z</time>
      </trkpt>
      <trkpt lat="44.78647" lon="4.62822">
        <ele>419</ele>
        <time>2015-04-02T09:16:28Z</time>
      </trkpt>
      <trkpt lat="44.78644" lon="4.62828">
        <ele>419</ele>
        <time>2015-04-02T09:16:34Z</time>
      </trkpt>
      <trkpt lat="44.78642" lon="4.62834">
        <ele>423</ele>
        <time>2015-04-02T09:16:37Z</time>
      </trkpt>
      <trkpt lat="44.78639" lon="4.6284">
        <ele>424</ele>
        <time>2015-04-02T09:16:41Z</time>
      </trkpt>
      <trkpt lat="44.78637" lon="4.62846">
        <ele>425</ele>
        <time>2015-04-02T09:16:45Z</time>
      </trkpt>
      <trkpt lat="44.78637" lon="4.62854">
        <ele>425</ele>
        <time>2015-04-02T09:16:50Z</time>
      </trkpt>
      <trkpt lat="44.7864" lon="4.62861">
        <ele>426</ele>
        <time>2015-04-02T09:16:56Z</time>
      </trkpt>
      <trkpt lat="44.78643" lon="4.62867">
        <ele>426</ele>
        <time>2015-04-02T09:17:11Z</time>
      </trkpt>
      <trkpt lat="44.78647" lon="4.6287">
        <ele>426</ele>
        <time>2015-04-02T09:17:26Z</time>
      </trkpt>
      <trkpt lat="44.78651" lon="4.62873">
        <ele>426</ele>
        <time>2015-04-02T09:17:42Z</time>
      </trkpt>
      <trkpt lat="44.78653" lon="4.62882">
        <ele>427</ele>
        <time>2015-04-02T09:18:03Z</time>
      </trkpt>
      <trkpt lat="44.78655" lon="4.62889">
        <ele>428</ele>
        <time>2015-04-02T09:18:07Z</time>
      </trkpt>
      <trkpt lat="44.78658" lon="4.62893">
        <ele>428</ele>
        <time>2015-04-02T09:18:10Z</time>
      </trkpt>
      <trkpt lat="44.7866" lon="4.62899">
        <ele>429</ele>
        <time>2015-04-02T09:18:15Z</time>
      </trkpt>
      <trkpt lat="44.78662" lon="4.62905">
        <ele>429</ele>
        <time>2015-04-02T09:18:22Z</time>
      </trkpt>
      <trkpt lat="44.78664" lon="4.62911">
        <ele>430</ele>
        <time>2015-04-02T09:18:32Z</time>
      </trkpt>
      <trkpt lat="44.78667" lon="4.62916">
        <ele>431</ele>
        <time>2015-04-02T09:18:37Z</time>
      </trkpt>
      <trkpt lat="44.7867" lon="4.62923">
        <ele>431</ele>
        <time>2015-04-02T09:18:42Z</time>
      </trkpt>
      <trkpt lat="44.78674" lon="4.62929">
        <ele>430</ele>
        <time>2015-04-02T09:18:47Z</time>
      </trkpt>
      <trkpt lat="44.78679" lon="4.62931">
        <ele>430</ele>
        <time>2015-04-02T09:18:52Z</time>
      </trkpt>
      <trkpt lat="44.78682" lon="4.62937">
        <ele>430</ele>
        <time>2015-04-02T09:18:57Z</time>
      </trkpt>
      <trkpt lat="44.78687" lon="4.62942">
        <ele>430</ele>
        <time>2015-04-02T09:19:01Z</time>
      </trkpt>
      <trkpt lat="44.78692" lon="4.62944">
        <ele>430</ele>
        <time>2015-04-02T09:19:06Z</time>
      </trkpt>
      <trkpt lat="44.78692" lon="4.62951">
        <ele>430</ele>
        <time>2015-04-02T09:19:11Z</time>
      </trkpt>
      <trkpt lat="44.78693" lon="4.62957">
        <ele>431</ele>
        <time>2015-04-02T09:19:16Z</time>
      </trkpt>
      <trkpt lat="44.78697" lon="4.62964">
        <ele>431</ele>
        <time>2015-04-02T09:19:20Z</time>
      </trkpt>
      <trkpt lat="44.78699" lon="4.6297">
        <ele>431</ele>
        <time>2015-04-02T09:19:24Z</time>
      </trkpt>
      <trkpt lat="44.78702" lon="4.62976">
        <ele>431</ele>
        <time>2015-04-02T09:19:35Z</time>
      </trkpt>
      <trkpt lat="44.78704" lon="4.62981">
        <ele>432</ele>
        <time>2015-04-02T09:19:40Z</time>
      </trkpt>
      <trkpt lat="44.78705" lon="4.62988">
        <ele>432</ele>
        <time>2015-04-02T09:19:45Z</time>
      </trkpt>
      <trkpt lat="44.78706" lon="4.62994">
        <ele>432</ele>
        <time>2015-04-02T09:19:52Z</time>
      </trkpt>
      <trkpt lat="44.78708" lon="4.63001">
        <ele>439</ele>
        <time>2015-04-02T09:20:00Z</time>
      </trkpt>
      <trkpt lat="44.78709" lon="4.63008">
        <ele>439</ele>
        <time>2015-04-02T09:20:05Z</time>
      </trkpt>
      <trkpt lat="44.78711" lon="4.63014">
        <ele>439</ele>
        <time>2015-04-02T09:20:14Z</time>
      </trkpt>
      <trkpt lat="44.78714" lon="4.6302">
        <ele>439</ele>
        <time>2015-04-02T09:20:18Z</time>
      </trkpt>
      <trkpt lat="44.78717" lon="4.63029">
        <ele>439</ele>
        <time>2015-04-02T09:20:24Z</time>
      </trkpt>
      <trkpt lat="44.78716" lon="4.63035">
        <ele>440</ele>
        <time>2015-04-02T09:20:31Z</time>
      </trkpt>
      <trkpt lat="44.78718" lon="4.63042">
        <ele>440</ele>
        <time>2015-04-02T09:20:37Z</time>
      </trkpt>
      <trkpt lat="44.7872" lon="4.63048">
        <ele>440</ele>
        <time>2015-04-02T09:20:42Z</time>
      </trkpt>
      <trkpt lat="44.78718" lon="4.63054">
        <ele>441</ele>
        <time>2015-04-02T09:20:48Z</time>
      </trkpt>
      <trkpt lat="44.78717" lon="4.63061">
        <ele>441</ele>
        <time>2015-04-02T09:20:54Z</time>
      </trkpt>
      <trkpt lat="44.78718" lon="4.63068">
        <ele>441</ele>
        <time>2015-04-02T09:21:00Z</time>
      </trkpt>
      <trkpt lat="44.7872" lon="4.63074">
        <ele>441</ele>
        <time>2015-04-02T09:21:04Z</time>
      </trkpt>
      <trkpt lat="44.78721" lon="4.63081">
        <ele>441</ele>
        <time>2015-04-02T09:21:09Z</time>
      </trkpt>
      <trkpt lat="44.78721" lon="4.63088">
        <ele>443</ele>
        <time>2015-04-02T09:21:13Z</time>
      </trkpt>
      <trkpt lat="44.78719" lon="4.63094">
        <ele>444</ele>
        <time>2015-04-02T09:21:17Z</time>
      </trkpt>
      <trkpt lat="44.78718" lon="4.63101">
        <ele>444</ele>
        <time>2015-04-02T09:21:22Z</time>
      </trkpt>
      <trkpt lat="44.78717" lon="4.63108">
        <ele>445</ele>
        <time>2015-04-02T09:21:29Z</time>
      </trkpt>
      <trkpt lat="44.78717" lon="4.63115">
        <ele>445</ele>
        <time>2015-04-02T09:21:35Z</time>
      </trkpt>
      <trkpt lat="44.78715" lon="4.63122">
        <ele>445</ele>
        <time>2015-04-02T09:21:40Z</time>
      </trkpt>
      <trkpt lat="44.78715" lon="4.63129">
        <ele>445</ele>
        <time>2015-04-02T09:21:48Z</time>
      </trkpt>
      <trkpt lat="44.78714" lon="4.63136">
        <ele>445</ele>
        <time>2015-04-02T09:21:53Z</time>
      </trkpt>
      <trkpt lat="44.78716" lon="4.63142">
        <ele>444</ele>
        <time>2015-04-02T09:21:58Z</time>
      </trkpt>
      <trkpt lat="44.78716" lon="4.63149">
        <ele>444</ele>
        <time>2015-04-02T09:22:04Z</time>
      </trkpt>
      <trkpt lat="44.78715" lon="4.63156">
        <ele>444</ele>
        <time>2015-04-02T09:22:11Z</time>
      </trkpt>
      <trkpt lat="44.78713" lon="4.63161">
        <ele>444</ele>
        <time>2015-04-02T09:22:19Z</time>
      </trkpt>
      <trkpt lat="44.78709" lon="4.63166">
        <ele>445</ele>
        <time>2015-04-02T09:22:26Z</time>
      </trkpt>
      <trkpt lat="44.78705" lon="4.63172">
        <ele>443</ele>
        <time>2015-04-02T09:22:32Z</time>
      </trkpt>
      <trkpt lat="44.78702" lon="4.63177">
        <ele>444</ele>
        <time>2015-04-02T09:22:35Z</time>
      </trkpt>
      <trkpt lat="44.78699" lon="4.63183">
        <ele>444</ele>
        <time>2015-04-02T09:22:38Z</time>
      </trkpt>
      <trkpt lat="44.78696" lon="4.63189">
        <ele>445</ele>
        <time>2015-04-02T09:22:45Z</time>
      </trkpt>
      <trkpt lat="44.78692" lon="4.63194">
        <ele>445</ele>
        <time>2015-04-02T09:22:49Z</time>
      </trkpt>
      <trkpt lat="44.78689" lon="4.632">
        <ele>445</ele>
        <time>2015-04-02T09:22:53Z</time>
      </trkpt>
      <trkpt lat="44.78686" lon="4.63206">
        <ele>445</ele>
        <time>2015-04-02T09:22:57Z</time>
      </trkpt>
      <trkpt lat="44.78682" lon="4.63211">
        <ele>445</ele>
        <time>2015-04-02T09:23:01Z</time>
      </trkpt>
      <trkpt lat="44.78679" lon="4.63217">
        <ele>445</ele>
        <time>2015-04-02T09:23:05Z</time>
      </trkpt>
      <trkpt lat="44.78676" lon="4.63223">
        <ele>445</ele>
        <time>2015-04-02T09:23:09Z</time>
      </trkpt>
      <trkpt lat="44.78673" lon="4.63229">
        <ele>446</ele>
        <time>2015-04-02T09:23:13Z</time>
      </trkpt>
      <trkpt lat="44.78671" lon="4.63235">
        <ele>447</ele>
        <time>2015-04-02T09:23:17Z</time>
      </trkpt>
      <trkpt lat="44.78667" lon="4.6324">
        <ele>448</ele>
        <time>2015-04-02T09:23:24Z</time>
      </trkpt>
      <trkpt lat="44.78664" lon="4.63245">
        <ele>453</ele>
        <time>2015-04-02T09:23:29Z</time>
      </trkpt>
      <trkpt lat="44.78661" lon="4.63251">
        <ele>452</ele>
        <time>2015-04-02T09:23:34Z</time>
      </trkpt>
      <trkpt lat="44.78658" lon="4.63256">
        <ele>454</ele>
        <time>2015-04-02T09:23:39Z</time>
      </trkpt>
      <trkpt lat="44.78654" lon="4.63263">
        <ele>456</ele>
        <time>2015-04-02T09:23:42Z</time>
      </trkpt>
      <trkpt lat="44.78652" lon="4.6327">
        <ele>458</ele>
        <time>2015-04-02T09:23:46Z</time>
      </trkpt>
      <trkpt lat="44.78655" lon="4.63275">
        <ele>458</ele>
        <time>2015-04-02T09:23:52Z</time>
      </trkpt>
      <trkpt lat="44.78654" lon="4.63281">
        <ele>459</ele>
        <time>2015-04-02T09:23:56Z</time>
      </trkpt>
      <trkpt lat="44.78654" lon="4.63289">
        <ele>459</ele>
        <time>2015-04-02T09:24:01Z</time>
      </trkpt>
      <trkpt lat="44.78659" lon="4.63294">
        <ele>459</ele>
        <time>2015-04-02T09:24:05Z</time>
      </trkpt>
      <trkpt lat="44.78664" lon="4.63295">
        <ele>459</ele>
        <time>2015-04-02T09:24:08Z</time>
      </trkpt>
      <trkpt lat="44.78669" lon="4.63296">
        <ele>446</ele>
        <time>2015-04-02T09:24:15Z</time>
      </trkpt>
      <trkpt lat="44.78672" lon="4.63301">
        <ele>447</ele>
        <time>2015-04-02T09:24:30Z</time>
      </trkpt>
      <trkpt lat="44.78675" lon="4.63307">
        <ele>447</ele>
        <time>2015-04-02T09:24:34Z</time>
      </trkpt>
      <trkpt lat="44.78677" lon="4.63314">
        <ele>448</ele>
        <time>2015-04-02T09:24:38Z</time>
      </trkpt>
      <trkpt lat="44.7868" lon="4.6332">
        <ele>448</ele>
        <time>2015-04-02T09:24:42Z</time>
      </trkpt>
      <trkpt lat="44.78684" lon="4.63326">
        <ele>448</ele>
        <time>2015-04-02T09:24:46Z</time>
      </trkpt>
      <trkpt lat="44.78686" lon="4.63332">
        <ele>448</ele>
        <time>2015-04-02T09:24:51Z</time>
      </trkpt>
      <trkpt lat="44.78689" lon="4.63337">
        <ele>450</ele>
        <time>2015-04-02T09:24:57Z</time>
      </trkpt>
      <trkpt lat="44.78693" lon="4.63341">
        <ele>450</ele>
        <time>2015-04-02T09:25:05Z</time>
      </trkpt>
      <trkpt lat="44.78693" lon="4.63347">
        <ele>450</ele>
        <time>2015-04-02T09:25:16Z</time>
      </trkpt>
      <trkpt lat="44.78692" lon="4.63355">
        <ele>450</ele>
        <time>2015-04-02T09:25:21Z</time>
      </trkpt>
      <trkpt lat="44.78693" lon="4.63362">
        <ele>450</ele>
        <time>2015-04-02T09:25:25Z</time>
      </trkpt>
      <trkpt lat="44.78694" lon="4.6337">
        <ele>450</ele>
        <time>2015-04-02T09:25:29Z</time>
      </trkpt>
      <trkpt lat="44.78694" lon="4.63378">
        <ele>450</ele>
        <time>2015-04-02T09:25:33Z</time>
      </trkpt>
      <trkpt lat="44.78695" lon="4.63384">
        <ele>450</ele>
        <time>2015-04-02T09:25:36Z</time>
      </trkpt>
      <trkpt lat="44.78695" lon="4.63391">
        <ele>450</ele>
        <time>2015-04-02T09:25:39Z</time>
      </trkpt>
      <trkpt lat="44.78694" lon="4.63398">
        <ele>451</ele>
        <time>2015-04-02T09:25:42Z</time>
      </trkpt>
      <trkpt lat="44.78693" lon="4.63405">
        <ele>451</ele>
        <time>2015-04-02T09:25:45Z</time>
      </trkpt>
      <trkpt lat="44.78693" lon="4.63412">
        <ele>452</ele>
        <time>2015-04-02T09:25:48Z</time>
      </trkpt>
      <trkpt lat="44.78694" lon="4.63421">
        <ele>452</ele>
        <time>2015-04-02T09:25:52Z</time>
      </trkpt>
      <trkpt lat="44.78694" lon="4.63428">
        <ele>452</ele>
        <time>2015-04-02T09:25:55Z</time>
      </trkpt>
      <trkpt lat="44.78695" lon="4.63436">
        <ele>452</ele>
        <time>2015-04-02T09:25:59Z</time>
      </trkpt>
      <trkpt lat="44.78698" lon="4.6344">
        <ele>451</ele>
        <time>2015-04-02T09:26:01Z</time>
      </trkpt>
      <trkpt lat="44.78701" lon="4.63447">
        <ele>451</ele>
        <time>2015-04-02T09:26:04Z</time>
      </trkpt>
      <trkpt lat="44.78701" lon="4.63455">
        <ele>450</ele>
        <time>2015-04-02T09:26:07Z</time>
      </trkpt>
      <trkpt lat="44.787" lon="4.63461">
        <ele>451</ele>
        <time>2015-04-02T09:26:10Z</time>
      </trkpt>
      <trkpt lat="44.78699" lon="4.63469">
        <ele>451</ele>
        <time>2015-04-02T09:26:14Z</time>
      </trkpt>
      <trkpt lat="44.787" lon="4.63477">
        <ele>451</ele>
        <time>2015-04-02T09:26:18Z</time>
      </trkpt>
      <trkpt lat="44.78703" lon="4.63482">
        <ele>450</ele>
        <time>2015-04-02T09:26:22Z</time>
      </trkpt>
      <trkpt lat="44.78702" lon="4.63489">
        <ele>450</ele>
        <time>2015-04-02T09:26:26Z</time>
      </trkpt>
      <trkpt lat="44.78703" lon="4.63496">
        <ele>450</ele>
        <time>2015-04-02T09:26:30Z</time>
      </trkpt>
      <trkpt lat="44.78702" lon="4.63502">
        <ele>450</ele>
        <time>2015-04-02T09:26:34Z</time>
      </trkpt>
      <trkpt lat="44.78703" lon="4.6351">
        <ele>450</ele>
        <time>2015-04-02T09:26:39Z</time>
      </trkpt>
      <trkpt lat="44.78703" lon="4.63517">
        <ele>450</ele>
        <time>2015-04-02T09:26:44Z</time>
      </trkpt>
      <trkpt lat="44.78702" lon="4.63523">
        <ele>450</ele>
        <time>2015-04-02T09:26:51Z</time>
      </trkpt>
      <trkpt lat="44.78701" lon="4.63531">
        <ele>450</ele>
        <time>2015-04-02T09:26:57Z</time>
      </trkpt>
      <trkpt lat="44.78701" lon="4.63539">
        <ele>450</ele>
        <time>2015-04-02T09:27:02Z</time>
      </trkpt>
      <trkpt lat="44.78702" lon="4.63546">
        <ele>449</ele>
        <time>2015-04-02T09:27:07Z</time>
      </trkpt>
      <trkpt lat="44.78699" lon="4.63552">
        <ele>450</ele>
        <time>2015-04-02T09:27:14Z</time>
      </trkpt>
      <trkpt lat="44.78697" lon="4.6356">
        <ele>450</ele>
        <time>2015-04-02T09:27:19Z</time>
      </trkpt>
      <trkpt lat="44.78696" lon="4.63566">
        <ele>450</ele>
        <time>2015-04-02T09:27:23Z</time>
      </trkpt>
      <trkpt lat="44.78693" lon="4.63572">
        <ele>451</ele>
        <time>2015-04-02T09:27:27Z</time>
      </trkpt>
      <trkpt lat="44.7869" lon="4.63579">
        <ele>452</ele>
        <time>2015-04-02T09:27:30Z</time>
      </trkpt>
      <trkpt lat="44.78689" lon="4.63585">
        <ele>452</ele>
        <time>2015-04-02T09:27:34Z</time>
      </trkpt>
      <trkpt lat="44.78688" lon="4.63592">
        <ele>452</ele>
        <time>2015-04-02T09:27:44Z</time>
      </trkpt>
      <trkpt lat="44.78688" lon="4.63593">
        <ele>452</ele>
        <time>2015-04-02T09:28:04Z</time>
      </trkpt>
      <trkpt lat="44.78688" lon="4.63593">
        <ele>452</ele>
        <time>2015-04-02T09:28:19Z</time>
      </trkpt>
      <trkpt lat="44.78685" lon="4.63598">
        <ele>452</ele>
        <time>2015-04-02T09:28:34Z</time>
      </trkpt>
      <trkpt lat="44.78684" lon="4.63598">
        <ele>452</ele>
        <time>2015-04-02T09:28:50Z</time>
      </trkpt>
      <trkpt lat="44.78687" lon="4.63591">
        <ele>452</ele>
        <time>2015-04-02T09:29:03Z</time>
      </trkpt>
      <trkpt lat="44.7869" lon="4.63586">
        <ele>452</ele>
        <time>2015-04-02T09:29:08Z</time>
      </trkpt>
      <trkpt lat="44.78694" lon="4.63582">
        <ele>451</ele>
        <time>2015-04-02T09:29:16Z</time>
      </trkpt>
      <trkpt lat="44.78695" lon="4.63578">
        <ele>451</ele>
        <time>2015-04-02T09:29:35Z</time>
      </trkpt>
      <trkpt lat="44.78695" lon="4.63578">
        <ele>451</ele>
        <time>2015-04-02T09:29:50Z</time>
      </trkpt>
      <trkpt lat="44.78695" lon="4.63578">
        <ele>451</ele>
        <time>2015-04-02T09:30:06Z</time>
      </trkpt>
      <trkpt lat="44.78695" lon="4.63578">
        <ele>451</ele>
        <time>2015-04-02T09:30:21Z</time>
      </trkpt>
      <trkpt lat="44.78677" lon="4.63615">
        <ele>451</ele>
        <time>2015-04-02T09:34:31Z</time>
      </trkpt>
      <trkpt lat="44.78674" lon="4.6362">
        <ele>451</ele>
        <time>2015-04-02T09:34:34Z</time>
      </trkpt>
      <trkpt lat="44.78671" lon="4.63625">
        <ele>451</ele>
        <time>2015-04-02T09:34:37Z</time>
      </trkpt>
      <trkpt lat="44.78667" lon="4.63629">
        <ele>451</ele>
        <time>2015-04-02T09:34:40Z</time>
      </trkpt>
      <trkpt lat="44.78663" lon="4.63633">
        <ele>460</ele>
        <time>2015-04-02T09:34:43Z</time>
      </trkpt>
      <trkpt lat="44.78659" lon="4.63637">
        <ele>460</ele>
        <time>2015-04-02T09:34:46Z</time>
      </trkpt>
      <trkpt lat="44.78655" lon="4.63643">
        <ele>460</ele>
        <time>2015-04-02T09:34:54Z</time>
      </trkpt>
      <trkpt lat="44.78652" lon="4.63647">
        <ele>460</ele>
        <time>2015-04-02T09:34:57Z</time>
      </trkpt>
      <trkpt lat="44.78648" lon="4.63652">
        <ele>459</ele>
        <time>2015-04-02T09:35:00Z</time>
      </trkpt>
      <trkpt lat="44.78645" lon="4.63656">
        <ele>460</ele>
        <time>2015-04-02T09:35:03Z</time>
      </trkpt>
      <trkpt lat="44.78643" lon="4.63662">
        <ele>460</ele>
        <time>2015-04-02T09:35:08Z</time>
      </trkpt>
      <trkpt lat="44.78647" lon="4.63665">
        <ele>459</ele>
        <time>2015-04-02T09:35:13Z</time>
      </trkpt>
      <trkpt lat="44.78652" lon="4.63666">
        <ele>457</ele>
        <time>2015-04-02T09:35:18Z</time>
      </trkpt>
      <trkpt lat="44.78657" lon="4.63667">
        <ele>456</ele>
        <time>2015-04-02T09:35:28Z</time>
      </trkpt>
      <trkpt lat="44.7866" lon="4.63672">
        <ele>455</ele>
        <time>2015-04-02T09:35:32Z</time>
      </trkpt>
      <trkpt lat="44.78664" lon="4.63675">
        <ele>455</ele>
        <time>2015-04-02T09:35:40Z</time>
      </trkpt>
      <trkpt lat="44.78668" lon="4.63681">
        <ele>453</ele>
        <time>2015-04-02T09:35:48Z</time>
      </trkpt>
      <trkpt lat="44.78671" lon="4.63686">
        <ele>453</ele>
        <time>2015-04-02T09:35:53Z</time>
      </trkpt>
      <trkpt lat="44.78672" lon="4.63693">
        <ele>453</ele>
        <time>2015-04-02T09:35:57Z</time>
      </trkpt>
      <trkpt lat="44.78673" lon="4.63699">
        <ele>453</ele>
        <time>2015-04-02T09:36:01Z</time>
      </trkpt>
      <trkpt lat="44.78674" lon="4.63706">
        <ele>454</ele>
        <time>2015-04-02T09:36:06Z</time>
      </trkpt>
      <trkpt lat="44.78677" lon="4.63711">
        <ele>454</ele>
        <time>2015-04-02T09:36:10Z</time>
      </trkpt>
      <trkpt lat="44.78681" lon="4.63716">
        <ele>454</ele>
        <time>2015-04-02T09:36:15Z</time>
      </trkpt>
      <trkpt lat="44.78686" lon="4.63715">
        <ele>454</ele>
        <time>2015-04-02T09:36:19Z</time>
      </trkpt>
      <trkpt lat="44.78692" lon="4.63715">
        <ele>454</ele>
        <time>2015-04-02T09:36:24Z</time>
      </trkpt>
      <trkpt lat="44.78696" lon="4.63715">
        <ele>454</ele>
        <time>2015-04-02T09:36:29Z</time>
      </trkpt>
      <trkpt lat="44.78701" lon="4.63712">
        <ele>454</ele>
        <time>2015-04-02T09:36:33Z</time>
      </trkpt>
      <trkpt lat="44.78706" lon="4.6371">
        <ele>454</ele>
        <time>2015-04-02T09:36:37Z</time>
      </trkpt>
      <trkpt lat="44.78711" lon="4.63708">
        <ele>453</ele>
        <time>2015-04-02T09:36:41Z</time>
      </trkpt>
      <trkpt lat="44.78716" lon="4.63707">
        <ele>453</ele>
        <time>2015-04-02T09:36:45Z</time>
      </trkpt>
      <trkpt lat="44.7872" lon="4.63704">
        <ele>453</ele>
        <time>2015-04-02T09:36:49Z</time>
      </trkpt>
      <trkpt lat="44.78724" lon="4.63708">
        <ele>453</ele>
        <time>2015-04-02T09:36:55Z</time>
      </trkpt>
      <trkpt lat="44.78729" lon="4.63711">
        <ele>454</ele>
        <time>2015-04-02T09:37:00Z</time>
      </trkpt>
      <trkpt lat="44.78733" lon="4.63715">
        <ele>454</ele>
        <time>2015-04-02T09:37:05Z</time>
      </trkpt>
      <trkpt lat="44.78738" lon="4.63718">
        <ele>454</ele>
        <time>2015-04-02T09:37:12Z</time>
      </trkpt>
      <trkpt lat="44.78743" lon="4.63717">
        <ele>454</ele>
        <time>2015-04-02T09:37:17Z</time>
      </trkpt>
      <trkpt lat="44.78748" lon="4.63717">
        <ele>454</ele>
        <time>2015-04-02T09:37:22Z</time>
      </trkpt>
      <trkpt lat="44.78753" lon="4.63718">
        <ele>453</ele>
        <time>2015-04-02T09:37:27Z</time>
      </trkpt>
      <trkpt lat="44.78758" lon="4.6372">
        <ele>453</ele>
        <time>2015-04-02T09:37:32Z</time>
      </trkpt>
      <trkpt lat="44.78762" lon="4.63723">
        <ele>453</ele>
        <time>2015-04-02T09:37:37Z</time>
      </trkpt>
      <trkpt lat="44.78763" lon="4.6373">
        <ele>454</ele>
        <time>2015-04-02T09:37:47Z</time>
      </trkpt>
      <trkpt lat="44.78765" lon="4.63735">
        <ele>454</ele>
        <time>2015-04-02T09:38:13Z</time>
      </trkpt>
      <trkpt lat="44.78764" lon="4.63736">
        <ele>455</ele>
        <time>2015-04-02T09:38:15Z</time>
      </trkpt>
      <trkpt lat="44.78764" lon="4.63743">
        <ele>456</ele>
        <time>2015-04-02T09:38:28Z</time>
      </trkpt>
      <trkpt lat="44.78762" lon="4.63749">
        <ele>456</ele>
        <time>2015-04-02T09:38:39Z</time>
      </trkpt>
      <trkpt lat="44.78759" lon="4.63754">
        <ele>460</ele>
        <time>2015-04-02T09:38:47Z</time>
      </trkpt>
      <trkpt lat="44.78756" lon="4.63759">
        <ele>460</ele>
        <time>2015-04-02T09:38:56Z</time>
      </trkpt>
      <trkpt lat="44.78753" lon="4.63764">
        <ele>461</ele>
        <time>2015-04-02T09:39:02Z</time>
      </trkpt>
      <trkpt lat="44.7875" lon="4.63769">
        <ele>461</ele>
        <time>2015-04-02T09:39:14Z</time>
      </trkpt>
      <trkpt lat="44.78753" lon="4.63775">
        <ele>461</ele>
        <time>2015-04-02T09:39:28Z</time>
      </trkpt>
      <trkpt lat="44.78754" lon="4.63778">
        <ele>461</ele>
        <time>2015-04-02T09:39:44Z</time>
      </trkpt>
      <trkpt lat="44.78756" lon="4.6378">
        <ele>462</ele>
        <time>2015-04-02T09:39:51Z</time>
      </trkpt>
      <trkpt lat="44.7876" lon="4.63782">
        <ele>462</ele>
        <time>2015-04-02T09:39:57Z</time>
      </trkpt>
      <trkpt lat="44.78764" lon="4.63786">
        <ele>462</ele>
        <time>2015-04-02T09:40:03Z</time>
      </trkpt>
      <trkpt lat="44.78765" lon="4.63794">
        <ele>462</ele>
        <time>2015-04-02T09:40:08Z</time>
      </trkpt>
      <trkpt lat="44.78766" lon="4.63803">
        <ele>463</ele>
        <time>2015-04-02T09:40:12Z</time>
      </trkpt>
      <trkpt lat="44.78769" lon="4.63811">
        <ele>464</ele>
        <time>2015-04-02T09:40:15Z</time>
      </trkpt>
      <trkpt lat="44.78768" lon="4.63817">
        <ele>465</ele>
        <time>2015-04-02T09:40:17Z</time>
      </trkpt>
      <trkpt lat="44.78764" lon="4.63821">
        <ele>466</ele>
        <time>2015-04-02T09:40:20Z</time>
      </trkpt>
      <trkpt lat="44.78761" lon="4.63824">
        <ele>467</ele>
        <time>2015-04-02T09:40:33Z</time>
      </trkpt>
      <trkpt lat="44.78762" lon="4.63831">
        <ele>468</ele>
        <time>2015-04-02T09:40:40Z</time>
      </trkpt>
      <trkpt lat="44.78762" lon="4.63838">
        <ele>470</ele>
        <time>2015-04-02T09:40:46Z</time>
      </trkpt>
      <trkpt lat="44.78762" lon="4.63846">
        <ele>470</ele>
        <time>2015-04-02T09:40:51Z</time>
      </trkpt>
      <trkpt lat="44.78762" lon="4.63853">
        <ele>470</ele>
        <time>2015-04-02T09:40:56Z</time>
      </trkpt>
      <trkpt lat="44.7876" lon="4.63859">
        <ele>470</ele>
        <time>2015-04-02T09:41:02Z</time>
      </trkpt>
      <trkpt lat="44.78759" lon="4.63866">
        <ele>470</ele>
        <time>2015-04-02T09:41:08Z</time>
      </trkpt>
      <trkpt lat="44.78757" lon="4.63873">
        <ele>471</ele>
        <time>2015-04-02T09:41:13Z</time>
      </trkpt>
      <trkpt lat="44.78756" lon="4.6388">
        <ele>471</ele>
        <time>2015-04-02T09:41:17Z</time>
      </trkpt>
      <trkpt lat="44.78755" lon="4.63887">
        <ele>472</ele>
        <time>2015-04-02T09:41:23Z</time>
      </trkpt>
      <trkpt lat="44.78755" lon="4.63894">
        <ele>473</ele>
        <time>2015-04-02T09:41:27Z</time>
      </trkpt>
      <trkpt lat="44.78755" lon="4.639">
        <ele>474</ele>
        <time>2015-04-02T09:41:31Z</time>
      </trkpt>
      <trkpt lat="44.78754" lon="4.63907">
        <ele>477</ele>
        <time>2015-04-02T09:41:36Z</time>
      </trkpt>
      <trkpt lat="44.78755" lon="4.63914">
        <ele>478</ele>
        <time>2015-04-02T09:41:41Z</time>
      </trkpt>
      <trkpt lat="44.78757" lon="4.63921">
        <ele>479</ele>
        <time>2015-04-02T09:41:47Z</time>
      </trkpt>
      <trkpt lat="44.78757" lon="4.63928">
        <ele>478</ele>
        <time>2015-04-02T09:41:50Z</time>
      </trkpt>
      <trkpt lat="44.78756" lon="4.63934">
        <ele>478</ele>
        <time>2015-04-02T09:41:53Z</time>
      </trkpt>
      <trkpt lat="44.78757" lon="4.63942">
        <ele>478</ele>
        <time>2015-04-02T09:41:57Z</time>
      </trkpt>
      <trkpt lat="44.78758" lon="4.63948">
        <ele>477</ele>
        <time>2015-04-02T09:42:01Z</time>
      </trkpt>
      <trkpt lat="44.78756" lon="4.63954">
        <ele>478</ele>
        <time>2015-04-02T09:42:05Z</time>
      </trkpt>
      <trkpt lat="44.78757" lon="4.63962">
        <ele>478</ele>
        <time>2015-04-02T09:42:10Z</time>
      </trkpt>
      <trkpt lat="44.78756" lon="4.63969">
        <ele>479</ele>
        <time>2015-04-02T09:42:14Z</time>
      </trkpt>
      <trkpt lat="44.78753" lon="4.63976">
        <ele>480</ele>
        <time>2015-04-02T09:42:18Z</time>
      </trkpt>
      <trkpt lat="44.78754" lon="4.63982">
        <ele>480</ele>
        <time>2015-04-02T09:42:21Z</time>
      </trkpt>
      <trkpt lat="44.78754" lon="4.63988">
        <ele>482</ele>
        <time>2015-04-02T09:42:25Z</time>
      </trkpt>
      <trkpt lat="44.78754" lon="4.63995">
        <ele>484</ele>
        <time>2015-04-02T09:42:29Z</time>
      </trkpt>
      <trkpt lat="44.78753" lon="4.64001">
        <ele>486</ele>
        <time>2015-04-02T09:42:32Z</time>
      </trkpt>
      <trkpt lat="44.78753" lon="4.64008">
        <ele>486</ele>
        <time>2015-04-02T09:42:36Z</time>
      </trkpt>
      <trkpt lat="44.78753" lon="4.64015">
        <ele>486</ele>
        <time>2015-04-02T09:42:40Z</time>
      </trkpt>
      <trkpt lat="44.78753" lon="4.64023">
        <ele>486</ele>
        <time>2015-04-02T09:42:48Z</time>
      </trkpt>
      <trkpt lat="44.78756" lon="4.64029">
        <ele>486</ele>
        <time>2015-04-02T09:42:52Z</time>
      </trkpt>
      <trkpt lat="44.78759" lon="4.64034">
        <ele>486</ele>
        <time>2015-04-02T09:42:58Z</time>
      </trkpt>
      <trkpt lat="44.78761" lon="4.64034">
        <ele>486</ele>
        <time>2015-04-02T09:43:14Z</time>
      </trkpt>
      <trkpt lat="44.78761" lon="4.64032">
        <ele>486</ele>
        <time>2015-04-02T09:43:29Z</time>
      </trkpt>
      <trkpt lat="44.78759" lon="4.64027">
        <ele>486</ele>
        <time>2015-04-02T09:43:44Z</time>
      </trkpt>
      <trkpt lat="44.78756" lon="4.64021">
        <ele>486</ele>
        <time>2015-04-02T09:43:51Z</time>
      </trkpt>
      <trkpt lat="44.78756" lon="4.64014">
        <ele>486</ele>
        <time>2015-04-02T09:43:57Z</time>
      </trkpt>
      <trkpt lat="44.78758" lon="4.64007">
        <ele>486</ele>
        <time>2015-04-02T09:44:03Z</time>
      </trkpt>
      <trkpt lat="44.78759" lon="4.64001">
        <ele>486</ele>
        <time>2015-04-02T09:44:08Z</time>
      </trkpt>
      <trkpt lat="44.78759" lon="4.63994">
        <ele>482</ele>
        <time>2015-04-02T09:44:16Z</time>
      </trkpt>
      <trkpt lat="44.7876" lon="4.63986">
        <ele>481</ele>
        <time>2015-04-02T09:44:20Z</time>
      </trkpt>
      <trkpt lat="44.7876" lon="4.63978">
        <ele>479</ele>
        <time>2015-04-02T09:44:24Z</time>
      </trkpt>
      <trkpt lat="44.78759" lon="4.63971">
        <ele>479</ele>
        <time>2015-04-02T09:44:28Z</time>
      </trkpt>
      <trkpt lat="44.78758" lon="4.63964">
        <ele>478</ele>
        <time>2015-04-02T09:44:34Z</time>
      </trkpt>
      <trkpt lat="44.78756" lon="4.63957">
        <ele>478</ele>
        <time>2015-04-02T09:44:39Z</time>
      </trkpt>
      <trkpt lat="44.78756" lon="4.6395">
        <ele>478</ele>
        <time>2015-04-02T09:44:43Z</time>
      </trkpt>
      <trkpt lat="44.78758" lon="4.63943">
        <ele>477</ele>
        <time>2015-04-02T09:44:47Z</time>
      </trkpt>
      <trkpt lat="44.78758" lon="4.63935">
        <ele>478</ele>
        <time>2015-04-02T09:44:52Z</time>
      </trkpt>
      <trkpt lat="44.78757" lon="4.63928">
        <ele>478</ele>
        <time>2015-04-02T09:44:56Z</time>
      </trkpt>
      <trkpt lat="44.78758" lon="4.63921">
        <ele>479</ele>
        <time>2015-04-02T09:45:01Z</time>
      </trkpt>
      <trkpt lat="44.78757" lon="4.63915">
        <ele>478</ele>
        <time>2015-04-02T09:45:05Z</time>
      </trkpt>
      <trkpt lat="44.78756" lon="4.63909">
        <ele>477</ele>
        <time>2015-04-02T09:45:09Z</time>
      </trkpt>
      <trkpt lat="44.78758" lon="4.63902">
        <ele>475</ele>
        <time>2015-04-02T09:45:15Z</time>
      </trkpt>
      <trkpt lat="44.78759" lon="4.63896">
        <ele>473</ele>
        <time>2015-04-02T09:45:19Z</time>
      </trkpt>
      <trkpt lat="44.78759" lon="4.63889">
        <ele>472</ele>
        <time>2015-04-02T09:45:23Z</time>
      </trkpt>
      <trkpt lat="44.7876" lon="4.63882">
        <ele>471</ele>
        <time>2015-04-02T09:45:27Z</time>
      </trkpt>
      <trkpt lat="44.78761" lon="4.63875">
        <ele>471</ele>
        <time>2015-04-02T09:45:30Z</time>
      </trkpt>
      <trkpt lat="44.78762" lon="4.63868">
        <ele>470</ele>
        <time>2015-04-02T09:45:33Z</time>
      </trkpt>
      <trkpt lat="44.78762" lon="4.63861">
        <ele>470</ele>
        <time>2015-04-02T09:45:36Z</time>
      </trkpt>
      <trkpt lat="44.78762" lon="4.63854">
        <ele>470</ele>
        <time>2015-04-02T09:45:40Z</time>
      </trkpt>
      <trkpt lat="44.78762" lon="4.63847">
        <ele>470</ele>
        <time>2015-04-02T09:45:44Z</time>
      </trkpt>
      <trkpt lat="44.78761" lon="4.6384">
        <ele>470</ele>
        <time>2015-04-02T09:45:48Z</time>
      </trkpt>
      <trkpt lat="44.7876" lon="4.63834">
        <ele>471</ele>
        <time>2015-04-02T09:45:53Z</time>
      </trkpt>
      <trkpt lat="44.78761" lon="4.63827">
        <ele>467</ele>
        <time>2015-04-02T09:46:00Z</time>
      </trkpt>
      <trkpt lat="44.78762" lon="4.6382">
        <ele>466</ele>
        <time>2015-04-02T09:46:07Z</time>
      </trkpt>
      <trkpt lat="44.78763" lon="4.63814">
        <ele>465</ele>
        <time>2015-04-02T09:46:12Z</time>
      </trkpt>
      <trkpt lat="44.78766" lon="4.63808">
        <ele>464</ele>
        <time>2015-04-02T09:46:16Z</time>
      </trkpt>
      <trkpt lat="44.78765" lon="4.63801">
        <ele>463</ele>
        <time>2015-04-02T09:46:19Z</time>
      </trkpt>
      <trkpt lat="44.78766" lon="4.63794">
        <ele>462</ele>
        <time>2015-04-02T09:46:22Z</time>
      </trkpt>
      <trkpt lat="44.78771" lon="4.63792">
        <ele>462</ele>
        <time>2015-04-02T09:46:25Z</time>
      </trkpt>
      <trkpt lat="44.78775" lon="4.63794">
        <ele>462</ele>
        <time>2015-04-02T09:46:31Z</time>
      </trkpt>
      <trkpt lat="44.78781" lon="4.63793">
        <ele>462</ele>
        <time>2015-04-02T09:46:41Z</time>
      </trkpt>
      <trkpt lat="44.78785" lon="4.63791">
        <ele>461</ele>
        <time>2015-04-02T09:46:45Z</time>
      </trkpt>
      <trkpt lat="44.78791" lon="4.63791">
        <ele>461</ele>
        <time>2015-04-02T09:46:51Z</time>
      </trkpt>
      <trkpt lat="44.78796" lon="4.63788">
        <ele>460</ele>
        <time>2015-04-02T09:46:56Z</time>
      </trkpt>
      <trkpt lat="44.788" lon="4.6379">
        <ele>460</ele>
        <time>2015-04-02T09:47:01Z</time>
      </trkpt>
      <trkpt lat="44.78804" lon="4.63785">
        <ele>460</ele>
        <time>2015-04-02T09:47:06Z</time>
      </trkpt>
      <trkpt lat="44.78808" lon="4.63782">
        <ele>459</ele>
        <time>2015-04-02T09:47:09Z</time>
      </trkpt>
      <trkpt lat="44.78812" lon="4.63778">
        <ele>459</ele>
        <time>2015-04-02T09:47:12Z</time>
      </trkpt>
      <trkpt lat="44.78815" lon="4.63785">
        <ele>459</ele>
        <time>2015-04-02T09:47:19Z</time>
      </trkpt>
      <trkpt lat="44.78813" lon="4.63793">
        <ele>460</ele>
        <time>2015-04-02T09:47:23Z</time>
      </trkpt>
      <trkpt lat="44.78811" lon="4.638">
        <ele>460</ele>
        <time>2015-04-02T09:47:27Z</time>
      </trkpt>
      <trkpt lat="44.7881" lon="4.63806">
        <ele>460</ele>
        <time>2015-04-02T09:47:32Z</time>
      </trkpt>
      <trkpt lat="44.78809" lon="4.63814">
        <ele>460</ele>
        <time>2015-04-02T09:47:47Z</time>
      </trkpt>
      <trkpt lat="44.78806" lon="4.6382">
        <ele>461</ele>
        <time>2015-04-02T09:47:51Z</time>
      </trkpt>
      <trkpt lat="44.78803" lon="4.63827">
        <ele>461</ele>
        <time>2015-04-02T09:47:55Z</time>
      </trkpt>
      <trkpt lat="44.78801" lon="4.63834">
        <ele>465</ele>
        <time>2015-04-02T09:47:59Z</time>
      </trkpt>
      <trkpt lat="44.78799" lon="4.63841">
        <ele>466</ele>
        <time>2015-04-02T09:48:04Z</time>
      </trkpt>
      <trkpt lat="44.78799" lon="4.63848">
        <ele>466</ele>
        <time>2015-04-02T09:48:13Z</time>
      </trkpt>
      <trkpt lat="44.78795" lon="4.63851">
        <ele>467</ele>
        <time>2015-04-02T09:48:18Z</time>
      </trkpt>
      <trkpt lat="44.78791" lon="4.6385">
        <ele>467</ele>
        <time>2015-04-02T09:48:34Z</time>
      </trkpt>
      <trkpt lat="44.7879" lon="4.63848">
        <ele>467</ele>
        <time>2015-04-02T09:48:38Z</time>
      </trkpt>
      <trkpt lat="44.78786" lon="4.6385">
        <ele>468</ele>
        <time>2015-04-02T09:48:45Z</time>
      </trkpt>
      <trkpt lat="44.78784" lon="4.63857">
        <ele>468</ele>
        <time>2015-04-02T09:48:50Z</time>
      </trkpt>
      <trkpt lat="44.78783" lon="4.63863">
        <ele>468</ele>
        <time>2015-04-02T09:48:55Z</time>
      </trkpt>
      <trkpt lat="44.78783" lon="4.63871">
        <ele>469</ele>
        <time>2015-04-02T09:49:00Z</time>
      </trkpt>
      <trkpt lat="44.78782" lon="4.63878">
        <ele>469</ele>
        <time>2015-04-02T09:49:04Z</time>
      </trkpt>
      <trkpt lat="44.78783" lon="4.63884">
        <ele>469</ele>
        <time>2015-04-02T09:49:08Z</time>
      </trkpt>
      <trkpt lat="44.78783" lon="4.63892">
        <ele>469</ele>
        <time>2015-04-02T09:49:13Z</time>
      </trkpt>
      <trkpt lat="44.78783" lon="4.63899">
        <ele>470</ele>
        <time>2015-04-02T09:49:17Z</time>
      </trkpt>
      <trkpt lat="44.78783" lon="4.63906">
        <ele>470</ele>
        <time>2015-04-02T09:49:21Z</time>
      </trkpt>
      <trkpt lat="44.78783" lon="4.63914">
        <ele>470</ele>
        <time>2015-04-02T09:49:26Z</time>
      </trkpt>
      <trkpt lat="44.78783" lon="4.6392">
        <ele>475</ele>
        <time>2015-04-02T09:49:30Z</time>
      </trkpt>
      <trkpt lat="44.78782" lon="4.63928">
        <ele>475</ele>
        <time>2015-04-02T09:49:35Z</time>
      </trkpt>
      <trkpt lat="44.78783" lon="4.63935">
        <ele>475</ele>
        <time>2015-04-02T09:49:40Z</time>
      </trkpt>
      <trkpt lat="44.78785" lon="4.63941">
        <ele>475</ele>
        <time>2015-04-02T09:49:45Z</time>
      </trkpt>
      <trkpt lat="44.78784" lon="4.63948">
        <ele>475</ele>
        <time>2015-04-02T09:49:50Z</time>
      </trkpt>
      <trkpt lat="44.78785" lon="4.63954">
        <ele>475</ele>
        <time>2015-04-02T09:49:55Z</time>
      </trkpt>
      <trkpt lat="44.78785" lon="4.63961">
        <ele>476</ele>
        <time>2015-04-02T09:50:00Z</time>
      </trkpt>
      <trkpt lat="44.78786" lon="4.63968">
        <ele>476</ele>
        <time>2015-04-02T09:50:06Z</time>
      </trkpt>
      <trkpt lat="44.78786" lon="4.63974">
        <ele>476</ele>
        <time>2015-04-02T09:50:12Z</time>
      </trkpt>
      <trkpt lat="44.78787" lon="4.63981">
        <ele>476</ele>
        <time>2015-04-02T09:50:17Z</time>
      </trkpt>
      <trkpt lat="44.7879" lon="4.63986">
        <ele>476</ele>
        <time>2015-04-02T09:50:23Z</time>
      </trkpt>
      <trkpt lat="44.78794" lon="4.63989">
        <ele>476</ele>
        <time>2015-04-02T09:50:29Z</time>
      </trkpt>
      <trkpt lat="44.78798" lon="4.63991">
        <ele>475</ele>
        <time>2015-04-02T09:50:36Z</time>
      </trkpt>
      <trkpt lat="44.78803" lon="4.63994">
        <ele>475</ele>
        <time>2015-04-02T09:50:43Z</time>
      </trkpt>
      <trkpt lat="44.78808" lon="4.63995">
        <ele>474</ele>
        <time>2015-04-02T09:50:47Z</time>
      </trkpt>
      <trkpt lat="44.78812" lon="4.63997">
        <ele>474</ele>
        <time>2015-04-02T09:50:51Z</time>
      </trkpt>
      <trkpt lat="44.78817" lon="4.64">
        <ele>474</ele>
        <time>2015-04-02T09:50:55Z</time>
      </trkpt>
      <trkpt lat="44.78822" lon="4.64002">
        <ele>477</ele>
        <time>2015-04-02T09:51:00Z</time>
      </trkpt>
      <trkpt lat="44.78827" lon="4.64004">
        <ele>476</ele>
        <time>2015-04-02T09:51:05Z</time>
      </trkpt>
      <trkpt lat="44.78831" lon="4.64005">
        <ele>475</ele>
        <time>2015-04-02T09:51:10Z</time>
      </trkpt>
      <trkpt lat="44.78837" lon="4.64005">
        <ele>473</ele>
        <time>2015-04-02T09:51:15Z</time>
      </trkpt>
      <trkpt lat="44.78842" lon="4.64003">
        <ele>474</ele>
        <time>2015-04-02T09:51:19Z</time>
      </trkpt>
      <trkpt lat="44.78847" lon="4.64">
        <ele>474</ele>
        <time>2015-04-02T09:51:23Z</time>
      </trkpt>
      <trkpt lat="44.78853" lon="4.63999">
        <ele>469</ele>
        <time>2015-04-02T09:51:27Z</time>
      </trkpt>
      <trkpt lat="44.78857" lon="4.63998">
        <ele>468</ele>
        <time>2015-04-02T09:51:31Z</time>
      </trkpt>
      <trkpt lat="44.78862" lon="4.63995">
        <ele>468</ele>
        <time>2015-04-02T09:51:35Z</time>
      </trkpt>
      <trkpt lat="44.78867" lon="4.63991">
        <ele>467</ele>
        <time>2015-04-02T09:51:39Z</time>
      </trkpt>
      <trkpt lat="44.78872" lon="4.63989">
        <ele>467</ele>
        <time>2015-04-02T09:51:43Z</time>
      </trkpt>
      <trkpt lat="44.78877" lon="4.63987">
        <ele>467</ele>
        <time>2015-04-02T09:51:47Z</time>
      </trkpt>
      <trkpt lat="44.78881" lon="4.63983">
        <ele>467</ele>
        <time>2015-04-02T09:51:51Z</time>
      </trkpt>
      <trkpt lat="44.78886" lon="4.63981">
        <ele>466</ele>
        <time>2015-04-02T09:51:55Z</time>
      </trkpt>
      <trkpt lat="44.78891" lon="4.63981">
        <ele>467</ele>
        <time>2015-04-02T09:51:59Z</time>
      </trkpt>
      <trkpt lat="44.78897" lon="4.63979">
        <ele>467</ele>
        <time>2015-04-02T09:52:03Z</time>
      </trkpt>
      <trkpt lat="44.78901" lon="4.63978">
        <ele>467</ele>
        <time>2015-04-02T09:52:10Z</time>
      </trkpt>
      <trkpt lat="44.78906" lon="4.63977">
        <ele>467</ele>
        <time>2015-04-02T09:52:14Z</time>
      </trkpt>
      <trkpt lat="44.78911" lon="4.63977">
        <ele>467</ele>
        <time>2015-04-02T09:52:18Z</time>
      </trkpt>
      <trkpt lat="44.78916" lon="4.63976">
        <ele>467</ele>
        <time>2015-04-02T09:52:22Z</time>
      </trkpt>
      <trkpt lat="44.7892" lon="4.63975">
        <ele>467</ele>
        <time>2015-04-02T09:52:31Z</time>
      </trkpt>
      <trkpt lat="44.78925" lon="4.63974">
        <ele>467</ele>
        <time>2015-04-02T09:52:39Z</time>
      </trkpt>
      <trkpt lat="44.7893" lon="4.63974">
        <ele>467</ele>
        <time>2015-04-02T09:52:46Z</time>
      </trkpt>
      <trkpt lat="44.78934" lon="4.63973">
        <ele>467</ele>
        <time>2015-04-02T09:52:50Z</time>
      </trkpt>
      <trkpt lat="44.78939" lon="4.63971">
        <ele>467</ele>
        <time>2015-04-02T09:52:54Z</time>
      </trkpt>
      <trkpt lat="44.78942" lon="4.63967">
        <ele>466</ele>
        <time>2015-04-02T09:52:58Z</time>
      </trkpt>
      <trkpt lat="44.78946" lon="4.63962">
        <ele>466</ele>
        <time>2015-04-02T09:53:03Z</time>
      </trkpt>
      <trkpt lat="44.7895" lon="4.6396">
        <ele>466</ele>
        <time>2015-04-02T09:53:08Z</time>
      </trkpt>
      <trkpt lat="44.78954" lon="4.63957">
        <ele>466</ele>
        <time>2015-04-02T09:53:12Z</time>
      </trkpt>
      <trkpt lat="44.78959" lon="4.63955">
        <ele>466</ele>
        <time>2015-04-02T09:53:17Z</time>
      </trkpt>
      <trkpt lat="44.78964" lon="4.63952">
        <ele>466</ele>
        <time>2015-04-02T09:53:22Z</time>
      </trkpt>
      <trkpt lat="44.78968" lon="4.63951">
        <ele>466</ele>
        <time>2015-04-02T09:53:26Z</time>
      </trkpt>
      <trkpt lat="44.78973" lon="4.63948">
        <ele>466</ele>
        <time>2015-04-02T09:53:31Z</time>
      </trkpt>
      <trkpt lat="44.78978" lon="4.63946">
        <ele>466</ele>
        <time>2015-04-02T09:53:36Z</time>
      </trkpt>
      <trkpt lat="44.78982" lon="4.63944">
        <ele>465</ele>
        <time>2015-04-02T09:53:41Z</time>
      </trkpt>
      <trkpt lat="44.78987" lon="4.63941">
        <ele>465</ele>
        <time>2015-04-02T09:53:46Z</time>
      </trkpt>
      <trkpt lat="44.78989" lon="4.63935">
        <ele>465</ele>
        <time>2015-04-02T09:53:57Z</time>
      </trkpt>
      <trkpt lat="44.78992" lon="4.63929">
        <ele>464</ele>
        <time>2015-04-02T09:54:05Z</time>
      </trkpt>
      <trkpt lat="44.78996" lon="4.63924">
        <ele>464</ele>
        <time>2015-04-02T09:54:10Z</time>
      </trkpt>
      <trkpt lat="44.79" lon="4.63921">
        <ele>463</ele>
        <time>2015-04-02T09:54:15Z</time>
      </trkpt>
      <trkpt lat="44.79006" lon="4.6392">
        <ele>464</ele>
        <time>2015-04-02T09:54:20Z</time>
      </trkpt>
      <trkpt lat="44.7901" lon="4.63917">
        <ele>464</ele>
        <time>2015-04-02T09:54:24Z</time>
      </trkpt>
      <trkpt lat="44.79015" lon="4.63914">
        <ele>457</ele>
        <time>2015-04-02T09:54:31Z</time>
      </trkpt>
      <trkpt lat="44.7902" lon="4.63912">
        <ele>456</ele>
        <time>2015-04-02T09:54:36Z</time>
      </trkpt>
      <trkpt lat="44.79025" lon="4.63914">
        <ele>455</ele>
        <time>2015-04-02T09:54:46Z</time>
      </trkpt>
      <trkpt lat="44.79029" lon="4.63914">
        <ele>454</ele>
        <time>2015-04-02T09:54:54Z</time>
      </trkpt>
      <trkpt lat="44.79034" lon="4.63914">
        <ele>454</ele>
        <time>2015-04-02T09:54:59Z</time>
      </trkpt>
      <trkpt lat="44.79039" lon="4.63914">
        <ele>453</ele>
        <time>2015-04-02T09:55:03Z</time>
      </trkpt>
      <trkpt lat="44.79044" lon="4.63911">
        <ele>453</ele>
        <time>2015-04-02T09:55:07Z</time>
      </trkpt>
      <trkpt lat="44.79048" lon="4.63911">
        <ele>453</ele>
        <time>2015-04-02T09:55:13Z</time>
      </trkpt>
      <trkpt lat="44.79053" lon="4.63913">
        <ele>453</ele>
        <time>2015-04-02T09:55:19Z</time>
      </trkpt>
      <trkpt lat="44.79059" lon="4.63915">
        <ele>453</ele>
        <time>2015-04-02T09:55:24Z</time>
      </trkpt>
      <trkpt lat="44.79063" lon="4.63913">
        <ele>453</ele>
        <time>2015-04-02T09:55:31Z</time>
      </trkpt>
      <trkpt lat="44.79068" lon="4.63914">
        <ele>454</ele>
        <time>2015-04-02T09:55:35Z</time>
      </trkpt>
      <trkpt lat="44.79073" lon="4.63913">
        <ele>454</ele>
        <time>2015-04-02T09:55:41Z</time>
      </trkpt>
      <trkpt lat="44.79077" lon="4.63916">
        <ele>455</ele>
        <time>2015-04-02T09:55:48Z</time>
      </trkpt>
      <trkpt lat="44.79082" lon="4.63917">
        <ele>458</ele>
        <time>2015-04-02T09:55:53Z</time>
      </trkpt>
      <trkpt lat="44.79087" lon="4.63917">
        <ele>456</ele>
        <time>2015-04-02T09:56:01Z</time>
      </trkpt>
      <trkpt lat="44.79092" lon="4.63917">
        <ele>456</ele>
        <time>2015-04-02T09:56:05Z</time>
      </trkpt>
      <trkpt lat="44.79096" lon="4.63919">
        <ele>455</ele>
        <time>2015-04-02T09:56:10Z</time>
      </trkpt>
      <trkpt lat="44.791" lon="4.63922">
        <ele>454</ele>
        <time>2015-04-02T09:56:14Z</time>
      </trkpt>
      <trkpt lat="44.79106" lon="4.63925">
        <ele>453</ele>
        <time>2015-04-02T09:56:19Z</time>
      </trkpt>
      <trkpt lat="44.7911" lon="4.63928">
        <ele>453</ele>
        <time>2015-04-02T09:56:22Z</time>
      </trkpt>
      <trkpt lat="44.79115" lon="4.63931">
        <ele>452</ele>
        <time>2015-04-02T09:56:25Z</time>
      </trkpt>
      <trkpt lat="44.7912" lon="4.63933">
        <ele>451</ele>
        <time>2015-04-02T09:56:28Z</time>
      </trkpt>
      <trkpt lat="44.79126" lon="4.63933">
        <ele>450</ele>
        <time>2015-04-02T09:56:31Z</time>
      </trkpt>
      <trkpt lat="44.79131" lon="4.63934">
        <ele>450</ele>
        <time>2015-04-02T09:56:35Z</time>
      </trkpt>
      <trkpt lat="44.79137" lon="4.63935">
        <ele>449</ele>
        <time>2015-04-02T09:56:40Z</time>
      </trkpt>
      <trkpt lat="44.79142" lon="4.63934">
        <ele>448</ele>
        <time>2015-04-02T09:56:45Z</time>
      </trkpt>
      <trkpt lat="44.79147" lon="4.63935">
        <ele>447</ele>
        <time>2015-04-02T09:56:59Z</time>
      </trkpt>
      <trkpt lat="44.79152" lon="4.63935">
        <ele>446</ele>
        <time>2015-04-02T09:57:02Z</time>
      </trkpt>
      <trkpt lat="44.79157" lon="4.63935">
        <ele>445</ele>
        <time>2015-04-02T09:57:10Z</time>
      </trkpt>
      <trkpt lat="44.79158" lon="4.63942">
        <ele>446</ele>
        <time>2015-04-02T09:57:31Z</time>
      </trkpt>
      <trkpt lat="44.7916" lon="4.63949">
        <ele>447</ele>
        <time>2015-04-02T09:57:41Z</time>
      </trkpt>
      <trkpt lat="44.7916" lon="4.63955">
        <ele>448</ele>
        <time>2015-04-02T09:57:47Z</time>
      </trkpt>
      <trkpt lat="44.79159" lon="4.63963">
        <ele>448</ele>
        <time>2015-04-02T09:57:52Z</time>
      </trkpt>
      <trkpt lat="44.79157" lon="4.6397">
        <ele>448</ele>
        <time>2015-04-02T09:57:56Z</time>
      </trkpt>
      <trkpt lat="44.79155" lon="4.63977">
        <ele>448</ele>
        <time>2015-04-02T09:58:01Z</time>
      </trkpt>
      <trkpt lat="44.79155" lon="4.63983">
        <ele>447</ele>
        <time>2015-04-02T09:58:05Z</time>
      </trkpt>
      <trkpt lat="44.79155" lon="4.63989">
        <ele>447</ele>
        <time>2015-04-02T09:58:09Z</time>
      </trkpt>
      <trkpt lat="44.79152" lon="4.63995">
        <ele>447</ele>
        <time>2015-04-02T09:58:14Z</time>
      </trkpt>
      <trkpt lat="44.79151" lon="4.64003">
        <ele>446</ele>
        <time>2015-04-02T09:58:20Z</time>
      </trkpt>
      <trkpt lat="44.79149" lon="4.64009">
        <ele>447</ele>
        <time>2015-04-02T09:58:24Z</time>
      </trkpt>
      <trkpt lat="44.79147" lon="4.64015">
        <ele>447</ele>
        <time>2015-04-02T09:58:29Z</time>
      </trkpt>
      <trkpt lat="44.79145" lon="4.64017">
        <ele>448</ele>
        <time>2015-04-02T09:58:46Z</time>
      </trkpt>
      <trkpt lat="44.79144" lon="4.64021">
        <ele>448</ele>
        <time>2015-04-02T09:58:51Z</time>
      </trkpt>
      <trkpt lat="44.79143" lon="4.64027">
        <ele>448</ele>
        <time>2015-04-02T09:58:56Z</time>
      </trkpt>
      <trkpt lat="44.79141" lon="4.64033">
        <ele>448</ele>
        <time>2015-04-02T09:59:02Z</time>
      </trkpt>
      <trkpt lat="44.79139" lon="4.64039">
        <ele>448</ele>
        <time>2015-04-02T09:59:07Z</time>
      </trkpt>
      <trkpt lat="44.79139" lon="4.64047">
        <ele>447</ele>
        <time>2015-04-02T09:59:13Z</time>
      </trkpt>
      <trkpt lat="44.79139" lon="4.64055">
        <ele>447</ele>
        <time>2015-04-02T09:59:22Z</time>
      </trkpt>
      <trkpt lat="44.79138" lon="4.64062">
        <ele>446</ele>
        <time>2015-04-02T09:59:29Z</time>
      </trkpt>
      <trkpt lat="44.79136" lon="4.64068">
        <ele>446</ele>
        <time>2015-04-02T09:59:34Z</time>
      </trkpt>
      <trkpt lat="44.79133" lon="4.64073">
        <ele>446</ele>
        <time>2015-04-02T09:59:38Z</time>
      </trkpt>
      <trkpt lat="44.79129" lon="4.64077">
        <ele>447</ele>
        <time>2015-04-02T09:59:42Z</time>
      </trkpt>
      <trkpt lat="44.79125" lon="4.64081">
        <ele>448</ele>
        <time>2015-04-02T09:59:47Z</time>
      </trkpt>
      <trkpt lat="44.7912" lon="4.64085">
        <ele>442</ele>
        <time>2015-04-02T09:59:51Z</time>
      </trkpt>
      <trkpt lat="44.79117" lon="4.64092">
        <ele>442</ele>
        <time>2015-04-02T09:59:55Z</time>
      </trkpt>
      <trkpt lat="44.79113" lon="4.64095">
        <ele>443</ele>
        <time>2015-04-02T09:59:59Z</time>
      </trkpt>
      <trkpt lat="44.79109" lon="4.64099">
        <ele>443</ele>
        <time>2015-04-02T10:00:03Z</time>
      </trkpt>
      <trkpt lat="44.79106" lon="4.64103">
        <ele>444</ele>
        <time>2015-04-02T10:00:06Z</time>
      </trkpt>
      <trkpt lat="44.79102" lon="4.64106">
        <ele>444</ele>
        <time>2015-04-02T10:00:10Z</time>
      </trkpt>
      <trkpt lat="44.79099" lon="4.64111">
        <ele>443</ele>
        <time>2015-04-02T10:00:13Z</time>
      </trkpt>
      <trkpt lat="44.79095" lon="4.64116">
        <ele>443</ele>
        <time>2015-04-02T10:00:16Z</time>
      </trkpt>
      <trkpt lat="44.79092" lon="4.64121">
        <ele>442</ele>
        <time>2015-04-02T10:00:20Z</time>
      </trkpt>
      <trkpt lat="44.79088" lon="4.64124">
        <ele>442</ele>
        <time>2015-04-02T10:00:24Z</time>
      </trkpt>
      <trkpt lat="44.79083" lon="4.64128">
        <ele>450</ele>
        <time>2015-04-02T10:00:29Z</time>
      </trkpt>
      <trkpt lat="44.79078" lon="4.64131">
        <ele>450</ele>
        <time>2015-04-02T10:00:35Z</time>
      </trkpt>
      <trkpt lat="44.79075" lon="4.64134">
        <ele>449</ele>
        <time>2015-04-02T10:00:39Z</time>
      </trkpt>
      <trkpt lat="44.7907" lon="4.64139">
        <ele>449</ele>
        <time>2015-04-02T10:00:43Z</time>
      </trkpt>
      <trkpt lat="44.79067" lon="4.64144">
        <ele>448</ele>
        <time>2015-04-02T10:00:46Z</time>
      </trkpt>
      <trkpt lat="44.79062" lon="4.64145">
        <ele>449</ele>
        <time>2015-04-02T10:00:52Z</time>
      </trkpt>
      <trkpt lat="44.79058" lon="4.64148">
        <ele>449</ele>
        <time>2015-04-02T10:00:58Z</time>
      </trkpt>
      <trkpt lat="44.79054" lon="4.64153">
        <ele>449</ele>
        <time>2015-04-02T10:01:03Z</time>
      </trkpt>
      <trkpt lat="44.79052" lon="4.64159">
        <ele>448</ele>
        <time>2015-04-02T10:01:07Z</time>
      </trkpt>
      <trkpt lat="44.79049" lon="4.64164">
        <ele>449</ele>
        <time>2015-04-02T10:01:10Z</time>
      </trkpt>
      <trkpt lat="44.79044" lon="4.64168">
        <ele>444</ele>
        <time>2015-04-02T10:01:15Z</time>
      </trkpt>
      <trkpt lat="44.7904" lon="4.64171">
        <ele>444</ele>
        <time>2015-04-02T10:01:19Z</time>
      </trkpt>
      <trkpt lat="44.79036" lon="4.64175">
        <ele>445</ele>
        <time>2015-04-02T10:01:29Z</time>
      </trkpt>
      <trkpt lat="44.79032" lon="4.64173">
        <ele>445</ele>
        <time>2015-04-02T10:01:45Z</time>
      </trkpt>
      <trkpt lat="44.7903" lon="4.64166">
        <ele>450</ele>
        <time>2015-04-02T10:01:51Z</time>
      </trkpt>
      <trkpt lat="44.79027" lon="4.64163">
        <ele>451</ele>
        <time>2015-04-02T10:02:04Z</time>
      </trkpt>
      <trkpt lat="44.79026" lon="4.64162">
        <ele>451</ele>
        <time>2015-04-02T10:02:05Z</time>
      </trkpt>
      <trkpt lat="44.79022" lon="4.64165">
        <ele>451</ele>
        <time>2015-04-02T10:02:13Z</time>
      </trkpt>
      <trkpt lat="44.7902" lon="4.64172">
        <ele>446</ele>
        <time>2015-04-02T10:02:19Z</time>
      </trkpt>
      <trkpt lat="44.79023" lon="4.64169">
        <ele>446</ele>
        <time>2015-04-02T10:02:36Z</time>
      </trkpt>
      <trkpt lat="44.79024" lon="4.64168">
        <ele>446</ele>
        <time>2015-04-02T10:02:46Z</time>
      </trkpt>
      <trkpt lat="44.79029" lon="4.64162">
        <ele>451</ele>
        <time>2015-04-02T10:03:03Z</time>
      </trkpt>
      <trkpt lat="44.7903" lon="4.64164">
        <ele>450</ele>
        <time>2015-04-02T10:03:23Z</time>
      </trkpt>
      <trkpt lat="44.79031" lon="4.64167">
        <ele>445</ele>
        <time>2015-04-02T10:41:14Z</time>
      </trkpt>
      <trkpt lat="44.79033" lon="4.6416">
        <ele>450</ele>
        <time>2015-04-02T10:41:16Z</time>
      </trkpt>
      <trkpt lat="44.79033" lon="4.64163">
        <ele>450</ele>
        <time>2015-04-02T10:41:41Z</time>
      </trkpt>
      <trkpt lat="44.79033" lon="4.64163">
        <ele>450</ele>
        <time>2015-04-02T10:41:56Z</time>
      </trkpt>
      <trkpt lat="44.79033" lon="4.64163">
        <ele>450</ele>
        <time>2015-04-02T10:42:11Z</time>
      </trkpt>
      <trkpt lat="44.79033" lon="4.64164">
        <ele>450</ele>
        <time>2015-04-02T10:42:26Z</time>
      </trkpt>
      <trkpt lat="44.79032" lon="4.64167">
        <ele>445</ele>
        <time>2015-04-02T10:42:33Z</time>
      </trkpt>
      <trkpt lat="44.79032" lon="4.64169">
        <ele>445</ele>
        <time>2015-04-02T10:42:56Z</time>
      </trkpt>
      <trkpt lat="44.79032" lon="4.64169">
        <ele>445</ele>
        <time>2015-04-02T10:43:11Z</time>
      </trkpt>
      <trkpt lat="44.79032" lon="4.64169">
        <ele>445</ele>
        <time>2015-04-02T10:43:26Z</time>
      </trkpt>
      <trkpt lat="44.79032" lon="4.64169">
        <ele>445</ele>
        <time>2015-04-02T10:43:41Z</time>
      </trkpt>
      <trkpt lat="44.79032" lon="4.64169">
        <ele>445</ele>
        <time>2015-04-02T10:43:56Z</time>
      </trkpt>
      <trkpt lat="44.79032" lon="4.64169">
        <ele>445</ele>
        <time>2015-04-02T10:44:11Z</time>
      </trkpt>
      <trkpt lat="44.79025" lon="4.64191">
        <ele>446</ele>
        <time>2015-04-02T11:02:42Z</time>
      </trkpt>
      <trkpt lat="44.79022" lon="4.64196">
        <ele>446</ele>
        <time>2015-04-02T11:02:47Z</time>
      </trkpt>
      <trkpt lat="44.79019" lon="4.64201">
        <ele>446</ele>
        <time>2015-04-02T11:02:53Z</time>
      </trkpt>
      <trkpt lat="44.79015" lon="4.64204">
        <ele>446</ele>
        <time>2015-04-02T11:03:00Z</time>
      </trkpt>
      <trkpt lat="44.79012" lon="4.64209">
        <ele>446</ele>
        <time>2015-04-02T11:03:11Z</time>
      </trkpt>
      <trkpt lat="44.79008" lon="4.64212">
        <ele>446</ele>
        <time>2015-04-02T11:03:18Z</time>
      </trkpt>
      <trkpt lat="44.79003" lon="4.64214">
        <ele>446</ele>
        <time>2015-04-02T11:03:23Z</time>
      </trkpt>
      <trkpt lat="44.78998" lon="4.64216">
        <ele>454</ele>
        <time>2015-04-02T11:03:28Z</time>
      </trkpt>
      <trkpt lat="44.78993" lon="4.64219">
        <ele>454</ele>
        <time>2015-04-02T11:03:33Z</time>
      </trkpt>
      <trkpt lat="44.78988" lon="4.64222">
        <ele>454</ele>
        <time>2015-04-02T11:03:41Z</time>
      </trkpt>
      <trkpt lat="44.78986" lon="4.64227">
        <ele>454</ele>
        <time>2015-04-02T11:03:49Z</time>
      </trkpt>
      <trkpt lat="44.78985" lon="4.64235">
        <ele>453</ele>
        <time>2015-04-02T11:03:59Z</time>
      </trkpt>
      <trkpt lat="44.78982" lon="4.64239">
        <ele>453</ele>
        <time>2015-04-02T11:04:06Z</time>
      </trkpt>
      <trkpt lat="44.78979" lon="4.64244">
        <ele>454</ele>
        <time>2015-04-02T11:04:17Z</time>
      </trkpt>
      <trkpt lat="44.78975" lon="4.64249">
        <ele>454</ele>
        <time>2015-04-02T11:04:26Z</time>
      </trkpt>
      <trkpt lat="44.78972" lon="4.64254">
        <ele>457</ele>
        <time>2015-04-02T11:04:30Z</time>
      </trkpt>
      <trkpt lat="44.78969" lon="4.64259">
        <ele>458</ele>
        <time>2015-04-02T11:04:38Z</time>
      </trkpt>
      <trkpt lat="44.78966" lon="4.64265">
        <ele>459</ele>
        <time>2015-04-02T11:04:44Z</time>
      </trkpt>
      <trkpt lat="44.78964" lon="4.64271">
        <ele>460</ele>
        <time>2015-04-02T11:04:48Z</time>
      </trkpt>
      <trkpt lat="44.78961" lon="4.64277">
        <ele>460</ele>
        <time>2015-04-02T11:04:53Z</time>
      </trkpt>
      <trkpt lat="44.7896" lon="4.64283">
        <ele>461</ele>
        <time>2015-04-02T11:05:01Z</time>
      </trkpt>
      <trkpt lat="44.78964" lon="4.6428">
        <ele>460</ele>
        <time>2015-04-02T11:05:17Z</time>
      </trkpt>
      <trkpt lat="44.78967" lon="4.64279">
        <ele>460</ele>
        <time>2015-04-02T11:05:32Z</time>
      </trkpt>
      <trkpt lat="44.78968" lon="4.64278">
        <ele>460</ele>
        <time>2015-04-02T11:05:35Z</time>
      </trkpt>
      <trkpt lat="44.78973" lon="4.64277">
        <ele>459</ele>
        <time>2015-04-02T11:05:41Z</time>
      </trkpt>
      <trkpt lat="44.78976" lon="4.64272">
        <ele>458</ele>
        <time>2015-04-02T11:05:48Z</time>
      </trkpt>
      <trkpt lat="44.78981" lon="4.6427">
        <ele>457</ele>
        <time>2015-04-02T11:05:53Z</time>
      </trkpt>
      <trkpt lat="44.78986" lon="4.64269">
        <ele>456</ele>
        <time>2015-04-02T11:05:58Z</time>
      </trkpt>
      <trkpt lat="44.78991" lon="4.64266">
        <ele>455</ele>
        <time>2015-04-02T11:06:03Z</time>
      </trkpt>
      <trkpt lat="44.78997" lon="4.64263">
        <ele>453</ele>
        <time>2015-04-02T11:06:08Z</time>
      </trkpt>
      <trkpt lat="44.79002" lon="4.64262">
        <ele>452</ele>
        <time>2015-04-02T11:06:12Z</time>
      </trkpt>
      <trkpt lat="44.79007" lon="4.64262">
        <ele>452</ele>
        <time>2015-04-02T11:06:17Z</time>
      </trkpt>
      <trkpt lat="44.79012" lon="4.64263">
        <ele>453</ele>
        <time>2015-04-02T11:06:21Z</time>
      </trkpt>
      <trkpt lat="44.79017" lon="4.64265">
        <ele>454</ele>
        <time>2015-04-02T11:06:26Z</time>
      </trkpt>
      <trkpt lat="44.79022" lon="4.64269">
        <ele>455</ele>
        <time>2015-04-02T11:06:30Z</time>
      </trkpt>
      <trkpt lat="44.79026" lon="4.64272">
        <ele>456</ele>
        <time>2015-04-02T11:06:35Z</time>
      </trkpt>
      <trkpt lat="44.79022" lon="4.64276">
        <ele>456</ele>
        <time>2015-04-02T11:06:44Z</time>
      </trkpt>
      <trkpt lat="44.79017" lon="4.64277">
        <ele>456</ele>
        <time>2015-04-02T11:06:53Z</time>
      </trkpt>
      <trkpt lat="44.79012" lon="4.64279">
        <ele>456</ele>
        <time>2015-04-02T11:07:00Z</time>
      </trkpt>
      <trkpt lat="44.79009" lon="4.64284">
        <ele>457</ele>
        <time>2015-04-02T11:07:08Z</time>
      </trkpt>
      <trkpt lat="44.79004" lon="4.64287">
        <ele>458</ele>
        <time>2015-04-02T11:07:12Z</time>
      </trkpt>
      <trkpt lat="44.79" lon="4.64289">
        <ele>459</ele>
        <time>2015-04-02T11:07:16Z</time>
      </trkpt>
      <trkpt lat="44.78995" lon="4.64294">
        <ele>460</ele>
        <time>2015-04-02T11:07:20Z</time>
      </trkpt>
      <trkpt lat="44.78991" lon="4.64298">
        <ele>461</ele>
        <time>2015-04-02T11:07:24Z</time>
      </trkpt>
      <trkpt lat="44.78986" lon="4.64302">
        <ele>462</ele>
        <time>2015-04-02T11:07:29Z</time>
      </trkpt>
      <trkpt lat="44.78982" lon="4.64306">
        <ele>462</ele>
        <time>2015-04-02T11:07:35Z</time>
      </trkpt>
      <trkpt lat="44.78983" lon="4.6431">
        <ele>462</ele>
        <time>2015-04-02T11:07:50Z</time>
      </trkpt>
      <trkpt lat="44.78983" lon="4.64309">
        <ele>462</ele>
        <time>2015-04-02T11:08:05Z</time>
      </trkpt>
      <trkpt lat="44.78986" lon="4.64309">
        <ele>462</ele>
        <time>2015-04-02T11:08:11Z</time>
      </trkpt>
      <trkpt lat="44.78991" lon="4.64308">
        <ele>462</ele>
        <time>2015-04-02T11:08:16Z</time>
      </trkpt>
      <trkpt lat="44.78995" lon="4.64306">
        <ele>462</ele>
        <time>2015-04-02T11:08:26Z</time>
      </trkpt>
      <trkpt lat="44.79" lon="4.64309">
        <ele>462</ele>
        <time>2015-04-02T11:08:33Z</time>
      </trkpt>
      <trkpt lat="44.79004" lon="4.64309">
        <ele>462</ele>
        <time>2015-04-02T11:08:42Z</time>
      </trkpt>
      <trkpt lat="44.7901" lon="4.64312">
        <ele>462</ele>
        <time>2015-04-02T11:08:47Z</time>
      </trkpt>
      <trkpt lat="44.79015" lon="4.64312">
        <ele>462</ele>
        <time>2015-04-02T11:08:50Z</time>
      </trkpt>
      <trkpt lat="44.7902" lon="4.64311">
        <ele>462</ele>
        <time>2015-04-02T11:08:53Z</time>
      </trkpt>
      <trkpt lat="44.79026" lon="4.64313">
        <ele>462</ele>
        <time>2015-04-02T11:08:58Z</time>
      </trkpt>
      <trkpt lat="44.79031" lon="4.64313">
        <ele>462</ele>
        <time>2015-04-02T11:09:05Z</time>
      </trkpt>
      <trkpt lat="44.79036" lon="4.64312">
        <ele>462</ele>
        <time>2015-04-02T11:09:11Z</time>
      </trkpt>
      <trkpt lat="44.79041" lon="4.64311">
        <ele>462</ele>
        <time>2015-04-02T11:09:17Z</time>
      </trkpt>
      <trkpt lat="44.79046" lon="4.6431">
        <ele>462</ele>
        <time>2015-04-02T11:09:23Z</time>
      </trkpt>
      <trkpt lat="44.79051" lon="4.64309">
        <ele>463</ele>
        <time>2015-04-02T11:09:28Z</time>
      </trkpt>
      <trkpt lat="44.79056" lon="4.64308">
        <ele>463</ele>
        <time>2015-04-02T11:09:32Z</time>
      </trkpt>
      <trkpt lat="44.79062" lon="4.64309">
        <ele>464</ele>
        <time>2015-04-02T11:09:38Z</time>
      </trkpt>
      <trkpt lat="44.79067" lon="4.6431">
        <ele>464</ele>
        <time>2015-04-02T11:09:43Z</time>
      </trkpt>
      <trkpt lat="44.79073" lon="4.64309">
        <ele>465</ele>
        <time>2015-04-02T11:09:48Z</time>
      </trkpt>
      <trkpt lat="44.79077" lon="4.64309">
        <ele>465</ele>
        <time>2015-04-02T11:09:51Z</time>
      </trkpt>
      <trkpt lat="44.79083" lon="4.64309">
        <ele>465</ele>
        <time>2015-04-02T11:09:55Z</time>
      </trkpt>
      <trkpt lat="44.79087" lon="4.64311">
        <ele>469</ele>
        <time>2015-04-02T11:10:01Z</time>
      </trkpt>
      <trkpt lat="44.79092" lon="4.64311">
        <ele>469</ele>
        <time>2015-04-02T11:10:07Z</time>
      </trkpt>
      <trkpt lat="44.79097" lon="4.64313">
        <ele>469</ele>
        <time>2015-04-02T11:10:14Z</time>
      </trkpt>
      <trkpt lat="44.79101" lon="4.64315">
        <ele>470</ele>
        <time>2015-04-02T11:10:28Z</time>
      </trkpt>
      <trkpt lat="44.79098" lon="4.6432">
        <ele>471</ele>
        <time>2015-04-02T11:10:38Z</time>
      </trkpt>
      <trkpt lat="44.79094" lon="4.64323">
        <ele>472</ele>
        <time>2015-04-02T11:10:53Z</time>
      </trkpt>
      <trkpt lat="44.79089" lon="4.64327">
        <ele>474</ele>
        <time>2015-04-02T11:11:00Z</time>
      </trkpt>
      <trkpt lat="44.79085" lon="4.6433">
        <ele>475</ele>
        <time>2015-04-02T11:11:07Z</time>
      </trkpt>
      <trkpt lat="44.79081" lon="4.64333">
        <ele>475</ele>
        <time>2015-04-02T11:11:17Z</time>
      </trkpt>
      <trkpt lat="44.79076" lon="4.64336">
        <ele>479</ele>
        <time>2015-04-02T11:11:27Z</time>
      </trkpt>
      <trkpt lat="44.79071" lon="4.64339">
        <ele>480</ele>
        <time>2015-04-02T11:11:32Z</time>
      </trkpt>
      <trkpt lat="44.79067" lon="4.64341">
        <ele>480</ele>
        <time>2015-04-02T11:11:37Z</time>
      </trkpt>
      <trkpt lat="44.79061" lon="4.64343">
        <ele>481</ele>
        <time>2015-04-02T11:11:43Z</time>
      </trkpt>
      <trkpt lat="44.79057" lon="4.64344">
        <ele>481</ele>
        <time>2015-04-02T11:11:46Z</time>
      </trkpt>
      <trkpt lat="44.79052" lon="4.64346">
        <ele>481</ele>
        <time>2015-04-02T11:11:49Z</time>
      </trkpt>
      <trkpt lat="44.79047" lon="4.64348">
        <ele>481</ele>
        <time>2015-04-02T11:11:53Z</time>
      </trkpt>
      <trkpt lat="44.79042" lon="4.64349">
        <ele>481</ele>
        <time>2015-04-02T11:11:57Z</time>
      </trkpt>
      <trkpt lat="44.79038" lon="4.64351">
        <ele>481</ele>
        <time>2015-04-02T11:12:02Z</time>
      </trkpt>
      <trkpt lat="44.79033" lon="4.64352">
        <ele>480</ele>
        <time>2015-04-02T11:12:09Z</time>
      </trkpt>
      <trkpt lat="44.79029" lon="4.64354">
        <ele>480</ele>
        <time>2015-04-02T11:12:14Z</time>
      </trkpt>
      <trkpt lat="44.79024" lon="4.64356">
        <ele>480</ele>
        <time>2015-04-02T11:12:19Z</time>
      </trkpt>
      <trkpt lat="44.7902" lon="4.6436">
        <ele>480</ele>
        <time>2015-04-02T11:12:24Z</time>
      </trkpt>
      <trkpt lat="44.79017" lon="4.64364">
        <ele>481</ele>
        <time>2015-04-02T11:12:42Z</time>
      </trkpt>
      <trkpt lat="44.79013" lon="4.64366">
        <ele>481</ele>
        <time>2015-04-02T11:12:59Z</time>
      </trkpt>
      <trkpt lat="44.79012" lon="4.64367">
        <ele>481</ele>
        <time>2015-04-02T11:13:01Z</time>
      </trkpt>
      <trkpt lat="44.79009" lon="4.64371">
        <ele>482</ele>
        <time>2015-04-02T11:13:09Z</time>
      </trkpt>
      <trkpt lat="44.79004" lon="4.64374">
        <ele>482</ele>
        <time>2015-04-02T11:13:27Z</time>
      </trkpt>
      <trkpt lat="44.79001" lon="4.64379">
        <ele>483</ele>
        <time>2015-04-02T11:13:36Z</time>
      </trkpt>
      <trkpt lat="44.78997" lon="4.64384">
        <ele>481</ele>
        <time>2015-04-02T11:13:47Z</time>
      </trkpt>
      <trkpt lat="44.78997" lon="4.6439">
        <ele>483</ele>
        <time>2015-04-02T11:14:03Z</time>
      </trkpt>
      <trkpt lat="44.78999" lon="4.64391">
        <ele>483</ele>
        <time>2015-04-02T11:14:19Z</time>
      </trkpt>
      <trkpt lat="44.79001" lon="4.64391">
        <ele>486</ele>
        <time>2015-04-02T11:14:24Z</time>
      </trkpt>
      <trkpt lat="44.79007" lon="4.64391">
        <ele>486</ele>
        <time>2015-04-02T11:14:29Z</time>
      </trkpt>
      <trkpt lat="44.79012" lon="4.64391">
        <ele>486</ele>
        <time>2015-04-02T11:14:35Z</time>
      </trkpt>
      <trkpt lat="44.79017" lon="4.64393">
        <ele>486</ele>
        <time>2015-04-02T11:14:48Z</time>
      </trkpt>
      <trkpt lat="44.79022" lon="4.64394">
        <ele>486</ele>
        <time>2015-04-02T11:14:53Z</time>
      </trkpt>
      <trkpt lat="44.79028" lon="4.64392">
        <ele>486</ele>
        <time>2015-04-02T11:14:57Z</time>
      </trkpt>
      <trkpt lat="44.79033" lon="4.6439">
        <ele>486</ele>
        <time>2015-04-02T11:15:01Z</time>
      </trkpt>
      <trkpt lat="44.79038" lon="4.6439">
        <ele>486</ele>
        <time>2015-04-02T11:15:06Z</time>
      </trkpt>
      <trkpt lat="44.79043" lon="4.64392">
        <ele>486</ele>
        <time>2015-04-02T11:15:14Z</time>
      </trkpt>
      <trkpt lat="44.79047" lon="4.64393">
        <ele>487</ele>
        <time>2015-04-02T11:15:18Z</time>
      </trkpt>
      <trkpt lat="44.79052" lon="4.64393">
        <ele>487</ele>
        <time>2015-04-02T11:15:22Z</time>
      </trkpt>
      <trkpt lat="44.79057" lon="4.64396">
        <ele>488</ele>
        <time>2015-04-02T11:15:27Z</time>
      </trkpt>
      <trkpt lat="44.79062" lon="4.64398">
        <ele>489</ele>
        <time>2015-04-02T11:15:31Z</time>
      </trkpt>
      <trkpt lat="44.79067" lon="4.64397">
        <ele>489</ele>
        <time>2015-04-02T11:15:36Z</time>
      </trkpt>
      <trkpt lat="44.79071" lon="4.64392">
        <ele>489</ele>
        <time>2015-04-02T11:15:41Z</time>
      </trkpt>
      <trkpt lat="44.79076" lon="4.64393">
        <ele>489</ele>
        <time>2015-04-02T11:15:54Z</time>
      </trkpt>
      <trkpt lat="44.79081" lon="4.64392">
        <ele>489</ele>
        <time>2015-04-02T11:16:03Z</time>
      </trkpt>
      <trkpt lat="44.79086" lon="4.64391">
        <ele>492</ele>
        <time>2015-04-02T11:16:07Z</time>
      </trkpt>
      <trkpt lat="44.79092" lon="4.64393">
        <ele>492</ele>
        <time>2015-04-02T11:16:13Z</time>
      </trkpt>
      <trkpt lat="44.79096" lon="4.64395">
        <ele>492</ele>
        <time>2015-04-02T11:16:19Z</time>
      </trkpt>
      <trkpt lat="44.79102" lon="4.64396">
        <ele>492</ele>
        <time>2015-04-02T11:16:25Z</time>
      </trkpt>
      <trkpt lat="44.79106" lon="4.64398">
        <ele>492</ele>
        <time>2015-04-02T11:16:29Z</time>
      </trkpt>
      <trkpt lat="44.7911" lon="4.644">
        <ele>492</ele>
        <time>2015-04-02T11:16:32Z</time>
      </trkpt>
      <trkpt lat="44.79115" lon="4.64403">
        <ele>492</ele>
        <time>2015-04-02T11:16:36Z</time>
      </trkpt>
      <trkpt lat="44.7912" lon="4.64406">
        <ele>492</ele>
        <time>2015-04-02T11:16:41Z</time>
      </trkpt>
      <trkpt lat="44.79124" lon="4.64409">
        <ele>493</ele>
        <time>2015-04-02T11:16:45Z</time>
      </trkpt>
      <trkpt lat="44.79127" lon="4.64415">
        <ele>493</ele>
        <time>2015-04-02T11:16:51Z</time>
      </trkpt>
      <trkpt lat="44.7913" lon="4.6442">
        <ele>500</ele>
        <time>2015-04-02T11:16:56Z</time>
      </trkpt>
      <trkpt lat="44.79133" lon="4.64425">
        <ele>500</ele>
        <time>2015-04-02T11:17:04Z</time>
      </trkpt>
      <trkpt lat="44.79138" lon="4.64424">
        <ele>500</ele>
        <time>2015-04-02T11:17:14Z</time>
      </trkpt>
      <trkpt lat="44.79142" lon="4.64422">
        <ele>499</ele>
        <time>2015-04-02T11:17:24Z</time>
      </trkpt>
      <trkpt lat="44.79148" lon="4.64422">
        <ele>499</ele>
        <time>2015-04-02T11:17:32Z</time>
      </trkpt>
      <trkpt lat="44.79153" lon="4.64422">
        <ele>499</ele>
        <time>2015-04-02T11:17:36Z</time>
      </trkpt>
      <trkpt lat="44.79157" lon="4.64418">
        <ele>499</ele>
        <time>2015-04-02T11:17:40Z</time>
      </trkpt>
      <trkpt lat="44.79162" lon="4.64415">
        <ele>497</ele>
        <time>2015-04-02T11:17:44Z</time>
      </trkpt>
      <trkpt lat="44.79166" lon="4.64412">
        <ele>497</ele>
        <time>2015-04-02T11:17:49Z</time>
      </trkpt>
      <trkpt lat="44.79171" lon="4.64407">
        <ele>492</ele>
        <time>2015-04-02T11:17:54Z</time>
      </trkpt>
      <trkpt lat="44.79174" lon="4.64402">
        <ele>490</ele>
        <time>2015-04-02T11:17:59Z</time>
      </trkpt>
      <trkpt lat="44.79176" lon="4.64395">
        <ele>488</ele>
        <time>2015-04-02T11:18:04Z</time>
      </trkpt>
      <trkpt lat="44.79179" lon="4.64389">
        <ele>486</ele>
        <time>2015-04-02T11:18:08Z</time>
      </trkpt>
      <trkpt lat="44.79182" lon="4.64384">
        <ele>485</ele>
        <time>2015-04-02T11:18:12Z</time>
      </trkpt>
      <trkpt lat="44.79184" lon="4.64379">
        <ele>484</ele>
        <time>2015-04-02T11:18:18Z</time>
      </trkpt>
      <trkpt lat="44.79183" lon="4.64372">
        <ele>484</ele>
        <time>2015-04-02T11:18:23Z</time>
      </trkpt>
      <trkpt lat="44.79181" lon="4.64365">
        <ele>483</ele>
        <time>2015-04-02T11:18:27Z</time>
      </trkpt>
      <trkpt lat="44.79183" lon="4.64359">
        <ele>483</ele>
        <time>2015-04-02T11:18:31Z</time>
      </trkpt>
      <trkpt lat="44.79187" lon="4.64354">
        <ele>483</ele>
        <time>2015-04-02T11:18:41Z</time>
      </trkpt>
      <trkpt lat="44.79192" lon="4.64352">
        <ele>482</ele>
        <time>2015-04-02T11:18:47Z</time>
      </trkpt>
      <trkpt lat="44.79196" lon="4.64349">
        <ele>482</ele>
        <time>2015-04-02T11:18:52Z</time>
      </trkpt>
      <trkpt lat="44.79201" lon="4.64347">
        <ele>481</ele>
        <time>2015-04-02T11:18:56Z</time>
      </trkpt>
      <trkpt lat="44.79205" lon="4.64345">
        <ele>481</ele>
        <time>2015-04-02T11:19:00Z</time>
      </trkpt>
      <trkpt lat="44.79209" lon="4.64341">
        <ele>480</ele>
        <time>2015-04-02T11:19:04Z</time>
      </trkpt>
      <trkpt lat="44.79214" lon="4.64337">
        <ele>480</ele>
        <time>2015-04-02T11:19:08Z</time>
      </trkpt>
      <trkpt lat="44.79218" lon="4.64333">
        <ele>479</ele>
        <time>2015-04-02T11:19:12Z</time>
      </trkpt>
      <trkpt lat="44.79221" lon="4.64329">
        <ele>472</ele>
        <time>2015-04-02T11:19:16Z</time>
      </trkpt>
      <trkpt lat="44.79226" lon="4.64326">
        <ele>472</ele>
        <time>2015-04-02T11:19:22Z</time>
      </trkpt>
      <trkpt lat="44.79229" lon="4.64322">
        <ele>472</ele>
        <time>2015-04-02T11:19:26Z</time>
      </trkpt>
      <trkpt lat="44.79235" lon="4.64319">
        <ele>472</ele>
        <time>2015-04-02T11:19:30Z</time>
      </trkpt>
      <trkpt lat="44.79238" lon="4.64314">
        <ele>471</ele>
        <time>2015-04-02T11:19:33Z</time>
      </trkpt>
      <trkpt lat="44.79243" lon="4.64309">
        <ele>471</ele>
        <time>2015-04-02T11:19:37Z</time>
      </trkpt>
      <trkpt lat="44.79247" lon="4.64305">
        <ele>471</ele>
        <time>2015-04-02T11:19:42Z</time>
      </trkpt>
      <trkpt lat="44.7925" lon="4.64299">
        <ele>464</ele>
        <time>2015-04-02T11:19:46Z</time>
      </trkpt>
      <trkpt lat="44.79255" lon="4.64296">
        <ele>463</ele>
        <time>2015-04-02T11:19:50Z</time>
      </trkpt>
      <trkpt lat="44.7926" lon="4.64293">
        <ele>463</ele>
        <time>2015-04-02T11:19:54Z</time>
      </trkpt>
      <trkpt lat="44.79265" lon="4.6429">
        <ele>462</ele>
        <time>2015-04-02T11:19:58Z</time>
      </trkpt>
      <trkpt lat="44.7927" lon="4.64288">
        <ele>462</ele>
        <time>2015-04-02T11:20:02Z</time>
      </trkpt>
      <trkpt lat="44.79276" lon="4.64286">
        <ele>461</ele>
        <time>2015-04-02T11:20:06Z</time>
      </trkpt>
      <trkpt lat="44.7928" lon="4.64286">
        <ele>461</ele>
        <time>2015-04-02T11:20:10Z</time>
      </trkpt>
      <trkpt lat="44.79285" lon="4.64284">
        <ele>460</ele>
        <time>2015-04-02T11:20:15Z</time>
      </trkpt>
      <trkpt lat="44.7929" lon="4.64283">
        <ele>460</ele>
        <time>2015-04-02T11:20:19Z</time>
      </trkpt>
      <trkpt lat="44.79294" lon="4.64284">
        <ele>459</ele>
        <time>2015-04-02T11:20:23Z</time>
      </trkpt>
      <trkpt lat="44.793" lon="4.64283">
        <ele>459</ele>
        <time>2015-04-02T11:20:27Z</time>
      </trkpt>
      <trkpt lat="44.79305" lon="4.64279">
        <ele>458</ele>
        <time>2015-04-02T11:20:31Z</time>
      </trkpt>
      <trkpt lat="44.79309" lon="4.64276">
        <ele>458</ele>
        <time>2015-04-02T11:20:36Z</time>
      </trkpt>
      <trkpt lat="44.79313" lon="4.6427">
        <ele>457</ele>
        <time>2015-04-02T11:20:44Z</time>
      </trkpt>
      <trkpt lat="44.79318" lon="4.64266">
        <ele>457</ele>
        <time>2015-04-02T11:20:49Z</time>
      </trkpt>
      <trkpt lat="44.79322" lon="4.64262">
        <ele>456</ele>
        <time>2015-04-02T11:20:54Z</time>
      </trkpt>
      <trkpt lat="44.79327" lon="4.6426">
        <ele>456</ele>
        <time>2015-04-02T11:21:06Z</time>
      </trkpt>
      <trkpt lat="44.79331" lon="4.64256">
        <ele>455</ele>
        <time>2015-04-02T11:21:14Z</time>
      </trkpt>
      <trkpt lat="44.79334" lon="4.64251">
        <ele>453</ele>
        <time>2015-04-02T11:21:19Z</time>
      </trkpt>
      <trkpt lat="44.79337" lon="4.64245">
        <ele>450</ele>
        <time>2015-04-02T11:21:25Z</time>
      </trkpt>
      <trkpt lat="44.79338" lon="4.64239">
        <ele>447</ele>
        <time>2015-04-02T11:21:30Z</time>
      </trkpt>
      <trkpt lat="44.79339" lon="4.64232">
        <ele>445</ele>
        <time>2015-04-02T11:21:37Z</time>
      </trkpt>
      <trkpt lat="44.79343" lon="4.64229">
        <ele>443</ele>
        <time>2015-04-02T11:21:44Z</time>
      </trkpt>
      <trkpt lat="44.79346" lon="4.64222">
        <ele>442</ele>
        <time>2015-04-02T11:21:49Z</time>
      </trkpt>
      <trkpt lat="44.79348" lon="4.64215">
        <ele>441</ele>
        <time>2015-04-02T11:21:54Z</time>
      </trkpt>
      <trkpt lat="44.7935" lon="4.64208">
        <ele>440</ele>
        <time>2015-04-02T11:21:59Z</time>
      </trkpt>
      <trkpt lat="44.79351" lon="4.64201">
        <ele>440</ele>
        <time>2015-04-02T11:22:04Z</time>
      </trkpt>
      <trkpt lat="44.79351" lon="4.64194">
        <ele>441</ele>
        <time>2015-04-02T11:22:09Z</time>
      </trkpt>
      <trkpt lat="44.7935" lon="4.64182">
        <ele>442</ele>
        <time>2015-04-02T11:22:16Z</time>
      </trkpt>
      <trkpt lat="44.79352" lon="4.64175">
        <ele>442</ele>
        <time>2015-04-02T11:22:22Z</time>
      </trkpt>
      <trkpt lat="44.7935" lon="4.64169">
        <ele>443</ele>
        <time>2015-04-02T11:22:27Z</time>
      </trkpt>
      <trkpt lat="44.79351" lon="4.64162">
        <ele>441</ele>
        <time>2015-04-02T11:22:34Z</time>
      </trkpt>
      <trkpt lat="44.79353" lon="4.64155">
        <ele>440</ele>
        <time>2015-04-02T11:22:39Z</time>
      </trkpt>
      <trkpt lat="44.79356" lon="4.6415">
        <ele>439</ele>
        <time>2015-04-02T11:22:47Z</time>
      </trkpt>
      <trkpt lat="44.79359" lon="4.64145">
        <ele>438</ele>
        <time>2015-04-02T11:22:53Z</time>
      </trkpt>
      <trkpt lat="44.79362" lon="4.64139">
        <ele>437</ele>
        <time>2015-04-02T11:22:58Z</time>
      </trkpt>
      <trkpt lat="44.79366" lon="4.64134">
        <ele>436</ele>
        <time>2015-04-02T11:23:03Z</time>
      </trkpt>
      <trkpt lat="44.79369" lon="4.6413">
        <ele>436</ele>
        <time>2015-04-02T11:23:07Z</time>
      </trkpt>
      <trkpt lat="44.79373" lon="4.64125">
        <ele>435</ele>
        <time>2015-04-02T11:23:12Z</time>
      </trkpt>
      <trkpt lat="44.79377" lon="4.64121">
        <ele>435</ele>
        <time>2015-04-02T11:23:19Z</time>
      </trkpt>
      <trkpt lat="44.79381" lon="4.64116">
        <ele>434</ele>
        <time>2015-04-02T11:23:24Z</time>
      </trkpt>
      <trkpt lat="44.79384" lon="4.64111">
        <ele>434</ele>
        <time>2015-04-02T11:23:29Z</time>
      </trkpt>
      <trkpt lat="44.79388" lon="4.64107">
        <ele>434</ele>
        <time>2015-04-02T11:23:34Z</time>
      </trkpt>
      <trkpt lat="44.79392" lon="4.64103">
        <ele>433</ele>
        <time>2015-04-02T11:23:38Z</time>
      </trkpt>
      <trkpt lat="44.79393" lon="4.64096">
        <ele>433</ele>
        <time>2015-04-02T11:23:43Z</time>
      </trkpt>
      <trkpt lat="44.79396" lon="4.64091">
        <ele>433</ele>
        <time>2015-04-02T11:23:48Z</time>
      </trkpt>
      <trkpt lat="44.79401" lon="4.64084">
        <ele>433</ele>
        <time>2015-04-02T11:23:55Z</time>
      </trkpt>
      <trkpt lat="44.79405" lon="4.6408">
        <ele>428</ele>
        <time>2015-04-02T11:24:02Z</time>
      </trkpt>
      <trkpt lat="44.79408" lon="4.64075">
        <ele>428</ele>
        <time>2015-04-02T11:24:09Z</time>
      </trkpt>
      <trkpt lat="44.79413" lon="4.64075">
        <ele>429</ele>
        <time>2015-04-02T11:24:17Z</time>
      </trkpt>
      <trkpt lat="44.79417" lon="4.64071">
        <ele>423</ele>
        <time>2015-04-02T11:24:24Z</time>
      </trkpt>
      <trkpt lat="44.79421" lon="4.64067">
        <ele>422</ele>
        <time>2015-04-02T11:24:31Z</time>
      </trkpt>
      <trkpt lat="44.79426" lon="4.64065">
        <ele>420</ele>
        <time>2015-04-02T11:24:36Z</time>
      </trkpt>
      <trkpt lat="44.7943" lon="4.64062">
        <ele>419</ele>
        <time>2015-04-02T11:24:42Z</time>
      </trkpt>
      <trkpt lat="44.79435" lon="4.64062">
        <ele>417</ele>
        <time>2015-04-02T11:24:46Z</time>
      </trkpt>
      <trkpt lat="44.79439" lon="4.64065">
        <ele>417</ele>
        <time>2015-04-02T11:24:54Z</time>
      </trkpt>
      <trkpt lat="44.79444" lon="4.64063">
        <ele>415</ele>
        <time>2015-04-02T11:24:58Z</time>
      </trkpt>
      <trkpt lat="44.79449" lon="4.64062">
        <ele>414</ele>
        <time>2015-04-02T11:25:02Z</time>
      </trkpt>
      <trkpt lat="44.79454" lon="4.64059">
        <ele>413</ele>
        <time>2015-04-02T11:25:07Z</time>
      </trkpt>
      <trkpt lat="44.79459" lon="4.64061">
        <ele>412</ele>
        <time>2015-04-02T11:25:13Z</time>
      </trkpt>
      <trkpt lat="44.79463" lon="4.64059">
        <ele>411</ele>
        <time>2015-04-02T11:25:18Z</time>
      </trkpt>
      <trkpt lat="44.79467" lon="4.64056">
        <ele>410</ele>
        <time>2015-04-02T11:25:24Z</time>
      </trkpt>
      <trkpt lat="44.79473" lon="4.64056">
        <ele>409</ele>
        <time>2015-04-02T11:25:30Z</time>
      </trkpt>
      <trkpt lat="44.79477" lon="4.64054">
        <ele>408</ele>
        <time>2015-04-02T11:25:38Z</time>
      </trkpt>
      <trkpt lat="44.79482" lon="4.64053">
        <ele>408</ele>
        <time>2015-04-02T11:25:45Z</time>
      </trkpt>
      <trkpt lat="44.79487" lon="4.64052">
        <ele>407</ele>
        <time>2015-04-02T11:25:49Z</time>
      </trkpt>
      <trkpt lat="44.7949" lon="4.64047">
        <ele>407</ele>
        <time>2015-04-02T11:25:55Z</time>
      </trkpt>
      <trkpt lat="44.79495" lon="4.64043">
        <ele>406</ele>
        <time>2015-04-02T11:25:59Z</time>
      </trkpt>
      <trkpt lat="44.79499" lon="4.6404">
        <ele>406</ele>
        <time>2015-04-02T11:26:05Z</time>
      </trkpt>
      <trkpt lat="44.79504" lon="4.64038">
        <ele>391</ele>
        <time>2015-04-02T11:26:10Z</time>
      </trkpt>
      <trkpt lat="44.79506" lon="4.64031">
        <ele>391</ele>
        <time>2015-04-02T11:26:13Z</time>
      </trkpt>
      <trkpt lat="44.79511" lon="4.64027">
        <ele>391</ele>
        <time>2015-04-02T11:26:17Z</time>
      </trkpt>
      <trkpt lat="44.79515" lon="4.64025">
        <ele>391</ele>
        <time>2015-04-02T11:26:25Z</time>
      </trkpt>
      <trkpt lat="44.79519" lon="4.64021">
        <ele>391</ele>
        <time>2015-04-02T11:26:31Z</time>
      </trkpt>
      <trkpt lat="44.79524" lon="4.64022">
        <ele>390</ele>
        <time>2015-04-02T11:26:36Z</time>
      </trkpt>
      <trkpt lat="44.79528" lon="4.6402">
        <ele>389</ele>
        <time>2015-04-02T11:26:41Z</time>
      </trkpt>
      <trkpt lat="44.79534" lon="4.64018">
        <ele>389</ele>
        <time>2015-04-02T11:26:47Z</time>
      </trkpt>
      <trkpt lat="44.79538" lon="4.64017">
        <ele>388</ele>
        <time>2015-04-02T11:26:52Z</time>
      </trkpt>
      <trkpt lat="44.79543" lon="4.64016">
        <ele>388</ele>
        <time>2015-04-02T11:26:56Z</time>
      </trkpt>
      <trkpt lat="44.79548" lon="4.64013">
        <ele>387</ele>
        <time>2015-04-02T11:27:00Z</time>
      </trkpt>
      <trkpt lat="44.79553" lon="4.64009">
        <ele>386</ele>
        <time>2015-04-02T11:27:04Z</time>
      </trkpt>
      <trkpt lat="44.79557" lon="4.64006">
        <ele>385</ele>
        <time>2015-04-02T11:27:08Z</time>
      </trkpt>
      <trkpt lat="44.79562" lon="4.64004">
        <ele>384</ele>
        <time>2015-04-02T11:27:13Z</time>
      </trkpt>
      <trkpt lat="44.79566" lon="4.63999">
        <ele>379</ele>
        <time>2015-04-02T11:27:18Z</time>
      </trkpt>
      <trkpt lat="44.7957" lon="4.63996">
        <ele>379</ele>
        <time>2015-04-02T11:27:26Z</time>
      </trkpt>
      <trkpt lat="44.79575" lon="4.63992">
        <ele>379</ele>
        <time>2015-04-02T11:27:33Z</time>
      </trkpt>
      <trkpt lat="44.79578" lon="4.63986">
        <ele>379</ele>
        <time>2015-04-02T11:27:38Z</time>
      </trkpt>
      <trkpt lat="44.79581" lon="4.6398">
        <ele>378</ele>
        <time>2015-04-02T11:27:43Z</time>
      </trkpt>
      <trkpt lat="44.79585" lon="4.63977">
        <ele>376</ele>
        <time>2015-04-02T11:27:49Z</time>
      </trkpt>
      <trkpt lat="44.7959" lon="4.63976">
        <ele>376</ele>
        <time>2015-04-02T11:27:53Z</time>
      </trkpt>
      <trkpt lat="44.79594" lon="4.63974">
        <ele>376</ele>
        <time>2015-04-02T11:27:56Z</time>
      </trkpt>
      <trkpt lat="44.79598" lon="4.63968">
        <ele>375</ele>
        <time>2015-04-02T11:28:00Z</time>
      </trkpt>
      <trkpt lat="44.79602" lon="4.63964">
        <ele>375</ele>
        <time>2015-04-02T11:28:04Z</time>
      </trkpt>
      <trkpt lat="44.79606" lon="4.6396">
        <ele>375</ele>
        <time>2015-04-02T11:28:08Z</time>
      </trkpt>
      <trkpt lat="44.7961" lon="4.63956">
        <ele>374</ele>
        <time>2015-04-02T11:28:14Z</time>
      </trkpt>
      <trkpt lat="44.79613" lon="4.63957">
        <ele>375</ele>
        <time>2015-04-02T11:28:36Z</time>
      </trkpt>
      <trkpt lat="44.79614" lon="4.63958">
        <ele>375</ele>
        <time>2015-04-02T11:28:41Z</time>
      </trkpt>
      <trkpt lat="44.79615" lon="4.63961">
        <ele>375</ele>
        <time>2015-04-02T11:29:08Z</time>
      </trkpt>
      <trkpt lat="44.79615" lon="4.63961">
        <ele>375</ele>
        <time>2015-04-02T11:29:25Z</time>
      </trkpt>
      <trkpt lat="44.79615" lon="4.63961">
        <ele>375</ele>
        <time>2015-04-02T11:29:43Z</time>
      </trkpt>
      <trkpt lat="44.79615" lon="4.63961">
        <ele>375</ele>
        <time>2015-04-02T11:30:00Z</time>
      </trkpt>
      <trkpt lat="44.79615" lon="4.63962">
        <ele>375</ele>
        <time>2015-04-02T11:30:17Z</time>
      </trkpt>
      <trkpt lat="44.79615" lon="4.63962">
        <ele>375</ele>
        <time>2015-04-02T11:30:35Z</time>
      </trkpt>
      <trkpt lat="44.79615" lon="4.63962">
        <ele>375</ele>
        <time>2015-04-02T11:30:52Z</time>
      </trkpt>
      <trkpt lat="44.79626" lon="4.63937">
        <ele>374</ele>
        <time>2015-04-02T11:32:32Z</time>
      </trkpt>
      <trkpt lat="44.79628" lon="4.63929">
        <ele>373</ele>
        <time>2015-04-02T11:32:36Z</time>
      </trkpt>
      <trkpt lat="44.7963" lon="4.63923">
        <ele>373</ele>
        <time>2015-04-02T11:32:40Z</time>
      </trkpt>
      <trkpt lat="44.79631" lon="4.63916">
        <ele>369</ele>
        <time>2015-04-02T11:32:44Z</time>
      </trkpt>
      <trkpt lat="44.79634" lon="4.63912">
        <ele>370</ele>
        <time>2015-04-02T11:32:56Z</time>
      </trkpt>
      <trkpt lat="44.79638" lon="4.63908">
        <ele>370</ele>
        <time>2015-04-02T11:33:14Z</time>
      </trkpt>
      <trkpt lat="44.79643" lon="4.63905">
        <ele>370</ele>
        <time>2015-04-02T11:33:21Z</time>
      </trkpt>
      <trkpt lat="44.79646" lon="4.63901">
        <ele>370</ele>
        <time>2015-04-02T11:33:28Z</time>
      </trkpt>
      <trkpt lat="44.7965" lon="4.63896">
        <ele>370</ele>
        <time>2015-04-02T11:33:33Z</time>
      </trkpt>
      <trkpt lat="44.79654" lon="4.63891">
        <ele>370</ele>
        <time>2015-04-02T11:33:38Z</time>
      </trkpt>
      <trkpt lat="44.79659" lon="4.63889">
        <ele>370</ele>
        <time>2015-04-02T11:33:43Z</time>
      </trkpt>
      <trkpt lat="44.79663" lon="4.63887">
        <ele>370</ele>
        <time>2015-04-02T11:33:48Z</time>
      </trkpt>
      <trkpt lat="44.79667" lon="4.63884">
        <ele>369</ele>
        <time>2015-04-02T11:33:53Z</time>
      </trkpt>
      <trkpt lat="44.79672" lon="4.63882">
        <ele>369</ele>
        <time>2015-04-02T11:33:58Z</time>
      </trkpt>
      <trkpt lat="44.79676" lon="4.6388">
        <ele>369</ele>
        <time>2015-04-02T11:34:02Z</time>
      </trkpt>
      <trkpt lat="44.79681" lon="4.63878">
        <ele>369</ele>
        <time>2015-04-02T11:34:06Z</time>
      </trkpt>
      <trkpt lat="44.79686" lon="4.63875">
        <ele>369</ele>
        <time>2015-04-02T11:34:11Z</time>
      </trkpt>
      <trkpt lat="44.79691" lon="4.63873">
        <ele>368</ele>
        <time>2015-04-02T11:34:17Z</time>
      </trkpt>
      <trkpt lat="44.79696" lon="4.63871">
        <ele>368</ele>
        <time>2015-04-02T11:34:21Z</time>
      </trkpt>
      <trkpt lat="44.797" lon="4.63867">
        <ele>368</ele>
        <time>2015-04-02T11:34:27Z</time>
      </trkpt>
      <trkpt lat="44.79704" lon="4.63863">
        <ele>368</ele>
        <time>2015-04-02T11:34:31Z</time>
      </trkpt>
      <trkpt lat="44.79707" lon="4.63859">
        <ele>368</ele>
        <time>2015-04-02T11:34:37Z</time>
      </trkpt>
      <trkpt lat="44.79713" lon="4.63858">
        <ele>367</ele>
        <time>2015-04-02T11:34:41Z</time>
      </trkpt>
      <trkpt lat="44.79719" lon="4.63856">
        <ele>367</ele>
        <time>2015-04-02T11:34:46Z</time>
      </trkpt>
      <trkpt lat="44.79723" lon="4.63855">
        <ele>367</ele>
        <time>2015-04-02T11:34:50Z</time>
      </trkpt>
      <trkpt lat="44.79728" lon="4.63852">
        <ele>366</ele>
        <time>2015-04-02T11:34:54Z</time>
      </trkpt>
      <trkpt lat="44.79733" lon="4.6385">
        <ele>366</ele>
        <time>2015-04-02T11:34:58Z</time>
      </trkpt>
      <trkpt lat="44.79738" lon="4.63852">
        <ele>366</ele>
        <time>2015-04-02T11:35:02Z</time>
      </trkpt>
      <trkpt lat="44.7974" lon="4.63846">
        <ele>364</ele>
        <time>2015-04-02T11:35:07Z</time>
      </trkpt>
      <trkpt lat="44.79745" lon="4.63844">
        <ele>364</ele>
        <time>2015-04-02T11:35:12Z</time>
      </trkpt>
      <trkpt lat="44.7975" lon="4.63845">
        <ele>363</ele>
        <time>2015-04-02T11:35:17Z</time>
      </trkpt>
      <trkpt lat="44.79756" lon="4.63844">
        <ele>363</ele>
        <time>2015-04-02T11:35:21Z</time>
      </trkpt>
      <trkpt lat="44.7976" lon="4.63843">
        <ele>364</ele>
        <time>2015-04-02T11:35:24Z</time>
      </trkpt>
      <trkpt lat="44.79765" lon="4.63842">
        <ele>364</ele>
        <time>2015-04-02T11:35:27Z</time>
      </trkpt>
      <trkpt lat="44.7977" lon="4.63843">
        <ele>365</ele>
        <time>2015-04-02T11:35:30Z</time>
      </trkpt>
      <trkpt lat="44.79775" lon="4.63846">
        <ele>366</ele>
        <time>2015-04-02T11:35:36Z</time>
      </trkpt>
      <trkpt lat="44.79781" lon="4.63844">
        <ele>366</ele>
        <time>2015-04-02T11:35:44Z</time>
      </trkpt>
      <trkpt lat="44.79787" lon="4.63844">
        <ele>366</ele>
        <time>2015-04-02T11:35:48Z</time>
      </trkpt>
      <trkpt lat="44.79791" lon="4.63843">
        <ele>366</ele>
        <time>2015-04-02T11:35:52Z</time>
      </trkpt>
      <trkpt lat="44.79797" lon="4.63844">
        <ele>366</ele>
        <time>2015-04-02T11:35:56Z</time>
      </trkpt>
      <trkpt lat="44.79802" lon="4.63846">
        <ele>366</ele>
        <time>2015-04-02T11:36:00Z</time>
      </trkpt>
      <trkpt lat="44.79807" lon="4.63847">
        <ele>366</ele>
        <time>2015-04-02T11:36:03Z</time>
      </trkpt>
      <trkpt lat="44.79811" lon="4.63846">
        <ele>366</ele>
        <time>2015-04-02T11:36:06Z</time>
      </trkpt>
      <trkpt lat="44.79816" lon="4.63847">
        <ele>366</ele>
        <time>2015-04-02T11:36:10Z</time>
      </trkpt>
      <trkpt lat="44.79821" lon="4.6385">
        <ele>366</ele>
        <time>2015-04-02T11:36:14Z</time>
      </trkpt>
      <trkpt lat="44.79825" lon="4.63853">
        <ele>366</ele>
        <time>2015-04-02T11:36:18Z</time>
      </trkpt>
      <trkpt lat="44.79831" lon="4.63853">
        <ele>366</ele>
        <time>2015-04-02T11:36:22Z</time>
      </trkpt>
      <trkpt lat="44.79836" lon="4.63857">
        <ele>365</ele>
        <time>2015-04-02T11:36:26Z</time>
      </trkpt>
      <trkpt lat="44.7984" lon="4.63861">
        <ele>365</ele>
        <time>2015-04-02T11:36:31Z</time>
      </trkpt>
      <trkpt lat="44.79844" lon="4.63864">
        <ele>365</ele>
        <time>2015-04-02T11:36:36Z</time>
      </trkpt>
      <trkpt lat="44.79849" lon="4.63867">
        <ele>365</ele>
        <time>2015-04-02T11:36:43Z</time>
      </trkpt>
      <trkpt lat="44.79853" lon="4.6387">
        <ele>366</ele>
        <time>2015-04-02T11:36:48Z</time>
      </trkpt>
      <trkpt lat="44.79858" lon="4.63876">
        <ele>366</ele>
        <time>2015-04-02T11:36:52Z</time>
      </trkpt>
      <trkpt lat="44.79861" lon="4.6388">
        <ele>366</ele>
        <time>2015-04-02T11:36:55Z</time>
      </trkpt>
      <trkpt lat="44.79865" lon="4.63884">
        <ele>366</ele>
        <time>2015-04-02T11:36:58Z</time>
      </trkpt>
      <trkpt lat="44.7987" lon="4.63889">
        <ele>366</ele>
        <time>2015-04-02T11:37:01Z</time>
      </trkpt>
      <trkpt lat="44.79874" lon="4.63894">
        <ele>365</ele>
        <time>2015-04-02T11:37:04Z</time>
      </trkpt>
      <trkpt lat="44.79878" lon="4.63898">
        <ele>365</ele>
        <time>2015-04-02T11:37:07Z</time>
      </trkpt>
      <trkpt lat="44.79882" lon="4.63903">
        <ele>365</ele>
        <time>2015-04-02T11:37:11Z</time>
      </trkpt>
      <trkpt lat="44.79884" lon="4.63909">
        <ele>365</ele>
        <time>2015-04-02T11:37:15Z</time>
      </trkpt>
      <trkpt lat="44.79886" lon="4.63915">
        <ele>364</ele>
        <time>2015-04-02T11:37:20Z</time>
      </trkpt>
      <trkpt lat="44.79889" lon="4.63921">
        <ele>365</ele>
        <time>2015-04-02T11:37:26Z</time>
      </trkpt>
      <trkpt lat="44.79892" lon="4.63927">
        <ele>364</ele>
        <time>2015-04-02T11:37:32Z</time>
      </trkpt>
      <trkpt lat="44.79894" lon="4.63934">
        <ele>364</ele>
        <time>2015-04-02T11:37:37Z</time>
      </trkpt>
      <trkpt lat="44.79896" lon="4.63941">
        <ele>365</ele>
        <time>2015-04-02T11:37:41Z</time>
      </trkpt>
      <trkpt lat="44.79898" lon="4.63947">
        <ele>365</ele>
        <time>2015-04-02T11:37:45Z</time>
      </trkpt>
      <trkpt lat="44.79894" lon="4.63952">
        <ele>365</ele>
        <time>2015-04-02T11:37:50Z</time>
      </trkpt>
      <trkpt lat="44.79889" lon="4.63955">
        <ele>366</ele>
        <time>2015-04-02T11:37:55Z</time>
      </trkpt>
      <trkpt lat="44.79884" lon="4.63957">
        <ele>366</ele>
        <time>2015-04-02T11:37:59Z</time>
      </trkpt>
      <trkpt lat="44.7988" lon="4.63959">
        <ele>366</ele>
        <time>2015-04-02T11:38:03Z</time>
      </trkpt>
      <trkpt lat="44.79875" lon="4.63962">
        <ele>367</ele>
        <time>2015-04-02T11:38:07Z</time>
      </trkpt>
      <trkpt lat="44.7987" lon="4.63965">
        <ele>367</ele>
        <time>2015-04-02T11:38:11Z</time>
      </trkpt>
      <trkpt lat="44.79866" lon="4.63967">
        <ele>367</ele>
        <time>2015-04-02T11:38:15Z</time>
      </trkpt>
      <trkpt lat="44.79861" lon="4.6397">
        <ele>367</ele>
        <time>2015-04-02T11:38:19Z</time>
      </trkpt>
      <trkpt lat="44.79857" lon="4.63974">
        <ele>368</ele>
        <time>2015-04-02T11:38:23Z</time>
      </trkpt>
      <trkpt lat="44.79853" lon="4.63979">
        <ele>368</ele>
        <time>2015-04-02T11:38:27Z</time>
      </trkpt>
      <trkpt lat="44.7985" lon="4.63985">
        <ele>368</ele>
        <time>2015-04-02T11:38:30Z</time>
      </trkpt>
      <trkpt lat="44.79846" lon="4.63991">
        <ele>368</ele>
        <time>2015-04-02T11:38:34Z</time>
      </trkpt>
      <trkpt lat="44.79843" lon="4.63996">
        <ele>369</ele>
        <time>2015-04-02T11:38:37Z</time>
      </trkpt>
      <trkpt lat="44.79842" lon="4.64003">
        <ele>369</ele>
        <time>2015-04-02T11:38:41Z</time>
      </trkpt>
      <trkpt lat="44.79844" lon="4.64009">
        <ele>369</ele>
        <time>2015-04-02T11:38:48Z</time>
      </trkpt>
      <trkpt lat="44.79849" lon="4.64013">
        <ele>369</ele>
        <time>2015-04-02T11:38:53Z</time>
      </trkpt>
      <trkpt lat="44.79853" lon="4.64017">
        <ele>369</ele>
        <time>2015-04-02T11:38:57Z</time>
      </trkpt>
      <trkpt lat="44.79857" lon="4.64021">
        <ele>369</ele>
        <time>2015-04-02T11:39:02Z</time>
      </trkpt>
      <trkpt lat="44.79861" lon="4.64025">
        <ele>368</ele>
        <time>2015-04-02T11:39:06Z</time>
      </trkpt>
      <trkpt lat="44.79865" lon="4.64027">
        <ele>368</ele>
        <time>2015-04-02T11:39:13Z</time>
      </trkpt>
      <trkpt lat="44.79871" lon="4.64025">
        <ele>368</ele>
        <time>2015-04-02T11:39:22Z</time>
      </trkpt>
      <trkpt lat="44.79876" lon="4.64022">
        <ele>368</ele>
        <time>2015-04-02T11:39:26Z</time>
      </trkpt>
      <trkpt lat="44.79882" lon="4.64018">
        <ele>368</ele>
        <time>2015-04-02T11:39:29Z</time>
      </trkpt>
      <trkpt lat="44.79887" lon="4.64015">
        <ele>368</ele>
        <time>2015-04-02T11:39:33Z</time>
      </trkpt>
      <trkpt lat="44.79892" lon="4.64013">
        <ele>368</ele>
        <time>2015-04-02T11:39:37Z</time>
      </trkpt>
      <trkpt lat="44.79897" lon="4.64013">
        <ele>367</ele>
        <time>2015-04-02T11:39:41Z</time>
      </trkpt>
      <trkpt lat="44.79902" lon="4.64011">
        <ele>367</ele>
        <time>2015-04-02T11:39:46Z</time>
      </trkpt>
      <trkpt lat="44.79907" lon="4.64012">
        <ele>367</ele>
        <time>2015-04-02T11:39:51Z</time>
      </trkpt>
      <trkpt lat="44.79911" lon="4.64013">
        <ele>366</ele>
        <time>2015-04-02T11:39:55Z</time>
      </trkpt>
      <trkpt lat="44.79916" lon="4.64012">
        <ele>366</ele>
        <time>2015-04-02T11:39:59Z</time>
      </trkpt>
      <trkpt lat="44.79921" lon="4.64009">
        <ele>365</ele>
        <time>2015-04-02T11:40:04Z</time>
      </trkpt>
      <trkpt lat="44.79926" lon="4.64011">
        <ele>366</ele>
        <time>2015-04-02T11:40:10Z</time>
      </trkpt>
      <trkpt lat="44.79931" lon="4.64011">
        <ele>366</ele>
        <time>2015-04-02T11:40:14Z</time>
      </trkpt>
      <trkpt lat="44.79937" lon="4.64011">
        <ele>366</ele>
        <time>2015-04-02T11:40:18Z</time>
      </trkpt>
      <trkpt lat="44.79941" lon="4.64006">
        <ele>366</ele>
        <time>2015-04-02T11:40:21Z</time>
      </trkpt>
      <trkpt lat="44.79946" lon="4.64003">
        <ele>366</ele>
        <time>2015-04-02T11:40:24Z</time>
      </trkpt>
      <trkpt lat="44.7995" lon="4.64001">
        <ele>366</ele>
        <time>2015-04-02T11:40:27Z</time>
      </trkpt>
      <trkpt lat="44.79955" lon="4.64002">
        <ele>366</ele>
        <time>2015-04-02T11:40:31Z</time>
      </trkpt>
      <trkpt lat="44.7996" lon="4.63999">
        <ele>366</ele>
        <time>2015-04-02T11:40:36Z</time>
      </trkpt>
      <trkpt lat="44.79964" lon="4.63996">
        <ele>366</ele>
        <time>2015-04-02T11:40:41Z</time>
      </trkpt>
      <trkpt lat="44.79968" lon="4.63989">
        <ele>367</ele>
        <time>2015-04-02T11:40:45Z</time>
      </trkpt>
      <trkpt lat="44.79972" lon="4.63986">
        <ele>367</ele>
        <time>2015-04-02T11:40:50Z</time>
      </trkpt>
      <trkpt lat="44.79977" lon="4.63985">
        <ele>367</ele>
        <time>2015-04-02T11:40:55Z</time>
      </trkpt>
      <trkpt lat="44.79982" lon="4.63985">
        <ele>367</ele>
        <time>2015-04-02T11:41:01Z</time>
      </trkpt>
      <trkpt lat="44.79986" lon="4.63989">
        <ele>367</ele>
        <time>2015-04-02T11:41:06Z</time>
      </trkpt>
      <trkpt lat="44.79989" lon="4.63995">
        <ele>367</ele>
        <time>2015-04-02T11:41:11Z</time>
      </trkpt>
      <trkpt lat="44.7999" lon="4.64002">
        <ele>366</ele>
        <time>2015-04-02T11:41:16Z</time>
      </trkpt>
      <trkpt lat="44.79995" lon="4.64007">
        <ele>366</ele>
        <time>2015-04-02T11:41:21Z</time>
      </trkpt>
      <trkpt lat="44.8" lon="4.64009">
        <ele>366</ele>
        <time>2015-04-02T11:41:24Z</time>
      </trkpt>
      <trkpt lat="44.80004" lon="4.64009">
        <ele>365</ele>
        <time>2015-04-02T11:41:28Z</time>
      </trkpt>
      <trkpt lat="44.8001" lon="4.64006">
        <ele>365</ele>
        <time>2015-04-02T11:41:32Z</time>
      </trkpt>
      <trkpt lat="44.80014" lon="4.64003">
        <ele>365</ele>
        <time>2015-04-02T11:41:36Z</time>
      </trkpt>
      <trkpt lat="44.80018" lon="4.64">
        <ele>374</ele>
        <time>2015-04-02T11:41:40Z</time>
      </trkpt>
      <trkpt lat="44.80023" lon="4.63997">
        <ele>375</ele>
        <time>2015-04-02T11:41:45Z</time>
      </trkpt>
      <trkpt lat="44.80028" lon="4.63996">
        <ele>376</ele>
        <time>2015-04-02T11:41:51Z</time>
      </trkpt>
      <trkpt lat="44.80032" lon="4.63996">
        <ele>377</ele>
        <time>2015-04-02T11:41:56Z</time>
      </trkpt>
      <trkpt lat="44.80037" lon="4.63994">
        <ele>378</ele>
        <time>2015-04-02T11:42:01Z</time>
      </trkpt>
      <trkpt lat="44.80042" lon="4.63994">
        <ele>378</ele>
        <time>2015-04-02T11:42:07Z</time>
      </trkpt>
      <trkpt lat="44.80047" lon="4.63991">
        <ele>379</ele>
        <time>2015-04-02T11:42:16Z</time>
      </trkpt>
      <trkpt lat="44.8005" lon="4.63985">
        <ele>379</ele>
        <time>2015-04-02T11:42:21Z</time>
      </trkpt>
      <trkpt lat="44.80056" lon="4.63982">
        <ele>380</ele>
        <time>2015-04-02T11:42:27Z</time>
      </trkpt>
      <trkpt lat="44.80059" lon="4.63979">
        <ele>381</ele>
        <time>2015-04-02T11:42:42Z</time>
      </trkpt>
      <trkpt lat="44.80066" lon="4.63981">
        <ele>380</ele>
        <time>2015-04-02T11:42:47Z</time>
      </trkpt>
      <trkpt lat="44.80071" lon="4.63983">
        <ele>380</ele>
        <time>2015-04-02T11:42:50Z</time>
      </trkpt>
      <trkpt lat="44.80076" lon="4.63985">
        <ele>379</ele>
        <time>2015-04-02T11:42:53Z</time>
      </trkpt>
      <trkpt lat="44.80081" lon="4.63988">
        <ele>379</ele>
        <time>2015-04-02T11:42:56Z</time>
      </trkpt>
      <trkpt lat="44.80085" lon="4.63991">
        <ele>384</ele>
        <time>2015-04-02T11:42:59Z</time>
      </trkpt>
      <trkpt lat="44.8009" lon="4.63993">
        <ele>385</ele>
        <time>2015-04-02T11:43:02Z</time>
      </trkpt>
      <trkpt lat="44.80096" lon="4.63994">
        <ele>387</ele>
        <time>2015-04-02T11:43:06Z</time>
      </trkpt>
      <trkpt lat="44.80101" lon="4.63997">
        <ele>389</ele>
        <time>2015-04-02T11:43:11Z</time>
      </trkpt>
      <trkpt lat="44.80105" lon="4.64002">
        <ele>377</ele>
        <time>2015-04-02T11:43:17Z</time>
      </trkpt>
      <trkpt lat="44.8011" lon="4.64004">
        <ele>378</ele>
        <time>2015-04-02T11:43:22Z</time>
      </trkpt>
      <trkpt lat="44.80116" lon="4.64006">
        <ele>379</ele>
        <time>2015-04-02T11:43:26Z</time>
      </trkpt>
      <trkpt lat="44.8012" lon="4.64009">
        <ele>379</ele>
        <time>2015-04-02T11:43:31Z</time>
      </trkpt>
      <trkpt lat="44.80125" lon="4.6401">
        <ele>380</ele>
        <time>2015-04-02T11:43:35Z</time>
      </trkpt>
      <trkpt lat="44.8013" lon="4.64012">
        <ele>381</ele>
        <time>2015-04-02T11:43:40Z</time>
      </trkpt>
      <trkpt lat="44.80134" lon="4.64015">
        <ele>382</ele>
        <time>2015-04-02T11:43:44Z</time>
      </trkpt>
      <trkpt lat="44.80138" lon="4.64018">
        <ele>383</ele>
        <time>2015-04-02T11:43:48Z</time>
      </trkpt>
      <trkpt lat="44.80143" lon="4.64021">
        <ele>384</ele>
        <time>2015-04-02T11:43:52Z</time>
      </trkpt>
      <trkpt lat="44.80148" lon="4.64025">
        <ele>384</ele>
        <time>2015-04-02T11:43:56Z</time>
      </trkpt>
      <trkpt lat="44.80155" lon="4.64034">
        <ele>383</ele>
        <time>2015-04-02T11:44:05Z</time>
      </trkpt>
      <trkpt lat="44.80158" lon="4.64039">
        <ele>382</ele>
        <time>2015-04-02T11:44:10Z</time>
      </trkpt>
      <trkpt lat="44.80162" lon="4.64045">
        <ele>381</ele>
        <time>2015-04-02T11:44:16Z</time>
      </trkpt>
      <trkpt lat="44.80165" lon="4.64052">
        <ele>380</ele>
        <time>2015-04-02T11:44:20Z</time>
      </trkpt>
      <trkpt lat="44.80168" lon="4.64058">
        <ele>397</ele>
        <time>2015-04-02T11:44:24Z</time>
      </trkpt>
      <trkpt lat="44.80172" lon="4.64062">
        <ele>395</ele>
        <time>2015-04-02T11:44:28Z</time>
      </trkpt>
      <trkpt lat="44.80176" lon="4.64068">
        <ele>394</ele>
        <time>2015-04-02T11:44:33Z</time>
      </trkpt>
      <trkpt lat="44.80181" lon="4.64071">
        <ele>394</ele>
        <time>2015-04-02T11:44:38Z</time>
      </trkpt>
      <trkpt lat="44.80184" lon="4.64076">
        <ele>394</ele>
        <time>2015-04-02T11:44:42Z</time>
      </trkpt>
      <trkpt lat="44.80188" lon="4.64081">
        <ele>395</ele>
        <time>2015-04-02T11:44:46Z</time>
      </trkpt>
      <trkpt lat="44.80192" lon="4.64086">
        <ele>386</ele>
        <time>2015-04-02T11:44:51Z</time>
      </trkpt>
      <trkpt lat="44.80196" lon="4.64091">
        <ele>387</ele>
        <time>2015-04-02T11:44:56Z</time>
      </trkpt>
      <trkpt lat="44.80201" lon="4.64094">
        <ele>387</ele>
        <time>2015-04-02T11:45:01Z</time>
      </trkpt>
      <trkpt lat="44.80203" lon="4.641">
        <ele>388</ele>
        <time>2015-04-02T11:45:06Z</time>
      </trkpt>
      <trkpt lat="44.80208" lon="4.64103">
        <ele>389</ele>
        <time>2015-04-02T11:45:12Z</time>
      </trkpt>
      <trkpt lat="44.80212" lon="4.64108">
        <ele>389</ele>
        <time>2015-04-02T11:45:17Z</time>
      </trkpt>
      <trkpt lat="44.80216" lon="4.6411">
        <ele>390</ele>
        <time>2015-04-02T11:45:22Z</time>
      </trkpt>
      <trkpt lat="44.8022" lon="4.64115">
        <ele>390</ele>
        <time>2015-04-02T11:45:28Z</time>
      </trkpt>
      <trkpt lat="44.80225" lon="4.64118">
        <ele>391</ele>
        <time>2015-04-02T11:45:33Z</time>
      </trkpt>
      <trkpt lat="44.8023" lon="4.64122">
        <ele>391</ele>
        <time>2015-04-02T11:45:38Z</time>
      </trkpt>
      <trkpt lat="44.80233" lon="4.64127">
        <ele>391</ele>
        <time>2015-04-02T11:45:43Z</time>
      </trkpt>
      <trkpt lat="44.80237" lon="4.64131">
        <ele>391</ele>
        <time>2015-04-02T11:45:48Z</time>
      </trkpt>
      <trkpt lat="44.8024" lon="4.64137">
        <ele>391</ele>
        <time>2015-04-02T11:45:53Z</time>
      </trkpt>
      <trkpt lat="44.80243" lon="4.64143">
        <ele>391</ele>
        <time>2015-04-02T11:45:57Z</time>
      </trkpt>
      <trkpt lat="44.80247" lon="4.64148">
        <ele>391</ele>
        <time>2015-04-02T11:46:02Z</time>
      </trkpt>
      <trkpt lat="44.80251" lon="4.64153">
        <ele>404</ele>
        <time>2015-04-02T11:46:07Z</time>
      </trkpt>
      <trkpt lat="44.80255" lon="4.64158">
        <ele>402</ele>
        <time>2015-04-02T11:46:14Z</time>
      </trkpt>
      <trkpt lat="44.80259" lon="4.64162">
        <ele>401</ele>
        <time>2015-04-02T11:46:18Z</time>
      </trkpt>
      <trkpt lat="44.80262" lon="4.64167">
        <ele>396</ele>
        <time>2015-04-02T11:46:22Z</time>
      </trkpt>
      <trkpt lat="44.80266" lon="4.64171">
        <ele>397</ele>
        <time>2015-04-02T11:46:26Z</time>
      </trkpt>
      <trkpt lat="44.8027" lon="4.64174">
        <ele>397</ele>
        <time>2015-04-02T11:46:30Z</time>
      </trkpt>
      <trkpt lat="44.80273" lon="4.64179">
        <ele>397</ele>
        <time>2015-04-02T11:46:35Z</time>
      </trkpt>
      <trkpt lat="44.80275" lon="4.64186">
        <ele>398</ele>
        <time>2015-04-02T11:46:41Z</time>
      </trkpt>
      <trkpt lat="44.80278" lon="4.64192">
        <ele>398</ele>
        <time>2015-04-02T11:46:48Z</time>
      </trkpt>
      <trkpt lat="44.80282" lon="4.64196">
        <ele>398</ele>
        <time>2015-04-02T11:46:53Z</time>
      </trkpt>
      <trkpt lat="44.80287" lon="4.64199">
        <ele>398</ele>
        <time>2015-04-02T11:46:57Z</time>
      </trkpt>
      <trkpt lat="44.80293" lon="4.64202">
        <ele>399</ele>
        <time>2015-04-02T11:47:01Z</time>
      </trkpt>
      <trkpt lat="44.80298" lon="4.64206">
        <ele>399</ele>
        <time>2015-04-02T11:47:04Z</time>
      </trkpt>
      <trkpt lat="44.80303" lon="4.64211">
        <ele>399</ele>
        <time>2015-04-02T11:47:07Z</time>
      </trkpt>
      <trkpt lat="44.80307" lon="4.64215">
        <ele>399</ele>
        <time>2015-04-02T11:47:10Z</time>
      </trkpt>
      <trkpt lat="44.80312" lon="4.64219">
        <ele>399</ele>
        <time>2015-04-02T11:47:14Z</time>
      </trkpt>
      <trkpt lat="44.80317" lon="4.64222">
        <ele>399</ele>
        <time>2015-04-02T11:47:18Z</time>
      </trkpt>
      <trkpt lat="44.80324" lon="4.64224">
        <ele>400</ele>
        <time>2015-04-02T11:47:23Z</time>
      </trkpt>
      <trkpt lat="44.80329" lon="4.64227">
        <ele>400</ele>
        <time>2015-04-02T11:47:27Z</time>
      </trkpt>
      <trkpt lat="44.80334" lon="4.6423">
        <ele>409</ele>
        <time>2015-04-02T11:47:31Z</time>
      </trkpt>
      <trkpt lat="44.80338" lon="4.64233">
        <ele>408</ele>
        <time>2015-04-02T11:47:36Z</time>
      </trkpt>
      <trkpt lat="44.80343" lon="4.64234">
        <ele>409</ele>
        <time>2015-04-02T11:47:40Z</time>
      </trkpt>
      <trkpt lat="44.80349" lon="4.64236">
        <ele>409</ele>
        <time>2015-04-02T11:47:44Z</time>
      </trkpt>
      <trkpt lat="44.80354" lon="4.64239">
        <ele>410</ele>
        <time>2015-04-02T11:47:48Z</time>
      </trkpt>
      <trkpt lat="44.80359" lon="4.64241">
        <ele>411</ele>
        <time>2015-04-02T11:47:52Z</time>
      </trkpt>
      <trkpt lat="44.80364" lon="4.64244">
        <ele>412</ele>
        <time>2015-04-02T11:47:58Z</time>
      </trkpt>
      <trkpt lat="44.80368" lon="4.64247">
        <ele>413</ele>
        <time>2015-04-02T11:48:02Z</time>
      </trkpt>
      <trkpt lat="44.80372" lon="4.6425">
        <ele>413</ele>
        <time>2015-04-02T11:48:06Z</time>
      </trkpt>
      <trkpt lat="44.80376" lon="4.64253">
        <ele>404</ele>
        <time>2015-04-02T11:48:10Z</time>
      </trkpt>
      <trkpt lat="44.8038" lon="4.64258">
        <ele>404</ele>
        <time>2015-04-02T11:48:14Z</time>
      </trkpt>
      <trkpt lat="44.80384" lon="4.64263">
        <ele>404</ele>
        <time>2015-04-02T11:48:17Z</time>
      </trkpt>
      <trkpt lat="44.80388" lon="4.64269">
        <ele>405</ele>
        <time>2015-04-02T11:48:21Z</time>
      </trkpt>
      <trkpt lat="44.8039" lon="4.64275">
        <ele>404</ele>
        <time>2015-04-02T11:48:25Z</time>
      </trkpt>
      <trkpt lat="44.80394" lon="4.64281">
        <ele>404</ele>
        <time>2015-04-02T11:48:29Z</time>
      </trkpt>
      <trkpt lat="44.80397" lon="4.64286">
        <ele>404</ele>
        <time>2015-04-02T11:48:33Z</time>
      </trkpt>
      <trkpt lat="44.80399" lon="4.64292">
        <ele>403</ele>
        <time>2015-04-02T11:48:37Z</time>
      </trkpt>
      <trkpt lat="44.80401" lon="4.64299">
        <ele>403</ele>
        <time>2015-04-02T11:48:41Z</time>
      </trkpt>
      <trkpt lat="44.80403" lon="4.64307">
        <ele>402</ele>
        <time>2015-04-02T11:48:45Z</time>
      </trkpt>
      <trkpt lat="44.80406" lon="4.64312">
        <ele>402</ele>
        <time>2015-04-02T11:48:48Z</time>
      </trkpt>
      <trkpt lat="44.80408" lon="4.64318">
        <ele>402</ele>
        <time>2015-04-02T11:48:52Z</time>
      </trkpt>
      <trkpt lat="44.8041" lon="4.64324">
        <ele>403</ele>
        <time>2015-04-02T11:48:56Z</time>
      </trkpt>
      <trkpt lat="44.80412" lon="4.64331">
        <ele>403</ele>
        <time>2015-04-02T11:49:00Z</time>
      </trkpt>
      <trkpt lat="44.80413" lon="4.64338">
        <ele>400</ele>
        <time>2015-04-02T11:49:04Z</time>
      </trkpt>
      <trkpt lat="44.80413" lon="4.64344">
        <ele>398</ele>
        <time>2015-04-02T11:49:08Z</time>
      </trkpt>
      <trkpt lat="44.80415" lon="4.64351">
        <ele>395</ele>
        <time>2015-04-02T11:49:15Z</time>
      </trkpt>
      <trkpt lat="44.8042" lon="4.64355">
        <ele>404</ele>
        <time>2015-04-02T11:49:19Z</time>
      </trkpt>
      <trkpt lat="44.80424" lon="4.64356">
        <ele>404</ele>
        <time>2015-04-02T11:49:24Z</time>
      </trkpt>
      <trkpt lat="44.80429" lon="4.64357">
        <ele>404</ele>
        <time>2015-04-02T11:49:32Z</time>
      </trkpt>
      <trkpt lat="44.80433" lon="4.64358">
        <ele>404</ele>
        <time>2015-04-02T11:49:48Z</time>
      </trkpt>
      <trkpt lat="44.80433" lon="4.64359">
        <ele>404</ele>
        <time>2015-04-02T11:50:13Z</time>
      </trkpt>
      <trkpt lat="44.80437" lon="4.64363">
        <ele>404</ele>
        <time>2015-04-02T11:50:27Z</time>
      </trkpt>
      <trkpt lat="44.80441" lon="4.64364">
        <ele>404</ele>
        <time>2015-04-02T11:50:43Z</time>
      </trkpt>
      <trkpt lat="44.80447" lon="4.64366">
        <ele>404</ele>
        <time>2015-04-02T11:50:46Z</time>
      </trkpt>
      <trkpt lat="44.80452" lon="4.6437">
        <ele>404</ele>
        <time>2015-04-02T11:50:49Z</time>
      </trkpt>
      <trkpt lat="44.80457" lon="4.64372">
        <ele>404</ele>
        <time>2015-04-02T11:50:52Z</time>
      </trkpt>
      <trkpt lat="44.80462" lon="4.64372">
        <ele>404</ele>
        <time>2015-04-02T11:50:55Z</time>
      </trkpt>
      <trkpt lat="44.80466" lon="4.64372">
        <ele>405</ele>
        <time>2015-04-02T11:50:58Z</time>
      </trkpt>
      <trkpt lat="44.80471" lon="4.64374">
        <ele>405</ele>
        <time>2015-04-02T11:51:02Z</time>
      </trkpt>
      <trkpt lat="44.80476" lon="4.64377">
        <ele>404</ele>
        <time>2015-04-02T11:51:06Z</time>
      </trkpt>
      <trkpt lat="44.80482" lon="4.64378">
        <ele>405</ele>
        <time>2015-04-02T11:51:10Z</time>
      </trkpt>
      <trkpt lat="44.80487" lon="4.6438">
        <ele>404</ele>
        <time>2015-04-02T11:51:13Z</time>
      </trkpt>
      <trkpt lat="44.80491" lon="4.64381">
        <ele>404</ele>
        <time>2015-04-02T11:51:16Z</time>
      </trkpt>
      <trkpt lat="44.80497" lon="4.64381">
        <ele>404</ele>
        <time>2015-04-02T11:51:20Z</time>
      </trkpt>
      <trkpt lat="44.80502" lon="4.64384">
        <ele>405</ele>
        <time>2015-04-02T11:51:24Z</time>
      </trkpt>
      <trkpt lat="44.80507" lon="4.64385">
        <ele>405</ele>
        <time>2015-04-02T11:51:29Z</time>
      </trkpt>
      <trkpt lat="44.80511" lon="4.64388">
        <ele>404</ele>
        <time>2015-04-02T11:51:33Z</time>
      </trkpt>
      <trkpt lat="44.80515" lon="4.64391">
        <ele>404</ele>
        <time>2015-04-02T11:51:37Z</time>
      </trkpt>
      <trkpt lat="44.8052" lon="4.64393">
        <ele>404</ele>
        <time>2015-04-02T11:51:40Z</time>
      </trkpt>
      <trkpt lat="44.80526" lon="4.64395">
        <ele>403</ele>
        <time>2015-04-02T11:51:44Z</time>
      </trkpt>
      <trkpt lat="44.80529" lon="4.64399">
        <ele>403</ele>
        <time>2015-04-02T11:51:49Z</time>
      </trkpt>
      <trkpt lat="44.80534" lon="4.64402">
        <ele>403</ele>
        <time>2015-04-02T11:51:56Z</time>
      </trkpt>
      <trkpt lat="44.80532" lon="4.64408">
        <ele>402</ele>
        <time>2015-04-02T11:52:14Z</time>
      </trkpt>
      <trkpt lat="44.80531" lon="4.6441">
        <ele>402</ele>
        <time>2015-04-02T11:52:37Z</time>
      </trkpt>
      <trkpt lat="44.80529" lon="4.64408">
        <ele>402</ele>
        <time>2015-04-02T11:52:52Z</time>
      </trkpt>
      <trkpt lat="44.80529" lon="4.64408">
        <ele>402</ele>
        <time>2015-04-02T11:53:08Z</time>
      </trkpt>
      <trkpt lat="44.80528" lon="4.64412">
        <ele>402</ele>
        <time>2015-04-02T11:53:21Z</time>
      </trkpt>
      <trkpt lat="44.80533" lon="4.64412">
        <ele>402</ele>
        <time>2015-04-02T11:53:35Z</time>
      </trkpt>
      <trkpt lat="44.80527" lon="4.64409">
        <ele>402</ele>
        <time>2015-04-02T11:53:39Z</time>
      </trkpt>
      <trkpt lat="44.80528" lon="4.64402">
        <ele>403</ele>
        <time>2015-04-02T11:53:44Z</time>
      </trkpt>
      <trkpt lat="44.80533" lon="4.64404">
        <ele>403</ele>
        <time>2015-04-02T11:53:47Z</time>
      </trkpt>
      <trkpt lat="44.80538" lon="4.64407">
        <ele>402</ele>
        <time>2015-04-02T11:53:50Z</time>
      </trkpt>
      <trkpt lat="44.80542" lon="4.6441">
        <ele>402</ele>
        <time>2015-04-02T11:53:53Z</time>
      </trkpt>
      <trkpt lat="44.80548" lon="4.64409">
        <ele>402</ele>
        <time>2015-04-02T11:53:57Z</time>
      </trkpt>
      <trkpt lat="44.80552" lon="4.64408">
        <ele>402</ele>
        <time>2015-04-02T11:54:03Z</time>
      </trkpt>
      <trkpt lat="44.80558" lon="4.64409">
        <ele>401</ele>
        <time>2015-04-02T11:54:09Z</time>
      </trkpt>
      <trkpt lat="44.80565" lon="4.64412">
        <ele>400</ele>
        <time>2015-04-02T11:54:13Z</time>
      </trkpt>
      <trkpt lat="44.8057" lon="4.64416">
        <ele>399</ele>
        <time>2015-04-02T11:54:16Z</time>
      </trkpt>
      <trkpt lat="44.80575" lon="4.64417">
        <ele>395</ele>
        <time>2015-04-02T11:54:19Z</time>
      </trkpt>
      <trkpt lat="44.8058" lon="4.64416">
        <ele>397</ele>
        <time>2015-04-02T11:54:25Z</time>
      </trkpt>
      <trkpt lat="44.80586" lon="4.64417">
        <ele>395</ele>
        <time>2015-04-02T11:54:30Z</time>
      </trkpt>
      <trkpt lat="44.80588" lon="4.6442">
        <ele>393</ele>
        <time>2015-04-02T11:54:58Z</time>
      </trkpt>
      <trkpt lat="44.80588" lon="4.64421">
        <ele>393</ele>
        <time>2015-04-02T11:55:14Z</time>
      </trkpt>
      <trkpt lat="44.80588" lon="4.64422">
        <ele>393</ele>
        <time>2015-04-02T11:55:29Z</time>
      </trkpt>
      <trkpt lat="44.80589" lon="4.64423">
        <ele>392</ele>
        <time>2015-04-02T11:55:30Z</time>
      </trkpt>
      <trkpt lat="44.80592" lon="4.64428">
        <ele>390</ele>
        <time>2015-04-02T11:55:33Z</time>
      </trkpt>
      <trkpt lat="44.80597" lon="4.64432">
        <ele>389</ele>
        <time>2015-04-02T11:55:36Z</time>
      </trkpt>
      <trkpt lat="44.80602" lon="4.64436">
        <ele>387</ele>
        <time>2015-04-02T11:55:39Z</time>
      </trkpt>
      <trkpt lat="44.80607" lon="4.64441">
        <ele>386</ele>
        <time>2015-04-02T11:55:42Z</time>
      </trkpt>
      <trkpt lat="44.80611" lon="4.64447">
        <ele>385</ele>
        <time>2015-04-02T11:55:46Z</time>
      </trkpt>
      <trkpt lat="44.80615" lon="4.64452">
        <ele>384</ele>
        <time>2015-04-02T11:55:50Z</time>
      </trkpt>
      <trkpt lat="44.80618" lon="4.64459">
        <ele>384</ele>
        <time>2015-04-02T11:55:54Z</time>
      </trkpt>
      <trkpt lat="44.80621" lon="4.64465">
        <ele>383</ele>
        <time>2015-04-02T11:55:58Z</time>
      </trkpt>
      <trkpt lat="44.80623" lon="4.64473">
        <ele>383</ele>
        <time>2015-04-02T11:56:02Z</time>
      </trkpt>
      <trkpt lat="44.80626" lon="4.64479">
        <ele>383</ele>
        <time>2015-04-02T11:56:06Z</time>
      </trkpt>
      <trkpt lat="44.80628" lon="4.64486">
        <ele>382</ele>
        <time>2015-04-02T11:56:10Z</time>
      </trkpt>
      <trkpt lat="44.80629" lon="4.64492">
        <ele>382</ele>
        <time>2015-04-02T11:56:14Z</time>
      </trkpt>
      <trkpt lat="44.8063" lon="4.64499">
        <ele>382</ele>
        <time>2015-04-02T11:56:19Z</time>
      </trkpt>
      <trkpt lat="44.80632" lon="4.64505">
        <ele>385</ele>
        <time>2015-04-02T11:56:23Z</time>
      </trkpt>
      <trkpt lat="44.80634" lon="4.64511">
        <ele>385</ele>
        <time>2015-04-02T11:56:27Z</time>
      </trkpt>
      <trkpt lat="44.80637" lon="4.64517">
        <ele>385</ele>
        <time>2015-04-02T11:56:32Z</time>
      </trkpt>
      <trkpt lat="44.80641" lon="4.64521">
        <ele>385</ele>
        <time>2015-04-02T11:56:35Z</time>
      </trkpt>
      <trkpt lat="44.80645" lon="4.64525">
        <ele>385</ele>
        <time>2015-04-02T11:56:38Z</time>
      </trkpt>
      <trkpt lat="44.80649" lon="4.6453">
        <ele>385</ele>
        <time>2015-04-02T11:56:42Z</time>
      </trkpt>
      <trkpt lat="44.80653" lon="4.64534">
        <ele>385</ele>
        <time>2015-04-02T11:56:45Z</time>
      </trkpt>
      <trkpt lat="44.80658" lon="4.64537">
        <ele>386</ele>
        <time>2015-04-02T11:56:48Z</time>
      </trkpt>
      <trkpt lat="44.80663" lon="4.6454">
        <ele>386</ele>
        <time>2015-04-02T11:56:51Z</time>
      </trkpt>
      <trkpt lat="44.80668" lon="4.64542">
        <ele>378</ele>
        <time>2015-04-02T11:56:55Z</time>
      </trkpt>
      <trkpt lat="44.80672" lon="4.64544">
        <ele>378</ele>
        <time>2015-04-02T11:56:58Z</time>
      </trkpt>
      <trkpt lat="44.80677" lon="4.64547">
        <ele>379</ele>
        <time>2015-04-02T11:57:03Z</time>
      </trkpt>
      <trkpt lat="44.80682" lon="4.64549">
        <ele>379</ele>
        <time>2015-04-02T11:57:09Z</time>
      </trkpt>
      <trkpt lat="44.80687" lon="4.6455">
        <ele>378</ele>
        <time>2015-04-02T11:57:15Z</time>
      </trkpt>
      <trkpt lat="44.80692" lon="4.64549">
        <ele>377</ele>
        <time>2015-04-02T11:57:20Z</time>
      </trkpt>
      <trkpt lat="44.80697" lon="4.64551">
        <ele>377</ele>
        <time>2015-04-02T11:57:26Z</time>
      </trkpt>
      <trkpt lat="44.80702" lon="4.64552">
        <ele>377</ele>
        <time>2015-04-02T11:57:32Z</time>
      </trkpt>
      <trkpt lat="44.80697" lon="4.64554">
        <ele>378</ele>
        <time>2015-04-02T11:57:40Z</time>
      </trkpt>
      <trkpt lat="44.80693" lon="4.64556">
        <ele>379</ele>
        <time>2015-04-02T11:57:44Z</time>
      </trkpt>
      <trkpt lat="44.80687" lon="4.64555">
        <ele>379</ele>
        <time>2015-04-02T11:57:48Z</time>
      </trkpt>
      <trkpt lat="44.80681" lon="4.64554">
        <ele>380</ele>
        <time>2015-04-02T11:57:52Z</time>
      </trkpt>
      <trkpt lat="44.80676" lon="4.64555">
        <ele>381</ele>
        <time>2015-04-02T11:57:56Z</time>
      </trkpt>
      <trkpt lat="44.80671" lon="4.64552">
        <ele>380</ele>
        <time>2015-04-02T11:58:02Z</time>
      </trkpt>
      <trkpt lat="44.80667" lon="4.6455">
        <ele>380</ele>
        <time>2015-04-02T11:58:06Z</time>
      </trkpt>
      <trkpt lat="44.80661" lon="4.64549">
        <ele>388</ele>
        <time>2015-04-02T11:58:11Z</time>
      </trkpt>
      <trkpt lat="44.80657" lon="4.64546">
        <ele>387</ele>
        <time>2015-04-02T11:58:15Z</time>
      </trkpt>
      <trkpt lat="44.8065" lon="4.64545">
        <ele>387</ele>
        <time>2015-04-02T11:58:20Z</time>
      </trkpt>
      <trkpt lat="44.80645" lon="4.64541">
        <ele>387</ele>
        <time>2015-04-02T11:58:28Z</time>
      </trkpt>
      <trkpt lat="44.80641" lon="4.64538">
        <ele>387</ele>
        <time>2015-04-02T11:58:34Z</time>
      </trkpt>
      <trkpt lat="44.80641" lon="4.64533">
        <ele>386</ele>
        <time>2015-04-02T11:58:48Z</time>
      </trkpt>
      <trkpt lat="44.8064" lon="4.64531">
        <ele>386</ele>
        <time>2015-04-02T11:58:49Z</time>
      </trkpt>
      <trkpt lat="44.8064" lon="4.64528">
        <ele>386</ele>
        <time>2015-04-02T11:59:04Z</time>
      </trkpt>
      <trkpt lat="44.80639" lon="4.64528">
        <ele>386</ele>
        <time>2015-04-02T11:59:20Z</time>
      </trkpt>
      <trkpt lat="44.80645" lon="4.64531">
        <ele>385</ele>
        <time>2015-04-02T11:59:26Z</time>
      </trkpt>
      <trkpt lat="44.80651" lon="4.64531">
        <ele>385</ele>
        <time>2015-04-02T11:59:30Z</time>
      </trkpt>
      <trkpt lat="44.80656" lon="4.64533">
        <ele>385</ele>
        <time>2015-04-02T11:59:34Z</time>
      </trkpt>
      <trkpt lat="44.80661" lon="4.64534">
        <ele>385</ele>
        <time>2015-04-02T11:59:39Z</time>
      </trkpt>
      <trkpt lat="44.80666" lon="4.64535">
        <ele>385</ele>
        <time>2015-04-02T11:59:45Z</time>
      </trkpt>
      <trkpt lat="44.8067" lon="4.64532">
        <ele>376</ele>
        <time>2015-04-02T11:59:51Z</time>
      </trkpt>
      <trkpt lat="44.80668" lon="4.64526">
        <ele>375</ele>
        <time>2015-04-02T11:59:59Z</time>
      </trkpt>
      <trkpt lat="44.80663" lon="4.64522">
        <ele>382</ele>
        <time>2015-04-02T12:00:04Z</time>
      </trkpt>
      <trkpt lat="44.80661" lon="4.64515">
        <ele>381</ele>
        <time>2015-04-02T12:00:08Z</time>
      </trkpt>
      <trkpt lat="44.80659" lon="4.64508">
        <ele>379</ele>
        <time>2015-04-02T12:00:14Z</time>
      </trkpt>
      <trkpt lat="44.8066" lon="4.64502">
        <ele>377</ele>
        <time>2015-04-02T12:00:20Z</time>
      </trkpt>
      <trkpt lat="44.80659" lon="4.64495">
        <ele>376</ele>
        <time>2015-04-02T12:00:26Z</time>
      </trkpt>
      <trkpt lat="44.80658" lon="4.64487">
        <ele>377</ele>
        <time>2015-04-02T12:00:30Z</time>
      </trkpt>
      <trkpt lat="44.80659" lon="4.6448">
        <ele>378</ele>
        <time>2015-04-02T12:00:34Z</time>
      </trkpt>
      <trkpt lat="44.80659" lon="4.64473">
        <ele>379</ele>
        <time>2015-04-02T12:00:38Z</time>
      </trkpt>
      <trkpt lat="44.80662" lon="4.64468">
        <ele>379</ele>
        <time>2015-04-02T12:00:45Z</time>
      </trkpt>
      <trkpt lat="44.80663" lon="4.64468">
        <ele>379</ele>
        <time>2015-04-02T12:01:17Z</time>
      </trkpt>
      <trkpt lat="44.80666" lon="4.64469">
        <ele>379</ele>
        <time>2015-04-02T12:01:27Z</time>
      </trkpt>
      <trkpt lat="44.80671" lon="4.64469">
        <ele>364</ele>
        <time>2015-04-02T12:01:32Z</time>
      </trkpt>
      <trkpt lat="44.80676" lon="4.6447">
        <ele>364</ele>
        <time>2015-04-02T12:01:39Z</time>
      </trkpt>
      <trkpt lat="44.80681" lon="4.64471">
        <ele>364</ele>
        <time>2015-04-02T12:01:43Z</time>
      </trkpt>
      <trkpt lat="44.80686" lon="4.64473">
        <ele>363</ele>
        <time>2015-04-02T12:01:48Z</time>
      </trkpt>
      <trkpt lat="44.80692" lon="4.64473">
        <ele>362</ele>
        <time>2015-04-02T12:01:52Z</time>
      </trkpt>
      <trkpt lat="44.80697" lon="4.64474">
        <ele>361</ele>
        <time>2015-04-02T12:01:57Z</time>
      </trkpt>
      <trkpt lat="44.80701" lon="4.64474">
        <ele>361</ele>
        <time>2015-04-02T12:02:02Z</time>
      </trkpt>
      <trkpt lat="44.80706" lon="4.64473">
        <ele>360</ele>
        <time>2015-04-02T12:02:06Z</time>
      </trkpt>
      <trkpt lat="44.8071" lon="4.6447">
        <ele>359</ele>
        <time>2015-04-02T12:02:10Z</time>
      </trkpt>
      <trkpt lat="44.80715" lon="4.64468">
        <ele>358</ele>
        <time>2015-04-02T12:02:14Z</time>
      </trkpt>
      <trkpt lat="44.8072" lon="4.64466">
        <ele>358</ele>
        <time>2015-04-02T12:02:18Z</time>
      </trkpt>
      <trkpt lat="44.80725" lon="4.64467">
        <ele>357</ele>
        <time>2015-04-02T12:02:23Z</time>
      </trkpt>
      <trkpt lat="44.80729" lon="4.64469">
        <ele>356</ele>
        <time>2015-04-02T12:02:27Z</time>
      </trkpt>
      <trkpt lat="44.80735" lon="4.64472">
        <ele>356</ele>
        <time>2015-04-02T12:02:32Z</time>
      </trkpt>
      <trkpt lat="44.8074" lon="4.64471">
        <ele>355</ele>
        <time>2015-04-02T12:02:43Z</time>
      </trkpt>
      <trkpt lat="44.80745" lon="4.64469">
        <ele>355</ele>
        <time>2015-04-02T12:02:48Z</time>
      </trkpt>
      <trkpt lat="44.8075" lon="4.6447">
        <ele>355</ele>
        <time>2015-04-02T12:02:52Z</time>
      </trkpt>
      <trkpt lat="44.80754" lon="4.64472">
        <ele>339</ele>
        <time>2015-04-02T12:02:55Z</time>
      </trkpt>
      <trkpt lat="44.80759" lon="4.64473">
        <ele>338</ele>
        <time>2015-04-02T12:02:58Z</time>
      </trkpt>
      <trkpt lat="44.80764" lon="4.64473">
        <ele>338</ele>
        <time>2015-04-02T12:03:02Z</time>
      </trkpt>
      <trkpt lat="44.80769" lon="4.64472">
        <ele>337</ele>
        <time>2015-04-02T12:03:06Z</time>
      </trkpt>
      <trkpt lat="44.80774" lon="4.64472">
        <ele>336</ele>
        <time>2015-04-02T12:03:10Z</time>
      </trkpt>
      <trkpt lat="44.80779" lon="4.64473">
        <ele>335</ele>
        <time>2015-04-02T12:03:15Z</time>
      </trkpt>
      <trkpt lat="44.80784" lon="4.64473">
        <ele>334</ele>
        <time>2015-04-02T12:03:19Z</time>
      </trkpt>
      <trkpt lat="44.80789" lon="4.64475">
        <ele>333</ele>
        <time>2015-04-02T12:03:23Z</time>
      </trkpt>
      <trkpt lat="44.80795" lon="4.64476">
        <ele>332</ele>
        <time>2015-04-02T12:03:28Z</time>
      </trkpt>
      <trkpt lat="44.808" lon="4.64478">
        <ele>331</ele>
        <time>2015-04-02T12:03:32Z</time>
      </trkpt>
      <trkpt lat="44.80804" lon="4.64482">
        <ele>331</ele>
        <time>2015-04-02T12:03:36Z</time>
      </trkpt>
      <trkpt lat="44.80809" lon="4.64487">
        <ele>330</ele>
        <time>2015-04-02T12:03:40Z</time>
      </trkpt>
      <trkpt lat="44.80814" lon="4.6449">
        <ele>329</ele>
        <time>2015-04-02T12:03:44Z</time>
      </trkpt>
      <trkpt lat="44.80819" lon="4.64489">
        <ele>328</ele>
        <time>2015-04-02T12:03:47Z</time>
      </trkpt>
      <trkpt lat="44.80824" lon="4.64491">
        <ele>327</ele>
        <time>2015-04-02T12:03:50Z</time>
      </trkpt>
      <trkpt lat="44.80823" lon="4.64484">
        <ele>328</ele>
        <time>2015-04-02T12:03:57Z</time>
      </trkpt>
      <trkpt lat="44.80819" lon="4.64479">
        <ele>328</ele>
        <time>2015-04-02T12:04:01Z</time>
      </trkpt>
      <trkpt lat="44.80815" lon="4.64473">
        <ele>329</ele>
        <time>2015-04-02T12:04:06Z</time>
      </trkpt>
      <trkpt lat="44.80812" lon="4.64467">
        <ele>329</ele>
        <time>2015-04-02T12:04:11Z</time>
      </trkpt>
      <trkpt lat="44.80809" lon="4.64461">
        <ele>329</ele>
        <time>2015-04-02T12:04:16Z</time>
      </trkpt>
      <trkpt lat="44.80809" lon="4.64455">
        <ele>328</ele>
        <time>2015-04-02T12:04:21Z</time>
      </trkpt>
      <trkpt lat="44.80807" lon="4.64449">
        <ele>328</ele>
        <time>2015-04-02T12:04:48Z</time>
      </trkpt>
      <trkpt lat="44.80805" lon="4.64442">
        <ele>327</ele>
        <time>2015-04-02T12:04:54Z</time>
      </trkpt>
      <trkpt lat="44.80804" lon="4.64436">
        <ele>327</ele>
        <time>2015-04-02T12:05:12Z</time>
      </trkpt>
      <trkpt lat="44.80809" lon="4.6444">
        <ele>326</ele>
        <time>2015-04-02T12:05:24Z</time>
      </trkpt>
      <trkpt lat="44.80812" lon="4.64446">
        <ele>326</ele>
        <time>2015-04-02T12:05:29Z</time>
      </trkpt>
      <trkpt lat="44.80816" lon="4.64453">
        <ele>327</ele>
        <time>2015-04-02T12:05:33Z</time>
      </trkpt>
      <trkpt lat="44.80817" lon="4.64461">
        <ele>328</ele>
        <time>2015-04-02T12:05:37Z</time>
      </trkpt>
      <trkpt lat="44.80819" lon="4.64468">
        <ele>328</ele>
        <time>2015-04-02T12:05:41Z</time>
      </trkpt>
      <trkpt lat="44.80824" lon="4.64471">
        <ele>327</ele>
        <time>2015-04-02T12:05:44Z</time>
      </trkpt>
      <trkpt lat="44.80827" lon="4.64478">
        <ele>327</ele>
        <time>2015-04-02T12:05:48Z</time>
      </trkpt>
      <trkpt lat="44.80831" lon="4.64484">
        <ele>327</ele>
        <time>2015-04-02T12:05:52Z</time>
      </trkpt>
      <trkpt lat="44.80833" lon="4.64489">
        <ele>317</ele>
        <time>2015-04-02T12:05:55Z</time>
      </trkpt>
      <trkpt lat="44.80835" lon="4.64495">
        <ele>320</ele>
        <time>2015-04-02T12:05:59Z</time>
      </trkpt>
      <trkpt lat="44.80839" lon="4.64501">
        <ele>324</ele>
        <time>2015-04-02T12:06:04Z</time>
      </trkpt>
      <trkpt lat="44.80842" lon="4.64507">
        <ele>324</ele>
        <time>2015-04-02T12:06:09Z</time>
      </trkpt>
      <trkpt lat="44.80846" lon="4.64512">
        <ele>324</ele>
        <time>2015-04-02T12:06:14Z</time>
      </trkpt>
      <trkpt lat="44.8085" lon="4.64518">
        <ele>324</ele>
        <time>2015-04-02T12:06:19Z</time>
      </trkpt>
      <trkpt lat="44.80853" lon="4.64523">
        <ele>324</ele>
        <time>2015-04-02T12:06:24Z</time>
      </trkpt>
      <trkpt lat="44.80858" lon="4.64523">
        <ele>323</ele>
        <time>2015-04-02T12:06:28Z</time>
      </trkpt>
      <trkpt lat="44.80862" lon="4.64525">
        <ele>323</ele>
        <time>2015-04-02T12:06:34Z</time>
      </trkpt>
      <trkpt lat="44.80867" lon="4.64527">
        <ele>323</ele>
        <time>2015-04-02T12:06:38Z</time>
      </trkpt>
      <trkpt lat="44.80872" lon="4.64529">
        <ele>322</ele>
        <time>2015-04-02T12:06:42Z</time>
      </trkpt>
      <trkpt lat="44.80877" lon="4.64531">
        <ele>322</ele>
        <time>2015-04-02T12:06:45Z</time>
      </trkpt>
      <trkpt lat="44.80882" lon="4.64532">
        <ele>321</ele>
        <time>2015-04-02T12:06:49Z</time>
      </trkpt>
      <trkpt lat="44.80887" lon="4.64533">
        <ele>320</ele>
        <time>2015-04-02T12:06:53Z</time>
      </trkpt>
      <trkpt lat="44.80891" lon="4.64535">
        <ele>320</ele>
        <time>2015-04-02T12:06:56Z</time>
      </trkpt>
      <trkpt lat="44.80896" lon="4.64538">
        <ele>320</ele>
        <time>2015-04-02T12:07:01Z</time>
      </trkpt>
      <trkpt lat="44.80901" lon="4.6454">
        <ele>320</ele>
        <time>2015-04-02T12:07:05Z</time>
      </trkpt>
      <trkpt lat="44.80905" lon="4.64542">
        <ele>319</ele>
        <time>2015-04-02T12:07:08Z</time>
      </trkpt>
      <trkpt lat="44.8091" lon="4.64544">
        <ele>319</ele>
        <time>2015-04-02T12:07:12Z</time>
      </trkpt>
      <trkpt lat="44.80915" lon="4.64548">
        <ele>320</ele>
        <time>2015-04-02T12:07:18Z</time>
      </trkpt>
      <trkpt lat="44.80919" lon="4.64551">
        <ele>309</ele>
        <time>2015-04-02T12:07:22Z</time>
      </trkpt>
      <trkpt lat="44.80923" lon="4.64557">
        <ele>310</ele>
        <time>2015-04-02T12:07:27Z</time>
      </trkpt>
      <trkpt lat="44.80928" lon="4.64561">
        <ele>311</ele>
        <time>2015-04-02T12:07:31Z</time>
      </trkpt>
      <trkpt lat="44.80932" lon="4.64564">
        <ele>311</ele>
        <time>2015-04-02T12:07:34Z</time>
      </trkpt>
      <trkpt lat="44.80936" lon="4.64566">
        <ele>311</ele>
        <time>2015-04-02T12:07:37Z</time>
      </trkpt>
      <trkpt lat="44.80942" lon="4.64568">
        <ele>310</ele>
        <time>2015-04-02T12:07:41Z</time>
      </trkpt>
      <trkpt lat="44.80946" lon="4.64571">
        <ele>310</ele>
        <time>2015-04-02T12:07:45Z</time>
      </trkpt>
      <trkpt lat="44.80951" lon="4.64572">
        <ele>309</ele>
        <time>2015-04-02T12:07:50Z</time>
      </trkpt>
      <trkpt lat="44.80956" lon="4.64575">
        <ele>309</ele>
        <time>2015-04-02T12:07:55Z</time>
      </trkpt>
      <trkpt lat="44.8096" lon="4.64578">
        <ele>309</ele>
        <time>2015-04-02T12:07:59Z</time>
      </trkpt>
      <trkpt lat="44.80965" lon="4.64576">
        <ele>308</ele>
        <time>2015-04-02T12:08:11Z</time>
      </trkpt>
      <trkpt lat="44.80974" lon="4.6458">
        <ele>308</ele>
        <time>2015-04-02T12:08:28Z</time>
      </trkpt>
      <trkpt lat="44.80979" lon="4.64582">
        <ele>308</ele>
        <time>2015-04-02T12:08:31Z</time>
      </trkpt>
      <trkpt lat="44.80983" lon="4.64584">
        <ele>318</ele>
        <time>2015-04-02T12:08:34Z</time>
      </trkpt>
      <trkpt lat="44.80988" lon="4.64586">
        <ele>317</ele>
        <time>2015-04-02T12:08:38Z</time>
      </trkpt>
      <trkpt lat="44.80993" lon="4.64585">
        <ele>314</ele>
        <time>2015-04-02T12:08:42Z</time>
      </trkpt>
      <trkpt lat="44.80998" lon="4.64584">
        <ele>311</ele>
        <time>2015-04-02T12:08:47Z</time>
      </trkpt>
      <trkpt lat="44.81003" lon="4.64583">
        <ele>308</ele>
        <time>2015-04-02T12:08:52Z</time>
      </trkpt>
      <trkpt lat="44.81008" lon="4.6458">
        <ele>306</ele>
        <time>2015-04-02T12:08:58Z</time>
      </trkpt>
      <trkpt lat="44.81012" lon="4.64575">
        <ele>303</ele>
        <time>2015-04-02T12:09:04Z</time>
      </trkpt>
      <trkpt lat="44.81014" lon="4.64568">
        <ele>301</ele>
        <time>2015-04-02T12:09:07Z</time>
      </trkpt>
      <trkpt lat="44.81018" lon="4.64566">
        <ele>300</ele>
        <time>2015-04-02T12:09:12Z</time>
      </trkpt>
      <trkpt lat="44.81023" lon="4.64564">
        <ele>299</ele>
        <time>2015-04-02T12:09:17Z</time>
      </trkpt>
      <trkpt lat="44.81028" lon="4.64561">
        <ele>298</ele>
        <time>2015-04-02T12:09:22Z</time>
      </trkpt>
      <trkpt lat="44.81032" lon="4.64557">
        <ele>297</ele>
        <time>2015-04-02T12:09:27Z</time>
      </trkpt>
      <trkpt lat="44.81037" lon="4.64557">
        <ele>297</ele>
        <time>2015-04-02T12:09:31Z</time>
      </trkpt>
      <trkpt lat="44.81041" lon="4.64555">
        <ele>296</ele>
        <time>2015-04-02T12:09:36Z</time>
      </trkpt>
      <trkpt lat="44.81046" lon="4.64552">
        <ele>296</ele>
        <time>2015-04-02T12:09:41Z</time>
      </trkpt>
      <trkpt lat="44.81051" lon="4.64554">
        <ele>296</ele>
        <time>2015-04-02T12:09:45Z</time>
      </trkpt>
      <trkpt lat="44.81056" lon="4.64557">
        <ele>296</ele>
        <time>2015-04-02T12:09:48Z</time>
      </trkpt>
      <trkpt lat="44.8106" lon="4.64559">
        <ele>296</ele>
        <time>2015-04-02T12:09:52Z</time>
      </trkpt>
      <trkpt lat="44.81065" lon="4.64563">
        <ele>297</ele>
        <time>2015-04-02T12:09:57Z</time>
      </trkpt>
      <trkpt lat="44.8107" lon="4.64564">
        <ele>297</ele>
        <time>2015-04-02T12:10:02Z</time>
      </trkpt>
      <trkpt lat="44.81075" lon="4.64567">
        <ele>298</ele>
        <time>2015-04-02T12:10:07Z</time>
      </trkpt>
      <trkpt lat="44.81079" lon="4.64571">
        <ele>299</ele>
        <time>2015-04-02T12:10:12Z</time>
      </trkpt>
      <trkpt lat="44.81083" lon="4.64574">
        <ele>300</ele>
        <time>2015-04-02T12:10:17Z</time>
      </trkpt>
      <trkpt lat="44.81087" lon="4.64579">
        <ele>301</ele>
        <time>2015-04-02T12:10:25Z</time>
      </trkpt>
      <trkpt lat="44.81092" lon="4.64581">
        <ele>300</ele>
        <time>2015-04-02T12:10:34Z</time>
      </trkpt>
      <trkpt lat="44.81097" lon="4.64581">
        <ele>298</ele>
        <time>2015-04-02T12:10:38Z</time>
      </trkpt>
      <trkpt lat="44.81107" lon="4.6458">
        <ele>297</ele>
        <time>2015-04-02T12:10:47Z</time>
      </trkpt>
      <trkpt lat="44.81112" lon="4.64579">
        <ele>296</ele>
        <time>2015-04-02T12:10:51Z</time>
      </trkpt>
      <trkpt lat="44.81117" lon="4.64575">
        <ele>296</ele>
        <time>2015-04-02T12:10:54Z</time>
      </trkpt>
      <trkpt lat="44.81121" lon="4.64573">
        <ele>295</ele>
        <time>2015-04-02T12:10:57Z</time>
      </trkpt>
      <trkpt lat="44.81126" lon="4.64571">
        <ele>295</ele>
        <time>2015-04-02T12:11:01Z</time>
      </trkpt>
      <trkpt lat="44.81131" lon="4.6457">
        <ele>295</ele>
        <time>2015-04-02T12:11:05Z</time>
      </trkpt>
      <trkpt lat="44.81136" lon="4.64569">
        <ele>296</ele>
        <time>2015-04-02T12:11:09Z</time>
      </trkpt>
      <trkpt lat="44.8114" lon="4.64564">
        <ele>295</ele>
        <time>2015-04-02T12:11:14Z</time>
      </trkpt>
      <trkpt lat="44.81142" lon="4.64557">
        <ele>294</ele>
        <time>2015-04-02T12:11:18Z</time>
      </trkpt>
      <trkpt lat="44.81144" lon="4.6455">
        <ele>293</ele>
        <time>2015-04-02T12:11:22Z</time>
      </trkpt>
      <trkpt lat="44.81147" lon="4.64545">
        <ele>292</ele>
        <time>2015-04-02T12:11:26Z</time>
      </trkpt>
      <trkpt lat="44.81149" lon="4.64539">
        <ele>291</ele>
        <time>2015-04-02T12:11:30Z</time>
      </trkpt>
      <trkpt lat="44.8115" lon="4.64533">
        <ele>290</ele>
        <time>2015-04-02T12:11:33Z</time>
      </trkpt>
      <trkpt lat="44.81146" lon="4.64537">
        <ele>291</ele>
        <time>2015-04-02T12:11:40Z</time>
      </trkpt>
      <trkpt lat="44.81143" lon="4.64544">
        <ele>292</ele>
        <time>2015-04-02T12:11:43Z</time>
      </trkpt>
      <trkpt lat="44.81139" lon="4.64549">
        <ele>293</ele>
        <time>2015-04-02T12:11:47Z</time>
      </trkpt>
      <trkpt lat="44.81135" lon="4.64554">
        <ele>293</ele>
        <time>2015-04-02T12:11:52Z</time>
      </trkpt>
      <trkpt lat="44.81131" lon="4.64558">
        <ele>294</ele>
        <time>2015-04-02T12:11:59Z</time>
      </trkpt>
      <trkpt lat="44.81126" lon="4.64558">
        <ele>294</ele>
        <time>2015-04-02T12:12:03Z</time>
      </trkpt>
      <trkpt lat="44.8112" lon="4.64559">
        <ele>294</ele>
        <time>2015-04-02T12:12:07Z</time>
      </trkpt>
      <trkpt lat="44.81115" lon="4.64557">
        <ele>293</ele>
        <time>2015-04-02T12:12:10Z</time>
      </trkpt>
      <trkpt lat="44.8111" lon="4.64552">
        <ele>293</ele>
        <time>2015-04-02T12:12:13Z</time>
      </trkpt>
      <trkpt lat="44.81106" lon="4.64548">
        <ele>292</ele>
        <time>2015-04-02T12:12:17Z</time>
      </trkpt>
      <trkpt lat="44.81101" lon="4.64547">
        <ele>292</ele>
        <time>2015-04-02T12:12:24Z</time>
      </trkpt>
      <trkpt lat="44.81096" lon="4.64544">
        <ele>291</ele>
        <time>2015-04-02T12:12:28Z</time>
      </trkpt>
      <trkpt lat="44.81092" lon="4.6454">
        <ele>290</ele>
        <time>2015-04-02T12:12:34Z</time>
      </trkpt>
      <trkpt lat="44.81089" lon="4.64535">
        <ele>289</ele>
        <time>2015-04-02T12:12:37Z</time>
      </trkpt>
      <trkpt lat="44.81086" lon="4.6453">
        <ele>288</ele>
        <time>2015-04-02T12:12:40Z</time>
      </trkpt>
      <trkpt lat="44.81081" lon="4.64526">
        <ele>288</ele>
        <time>2015-04-02T12:12:44Z</time>
      </trkpt>
      <trkpt lat="44.81077" lon="4.64522">
        <ele>287</ele>
        <time>2015-04-02T12:12:48Z</time>
      </trkpt>
      <trkpt lat="44.81073" lon="4.64518">
        <ele>287</ele>
        <time>2015-04-02T12:12:53Z</time>
      </trkpt>
      <trkpt lat="44.8107" lon="4.64511">
        <ele>285</ele>
        <time>2015-04-02T12:12:57Z</time>
      </trkpt>
      <trkpt lat="44.81068" lon="4.64504">
        <ele>285</ele>
        <time>2015-04-02T12:13:01Z</time>
      </trkpt>
      <trkpt lat="44.81065" lon="4.64498">
        <ele>274</ele>
        <time>2015-04-02T12:13:05Z</time>
      </trkpt>
      <trkpt lat="44.81064" lon="4.6449">
        <ele>273</ele>
        <time>2015-04-02T12:13:12Z</time>
      </trkpt>
      <trkpt lat="44.81064" lon="4.64484">
        <ele>273</ele>
        <time>2015-04-02T12:13:16Z</time>
      </trkpt>
      <trkpt lat="44.8106" lon="4.64479">
        <ele>272</ele>
        <time>2015-04-02T12:13:21Z</time>
      </trkpt>
      <trkpt lat="44.81058" lon="4.64472">
        <ele>271</ele>
        <time>2015-04-02T12:13:25Z</time>
      </trkpt>
      <trkpt lat="44.81055" lon="4.64466">
        <ele>271</ele>
        <time>2015-04-02T12:13:29Z</time>
      </trkpt>
      <trkpt lat="44.81052" lon="4.64461">
        <ele>270</ele>
        <time>2015-04-02T12:13:34Z</time>
      </trkpt>
      <trkpt lat="44.81048" lon="4.64457">
        <ele>270</ele>
        <time>2015-04-02T12:13:39Z</time>
      </trkpt>
      <trkpt lat="44.81052" lon="4.6446">
        <ele>270</ele>
        <time>2015-04-02T12:13:50Z</time>
      </trkpt>
      <trkpt lat="44.81057" lon="4.64463">
        <ele>270</ele>
        <time>2015-04-02T12:13:58Z</time>
      </trkpt>
      <trkpt lat="44.81061" lon="4.64466">
        <ele>271</ele>
        <time>2015-04-02T12:14:01Z</time>
      </trkpt>
      <trkpt lat="44.81066" lon="4.64471">
        <ele>271</ele>
        <time>2015-04-02T12:14:04Z</time>
      </trkpt>
      <trkpt lat="44.81072" lon="4.64474">
        <ele>271</ele>
        <time>2015-04-02T12:14:07Z</time>
      </trkpt>
      <trkpt lat="44.81077" lon="4.64475">
        <ele>272</ele>
        <time>2015-04-02T12:14:10Z</time>
      </trkpt>
      <trkpt lat="44.81082" lon="4.64476">
        <ele>272</ele>
        <time>2015-04-02T12:14:13Z</time>
      </trkpt>
      <trkpt lat="44.81087" lon="4.64476">
        <ele>269</ele>
        <time>2015-04-02T12:14:16Z</time>
      </trkpt>
      <trkpt lat="44.81093" lon="4.64474">
        <ele>268</ele>
        <time>2015-04-02T12:14:19Z</time>
      </trkpt>
      <trkpt lat="44.81097" lon="4.64469">
        <ele>267</ele>
        <time>2015-04-02T12:14:23Z</time>
      </trkpt>
      <trkpt lat="44.81101" lon="4.64468">
        <ele>267</ele>
        <time>2015-04-02T12:14:30Z</time>
      </trkpt>
      <trkpt lat="44.81105" lon="4.64464">
        <ele>266</ele>
        <time>2015-04-02T12:14:36Z</time>
      </trkpt>
      <trkpt lat="44.81107" lon="4.64458">
        <ele>265</ele>
        <time>2015-04-02T12:14:40Z</time>
      </trkpt>
      <trkpt lat="44.8111" lon="4.64452">
        <ele>264</ele>
        <time>2015-04-02T12:14:43Z</time>
      </trkpt>
      <trkpt lat="44.81113" lon="4.64446">
        <ele>264</ele>
        <time>2015-04-02T12:14:47Z</time>
      </trkpt>
      <trkpt lat="44.81117" lon="4.64444">
        <ele>263</ele>
        <time>2015-04-02T12:14:51Z</time>
      </trkpt>
      <trkpt lat="44.81122" lon="4.64439">
        <ele>263</ele>
        <time>2015-04-02T12:14:55Z</time>
      </trkpt>
      <trkpt lat="44.81125" lon="4.64446">
        <ele>264</ele>
        <time>2015-04-02T12:14:59Z</time>
      </trkpt>
      <trkpt lat="44.8113" lon="4.64443">
        <ele>263</ele>
        <time>2015-04-02T12:15:04Z</time>
      </trkpt>
      <trkpt lat="44.81133" lon="4.64437">
        <ele>262</ele>
        <time>2015-04-02T12:15:08Z</time>
      </trkpt>
      <trkpt lat="44.81137" lon="4.64432">
        <ele>262</ele>
        <time>2015-04-02T12:15:20Z</time>
      </trkpt>
      <trkpt lat="44.81142" lon="4.64431">
        <ele>261</ele>
        <time>2015-04-02T12:15:24Z</time>
      </trkpt>
      <trkpt lat="44.81147" lon="4.64428">
        <ele>260</ele>
        <time>2015-04-02T12:15:27Z</time>
      </trkpt>
      <trkpt lat="44.81152" lon="4.64426">
        <ele>259</ele>
        <time>2015-04-02T12:15:30Z</time>
      </trkpt>
      <trkpt lat="44.81157" lon="4.64423">
        <ele>258</ele>
        <time>2015-04-02T12:15:33Z</time>
      </trkpt>
      <trkpt lat="44.81163" lon="4.64421">
        <ele>256</ele>
        <time>2015-04-02T12:15:36Z</time>
      </trkpt>
      <trkpt lat="44.81168" lon="4.64421">
        <ele>256</ele>
        <time>2015-04-02T12:15:39Z</time>
      </trkpt>
      <trkpt lat="44.81173" lon="4.64418">
        <ele>257</ele>
        <time>2015-04-02T12:15:44Z</time>
      </trkpt>
      <trkpt lat="44.81178" lon="4.64419">
        <ele>258</ele>
        <time>2015-04-02T12:15:49Z</time>
      </trkpt>
      <trkpt lat="44.81183" lon="4.64418">
        <ele>260</ele>
        <time>2015-04-02T12:15:53Z</time>
      </trkpt>
      <trkpt lat="44.81188" lon="4.64417">
        <ele>261</ele>
        <time>2015-04-02T12:15:56Z</time>
      </trkpt>
      <trkpt lat="44.81193" lon="4.64418">
        <ele>262</ele>
        <time>2015-04-02T12:16:01Z</time>
      </trkpt>
      <trkpt lat="44.81197" lon="4.64422">
        <ele>262</ele>
        <time>2015-04-02T12:16:04Z</time>
      </trkpt>
      <trkpt lat="44.81202" lon="4.64424">
        <ele>263</ele>
        <time>2015-04-02T12:16:08Z</time>
      </trkpt>
      <trkpt lat="44.81208" lon="4.64424">
        <ele>263</ele>
        <time>2015-04-02T12:16:12Z</time>
      </trkpt>
      <trkpt lat="44.81209" lon="4.64421">
        <ele>263</ele>
        <time>2015-04-02T12:16:41Z</time>
      </trkpt>
      <trkpt lat="44.81209" lon="4.64421">
        <ele>263</ele>
        <time>2015-04-02T12:16:57Z</time>
      </trkpt>
      <trkpt lat="44.81209" lon="4.64421">
        <ele>263</ele>
        <time>2015-04-02T12:17:14Z</time>
      </trkpt>
      <trkpt lat="44.81212" lon="4.64421">
        <ele>263</ele>
        <time>2015-04-02T12:17:19Z</time>
      </trkpt>
      <trkpt lat="44.81216" lon="4.64422">
        <ele>262</ele>
        <time>2015-04-02T12:17:22Z</time>
      </trkpt>
      <trkpt lat="44.81222" lon="4.64421">
        <ele>262</ele>
        <time>2015-04-02T12:17:25Z</time>
      </trkpt>
      <trkpt lat="44.81228" lon="4.64422">
        <ele>261</ele>
        <time>2015-04-02T12:17:39Z</time>
      </trkpt>
      <trkpt lat="44.81232" lon="4.64424">
        <ele>260</ele>
        <time>2015-04-02T12:17:42Z</time>
      </trkpt>
      <trkpt lat="44.81238" lon="4.64425">
        <ele>258</ele>
        <time>2015-04-02T12:17:45Z</time>
      </trkpt>
      <trkpt lat="44.81243" lon="4.64426">
        <ele>257</ele>
        <time>2015-04-02T12:17:48Z</time>
      </trkpt>
      <trkpt lat="44.81248" lon="4.64428">
        <ele>257</ele>
        <time>2015-04-02T12:17:51Z</time>
      </trkpt>
      <trkpt lat="44.81253" lon="4.64429">
        <ele>262</ele>
        <time>2015-04-02T12:17:55Z</time>
      </trkpt>
      <trkpt lat="44.81258" lon="4.64428">
        <ele>263</ele>
        <time>2015-04-02T12:18:00Z</time>
      </trkpt>
      <trkpt lat="44.81264" lon="4.64428">
        <ele>265</ele>
        <time>2015-04-02T12:18:03Z</time>
      </trkpt>
      <trkpt lat="44.81269" lon="4.64425">
        <ele>267</ele>
        <time>2015-04-02T12:18:06Z</time>
      </trkpt>
      <trkpt lat="44.81273" lon="4.64421">
        <ele>268</ele>
        <time>2015-04-02T12:18:09Z</time>
      </trkpt>
      <trkpt lat="44.81279" lon="4.64417">
        <ele>269</ele>
        <time>2015-04-02T12:18:13Z</time>
      </trkpt>
      <trkpt lat="44.81284" lon="4.64414">
        <ele>243</ele>
        <time>2015-04-02T12:18:18Z</time>
      </trkpt>
      <trkpt lat="44.81288" lon="4.64411">
        <ele>244</ele>
        <time>2015-04-02T12:18:22Z</time>
      </trkpt>
      <trkpt lat="44.81293" lon="4.64409">
        <ele>244</ele>
        <time>2015-04-02T12:18:26Z</time>
      </trkpt>
      <trkpt lat="44.81298" lon="4.64409">
        <ele>245</ele>
        <time>2015-04-02T12:18:30Z</time>
      </trkpt>
      <trkpt lat="44.81303" lon="4.64409">
        <ele>247</ele>
        <time>2015-04-02T12:18:34Z</time>
      </trkpt>
      <trkpt lat="44.81308" lon="4.64408">
        <ele>248</ele>
        <time>2015-04-02T12:18:38Z</time>
      </trkpt>
      <trkpt lat="44.81313" lon="4.64405">
        <ele>249</ele>
        <time>2015-04-02T12:18:41Z</time>
      </trkpt>
      <trkpt lat="44.81318" lon="4.64404">
        <ele>251</ele>
        <time>2015-04-02T12:18:45Z</time>
      </trkpt>
      <trkpt lat="44.81323" lon="4.64401">
        <ele>251</ele>
        <time>2015-04-02T12:18:49Z</time>
      </trkpt>
      <trkpt lat="44.81326" lon="4.64395">
        <ele>249</ele>
        <time>2015-04-02T12:18:53Z</time>
      </trkpt>
      <trkpt lat="44.81329" lon="4.6439">
        <ele>246</ele>
        <time>2015-04-02T12:18:56Z</time>
      </trkpt>
      <trkpt lat="44.81334" lon="4.64387">
        <ele>255</ele>
        <time>2015-04-02T12:19:00Z</time>
      </trkpt>
      <trkpt lat="44.81338" lon="4.64384">
        <ele>254</ele>
        <time>2015-04-02T12:19:04Z</time>
      </trkpt>
      <trkpt lat="44.81342" lon="4.6438">
        <ele>252</ele>
        <time>2015-04-02T12:19:08Z</time>
      </trkpt>
      <trkpt lat="44.81346" lon="4.64376">
        <ele>251</ele>
        <time>2015-04-02T12:19:15Z</time>
      </trkpt>
      <trkpt lat="44.81349" lon="4.6437">
        <ele>249</ele>
        <time>2015-04-02T12:19:21Z</time>
      </trkpt>
      <trkpt lat="44.81352" lon="4.64364">
        <ele>247</ele>
        <time>2015-04-02T12:19:25Z</time>
      </trkpt>
      <trkpt lat="44.81357" lon="4.64362">
        <ele>247</ele>
        <time>2015-04-02T12:19:30Z</time>
      </trkpt>
      <trkpt lat="44.81362" lon="4.64361">
        <ele>247</ele>
        <time>2015-04-02T12:19:34Z</time>
      </trkpt>
      <trkpt lat="44.81365" lon="4.64354">
        <ele>246</ele>
        <time>2015-04-02T12:19:38Z</time>
      </trkpt>
      <trkpt lat="44.81369" lon="4.64349">
        <ele>246</ele>
        <time>2015-04-02T12:19:42Z</time>
      </trkpt>
      <trkpt lat="44.81374" lon="4.64344">
        <ele>246</ele>
        <time>2015-04-02T12:19:46Z</time>
      </trkpt>
      <trkpt lat="44.81379" lon="4.64341">
        <ele>246</ele>
        <time>2015-04-02T12:19:52Z</time>
      </trkpt>
      <trkpt lat="44.81383" lon="4.64337">
        <ele>246</ele>
        <time>2015-04-02T12:19:56Z</time>
      </trkpt>
      <trkpt lat="44.81387" lon="4.64332">
        <ele>222</ele>
        <time>2015-04-02T12:20:00Z</time>
      </trkpt>
      <trkpt lat="44.81392" lon="4.64329">
        <ele>224</ele>
        <time>2015-04-02T12:20:04Z</time>
      </trkpt>
      <trkpt lat="44.81396" lon="4.64325">
        <ele>224</ele>
        <time>2015-04-02T12:20:07Z</time>
      </trkpt>
      <trkpt lat="44.814" lon="4.64323">
        <ele>225</ele>
        <time>2015-04-02T12:20:10Z</time>
      </trkpt>
      <trkpt lat="44.81406" lon="4.64321">
        <ele>227</ele>
        <time>2015-04-02T12:20:14Z</time>
      </trkpt>
      <trkpt lat="44.81411" lon="4.64323">
        <ele>230</ele>
        <time>2015-04-02T12:20:18Z</time>
      </trkpt>
      <trkpt lat="44.81416" lon="4.64324">
        <ele>232</ele>
        <time>2015-04-02T12:20:23Z</time>
      </trkpt>
      <trkpt lat="44.8142" lon="4.64328">
        <ele>234</ele>
        <time>2015-04-02T12:20:27Z</time>
      </trkpt>
      <trkpt lat="44.81424" lon="4.64332">
        <ele>234</ele>
        <time>2015-04-02T12:20:30Z</time>
      </trkpt>
      <trkpt lat="44.81428" lon="4.64333">
        <ele>231</ele>
        <time>2015-04-02T12:20:36Z</time>
      </trkpt>
      <trkpt lat="44.81432" lon="4.64336">
        <ele>243</ele>
        <time>2015-04-02T12:20:40Z</time>
      </trkpt>
      <trkpt lat="44.81437" lon="4.64339">
        <ele>243</ele>
        <time>2015-04-02T12:20:43Z</time>
      </trkpt>
      <trkpt lat="44.81441" lon="4.64341">
        <ele>244</ele>
        <time>2015-04-02T12:20:46Z</time>
      </trkpt>
      <trkpt lat="44.81446" lon="4.64345">
        <ele>244</ele>
        <time>2015-04-02T12:20:50Z</time>
      </trkpt>
      <trkpt lat="44.8145" lon="4.64348">
        <ele>244</ele>
        <time>2015-04-02T12:20:54Z</time>
      </trkpt>
      <trkpt lat="44.81453" lon="4.64353">
        <ele>244</ele>
        <time>2015-04-02T12:20:58Z</time>
      </trkpt>
      <trkpt lat="44.81458" lon="4.64356">
        <ele>244</ele>
        <time>2015-04-02T12:21:03Z</time>
      </trkpt>
      <trkpt lat="44.8146" lon="4.64361">
        <ele>245</ele>
        <time>2015-04-02T12:21:07Z</time>
      </trkpt>
      <trkpt lat="44.81463" lon="4.64367">
        <ele>245</ele>
        <time>2015-04-02T12:21:11Z</time>
      </trkpt>
      <trkpt lat="44.81468" lon="4.64368">
        <ele>245</ele>
        <time>2015-04-02T12:21:17Z</time>
      </trkpt>
      <trkpt lat="44.81472" lon="4.64372">
        <ele>245</ele>
        <time>2015-04-02T12:21:21Z</time>
      </trkpt>
      <trkpt lat="44.81476" lon="4.64376">
        <ele>245</ele>
        <time>2015-04-02T12:21:24Z</time>
      </trkpt>
      <trkpt lat="44.8148" lon="4.64379">
        <ele>246</ele>
        <time>2015-04-02T12:21:27Z</time>
      </trkpt>
      <trkpt lat="44.81485" lon="4.64381">
        <ele>246</ele>
        <time>2015-04-02T12:21:31Z</time>
      </trkpt>
      <trkpt lat="44.8149" lon="4.64381">
        <ele>245</ele>
        <time>2015-04-02T12:21:35Z</time>
      </trkpt>
      <trkpt lat="44.81495" lon="4.64383">
        <ele>245</ele>
        <time>2015-04-02T12:21:40Z</time>
      </trkpt>
      <trkpt lat="44.81499" lon="4.64387">
        <ele>246</ele>
        <time>2015-04-02T12:21:47Z</time>
      </trkpt>
      <trkpt lat="44.81503" lon="4.64392">
        <ele>232</ele>
        <time>2015-04-02T12:21:51Z</time>
      </trkpt>
      <trkpt lat="44.81507" lon="4.64395">
        <ele>233</ele>
        <time>2015-04-02T12:21:55Z</time>
      </trkpt>
      <trkpt lat="44.81511" lon="4.64401">
        <ele>234</ele>
        <time>2015-04-02T12:21:59Z</time>
      </trkpt>
      <trkpt lat="44.81514" lon="4.64406">
        <ele>235</ele>
        <time>2015-04-02T12:22:02Z</time>
      </trkpt>
      <trkpt lat="44.81517" lon="4.64411">
        <ele>235</ele>
        <time>2015-04-02T12:22:05Z</time>
      </trkpt>
      <trkpt lat="44.8152" lon="4.64416">
        <ele>234</ele>
        <time>2015-04-02T12:22:08Z</time>
      </trkpt>
      <trkpt lat="44.81522" lon="4.64421">
        <ele>244</ele>
        <time>2015-04-02T12:22:11Z</time>
      </trkpt>
      <trkpt lat="44.81525" lon="4.64429">
        <ele>243</ele>
        <time>2015-04-02T12:22:15Z</time>
      </trkpt>
      <trkpt lat="44.81527" lon="4.64436">
        <ele>243</ele>
        <time>2015-04-02T12:22:19Z</time>
      </trkpt>
      <trkpt lat="44.81527" lon="4.64443">
        <ele>243</ele>
        <time>2015-04-02T12:22:23Z</time>
      </trkpt>
      <trkpt lat="44.81527" lon="4.64451">
        <ele>243</ele>
        <time>2015-04-02T12:22:27Z</time>
      </trkpt>
      <trkpt lat="44.81527" lon="4.64458">
        <ele>244</ele>
        <time>2015-04-02T12:22:31Z</time>
      </trkpt>
      <trkpt lat="44.81529" lon="4.64464">
        <ele>244</ele>
        <time>2015-04-02T12:22:35Z</time>
      </trkpt>
      <trkpt lat="44.8153" lon="4.64471">
        <ele>245</ele>
        <time>2015-04-02T12:22:39Z</time>
      </trkpt>
      <trkpt lat="44.81532" lon="4.64478">
        <ele>246</ele>
        <time>2015-04-02T12:22:43Z</time>
      </trkpt>
      <trkpt lat="44.81532" lon="4.64484">
        <ele>246</ele>
        <time>2015-04-02T12:22:47Z</time>
      </trkpt>
      <trkpt lat="44.81533" lon="4.6449">
        <ele>247</ele>
        <time>2015-04-02T12:22:51Z</time>
      </trkpt>
      <trkpt lat="44.81536" lon="4.64497">
        <ele>246</ele>
        <time>2015-04-02T12:22:56Z</time>
      </trkpt>
      <trkpt lat="44.81535" lon="4.64503">
        <ele>256</ele>
        <time>2015-04-02T12:23:00Z</time>
      </trkpt>
      <trkpt lat="44.81538" lon="4.6451">
        <ele>255</ele>
        <time>2015-04-02T12:23:04Z</time>
      </trkpt>
      <trkpt lat="44.81541" lon="4.64516">
        <ele>254</ele>
        <time>2015-04-02T12:23:08Z</time>
      </trkpt>
      <trkpt lat="44.81544" lon="4.64522">
        <ele>254</ele>
        <time>2015-04-02T12:23:12Z</time>
      </trkpt>
      <trkpt lat="44.81548" lon="4.64528">
        <ele>253</ele>
        <time>2015-04-02T12:23:16Z</time>
      </trkpt>
      <trkpt lat="44.81551" lon="4.64535">
        <ele>253</ele>
        <time>2015-04-02T12:23:20Z</time>
      </trkpt>
      <trkpt lat="44.81555" lon="4.64541">
        <ele>252</ele>
        <time>2015-04-02T12:23:24Z</time>
      </trkpt>
      <trkpt lat="44.81558" lon="4.64546">
        <ele>252</ele>
        <time>2015-04-02T12:23:27Z</time>
      </trkpt>
      <trkpt lat="44.8156" lon="4.64552">
        <ele>252</ele>
        <time>2015-04-02T12:23:31Z</time>
      </trkpt>
      <trkpt lat="44.81564" lon="4.64557">
        <ele>251</ele>
        <time>2015-04-02T12:23:35Z</time>
      </trkpt>
      <trkpt lat="44.81562" lon="4.64564">
        <ele>251</ele>
        <time>2015-04-02T12:23:40Z</time>
      </trkpt>
      <trkpt lat="44.8156" lon="4.64571">
        <ele>252</ele>
        <time>2015-04-02T12:23:44Z</time>
      </trkpt>
      <trkpt lat="44.81556" lon="4.64573">
        <ele>253</ele>
        <time>2015-04-02T12:23:46Z</time>
      </trkpt>
      <trkpt lat="44.81559" lon="4.64578">
        <ele>252</ele>
        <time>2015-04-02T12:23:49Z</time>
      </trkpt>
      <trkpt lat="44.81565" lon="4.64581">
        <ele>250</ele>
        <time>2015-04-02T12:23:51Z</time>
      </trkpt>
      <trkpt lat="44.81567" lon="4.64587">
        <ele>252</ele>
        <time>2015-04-02T12:23:54Z</time>
      </trkpt>
      <trkpt lat="44.81569" lon="4.64595">
        <ele>253</ele>
        <time>2015-04-02T12:23:58Z</time>
      </trkpt>
      <trkpt lat="44.81569" lon="4.64603">
        <ele>254</ele>
        <time>2015-04-02T12:24:02Z</time>
      </trkpt>
      <trkpt lat="44.81569" lon="4.64609">
        <ele>255</ele>
        <time>2015-04-02T12:24:05Z</time>
      </trkpt>
      <trkpt lat="44.81572" lon="4.64613">
        <ele>255</ele>
        <time>2015-04-02T12:24:08Z</time>
      </trkpt>
      <trkpt lat="44.81574" lon="4.6462">
        <ele>256</ele>
        <time>2015-04-02T12:24:11Z</time>
      </trkpt>
      <trkpt lat="44.81575" lon="4.64627">
        <ele>255</ele>
        <time>2015-04-02T12:24:14Z</time>
      </trkpt>
      <trkpt lat="44.81579" lon="4.64634">
        <ele>254</ele>
        <time>2015-04-02T12:24:17Z</time>
      </trkpt>
      <trkpt lat="44.81582" lon="4.6464">
        <ele>253</ele>
        <time>2015-04-02T12:24:20Z</time>
      </trkpt>
      <trkpt lat="44.81583" lon="4.64645">
        <ele>232</ele>
        <time>2015-04-02T12:24:37Z</time>
      </trkpt>
      <trkpt lat="44.81584" lon="4.64645">
        <ele>232</ele>
        <time>2015-04-02T12:24:40Z</time>
      </trkpt>
      <trkpt lat="44.81587" lon="4.64651">
        <ele>233</ele>
        <time>2015-04-02T12:24:54Z</time>
      </trkpt>
      <trkpt lat="44.81589" lon="4.64656">
        <ele>235</ele>
        <time>2015-04-02T12:24:56Z</time>
      </trkpt>
      <trkpt lat="44.8159" lon="4.64665">
        <ele>237</ele>
        <time>2015-04-02T12:24:59Z</time>
      </trkpt>
      <trkpt lat="44.81592" lon="4.64673">
        <ele>234</ele>
        <time>2015-04-02T12:25:02Z</time>
      </trkpt>
      <trkpt lat="44.81593" lon="4.64681">
        <ele>231</ele>
        <time>2015-04-02T12:25:05Z</time>
      </trkpt>
      <trkpt lat="44.81593" lon="4.64689">
        <ele>229</ele>
        <time>2015-04-02T12:25:08Z</time>
      </trkpt>
      <trkpt lat="44.81595" lon="4.64698">
        <ele>227</ele>
        <time>2015-04-02T12:25:11Z</time>
      </trkpt>
      <trkpt lat="44.81596" lon="4.64705">
        <ele>226</ele>
        <time>2015-04-02T12:25:14Z</time>
      </trkpt>
      <trkpt lat="44.81599" lon="4.64711">
        <ele>225</ele>
        <time>2015-04-02T12:25:18Z</time>
      </trkpt>
      <trkpt lat="44.81601" lon="4.64718">
        <ele>224</ele>
        <time>2015-04-02T12:25:23Z</time>
      </trkpt>
      <trkpt lat="44.81601" lon="4.64725">
        <ele>224</ele>
        <time>2015-04-02T12:25:26Z</time>
      </trkpt>
      <trkpt lat="44.81601" lon="4.64732">
        <ele>225</ele>
        <time>2015-04-02T12:25:29Z</time>
      </trkpt>
      <trkpt lat="44.81601" lon="4.6474">
        <ele>226</ele>
        <time>2015-04-02T12:25:32Z</time>
      </trkpt>
      <trkpt lat="44.81601" lon="4.64747">
        <ele>226</ele>
        <time>2015-04-02T12:25:35Z</time>
      </trkpt>
      <trkpt lat="44.81599" lon="4.64755">
        <ele>225</ele>
        <time>2015-04-02T12:25:39Z</time>
      </trkpt>
      <trkpt lat="44.81603" lon="4.64757">
        <ele>223</ele>
        <time>2015-04-02T12:25:44Z</time>
      </trkpt>
      <trkpt lat="44.81606" lon="4.64751">
        <ele>223</ele>
        <time>2015-04-02T12:25:49Z</time>
      </trkpt>
      <trkpt lat="44.81602" lon="4.64746">
        <ele>226</ele>
        <time>2015-04-02T12:25:52Z</time>
      </trkpt>
      <trkpt lat="44.81602" lon="4.64738">
        <ele>225</ele>
        <time>2015-04-02T12:25:59Z</time>
      </trkpt>
      <trkpt lat="44.81607" lon="4.64733">
        <ele>224</ele>
        <time>2015-04-02T12:26:03Z</time>
      </trkpt>
      <trkpt lat="44.81609" lon="4.64727">
        <ele>223</ele>
        <time>2015-04-02T12:26:07Z</time>
      </trkpt>
      <trkpt lat="44.81613" lon="4.64722">
        <ele>222</ele>
        <time>2015-04-02T12:26:13Z</time>
      </trkpt>
      <trkpt lat="44.81617" lon="4.64719">
        <ele>221</ele>
        <time>2015-04-02T12:26:17Z</time>
      </trkpt>
      <trkpt lat="44.81621" lon="4.64716">
        <ele>221</ele>
        <time>2015-04-02T12:26:21Z</time>
      </trkpt>
      <trkpt lat="44.81626" lon="4.64713">
        <ele>220</ele>
        <time>2015-04-02T12:26:26Z</time>
      </trkpt>
      <trkpt lat="44.81629" lon="4.64706">
        <ele>220</ele>
        <time>2015-04-02T12:26:30Z</time>
      </trkpt>
      <trkpt lat="44.8163" lon="4.647">
        <ele>220</ele>
        <time>2015-04-02T12:26:33Z</time>
      </trkpt>
      <trkpt lat="44.8163" lon="4.64692">
        <ele>220</ele>
        <time>2015-04-02T12:26:37Z</time>
      </trkpt>
      <trkpt lat="44.81631" lon="4.64685">
        <ele>220</ele>
        <time>2015-04-02T12:26:42Z</time>
      </trkpt>
      <trkpt lat="44.8163" lon="4.64678">
        <ele>220</ele>
        <time>2015-04-02T12:26:48Z</time>
      </trkpt>
      <trkpt lat="44.8163" lon="4.6467">
        <ele>220</ele>
        <time>2015-04-02T12:26:53Z</time>
      </trkpt>
      <trkpt lat="44.8163" lon="4.64663">
        <ele>222</ele>
        <time>2015-04-02T12:26:56Z</time>
      </trkpt>
      <trkpt lat="44.81629" lon="4.64655">
        <ele>223</ele>
        <time>2015-04-02T12:27:00Z</time>
      </trkpt>
      <trkpt lat="44.81629" lon="4.64648">
        <ele>223</ele>
        <time>2015-04-02T12:27:04Z</time>
      </trkpt>
      <trkpt lat="44.81629" lon="4.64641">
        <ele>223</ele>
        <time>2015-04-02T12:27:09Z</time>
      </trkpt>
      <trkpt lat="44.8163" lon="4.64633">
        <ele>223</ele>
        <time>2015-04-02T12:27:13Z</time>
      </trkpt>
      <trkpt lat="44.81632" lon="4.64626">
        <ele>223</ele>
        <time>2015-04-02T12:27:17Z</time>
      </trkpt>
      <trkpt lat="44.81635" lon="4.64621">
        <ele>222</ele>
        <time>2015-04-02T12:27:21Z</time>
      </trkpt>
      <trkpt lat="44.81639" lon="4.64615">
        <ele>222</ele>
        <time>2015-04-02T12:27:26Z</time>
      </trkpt>
      <trkpt lat="44.81643" lon="4.64611">
        <ele>221</ele>
        <time>2015-04-02T12:27:32Z</time>
      </trkpt>
      <trkpt lat="44.81648" lon="4.64609">
        <ele>220</ele>
        <time>2015-04-02T12:27:36Z</time>
      </trkpt>
      <trkpt lat="44.81653" lon="4.64606">
        <ele>218</ele>
        <time>2015-04-02T12:27:40Z</time>
      </trkpt>
      <trkpt lat="44.81655" lon="4.64598">
        <ele>217</ele>
        <time>2015-04-02T12:27:45Z</time>
      </trkpt>
      <trkpt lat="44.81658" lon="4.64592">
        <ele>215</ele>
        <time>2015-04-02T12:27:49Z</time>
      </trkpt>
      <trkpt lat="44.8166" lon="4.64585">
        <ele>213</ele>
        <time>2015-04-02T12:27:54Z</time>
      </trkpt>
      <trkpt lat="44.81661" lon="4.64577">
        <ele>212</ele>
        <time>2015-04-02T12:27:58Z</time>
      </trkpt>
      <trkpt lat="44.81662" lon="4.64571">
        <ele>214</ele>
        <time>2015-04-02T12:28:02Z</time>
      </trkpt>
      <trkpt lat="44.81665" lon="4.64564">
        <ele>215</ele>
        <time>2015-04-02T12:28:06Z</time>
      </trkpt>
      <trkpt lat="44.81664" lon="4.64556">
        <ele>215</ele>
        <time>2015-04-02T12:28:11Z</time>
      </trkpt>
      <trkpt lat="44.81666" lon="4.6455">
        <ele>216</ele>
        <time>2015-04-02T12:28:16Z</time>
      </trkpt>
      <trkpt lat="44.81669" lon="4.64545">
        <ele>195</ele>
        <time>2015-04-02T12:28:21Z</time>
      </trkpt>
      <trkpt lat="44.81672" lon="4.64539">
        <ele>194</ele>
        <time>2015-04-02T12:28:26Z</time>
      </trkpt>
      <trkpt lat="44.81674" lon="4.64532">
        <ele>194</ele>
        <time>2015-04-02T12:28:30Z</time>
      </trkpt>
      <trkpt lat="44.81676" lon="4.64524">
        <ele>195</ele>
        <time>2015-04-02T12:28:34Z</time>
      </trkpt>
      <trkpt lat="44.81677" lon="4.64516">
        <ele>196</ele>
        <time>2015-04-02T12:28:37Z</time>
      </trkpt>
      <trkpt lat="44.81678" lon="4.6451">
        <ele>197</ele>
        <time>2015-04-02T12:28:40Z</time>
      </trkpt>
      <trkpt lat="44.81679" lon="4.64502">
        <ele>198</ele>
        <time>2015-04-02T12:28:44Z</time>
      </trkpt>
      <trkpt lat="44.81679" lon="4.64495">
        <ele>195</ele>
        <time>2015-04-02T12:28:48Z</time>
      </trkpt>
      <trkpt lat="44.81678" lon="4.64487">
        <ele>193</ele>
        <time>2015-04-02T12:28:52Z</time>
      </trkpt>
      <trkpt lat="44.81678" lon="4.64481">
        <ele>191</ele>
        <time>2015-04-02T12:28:55Z</time>
      </trkpt>
      <trkpt lat="44.81678" lon="4.64473">
        <ele>189</ele>
        <time>2015-04-02T12:28:58Z</time>
      </trkpt>
      <trkpt lat="44.81677" lon="4.64466">
        <ele>188</ele>
        <time>2015-04-02T12:29:01Z</time>
      </trkpt>
      <trkpt lat="44.81675" lon="4.64458">
        <ele>187</ele>
        <time>2015-04-02T12:29:05Z</time>
      </trkpt>
      <trkpt lat="44.81673" lon="4.64453">
        <ele>187</ele>
        <time>2015-04-02T12:29:10Z</time>
      </trkpt>
      <trkpt lat="44.81669" lon="4.64448">
        <ele>187</ele>
        <time>2015-04-02T12:29:14Z</time>
      </trkpt>
      <trkpt lat="44.81665" lon="4.64442">
        <ele>202</ele>
        <time>2015-04-02T12:29:17Z</time>
      </trkpt>
      <trkpt lat="44.81662" lon="4.64437">
        <ele>201</ele>
        <time>2015-04-02T12:29:20Z</time>
      </trkpt>
      <trkpt lat="44.81658" lon="4.64432">
        <ele>200</ele>
        <time>2015-04-02T12:29:23Z</time>
      </trkpt>
      <trkpt lat="44.81653" lon="4.64428">
        <ele>200</ele>
        <time>2015-04-02T12:29:27Z</time>
      </trkpt>
      <trkpt lat="44.81649" lon="4.64429">
        <ele>202</ele>
        <time>2015-04-02T12:29:32Z</time>
      </trkpt>
      <trkpt lat="44.81645" lon="4.64423">
        <ele>202</ele>
        <time>2015-04-02T12:29:36Z</time>
      </trkpt>
      <trkpt lat="44.81641" lon="4.64418">
        <ele>203</ele>
        <time>2015-04-02T12:29:38Z</time>
      </trkpt>
      <trkpt lat="44.81638" lon="4.64411">
        <ele>195</ele>
        <time>2015-04-02T12:29:40Z</time>
      </trkpt>
      <trkpt lat="44.81634" lon="4.64405">
        <ele>195</ele>
        <time>2015-04-02T12:29:43Z</time>
      </trkpt>
      <trkpt lat="44.81631" lon="4.64399">
        <ele>196</ele>
        <time>2015-04-02T12:29:46Z</time>
      </trkpt>
      <trkpt lat="44.8163" lon="4.64392">
        <ele>195</ele>
        <time>2015-04-02T12:29:50Z</time>
      </trkpt>
      <trkpt lat="44.81629" lon="4.64384">
        <ele>195</ele>
        <time>2015-04-02T12:29:57Z</time>
      </trkpt>
      <trkpt lat="44.81626" lon="4.64377">
        <ele>195</ele>
        <time>2015-04-02T12:30:02Z</time>
      </trkpt>
      <trkpt lat="44.81623" lon="4.64371">
        <ele>194</ele>
        <time>2015-04-02T12:30:06Z</time>
      </trkpt>
      <trkpt lat="44.81622" lon="4.64364">
        <ele>194</ele>
        <time>2015-04-02T12:30:12Z</time>
      </trkpt>
      <trkpt lat="44.81619" lon="4.64356">
        <ele>194</ele>
        <time>2015-04-02T12:30:15Z</time>
      </trkpt>
      <trkpt lat="44.81616" lon="4.6435">
        <ele>194</ele>
        <time>2015-04-02T12:30:18Z</time>
      </trkpt>
      <trkpt lat="44.81617" lon="4.64343">
        <ele>193</ele>
        <time>2015-04-02T12:30:23Z</time>
      </trkpt>
      <trkpt lat="44.81614" lon="4.64338">
        <ele>193</ele>
        <time>2015-04-02T12:30:27Z</time>
      </trkpt>
      <trkpt lat="44.81609" lon="4.64335">
        <ele>194</ele>
        <time>2015-04-02T12:30:31Z</time>
      </trkpt>
      <trkpt lat="44.81603" lon="4.64334">
        <ele>195</ele>
        <time>2015-04-02T12:30:35Z</time>
      </trkpt>
      <trkpt lat="44.81598" lon="4.64329">
        <ele>188</ele>
        <time>2015-04-02T12:30:39Z</time>
      </trkpt>
      <trkpt lat="44.81593" lon="4.64323">
        <ele>188</ele>
        <time>2015-04-02T12:30:46Z</time>
      </trkpt>
      <trkpt lat="44.8159" lon="4.64317">
        <ele>187</ele>
        <time>2015-04-02T12:30:50Z</time>
      </trkpt>
      <trkpt lat="44.81588" lon="4.64312">
        <ele>185</ele>
        <time>2015-04-02T12:30:54Z</time>
      </trkpt>
      <trkpt lat="44.81585" lon="4.64306">
        <ele>184</ele>
        <time>2015-04-02T12:30:57Z</time>
      </trkpt>
      <trkpt lat="44.8158" lon="4.64301">
        <ele>195</ele>
        <time>2015-04-02T12:31:01Z</time>
      </trkpt>
      <trkpt lat="44.81577" lon="4.64296">
        <ele>194</ele>
        <time>2015-04-02T12:31:06Z</time>
      </trkpt>
      <trkpt lat="44.81573" lon="4.64291">
        <ele>194</ele>
        <time>2015-04-02T12:31:11Z</time>
      </trkpt>
      <trkpt lat="44.81569" lon="4.64285">
        <ele>193</ele>
        <time>2015-04-02T12:31:15Z</time>
      </trkpt>
      <trkpt lat="44.81564" lon="4.6428">
        <ele>192</ele>
        <time>2015-04-02T12:31:18Z</time>
      </trkpt>
      <trkpt lat="44.81559" lon="4.64275">
        <ele>192</ele>
        <time>2015-04-02T12:31:21Z</time>
      </trkpt>
      <trkpt lat="44.81556" lon="4.6427">
        <ele>192</ele>
        <time>2015-04-02T12:31:24Z</time>
      </trkpt>
      <trkpt lat="44.81552" lon="4.64264">
        <ele>192</ele>
        <time>2015-04-02T12:31:27Z</time>
      </trkpt>
      <trkpt lat="44.81549" lon="4.64259">
        <ele>192</ele>
        <time>2015-04-02T12:31:32Z</time>
      </trkpt>
      <trkpt lat="44.81546" lon="4.64252">
        <ele>192</ele>
        <time>2015-04-02T12:31:37Z</time>
      </trkpt>
      <trkpt lat="44.81545" lon="4.64246">
        <ele>179</ele>
        <time>2015-04-02T12:31:41Z</time>
      </trkpt>
      <trkpt lat="44.81543" lon="4.6424">
        <ele>179</ele>
        <time>2015-04-02T12:31:45Z</time>
      </trkpt>
      <trkpt lat="44.8154" lon="4.64234">
        <ele>179</ele>
        <time>2015-04-02T12:31:49Z</time>
      </trkpt>
      <trkpt lat="44.81535" lon="4.64229">
        <ele>179</ele>
        <time>2015-04-02T12:31:53Z</time>
      </trkpt>
      <trkpt lat="44.81531" lon="4.64222">
        <ele>179</ele>
        <time>2015-04-02T12:31:57Z</time>
      </trkpt>
      <trkpt lat="44.81528" lon="4.64217">
        <ele>178</ele>
        <time>2015-04-02T12:32:00Z</time>
      </trkpt>
      <trkpt lat="44.81524" lon="4.64212">
        <ele>178</ele>
        <time>2015-04-02T12:32:03Z</time>
      </trkpt>
      <trkpt lat="44.81521" lon="4.64207">
        <ele>178</ele>
        <time>2015-04-02T12:32:06Z</time>
      </trkpt>
      <trkpt lat="44.81517" lon="4.64203">
        <ele>177</ele>
        <time>2015-04-02T12:32:09Z</time>
      </trkpt>
      <trkpt lat="44.81513" lon="4.64199">
        <ele>177</ele>
        <time>2015-04-02T12:32:13Z</time>
      </trkpt>
      <trkpt lat="44.81509" lon="4.64197">
        <ele>177</ele>
        <time>2015-04-02T12:32:18Z</time>
      </trkpt>
      <trkpt lat="44.81503" lon="4.64194">
        <ele>176</ele>
        <time>2015-04-02T12:32:23Z</time>
      </trkpt>
      <trkpt lat="44.81498" lon="4.6419">
        <ele>180</ele>
        <time>2015-04-02T12:32:27Z</time>
      </trkpt>
      <trkpt lat="44.81493" lon="4.64191">
        <ele>181</ele>
        <time>2015-04-02T12:32:30Z</time>
      </trkpt>
      <trkpt lat="44.81488" lon="4.64192">
        <ele>181</ele>
        <time>2015-04-02T12:32:33Z</time>
      </trkpt>
      <trkpt lat="44.81484" lon="4.64189">
        <ele>181</ele>
        <time>2015-04-02T12:32:37Z</time>
      </trkpt>
      <trkpt lat="44.8148" lon="4.64184">
        <ele>180</ele>
        <time>2015-04-02T12:32:41Z</time>
      </trkpt>
      <trkpt lat="44.81475" lon="4.64181">
        <ele>180</ele>
        <time>2015-04-02T12:32:44Z</time>
      </trkpt>
      <trkpt lat="44.8147" lon="4.64178">
        <ele>180</ele>
        <time>2015-04-02T12:32:47Z</time>
      </trkpt>
      <trkpt lat="44.81464" lon="4.64177">
        <ele>181</ele>
        <time>2015-04-02T12:32:53Z</time>
      </trkpt>
      <trkpt lat="44.81459" lon="4.64179">
        <ele>181</ele>
        <time>2015-04-02T12:32:57Z</time>
      </trkpt>
      <trkpt lat="44.81455" lon="4.64182">
        <ele>181</ele>
        <time>2015-04-02T12:33:01Z</time>
      </trkpt>
      <trkpt lat="44.8145" lon="4.64184">
        <ele>181</ele>
        <time>2015-04-02T12:33:05Z</time>
      </trkpt>
      <trkpt lat="44.81445" lon="4.64181">
        <ele>181</ele>
        <time>2015-04-02T12:33:09Z</time>
      </trkpt>
      <trkpt lat="44.81439" lon="4.64179">
        <ele>179</ele>
        <time>2015-04-02T12:33:13Z</time>
      </trkpt>
      <trkpt lat="44.81434" lon="4.6418">
        <ele>179</ele>
        <time>2015-04-02T12:33:17Z</time>
      </trkpt>
      <trkpt lat="44.81429" lon="4.6418">
        <ele>178</ele>
        <time>2015-04-02T12:33:21Z</time>
      </trkpt>
      <trkpt lat="44.81424" lon="4.64178">
        <ele>177</ele>
        <time>2015-04-02T12:33:26Z</time>
      </trkpt>
      <trkpt lat="44.81421" lon="4.64173">
        <ele>174</ele>
        <time>2015-04-02T12:33:30Z</time>
      </trkpt>
      <trkpt lat="44.81419" lon="4.64167">
        <ele>172</ele>
        <time>2015-04-02T12:33:34Z</time>
      </trkpt>
      <trkpt lat="44.81416" lon="4.64161">
        <ele>169</ele>
        <time>2015-04-02T12:33:39Z</time>
      </trkpt>
      <trkpt lat="44.81411" lon="4.64158">
        <ele>168</ele>
        <time>2015-04-02T12:33:54Z</time>
      </trkpt>
      <trkpt lat="44.81406" lon="4.64158">
        <ele>167</ele>
        <time>2015-04-02T12:33:59Z</time>
      </trkpt>
      <trkpt lat="44.81401" lon="4.64156">
        <ele>166</ele>
        <time>2015-04-02T12:34:02Z</time>
      </trkpt>
      <trkpt lat="44.81398" lon="4.64152">
        <ele>166</ele>
        <time>2015-04-02T12:34:05Z</time>
      </trkpt>
      <trkpt lat="44.81394" lon="4.64149">
        <ele>165</ele>
        <time>2015-04-02T12:34:08Z</time>
      </trkpt>
      <trkpt lat="44.8139" lon="4.64143">
        <ele>165</ele>
        <time>2015-04-02T12:34:12Z</time>
      </trkpt>
      <trkpt lat="44.81386" lon="4.64139">
        <ele>164</ele>
        <time>2015-04-02T12:34:16Z</time>
      </trkpt>
      <trkpt lat="44.81382" lon="4.64136">
        <ele>164</ele>
        <time>2015-04-02T12:34:24Z</time>
      </trkpt>
      <trkpt lat="44.81378" lon="4.64132">
        <ele>164</ele>
        <time>2015-04-02T12:34:28Z</time>
      </trkpt>
      <trkpt lat="44.81374" lon="4.64126">
        <ele>164</ele>
        <time>2015-04-02T12:34:32Z</time>
      </trkpt>
      <trkpt lat="44.81369" lon="4.64119">
        <ele>164</ele>
        <time>2015-04-02T12:34:36Z</time>
      </trkpt>
      <trkpt lat="44.81366" lon="4.64114">
        <ele>164</ele>
        <time>2015-04-02T12:34:39Z</time>
      </trkpt>
      <trkpt lat="44.81363" lon="4.6411">
        <ele>164</ele>
        <time>2015-04-02T12:34:42Z</time>
      </trkpt>
      <trkpt lat="44.8136" lon="4.64105">
        <ele>164</ele>
        <time>2015-04-02T12:34:45Z</time>
      </trkpt>
      <trkpt lat="44.81358" lon="4.64099">
        <ele>164</ele>
        <time>2015-04-02T12:34:48Z</time>
      </trkpt>
      <trkpt lat="44.81355" lon="4.64093">
        <ele>164</ele>
        <time>2015-04-02T12:34:52Z</time>
      </trkpt>
      <trkpt lat="44.81352" lon="4.64087">
        <ele>164</ele>
        <time>2015-04-02T12:34:56Z</time>
      </trkpt>
      <trkpt lat="44.8135" lon="4.64081">
        <ele>167</ele>
        <time>2015-04-02T12:34:59Z</time>
      </trkpt>
      <trkpt lat="44.81347" lon="4.64075">
        <ele>167</ele>
        <time>2015-04-02T12:35:02Z</time>
      </trkpt>
      <trkpt lat="44.81345" lon="4.64068">
        <ele>167</ele>
        <time>2015-04-02T12:35:06Z</time>
      </trkpt>
      <trkpt lat="44.81342" lon="4.64062">
        <ele>168</ele>
        <time>2015-04-02T12:35:11Z</time>
      </trkpt>
      <trkpt lat="44.8134" lon="4.64057">
        <ele>169</ele>
        <time>2015-04-02T12:35:16Z</time>
      </trkpt>
      <trkpt lat="44.81338" lon="4.64049">
        <ele>169</ele>
        <time>2015-04-02T12:35:20Z</time>
      </trkpt>
      <trkpt lat="44.81335" lon="4.64043">
        <ele>170</ele>
        <time>2015-04-02T12:35:25Z</time>
      </trkpt>
      <trkpt lat="44.81333" lon="4.64037">
        <ele>171</ele>
        <time>2015-04-02T12:35:33Z</time>
      </trkpt>
      <trkpt lat="44.81331" lon="4.6403">
        <ele>172</ele>
        <time>2015-04-02T12:35:38Z</time>
      </trkpt>
      <trkpt lat="44.81329" lon="4.64023">
        <ele>173</ele>
        <time>2015-04-02T12:35:42Z</time>
      </trkpt>
      <trkpt lat="44.81325" lon="4.64016">
        <ele>174</ele>
        <time>2015-04-02T12:35:47Z</time>
      </trkpt>
      <trkpt lat="44.81321" lon="4.6401">
        <ele>174</ele>
        <time>2015-04-02T12:35:51Z</time>
      </trkpt>
      <trkpt lat="44.81317" lon="4.64005">
        <ele>174</ele>
        <time>2015-04-02T12:35:55Z</time>
      </trkpt>
      <trkpt lat="44.81313" lon="4.64">
        <ele>174</ele>
        <time>2015-04-02T12:35:59Z</time>
      </trkpt>
      <trkpt lat="44.8131" lon="4.63994">
        <ele>182</ele>
        <time>2015-04-02T12:36:03Z</time>
      </trkpt>
      <trkpt lat="44.81307" lon="4.63989">
        <ele>182</ele>
        <time>2015-04-02T12:36:08Z</time>
      </trkpt>
      <trkpt lat="44.81302" lon="4.63992">
        <ele>182</ele>
        <time>2015-04-02T12:36:13Z</time>
      </trkpt>
      <trkpt lat="44.81298" lon="4.63988">
        <ele>182</ele>
        <time>2015-04-02T12:36:35Z</time>
      </trkpt>
      <trkpt lat="44.81295" lon="4.63981">
        <ele>183</ele>
        <time>2015-04-02T12:36:40Z</time>
      </trkpt>
      <trkpt lat="44.81292" lon="4.63975">
        <ele>183</ele>
        <time>2015-04-02T12:36:45Z</time>
      </trkpt>
      <trkpt lat="44.81289" lon="4.63971">
        <ele>183</ele>
        <time>2015-04-02T12:36:50Z</time>
      </trkpt>
      <trkpt lat="44.81286" lon="4.63964">
        <ele>184</ele>
        <time>2015-04-02T12:36:55Z</time>
      </trkpt>
      <trkpt lat="44.81282" lon="4.6396">
        <ele>184</ele>
        <time>2015-04-02T12:37:00Z</time>
      </trkpt>
      <trkpt lat="44.81278" lon="4.63955">
        <ele>185</ele>
        <time>2015-04-02T12:37:05Z</time>
      </trkpt>
      <trkpt lat="44.81272" lon="4.63955">
        <ele>184</ele>
        <time>2015-04-02T12:37:09Z</time>
      </trkpt>
      <trkpt lat="44.81267" lon="4.63954">
        <ele>184</ele>
        <time>2015-04-02T12:37:12Z</time>
      </trkpt>
      <trkpt lat="44.81263" lon="4.63953">
        <ele>184</ele>
        <time>2015-04-02T12:37:16Z</time>
      </trkpt>
      <trkpt lat="44.81258" lon="4.63951">
        <ele>185</ele>
        <time>2015-04-02T12:37:20Z</time>
      </trkpt>
      <trkpt lat="44.81253" lon="4.63951">
        <ele>185</ele>
        <time>2015-04-02T12:37:25Z</time>
      </trkpt>
      <trkpt lat="44.81248" lon="4.6395">
        <ele>179</ele>
        <time>2015-04-02T12:37:29Z</time>
      </trkpt>
      <trkpt lat="44.81244" lon="4.63945">
        <ele>180</ele>
        <time>2015-04-02T12:37:33Z</time>
      </trkpt>
      <trkpt lat="44.81241" lon="4.63939">
        <ele>181</ele>
        <time>2015-04-02T12:37:36Z</time>
      </trkpt>
      <trkpt lat="44.81241" lon="4.63931">
        <ele>182</ele>
        <time>2015-04-02T12:37:40Z</time>
      </trkpt>
      <trkpt lat="44.81242" lon="4.63925">
        <ele>184</ele>
        <time>2015-04-02T12:37:43Z</time>
      </trkpt>
      <trkpt lat="44.81246" lon="4.6392">
        <ele>186</ele>
        <time>2015-04-02T12:37:47Z</time>
      </trkpt>
      <trkpt lat="44.81251" lon="4.6392">
        <ele>188</ele>
        <time>2015-04-02T12:37:51Z</time>
      </trkpt>
      <trkpt lat="44.81256" lon="4.63921">
        <ele>188</ele>
        <time>2015-04-02T12:37:56Z</time>
      </trkpt>
      <trkpt lat="44.81261" lon="4.63924">
        <ele>187</ele>
        <time>2015-04-02T12:38:01Z</time>
      </trkpt>
      <trkpt lat="44.81265" lon="4.63926">
        <ele>187</ele>
        <time>2015-04-02T12:38:04Z</time>
      </trkpt>
      <trkpt lat="44.8127" lon="4.63928">
        <ele>187</ele>
        <time>2015-04-02T12:38:08Z</time>
      </trkpt>
      <trkpt lat="44.81275" lon="4.63928">
        <ele>187</ele>
        <time>2015-04-02T12:38:11Z</time>
      </trkpt>
      <trkpt lat="44.8128" lon="4.6393">
        <ele>187</ele>
        <time>2015-04-02T12:38:24Z</time>
      </trkpt>
      <trkpt lat="44.81285" lon="4.63932">
        <ele>187</ele>
        <time>2015-04-02T12:38:27Z</time>
      </trkpt>
      <trkpt lat="44.8129" lon="4.63934">
        <ele>187</ele>
        <time>2015-04-02T12:38:31Z</time>
      </trkpt>
      <trkpt lat="44.81295" lon="4.63936">
        <ele>187</ele>
        <time>2015-04-02T12:38:35Z</time>
      </trkpt>
      <trkpt lat="44.81299" lon="4.63939">
        <ele>187</ele>
        <time>2015-04-02T12:38:39Z</time>
      </trkpt>
      <trkpt lat="44.81304" lon="4.63942">
        <ele>187</ele>
        <time>2015-04-02T12:38:43Z</time>
      </trkpt>
      <trkpt lat="44.81313" lon="4.63948">
        <ele>187</ele>
        <time>2015-04-02T12:38:49Z</time>
      </trkpt>
      <trkpt lat="44.81317" lon="4.6395">
        <ele>187</ele>
        <time>2015-04-02T12:38:51Z</time>
      </trkpt>
      <trkpt lat="44.81322" lon="4.63953">
        <ele>187</ele>
        <time>2015-04-02T12:38:54Z</time>
      </trkpt>
      <trkpt lat="44.81327" lon="4.63955">
        <ele>186</ele>
        <time>2015-04-02T12:38:57Z</time>
      </trkpt>
      <trkpt lat="44.81331" lon="4.63959">
        <ele>186</ele>
        <time>2015-04-02T12:39:04Z</time>
      </trkpt>
      <trkpt lat="44.81334" lon="4.63958">
        <ele>187</ele>
        <time>2015-04-02T12:39:19Z</time>
      </trkpt>
      <trkpt lat="44.81335" lon="4.63956">
        <ele>188</ele>
        <time>2015-04-02T12:39:31Z</time>
      </trkpt>
      <trkpt lat="44.81339" lon="4.63952">
        <ele>188</ele>
        <time>2015-04-02T12:39:36Z</time>
      </trkpt>
      <trkpt lat="44.81344" lon="4.63949">
        <ele>189</ele>
        <time>2015-04-02T12:39:42Z</time>
      </trkpt>
      <trkpt lat="44.81345" lon="4.63946">
        <ele>189</ele>
        <time>2015-04-02T12:40:10Z</time>
      </trkpt>
      <trkpt lat="44.81347" lon="4.63942">
        <ele>190</ele>
        <time>2015-04-02T12:40:19Z</time>
      </trkpt>
      <trkpt lat="44.8135" lon="4.63938">
        <ele>190</ele>
        <time>2015-04-02T12:40:24Z</time>
      </trkpt>
      <trkpt lat="44.81354" lon="4.63934">
        <ele>191</ele>
        <time>2015-04-02T12:40:38Z</time>
      </trkpt>
      <trkpt lat="44.81358" lon="4.63927">
        <ele>191</ele>
        <time>2015-04-02T12:40:45Z</time>
      </trkpt>
      <trkpt lat="44.81362" lon="4.63925">
        <ele>191</ele>
        <time>2015-04-02T12:40:49Z</time>
      </trkpt>
      <trkpt lat="44.81367" lon="4.63925">
        <ele>190</ele>
        <time>2015-04-02T12:40:52Z</time>
      </trkpt>
      <trkpt lat="44.81369" lon="4.63918">
        <ele>191</ele>
        <time>2015-04-02T12:40:59Z</time>
      </trkpt>
      <trkpt lat="44.81371" lon="4.63912">
        <ele>199</ele>
        <time>2015-04-02T12:41:04Z</time>
      </trkpt>
      <trkpt lat="44.81375" lon="4.63907">
        <ele>199</ele>
        <time>2015-04-02T12:41:08Z</time>
      </trkpt>
      <trkpt lat="44.81377" lon="4.639">
        <ele>200</ele>
        <time>2015-04-02T12:41:12Z</time>
      </trkpt>
      <trkpt lat="44.81379" lon="4.63894">
        <ele>200</ele>
        <time>2015-04-02T12:41:17Z</time>
      </trkpt>
      <trkpt lat="44.81377" lon="4.63887">
        <ele>200</ele>
        <time>2015-04-02T12:41:22Z</time>
      </trkpt>
      <trkpt lat="44.81376" lon="4.63881">
        <ele>200</ele>
        <time>2015-04-02T12:41:26Z</time>
      </trkpt>
      <trkpt lat="44.81377" lon="4.63874">
        <ele>201</ele>
        <time>2015-04-02T12:41:31Z</time>
      </trkpt>
      <trkpt lat="44.81379" lon="4.63867">
        <ele>201</ele>
        <time>2015-04-02T12:41:35Z</time>
      </trkpt>
      <trkpt lat="44.8138" lon="4.6386">
        <ele>201</ele>
        <time>2015-04-02T12:41:39Z</time>
      </trkpt>
      <trkpt lat="44.81381" lon="4.63854">
        <ele>202</ele>
        <time>2015-04-02T12:41:43Z</time>
      </trkpt>
      <trkpt lat="44.81383" lon="4.63848">
        <ele>202</ele>
        <time>2015-04-02T12:41:47Z</time>
      </trkpt>
      <trkpt lat="44.81386" lon="4.63842">
        <ele>202</ele>
        <time>2015-04-02T12:41:51Z</time>
      </trkpt>
      <trkpt lat="44.81389" lon="4.63836">
        <ele>202</ele>
        <time>2015-04-02T12:41:55Z</time>
      </trkpt>
      <trkpt lat="44.81389" lon="4.63829">
        <ele>206</ele>
        <time>2015-04-02T12:41:59Z</time>
      </trkpt>
      <trkpt lat="44.81388" lon="4.63822">
        <ele>207</ele>
        <time>2015-04-02T12:42:03Z</time>
      </trkpt>
      <trkpt lat="44.8139" lon="4.63815">
        <ele>207</ele>
        <time>2015-04-02T12:42:08Z</time>
      </trkpt>
      <trkpt lat="44.81392" lon="4.6381">
        <ele>207</ele>
        <time>2015-04-02T12:42:14Z</time>
      </trkpt>
      <trkpt lat="44.81392" lon="4.63803">
        <ele>207</ele>
        <time>2015-04-02T12:42:19Z</time>
      </trkpt>
      <trkpt lat="44.8139" lon="4.63797">
        <ele>208</ele>
        <time>2015-04-02T12:42:23Z</time>
      </trkpt>
      <trkpt lat="44.81389" lon="4.63787">
        <ele>208</ele>
        <time>2015-04-02T12:42:29Z</time>
      </trkpt>
      <trkpt lat="44.81388" lon="4.63779">
        <ele>208</ele>
        <time>2015-04-02T12:42:32Z</time>
      </trkpt>
      <trkpt lat="44.81389" lon="4.63773">
        <ele>208</ele>
        <time>2015-04-02T12:42:36Z</time>
      </trkpt>
      <trkpt lat="44.81394" lon="4.63769">
        <ele>208</ele>
        <time>2015-04-02T12:42:44Z</time>
      </trkpt>
      <trkpt lat="44.81397" lon="4.6376">
        <ele>208</ele>
        <time>2015-04-02T12:42:49Z</time>
      </trkpt>
      <trkpt lat="44.81398" lon="4.63753">
        <ele>208</ele>
        <time>2015-04-02T12:42:53Z</time>
      </trkpt>
      <trkpt lat="44.814" lon="4.63747">
        <ele>212</ele>
        <time>2015-04-02T12:42:57Z</time>
      </trkpt>
      <trkpt lat="44.81402" lon="4.63742">
        <ele>212</ele>
        <time>2015-04-02T12:43:01Z</time>
      </trkpt>
      <trkpt lat="44.81404" lon="4.63735">
        <ele>212</ele>
        <time>2015-04-02T12:43:05Z</time>
      </trkpt>
      <trkpt lat="44.81405" lon="4.63727">
        <ele>213</ele>
        <time>2015-04-02T12:43:09Z</time>
      </trkpt>
      <trkpt lat="44.81406" lon="4.63721">
        <ele>213</ele>
        <time>2015-04-02T12:43:13Z</time>
      </trkpt>
      <trkpt lat="44.81408" lon="4.63713">
        <ele>214</ele>
        <time>2015-04-02T12:43:18Z</time>
      </trkpt>
      <trkpt lat="44.8141" lon="4.63708">
        <ele>214</ele>
        <time>2015-04-02T12:43:35Z</time>
      </trkpt>
      <trkpt lat="44.81413" lon="4.63701">
        <ele>214</ele>
        <time>2015-04-02T12:43:50Z</time>
      </trkpt>
      <trkpt lat="44.81414" lon="4.63694">
        <ele>214</ele>
        <time>2015-04-02T12:43:54Z</time>
      </trkpt>
      <trkpt lat="44.81416" lon="4.63687">
        <ele>214</ele>
        <time>2015-04-02T12:43:57Z</time>
      </trkpt>
      <trkpt lat="44.81416" lon="4.6368">
        <ele>213</ele>
        <time>2015-04-02T12:44:01Z</time>
      </trkpt>
      <trkpt lat="44.81414" lon="4.63674">
        <ele>212</ele>
        <time>2015-04-02T12:44:05Z</time>
      </trkpt>
      <trkpt lat="44.81411" lon="4.63668">
        <ele>212</ele>
        <time>2015-04-02T12:44:10Z</time>
      </trkpt>
      <trkpt lat="44.81408" lon="4.63662">
        <ele>216</ele>
        <time>2015-04-02T12:44:14Z</time>
      </trkpt>
      <trkpt lat="44.81405" lon="4.63656">
        <ele>218</ele>
        <time>2015-04-02T12:44:19Z</time>
      </trkpt>
      <trkpt lat="44.81401" lon="4.63651">
        <ele>220</ele>
        <time>2015-04-02T12:44:24Z</time>
      </trkpt>
      <trkpt lat="44.81398" lon="4.63646">
        <ele>221</ele>
        <time>2015-04-02T12:44:28Z</time>
      </trkpt>
      <trkpt lat="44.81395" lon="4.63638">
        <ele>223</ele>
        <time>2015-04-02T12:44:34Z</time>
      </trkpt>
      <trkpt lat="44.81395" lon="4.6363">
        <ele>223</ele>
        <time>2015-04-02T12:44:39Z</time>
      </trkpt>
      <trkpt lat="44.81396" lon="4.63623">
        <ele>224</ele>
        <time>2015-04-02T12:44:43Z</time>
      </trkpt>
      <trkpt lat="44.81398" lon="4.63617">
        <ele>224</ele>
        <time>2015-04-02T12:44:47Z</time>
      </trkpt>
      <trkpt lat="44.81399" lon="4.6361">
        <ele>224</ele>
        <time>2015-04-02T12:44:51Z</time>
      </trkpt>
      <trkpt lat="44.814" lon="4.63604">
        <ele>224</ele>
        <time>2015-04-02T12:44:55Z</time>
      </trkpt>
      <trkpt lat="44.81398" lon="4.63597">
        <ele>224</ele>
        <time>2015-04-02T12:45:00Z</time>
      </trkpt>
      <trkpt lat="44.81398" lon="4.63589">
        <ele>223</ele>
        <time>2015-04-02T12:45:06Z</time>
      </trkpt>
      <trkpt lat="44.81401" lon="4.63584">
        <ele>222</ele>
        <time>2015-04-02T12:45:11Z</time>
      </trkpt>
      <trkpt lat="44.81406" lon="4.63581">
        <ele>225</ele>
        <time>2015-04-02T12:45:17Z</time>
      </trkpt>
      <trkpt lat="44.8141" lon="4.63577">
        <ele>224</ele>
        <time>2015-04-02T12:45:23Z</time>
      </trkpt>
      <trkpt lat="44.81413" lon="4.63572">
        <ele>225</ele>
        <time>2015-04-02T12:45:29Z</time>
      </trkpt>
      <trkpt lat="44.81416" lon="4.63566">
        <ele>227</ele>
        <time>2015-04-02T12:45:35Z</time>
      </trkpt>
      <trkpt lat="44.81419" lon="4.63561">
        <ele>217</ele>
        <time>2015-04-02T12:45:39Z</time>
      </trkpt>
      <trkpt lat="44.81421" lon="4.63555">
        <ele>217</ele>
        <time>2015-04-02T12:45:44Z</time>
      </trkpt>
      <trkpt lat="44.81421" lon="4.63549">
        <ele>217</ele>
        <time>2015-04-02T12:45:48Z</time>
      </trkpt>
      <trkpt lat="44.81421" lon="4.63545">
        <ele>217</ele>
        <time>2015-04-02T12:46:07Z</time>
      </trkpt>
      <trkpt lat="44.81422" lon="4.63543">
        <ele>217</ele>
        <time>2015-04-02T12:46:12Z</time>
      </trkpt>
      <trkpt lat="44.81423" lon="4.63536">
        <ele>218</ele>
        <time>2015-04-02T12:46:25Z</time>
      </trkpt>
      <trkpt lat="44.81422" lon="4.63535">
        <ele>218</ele>
        <time>2015-04-02T12:46:40Z</time>
      </trkpt>
      <trkpt lat="44.81422" lon="4.63532">
        <ele>218</ele>
        <time>2015-04-02T12:46:57Z</time>
      </trkpt>
      <trkpt lat="44.81422" lon="4.63529">
        <ele>218</ele>
        <time>2015-04-02T12:46:59Z</time>
      </trkpt>
      <trkpt lat="44.81424" lon="4.63523">
        <ele>219</ele>
        <time>2015-04-02T12:47:04Z</time>
      </trkpt>
      <trkpt lat="44.81426" lon="4.63516">
        <ele>220</ele>
        <time>2015-04-02T12:47:09Z</time>
      </trkpt>
      <trkpt lat="44.81428" lon="4.63507">
        <ele>221</ele>
        <time>2015-04-02T12:47:15Z</time>
      </trkpt>
      <trkpt lat="44.81429" lon="4.635">
        <ele>221</ele>
        <time>2015-04-02T12:47:20Z</time>
      </trkpt>
      <trkpt lat="44.81432" lon="4.63495">
        <ele>224</ele>
        <time>2015-04-02T12:47:25Z</time>
      </trkpt>
      <trkpt lat="44.81434" lon="4.63488">
        <ele>223</ele>
        <time>2015-04-02T12:47:31Z</time>
      </trkpt>
      <trkpt lat="44.81434" lon="4.63482">
        <ele>223</ele>
        <time>2015-04-02T12:47:40Z</time>
      </trkpt>
      <trkpt lat="44.81435" lon="4.63474">
        <ele>223</ele>
        <time>2015-04-02T12:47:53Z</time>
      </trkpt>
      <trkpt lat="44.81434" lon="4.63468">
        <ele>223</ele>
        <time>2015-04-02T12:47:56Z</time>
      </trkpt>
      <trkpt lat="44.81435" lon="4.6346">
        <ele>224</ele>
        <time>2015-04-02T12:48:00Z</time>
      </trkpt>
      <trkpt lat="44.81432" lon="4.63453">
        <ele>224</ele>
        <time>2015-04-02T12:48:04Z</time>
      </trkpt>
      <trkpt lat="44.81428" lon="4.63448">
        <ele>225</ele>
        <time>2015-04-02T12:48:08Z</time>
      </trkpt>
      <trkpt lat="44.81425" lon="4.63443">
        <ele>226</ele>
        <time>2015-04-02T12:48:12Z</time>
      </trkpt>
      <trkpt lat="44.81421" lon="4.63438">
        <ele>228</ele>
        <time>2015-04-02T12:48:16Z</time>
      </trkpt>
      <trkpt lat="44.81419" lon="4.63431">
        <ele>229</ele>
        <time>2015-04-02T12:48:21Z</time>
      </trkpt>
      <trkpt lat="44.81419" lon="4.63425">
        <ele>231</ele>
        <time>2015-04-02T12:48:33Z</time>
      </trkpt>
      <trkpt lat="44.8142" lon="4.63423">
        <ele>232</ele>
        <time>2015-04-02T12:48:53Z</time>
      </trkpt>
      <trkpt lat="44.8142" lon="4.63423">
        <ele>232</ele>
        <time>2015-04-02T12:49:08Z</time>
      </trkpt>
      <trkpt lat="44.8142" lon="4.63423">
        <ele>232</ele>
        <time>2015-04-02T12:49:23Z</time>
      </trkpt>
      <trkpt lat="44.8142" lon="4.63421">
        <ele>232</ele>
        <time>2015-04-02T12:49:40Z</time>
      </trkpt>
      <trkpt lat="44.81421" lon="4.63417">
        <ele>233</ele>
        <time>2015-04-02T12:49:42Z</time>
      </trkpt>
      <trkpt lat="44.8142" lon="4.6341">
        <ele>233</ele>
        <time>2015-04-02T12:49:45Z</time>
      </trkpt>
      <trkpt lat="44.81421" lon="4.63404">
        <ele>233</ele>
        <time>2015-04-02T12:49:49Z</time>
      </trkpt>
      <trkpt lat="44.81421" lon="4.63397">
        <ele>232</ele>
        <time>2015-04-02T12:49:54Z</time>
      </trkpt>
      <trkpt lat="44.81419" lon="4.63391">
        <ele>232</ele>
        <time>2015-04-02T12:49:58Z</time>
      </trkpt>
      <trkpt lat="44.81415" lon="4.63386">
        <ele>246</ele>
        <time>2015-04-02T12:50:02Z</time>
      </trkpt>
      <trkpt lat="44.81412" lon="4.6338">
        <ele>247</ele>
        <time>2015-04-02T12:50:06Z</time>
      </trkpt>
      <trkpt lat="44.8141" lon="4.63373">
        <ele>247</ele>
        <time>2015-04-02T12:50:11Z</time>
      </trkpt>
      <trkpt lat="44.81406" lon="4.63369">
        <ele>247</ele>
        <time>2015-04-02T12:50:15Z</time>
      </trkpt>
      <trkpt lat="44.81402" lon="4.63365">
        <ele>248</ele>
        <time>2015-04-02T12:50:20Z</time>
      </trkpt>
      <trkpt lat="44.814" lon="4.6336">
        <ele>248</ele>
        <time>2015-04-02T12:50:24Z</time>
      </trkpt>
      <trkpt lat="44.81397" lon="4.63354">
        <ele>248</ele>
        <time>2015-04-02T12:50:28Z</time>
      </trkpt>
      <trkpt lat="44.81398" lon="4.63347">
        <ele>247</ele>
        <time>2015-04-02T12:50:32Z</time>
      </trkpt>
      <trkpt lat="44.81397" lon="4.6334">
        <ele>247</ele>
        <time>2015-04-02T12:50:36Z</time>
      </trkpt>
      <trkpt lat="44.81395" lon="4.63334">
        <ele>247</ele>
        <time>2015-04-02T12:50:40Z</time>
      </trkpt>
      <trkpt lat="44.81392" lon="4.63327">
        <ele>250</ele>
        <time>2015-04-02T12:50:45Z</time>
      </trkpt>
      <trkpt lat="44.81391" lon="4.63319">
        <ele>251</ele>
        <time>2015-04-02T12:50:51Z</time>
      </trkpt>
      <trkpt lat="44.81392" lon="4.63313">
        <ele>252</ele>
        <time>2015-04-02T12:50:55Z</time>
      </trkpt>
      <trkpt lat="44.81392" lon="4.63305">
        <ele>252</ele>
        <time>2015-04-02T12:51:01Z</time>
      </trkpt>
      <trkpt lat="44.81392" lon="4.63299">
        <ele>253</ele>
        <time>2015-04-02T12:51:06Z</time>
      </trkpt>
      <trkpt lat="44.81393" lon="4.63292">
        <ele>253</ele>
        <time>2015-04-02T12:51:11Z</time>
      </trkpt>
      <trkpt lat="44.81393" lon="4.63285">
        <ele>253</ele>
        <time>2015-04-02T12:51:16Z</time>
      </trkpt>
      <trkpt lat="44.81392" lon="4.63278">
        <ele>253</ele>
        <time>2015-04-02T12:51:21Z</time>
      </trkpt>
      <trkpt lat="44.8139" lon="4.63272">
        <ele>253</ele>
        <time>2015-04-02T12:51:33Z</time>
      </trkpt>
      <trkpt lat="44.81388" lon="4.63264">
        <ele>253</ele>
        <time>2015-04-02T12:51:39Z</time>
      </trkpt>
      <trkpt lat="44.81389" lon="4.63257">
        <ele>252</ele>
        <time>2015-04-02T12:51:45Z</time>
      </trkpt>
      <trkpt lat="44.81391" lon="4.63251">
        <ele>252</ele>
        <time>2015-04-02T12:51:50Z</time>
      </trkpt>
      <trkpt lat="44.81392" lon="4.63244">
        <ele>257</ele>
        <time>2015-04-02T12:51:55Z</time>
      </trkpt>
      <trkpt lat="44.81389" lon="4.63239">
        <ele>259</ele>
        <time>2015-04-02T12:52:03Z</time>
      </trkpt>
      <trkpt lat="44.81387" lon="4.63233">
        <ele>260</ele>
        <time>2015-04-02T12:52:24Z</time>
      </trkpt>
      <trkpt lat="44.81384" lon="4.63227">
        <ele>262</ele>
        <time>2015-04-02T12:52:28Z</time>
      </trkpt>
      <trkpt lat="44.81381" lon="4.63223">
        <ele>263</ele>
        <time>2015-04-02T12:52:32Z</time>
      </trkpt>
      <trkpt lat="44.81378" lon="4.63218">
        <ele>264</ele>
        <time>2015-04-02T12:52:37Z</time>
      </trkpt>
      <trkpt lat="44.81374" lon="4.63213">
        <ele>265</ele>
        <time>2015-04-02T12:52:47Z</time>
      </trkpt>
      <trkpt lat="44.81374" lon="4.6321">
        <ele>265</ele>
        <time>2015-04-02T12:53:12Z</time>
      </trkpt>
      <trkpt lat="44.81373" lon="4.63206">
        <ele>266</ele>
        <time>2015-04-02T12:53:15Z</time>
      </trkpt>
      <trkpt lat="44.81377" lon="4.63202">
        <ele>266</ele>
        <time>2015-04-02T12:53:29Z</time>
      </trkpt>
      <trkpt lat="44.81378" lon="4.63196">
        <ele>266</ele>
        <time>2015-04-02T12:53:33Z</time>
      </trkpt>
      <trkpt lat="44.81379" lon="4.63189">
        <ele>266</ele>
        <time>2015-04-02T12:53:38Z</time>
      </trkpt>
      <trkpt lat="44.81382" lon="4.63183">
        <ele>266</ele>
        <time>2015-04-02T12:53:44Z</time>
      </trkpt>
      <trkpt lat="44.81383" lon="4.63177">
        <ele>266</ele>
        <time>2015-04-02T12:53:55Z</time>
      </trkpt>
      <trkpt lat="44.81382" lon="4.63166">
        <ele>277</ele>
        <time>2015-04-02T12:54:10Z</time>
      </trkpt>
      <trkpt lat="44.81382" lon="4.63158">
        <ele>277</ele>
        <time>2015-04-02T12:54:15Z</time>
      </trkpt>
      <trkpt lat="44.81384" lon="4.63151">
        <ele>278</ele>
        <time>2015-04-02T12:54:20Z</time>
      </trkpt>
      <trkpt lat="44.81388" lon="4.63147">
        <ele>277</ele>
        <time>2015-04-02T12:54:24Z</time>
      </trkpt>
      <trkpt lat="44.81391" lon="4.63142">
        <ele>277</ele>
        <time>2015-04-02T12:54:29Z</time>
      </trkpt>
      <trkpt lat="44.81392" lon="4.63136">
        <ele>278</ele>
        <time>2015-04-02T12:54:41Z</time>
      </trkpt>
      <trkpt lat="44.81393" lon="4.63129">
        <ele>279</ele>
        <time>2015-04-02T12:54:51Z</time>
      </trkpt>
      <trkpt lat="44.81393" lon="4.63122">
        <ele>280</ele>
        <time>2015-04-02T12:54:56Z</time>
      </trkpt>
      <trkpt lat="44.81393" lon="4.63113">
        <ele>281</ele>
        <time>2015-04-02T12:55:00Z</time>
      </trkpt>
      <trkpt lat="44.81395" lon="4.63107">
        <ele>281</ele>
        <time>2015-04-02T12:55:03Z</time>
      </trkpt>
      <trkpt lat="44.81398" lon="4.63102">
        <ele>281</ele>
        <time>2015-04-02T12:55:06Z</time>
      </trkpt>
      <trkpt lat="44.81401" lon="4.63097">
        <ele>280</ele>
        <time>2015-04-02T12:55:10Z</time>
      </trkpt>
      <trkpt lat="44.81406" lon="4.63092">
        <ele>280</ele>
        <time>2015-04-02T12:55:14Z</time>
      </trkpt>
      <trkpt lat="44.81408" lon="4.63085">
        <ele>279</ele>
        <time>2015-04-02T12:55:19Z</time>
      </trkpt>
      <trkpt lat="44.81411" lon="4.6308">
        <ele>282</ele>
        <time>2015-04-02T12:55:34Z</time>
      </trkpt>
      <trkpt lat="44.81412" lon="4.63072">
        <ele>286</ele>
        <time>2015-04-02T12:55:41Z</time>
      </trkpt>
      <trkpt lat="44.81414" lon="4.63066">
        <ele>288</ele>
        <time>2015-04-02T12:55:46Z</time>
      </trkpt>
      <trkpt lat="44.81415" lon="4.63059">
        <ele>289</ele>
        <time>2015-04-02T12:55:50Z</time>
      </trkpt>
      <trkpt lat="44.81417" lon="4.63052">
        <ele>275</ele>
        <time>2015-04-02T12:56:01Z</time>
      </trkpt>
      <trkpt lat="44.81417" lon="4.63045">
        <ele>276</ele>
        <time>2015-04-02T12:56:10Z</time>
      </trkpt>
      <trkpt lat="44.81416" lon="4.63038">
        <ele>293</ele>
        <time>2015-04-02T12:56:17Z</time>
      </trkpt>
      <trkpt lat="44.81416" lon="4.63031">
        <ele>293</ele>
        <time>2015-04-02T12:56:30Z</time>
      </trkpt>
      <trkpt lat="44.81416" lon="4.63024">
        <ele>294</ele>
        <time>2015-04-02T12:56:42Z</time>
      </trkpt>
      <trkpt lat="44.81414" lon="4.63016">
        <ele>293</ele>
        <time>2015-04-02T12:56:46Z</time>
      </trkpt>
      <trkpt lat="44.81415" lon="4.6301">
        <ele>293</ele>
        <time>2015-04-02T12:56:50Z</time>
      </trkpt>
      <trkpt lat="44.81415" lon="4.63003">
        <ele>292</ele>
        <time>2015-04-02T12:56:54Z</time>
      </trkpt>
      <trkpt lat="44.81415" lon="4.62996">
        <ele>293</ele>
        <time>2015-04-02T12:56:58Z</time>
      </trkpt>
      <trkpt lat="44.81416" lon="4.62988">
        <ele>296</ele>
        <time>2015-04-02T12:57:03Z</time>
      </trkpt>
      <trkpt lat="44.81416" lon="4.62981">
        <ele>298</ele>
        <time>2015-04-02T12:57:08Z</time>
      </trkpt>
      <trkpt lat="44.81414" lon="4.62975">
        <ele>299</ele>
        <time>2015-04-02T12:57:14Z</time>
      </trkpt>
      <trkpt lat="44.81413" lon="4.62968">
        <ele>300</ele>
        <time>2015-04-02T12:57:20Z</time>
      </trkpt>
      <trkpt lat="44.81413" lon="4.62961">
        <ele>301</ele>
        <time>2015-04-02T12:57:29Z</time>
      </trkpt>
      <trkpt lat="44.81412" lon="4.62953">
        <ele>302</ele>
        <time>2015-04-02T12:57:34Z</time>
      </trkpt>
      <trkpt lat="44.81411" lon="4.62946">
        <ele>302</ele>
        <time>2015-04-02T12:57:39Z</time>
      </trkpt>
      <trkpt lat="44.8141" lon="4.62939">
        <ele>302</ele>
        <time>2015-04-02T12:57:44Z</time>
      </trkpt>
      <trkpt lat="44.81408" lon="4.62931">
        <ele>302</ele>
        <time>2015-04-02T12:57:49Z</time>
      </trkpt>
      <trkpt lat="44.81408" lon="4.62925">
        <ele>301</ele>
        <time>2015-04-02T12:57:54Z</time>
      </trkpt>
      <trkpt lat="44.81408" lon="4.62918">
        <ele>301</ele>
        <time>2015-04-02T12:58:06Z</time>
      </trkpt>
      <trkpt lat="44.81406" lon="4.62911">
        <ele>303</ele>
        <time>2015-04-02T12:58:11Z</time>
      </trkpt>
      <trkpt lat="44.81403" lon="4.62905">
        <ele>304</ele>
        <time>2015-04-02T12:58:14Z</time>
      </trkpt>
      <trkpt lat="44.81402" lon="4.62898">
        <ele>305</ele>
        <time>2015-04-02T12:58:21Z</time>
      </trkpt>
      <trkpt lat="44.81403" lon="4.62892">
        <ele>305</ele>
        <time>2015-04-02T12:58:25Z</time>
      </trkpt>
      <trkpt lat="44.81405" lon="4.62885">
        <ele>306</ele>
        <time>2015-04-02T12:58:32Z</time>
      </trkpt>
      <trkpt lat="44.81403" lon="4.62878">
        <ele>307</ele>
        <time>2015-04-02T12:58:39Z</time>
      </trkpt>
      <trkpt lat="44.81402" lon="4.62872">
        <ele>307</ele>
        <time>2015-04-02T12:58:46Z</time>
      </trkpt>
      <trkpt lat="44.814" lon="4.62865">
        <ele>308</ele>
        <time>2015-04-02T12:58:58Z</time>
      </trkpt>
      <trkpt lat="44.81397" lon="4.62859">
        <ele>308</ele>
        <time>2015-04-02T12:59:05Z</time>
      </trkpt>
      <trkpt lat="44.81394" lon="4.62855">
        <ele>309</ele>
        <time>2015-04-02T12:59:12Z</time>
      </trkpt>
      <trkpt lat="44.81393" lon="4.62849">
        <ele>309</ele>
        <time>2015-04-02T12:59:28Z</time>
      </trkpt>
      <trkpt lat="44.81393" lon="4.62849">
        <ele>309</ele>
        <time>2015-04-02T12:59:29Z</time>
      </trkpt>
      <trkpt lat="44.8139" lon="4.62842">
        <ele>309</ele>
        <time>2015-04-02T12:59:39Z</time>
      </trkpt>
      <trkpt lat="44.81392" lon="4.62835">
        <ele>310</ele>
        <time>2015-04-02T12:59:49Z</time>
      </trkpt>
      <trkpt lat="44.81392" lon="4.62829">
        <ele>309</ele>
        <time>2015-04-02T12:59:57Z</time>
      </trkpt>
      <trkpt lat="44.81391" lon="4.62822">
        <ele>308</ele>
        <time>2015-04-02T13:00:03Z</time>
      </trkpt>
      <trkpt lat="44.81391" lon="4.62816">
        <ele>308</ele>
        <time>2015-04-02T13:00:10Z</time>
      </trkpt>
      <trkpt lat="44.81387" lon="4.6281">
        <ele>307</ele>
        <time>2015-04-02T13:00:16Z</time>
      </trkpt>
      <trkpt lat="44.81383" lon="4.62808">
        <ele>306</ele>
        <time>2015-04-02T13:00:20Z</time>
      </trkpt>
      <trkpt lat="44.81379" lon="4.62803">
        <ele>305</ele>
        <time>2015-04-02T13:00:35Z</time>
      </trkpt>
      <trkpt lat="44.81378" lon="4.62797">
        <ele>305</ele>
        <time>2015-04-02T13:00:42Z</time>
      </trkpt>
      <trkpt lat="44.81378" lon="4.6279">
        <ele>305</ele>
        <time>2015-04-02T13:00:49Z</time>
      </trkpt>
      <trkpt lat="44.81376" lon="4.62783">
        <ele>304</ele>
        <time>2015-04-02T13:00:54Z</time>
      </trkpt>
      <trkpt lat="44.81375" lon="4.62777">
        <ele>304</ele>
        <time>2015-04-02T13:01:00Z</time>
      </trkpt>
      <trkpt lat="44.81372" lon="4.62773">
        <ele>303</ele>
        <time>2015-04-02T13:01:13Z</time>
      </trkpt>
      <trkpt lat="44.81372" lon="4.62772">
        <ele>303</ele>
        <time>2015-04-02T13:01:18Z</time>
      </trkpt>
      <trkpt lat="44.81373" lon="4.62764">
        <ele>303</ele>
        <time>2015-04-02T13:01:30Z</time>
      </trkpt>
      <trkpt lat="44.81372" lon="4.62758">
        <ele>302</ele>
        <time>2015-04-02T13:01:34Z</time>
      </trkpt>
      <trkpt lat="44.81368" lon="4.62753">
        <ele>301</ele>
        <time>2015-04-02T13:01:38Z</time>
      </trkpt>
      <trkpt lat="44.81365" lon="4.62746">
        <ele>298</ele>
        <time>2015-04-02T13:01:41Z</time>
      </trkpt>
      <trkpt lat="44.81364" lon="4.6274">
        <ele>298</ele>
        <time>2015-04-02T13:01:43Z</time>
      </trkpt>
      <trkpt lat="44.81362" lon="4.62733">
        <ele>298</ele>
        <time>2015-04-02T13:01:46Z</time>
      </trkpt>
      <trkpt lat="44.81361" lon="4.62726">
        <ele>298</ele>
        <time>2015-04-02T13:01:56Z</time>
      </trkpt>
      <trkpt lat="44.81359" lon="4.6272">
        <ele>297</ele>
        <time>2015-04-02T13:02:00Z</time>
      </trkpt>
      <trkpt lat="44.81356" lon="4.62714">
        <ele>297</ele>
        <time>2015-04-02T13:02:04Z</time>
      </trkpt>
      <trkpt lat="44.81354" lon="4.62707">
        <ele>297</ele>
        <time>2015-04-02T13:02:08Z</time>
      </trkpt>
      <trkpt lat="44.81354" lon="4.62701">
        <ele>297</ele>
        <time>2015-04-02T13:02:12Z</time>
      </trkpt>
      <trkpt lat="44.81349" lon="4.62699">
        <ele>296</ele>
        <time>2015-04-02T13:02:17Z</time>
      </trkpt>
      <trkpt lat="44.81345" lon="4.62694">
        <ele>294</ele>
        <time>2015-04-02T13:02:22Z</time>
      </trkpt>
      <trkpt lat="44.81344" lon="4.62687">
        <ele>293</ele>
        <time>2015-04-02T13:02:33Z</time>
      </trkpt>
      <trkpt lat="44.8134" lon="4.62682">
        <ele>291</ele>
        <time>2015-04-02T13:02:39Z</time>
      </trkpt>
      <trkpt lat="44.81337" lon="4.62678">
        <ele>289</ele>
        <time>2015-04-02T13:02:45Z</time>
      </trkpt>
      <trkpt lat="44.81333" lon="4.62673">
        <ele>280</ele>
        <time>2015-04-02T13:02:51Z</time>
      </trkpt>
      <trkpt lat="44.8133" lon="4.62667">
        <ele>281</ele>
        <time>2015-04-02T13:02:57Z</time>
      </trkpt>
      <trkpt lat="44.81328" lon="4.62661">
        <ele>283</ele>
        <time>2015-04-02T13:03:01Z</time>
      </trkpt>
      <trkpt lat="44.81326" lon="4.62655">
        <ele>284</ele>
        <time>2015-04-02T13:03:07Z</time>
      </trkpt>
      <trkpt lat="44.81327" lon="4.62648">
        <ele>284</ele>
        <time>2015-04-02T13:03:12Z</time>
      </trkpt>
      <trkpt lat="44.81329" lon="4.62642">
        <ele>285</ele>
        <time>2015-04-02T13:03:18Z</time>
      </trkpt>
      <trkpt lat="44.81326" lon="4.62637">
        <ele>286</ele>
        <time>2015-04-02T13:03:22Z</time>
      </trkpt>
      <trkpt lat="44.81322" lon="4.62634">
        <ele>286</ele>
        <time>2015-04-02T13:03:26Z</time>
      </trkpt>
      <trkpt lat="44.81318" lon="4.62636">
        <ele>286</ele>
        <time>2015-04-02T13:03:30Z</time>
      </trkpt>
      <trkpt lat="44.81313" lon="4.62639">
        <ele>285</ele>
        <time>2015-04-02T13:03:34Z</time>
      </trkpt>
      <trkpt lat="44.81307" lon="4.62642">
        <ele>285</ele>
        <time>2015-04-02T13:03:38Z</time>
      </trkpt>
      <trkpt lat="44.81303" lon="4.62643">
        <ele>284</ele>
        <time>2015-04-02T13:03:42Z</time>
      </trkpt>
      <trkpt lat="44.81298" lon="4.62646">
        <ele>284</ele>
        <time>2015-04-02T13:03:47Z</time>
      </trkpt>
      <trkpt lat="44.81294" lon="4.62651">
        <ele>283</ele>
        <time>2015-04-02T13:03:51Z</time>
      </trkpt>
      <trkpt lat="44.81289" lon="4.62654">
        <ele>283</ele>
        <time>2015-04-02T13:03:56Z</time>
      </trkpt>
      <trkpt lat="44.81285" lon="4.62657">
        <ele>282</ele>
        <time>2015-04-02T13:04:00Z</time>
      </trkpt>
      <trkpt lat="44.81279" lon="4.62659">
        <ele>281</ele>
        <time>2015-04-02T13:04:05Z</time>
      </trkpt>
      <trkpt lat="44.81275" lon="4.62662">
        <ele>280</ele>
        <time>2015-04-02T13:04:08Z</time>
      </trkpt>
      <trkpt lat="44.81271" lon="4.62666">
        <ele>279</ele>
        <time>2015-04-02T13:04:11Z</time>
      </trkpt>
      <trkpt lat="44.81268" lon="4.62671">
        <ele>272</ele>
        <time>2015-04-02T13:04:14Z</time>
      </trkpt>
      <trkpt lat="44.81263" lon="4.62675">
        <ele>272</ele>
        <time>2015-04-02T13:04:17Z</time>
      </trkpt>
      <trkpt lat="44.81259" lon="4.62677">
        <ele>271</ele>
        <time>2015-04-02T13:04:20Z</time>
      </trkpt>
      <trkpt lat="44.81254" lon="4.62679">
        <ele>271</ele>
        <time>2015-04-02T13:04:24Z</time>
      </trkpt>
      <trkpt lat="44.81249" lon="4.62679">
        <ele>268</ele>
        <time>2015-04-02T13:04:28Z</time>
      </trkpt>
      <trkpt lat="44.81246" lon="4.62673">
        <ele>269</ele>
        <time>2015-04-02T13:04:33Z</time>
      </trkpt>
      <trkpt lat="44.81241" lon="4.62671">
        <ele>268</ele>
        <time>2015-04-02T13:04:43Z</time>
      </trkpt>
      <trkpt lat="44.81236" lon="4.62671">
        <ele>268</ele>
        <time>2015-04-02T13:04:47Z</time>
      </trkpt>
      <trkpt lat="44.81231" lon="4.62675">
        <ele>267</ele>
        <time>2015-04-02T13:04:50Z</time>
      </trkpt>
      <trkpt lat="44.81226" lon="4.62677">
        <ele>267</ele>
        <time>2015-04-02T13:04:54Z</time>
      </trkpt>
      <trkpt lat="44.81221" lon="4.62678">
        <ele>267</ele>
        <time>2015-04-02T13:04:58Z</time>
      </trkpt>
      <trkpt lat="44.81216" lon="4.62678">
        <ele>267</ele>
        <time>2015-04-02T13:05:02Z</time>
      </trkpt>
      <trkpt lat="44.81211" lon="4.6268">
        <ele>267</ele>
        <time>2015-04-02T13:05:06Z</time>
      </trkpt>
      <trkpt lat="44.81207" lon="4.62684">
        <ele>267</ele>
        <time>2015-04-02T13:05:10Z</time>
      </trkpt>
      <trkpt lat="44.81202" lon="4.62688">
        <ele>267</ele>
        <time>2015-04-02T13:05:14Z</time>
      </trkpt>
      <trkpt lat="44.81197" lon="4.62692">
        <ele>267</ele>
        <time>2015-04-02T13:05:18Z</time>
      </trkpt>
      <trkpt lat="44.81192" lon="4.62695">
        <ele>266</ele>
        <time>2015-04-02T13:05:22Z</time>
      </trkpt>
      <trkpt lat="44.81188" lon="4.62698">
        <ele>266</ele>
        <time>2015-04-02T13:05:25Z</time>
      </trkpt>
      <trkpt lat="44.81184" lon="4.62702">
        <ele>266</ele>
        <time>2015-04-02T13:05:28Z</time>
      </trkpt>
      <trkpt lat="44.81179" lon="4.62705">
        <ele>265</ele>
        <time>2015-04-02T13:05:31Z</time>
      </trkpt>
      <trkpt lat="44.81174" lon="4.62708">
        <ele>265</ele>
        <time>2015-04-02T13:05:34Z</time>
      </trkpt>
      <trkpt lat="44.81169" lon="4.62712">
        <ele>264</ele>
        <time>2015-04-02T13:05:37Z</time>
      </trkpt>
      <trkpt lat="44.81165" lon="4.62717">
        <ele>260</ele>
        <time>2015-04-02T13:05:40Z</time>
      </trkpt>
      <trkpt lat="44.81161" lon="4.62721">
        <ele>259</ele>
        <time>2015-04-02T13:05:43Z</time>
      </trkpt>
      <trkpt lat="44.81157" lon="4.62724">
        <ele>259</ele>
        <time>2015-04-02T13:05:46Z</time>
      </trkpt>
      <trkpt lat="44.81151" lon="4.62725">
        <ele>258</ele>
        <time>2015-04-02T13:05:50Z</time>
      </trkpt>
      <trkpt lat="44.81146" lon="4.62727">
        <ele>258</ele>
        <time>2015-04-02T13:05:54Z</time>
      </trkpt>
      <trkpt lat="44.81141" lon="4.62729">
        <ele>258</ele>
        <time>2015-04-02T13:05:58Z</time>
      </trkpt>
      <trkpt lat="44.81136" lon="4.62733">
        <ele>258</ele>
        <time>2015-04-02T13:06:02Z</time>
      </trkpt>
      <trkpt lat="44.81132" lon="4.62737">
        <ele>258</ele>
        <time>2015-04-02T13:06:05Z</time>
      </trkpt>
      <trkpt lat="44.81128" lon="4.6274">
        <ele>257</ele>
        <time>2015-04-02T13:06:09Z</time>
      </trkpt>
      <trkpt lat="44.81123" lon="4.62743">
        <ele>257</ele>
        <time>2015-04-02T13:06:13Z</time>
      </trkpt>
      <trkpt lat="44.81118" lon="4.62744">
        <ele>257</ele>
        <time>2015-04-02T13:06:17Z</time>
      </trkpt>
      <trkpt lat="44.81114" lon="4.62743">
        <ele>257</ele>
        <time>2015-04-02T13:06:22Z</time>
      </trkpt>
      <trkpt lat="44.81109" lon="4.62745">
        <ele>256</ele>
        <time>2015-04-02T13:06:26Z</time>
      </trkpt>
      <trkpt lat="44.81105" lon="4.62747">
        <ele>256</ele>
        <time>2015-04-02T13:06:31Z</time>
      </trkpt>
      <trkpt lat="44.81102" lon="4.62752">
        <ele>250</ele>
        <time>2015-04-02T13:06:38Z</time>
      </trkpt>
      <trkpt lat="44.811" lon="4.62758">
        <ele>250</ele>
        <time>2015-04-02T13:06:43Z</time>
      </trkpt>
      <trkpt lat="44.81099" lon="4.62765">
        <ele>250</ele>
        <time>2015-04-02T13:06:48Z</time>
      </trkpt>
      <trkpt lat="44.81096" lon="4.6277">
        <ele>250</ele>
        <time>2015-04-02T13:06:51Z</time>
      </trkpt>
      <trkpt lat="44.81094" lon="4.62777">
        <ele>249</ele>
        <time>2015-04-02T13:06:55Z</time>
      </trkpt>
      <trkpt lat="44.81091" lon="4.62782">
        <ele>249</ele>
        <time>2015-04-02T13:06:59Z</time>
      </trkpt>
      <trkpt lat="44.81088" lon="4.62788">
        <ele>249</ele>
        <time>2015-04-02T13:07:03Z</time>
      </trkpt>
      <trkpt lat="44.81086" lon="4.62794">
        <ele>248</ele>
        <time>2015-04-02T13:07:07Z</time>
      </trkpt>
      <trkpt lat="44.81083" lon="4.628">
        <ele>240</ele>
        <time>2015-04-02T13:07:11Z</time>
      </trkpt>
      <trkpt lat="44.81081" lon="4.62807">
        <ele>240</ele>
        <time>2015-04-02T13:07:16Z</time>
      </trkpt>
      <trkpt lat="44.81078" lon="4.62813">
        <ele>240</ele>
        <time>2015-04-02T13:07:21Z</time>
      </trkpt>
      <trkpt lat="44.81076" lon="4.6282">
        <ele>240</ele>
        <time>2015-04-02T13:07:26Z</time>
      </trkpt>
      <trkpt lat="44.81074" lon="4.62826">
        <ele>241</ele>
        <time>2015-04-02T13:07:31Z</time>
      </trkpt>
      <trkpt lat="44.81076" lon="4.62821">
        <ele>240</ele>
        <time>2015-04-02T13:07:59Z</time>
      </trkpt>
      <trkpt lat="44.81076" lon="4.62821">
        <ele>240</ele>
        <time>2015-04-02T13:08:00Z</time>
      </trkpt>
      <trkpt lat="44.81076" lon="4.62821">
        <ele>240</ele>
        <time>2015-04-02T13:08:14Z</time>
      </trkpt>
      <trkpt lat="44.81077" lon="4.62819">
        <ele>240</ele>
        <time>2015-04-02T13:08:29Z</time>
      </trkpt>
      <trkpt lat="44.81079" lon="4.62814">
        <ele>240</ele>
        <time>2015-04-02T13:08:32Z</time>
      </trkpt>
      <trkpt lat="44.81081" lon="4.62809">
        <ele>240</ele>
        <time>2015-04-02T13:08:37Z</time>
      </trkpt>
      <trkpt lat="44.81081" lon="4.62802">
        <ele>240</ele>
        <time>2015-04-02T13:08:41Z</time>
      </trkpt>
      <trkpt lat="44.81082" lon="4.62794">
        <ele>240</ele>
        <time>2015-04-02T13:08:46Z</time>
      </trkpt>
      <trkpt lat="44.81083" lon="4.62788">
        <ele>240</ele>
        <time>2015-04-02T13:08:51Z</time>
      </trkpt>
      <trkpt lat="44.81086" lon="4.62783">
        <ele>249</ele>
        <time>2015-04-02T13:09:15Z</time>
      </trkpt>
      <trkpt lat="44.81084" lon="4.62777">
        <ele>249</ele>
        <time>2015-04-02T13:09:30Z</time>
      </trkpt>
      <trkpt lat="44.81081" lon="4.62772">
        <ele>243</ele>
        <time>2015-04-02T13:09:36Z</time>
      </trkpt>
      <trkpt lat="44.81079" lon="4.62766">
        <ele>244</ele>
        <time>2015-04-02T13:09:42Z</time>
      </trkpt>
      <trkpt lat="44.81077" lon="4.6276">
        <ele>246</ele>
        <time>2015-04-02T13:09:48Z</time>
      </trkpt>
      <trkpt lat="44.81075" lon="4.62754">
        <ele>247</ele>
        <time>2015-04-02T13:09:54Z</time>
      </trkpt>
      <trkpt lat="44.81073" lon="4.62748">
        <ele>248</ele>
        <time>2015-04-02T13:10:01Z</time>
      </trkpt>
      <trkpt lat="44.81073" lon="4.62741">
        <ele>247</ele>
        <time>2015-04-02T13:10:09Z</time>
      </trkpt>
      <trkpt lat="44.81071" lon="4.62734">
        <ele>245</ele>
        <time>2015-04-02T13:10:16Z</time>
      </trkpt>
      <trkpt lat="44.8107" lon="4.62728">
        <ele>244</ele>
        <time>2015-04-02T13:10:21Z</time>
      </trkpt>
      <trkpt lat="44.81068" lon="4.62722">
        <ele>244</ele>
        <time>2015-04-02T13:10:26Z</time>
      </trkpt>
      <trkpt lat="44.81066" lon="4.62715">
        <ele>243</ele>
        <time>2015-04-02T13:10:32Z</time>
      </trkpt>
      <trkpt lat="44.81065" lon="4.62708">
        <ele>243</ele>
        <time>2015-04-02T13:10:37Z</time>
      </trkpt>
      <trkpt lat="44.81063" lon="4.62701">
        <ele>243</ele>
        <time>2015-04-02T13:10:43Z</time>
      </trkpt>
      <trkpt lat="44.8106" lon="4.62694">
        <ele>244</ele>
        <time>2015-04-02T13:10:49Z</time>
      </trkpt>
      <trkpt lat="44.81057" lon="4.62689">
        <ele>243</ele>
        <time>2015-04-02T13:10:55Z</time>
      </trkpt>
      <trkpt lat="44.81054" lon="4.62683">
        <ele>243</ele>
        <time>2015-04-02T13:11:01Z</time>
      </trkpt>
      <trkpt lat="44.81051" lon="4.62678">
        <ele>243</ele>
        <time>2015-04-02T13:11:08Z</time>
      </trkpt>
      <trkpt lat="44.81049" lon="4.62672">
        <ele>242</ele>
        <time>2015-04-02T13:11:13Z</time>
      </trkpt>
      <trkpt lat="44.81046" lon="4.62666">
        <ele>244</ele>
        <time>2015-04-02T13:11:18Z</time>
      </trkpt>
      <trkpt lat="44.81044" lon="4.6266">
        <ele>243</ele>
        <time>2015-04-02T13:11:23Z</time>
      </trkpt>
      <trkpt lat="44.81041" lon="4.62655">
        <ele>243</ele>
        <time>2015-04-02T13:11:28Z</time>
      </trkpt>
      <trkpt lat="44.8104" lon="4.62653">
        <ele>242</ele>
        <time>2015-04-02T13:11:46Z</time>
      </trkpt>
      <trkpt lat="44.81039" lon="4.62649">
        <ele>242</ele>
        <time>2015-04-02T13:11:50Z</time>
      </trkpt>
      <trkpt lat="44.81038" lon="4.62642">
        <ele>242</ele>
        <time>2015-04-02T13:11:56Z</time>
      </trkpt>
      <trkpt lat="44.81034" lon="4.62637">
        <ele>241</ele>
        <time>2015-04-02T13:12:02Z</time>
      </trkpt>
      <trkpt lat="44.81031" lon="4.62631">
        <ele>241</ele>
        <time>2015-04-02T13:12:07Z</time>
      </trkpt>
      <trkpt lat="44.81029" lon="4.62625">
        <ele>241</ele>
        <time>2015-04-02T13:12:16Z</time>
      </trkpt>
      <trkpt lat="44.81026" lon="4.6262">
        <ele>241</ele>
        <time>2015-04-02T13:12:23Z</time>
      </trkpt>
      <trkpt lat="44.81022" lon="4.62616">
        <ele>240</ele>
        <time>2015-04-02T13:12:33Z</time>
      </trkpt>
      <trkpt lat="44.81018" lon="4.62612">
        <ele>239</ele>
        <time>2015-04-02T13:12:41Z</time>
      </trkpt>
      <trkpt lat="44.81017" lon="4.62605">
        <ele>239</ele>
        <time>2015-04-02T13:12:49Z</time>
      </trkpt>
      <trkpt lat="44.81014" lon="4.62601">
        <ele>238</ele>
        <time>2015-04-02T13:12:58Z</time>
      </trkpt>
      <trkpt lat="44.81009" lon="4.626">
        <ele>237</ele>
        <time>2015-04-02T13:13:02Z</time>
      </trkpt>
      <trkpt lat="44.81004" lon="4.626">
        <ele>236</ele>
        <time>2015-04-02T13:13:08Z</time>
      </trkpt>
      <trkpt lat="44.81001" lon="4.62606">
        <ele>237</ele>
        <time>2015-04-02T13:13:13Z</time>
      </trkpt>
      <trkpt lat="44.80998" lon="4.62611">
        <ele>228</ele>
        <time>2015-04-02T13:13:17Z</time>
      </trkpt>
      <trkpt lat="44.80995" lon="4.62617">
        <ele>227</ele>
        <time>2015-04-02T13:13:22Z</time>
      </trkpt>
      <trkpt lat="44.80992" lon="4.62623">
        <ele>227</ele>
        <time>2015-04-02T13:13:26Z</time>
      </trkpt>
      <trkpt lat="44.80988" lon="4.62628">
        <ele>227</ele>
        <time>2015-04-02T13:13:30Z</time>
      </trkpt>
      <trkpt lat="44.80985" lon="4.62633">
        <ele>227</ele>
        <time>2015-04-02T13:13:34Z</time>
      </trkpt>
      <trkpt lat="44.80982" lon="4.62638">
        <ele>226</ele>
        <time>2015-04-02T13:13:39Z</time>
      </trkpt>
      <trkpt lat="44.80977" lon="4.62642">
        <ele>226</ele>
        <time>2015-04-02T13:13:44Z</time>
      </trkpt>
      <trkpt lat="44.80972" lon="4.62644">
        <ele>226</ele>
        <time>2015-04-02T13:13:48Z</time>
      </trkpt>
      <trkpt lat="44.80967" lon="4.62644">
        <ele>226</ele>
        <time>2015-04-02T13:13:52Z</time>
      </trkpt>
      <trkpt lat="44.80962" lon="4.62646">
        <ele>226</ele>
        <time>2015-04-02T13:13:56Z</time>
      </trkpt>
      <trkpt lat="44.80956" lon="4.62646">
        <ele>225</ele>
        <time>2015-04-02T13:14:01Z</time>
      </trkpt>
      <trkpt lat="44.80951" lon="4.62645">
        <ele>225</ele>
        <time>2015-04-02T13:14:06Z</time>
      </trkpt>
      <trkpt lat="44.80946" lon="4.62642">
        <ele>225</ele>
        <time>2015-04-02T13:14:11Z</time>
      </trkpt>
      <trkpt lat="44.80943" lon="4.62637">
        <ele>225</ele>
        <time>2015-04-02T13:14:16Z</time>
      </trkpt>
      <trkpt lat="44.80938" lon="4.62635">
        <ele>225</ele>
        <time>2015-04-02T13:14:20Z</time>
      </trkpt>
      <trkpt lat="44.80934" lon="4.62633">
        <ele>225</ele>
        <time>2015-04-02T13:14:24Z</time>
      </trkpt>
      <trkpt lat="44.8093" lon="4.62629">
        <ele>225</ele>
        <time>2015-04-02T13:14:28Z</time>
      </trkpt>
      <trkpt lat="44.80927" lon="4.62624">
        <ele>225</ele>
        <time>2015-04-02T13:14:32Z</time>
      </trkpt>
      <trkpt lat="44.80922" lon="4.6262">
        <ele>225</ele>
        <time>2015-04-02T13:14:36Z</time>
      </trkpt>
      <trkpt lat="44.80918" lon="4.62615">
        <ele>225</ele>
        <time>2015-04-02T13:14:40Z</time>
      </trkpt>
      <trkpt lat="44.80913" lon="4.6261">
        <ele>222</ele>
        <time>2015-04-02T13:14:44Z</time>
      </trkpt>
      <trkpt lat="44.80908" lon="4.62605">
        <ele>222</ele>
        <time>2015-04-02T13:14:48Z</time>
      </trkpt>
      <trkpt lat="44.80903" lon="4.62601">
        <ele>222</ele>
        <time>2015-04-02T13:14:52Z</time>
      </trkpt>
      <trkpt lat="44.80898" lon="4.62598">
        <ele>222</ele>
        <time>2015-04-02T13:14:56Z</time>
      </trkpt>
      <trkpt lat="44.80895" lon="4.62594">
        <ele>222</ele>
        <time>2015-04-02T13:15:00Z</time>
      </trkpt>
      <trkpt lat="44.80891" lon="4.62589">
        <ele>222</ele>
        <time>2015-04-02T13:15:04Z</time>
      </trkpt>
      <trkpt lat="44.80888" lon="4.62584">
        <ele>222</ele>
        <time>2015-04-02T13:15:08Z</time>
      </trkpt>
      <trkpt lat="44.80883" lon="4.62583">
        <ele>226</ele>
        <time>2015-04-02T13:15:13Z</time>
      </trkpt>
      <trkpt lat="44.80878" lon="4.62587">
        <ele>221</ele>
        <time>2015-04-02T13:15:18Z</time>
      </trkpt>
      <trkpt lat="44.80875" lon="4.62593">
        <ele>221</ele>
        <time>2015-04-02T13:15:22Z</time>
      </trkpt>
      <trkpt lat="44.80872" lon="4.62598">
        <ele>221</ele>
        <time>2015-04-02T13:15:26Z</time>
      </trkpt>
      <trkpt lat="44.80868" lon="4.62602">
        <ele>220</ele>
        <time>2015-04-02T13:15:30Z</time>
      </trkpt>
      <trkpt lat="44.80865" lon="4.62609">
        <ele>220</ele>
        <time>2015-04-02T13:15:34Z</time>
      </trkpt>
      <trkpt lat="44.80861" lon="4.62615">
        <ele>220</ele>
        <time>2015-04-02T13:15:38Z</time>
      </trkpt>
      <trkpt lat="44.80858" lon="4.6262">
        <ele>220</ele>
        <time>2015-04-02T13:15:41Z</time>
      </trkpt>
      <trkpt lat="44.80855" lon="4.62625">
        <ele>219</ele>
        <time>2015-04-02T13:15:44Z</time>
      </trkpt>
      <trkpt lat="44.80853" lon="4.62631">
        <ele>219</ele>
        <time>2015-04-02T13:15:47Z</time>
      </trkpt>
      <trkpt lat="44.80849" lon="4.62637">
        <ele>219</ele>
        <time>2015-04-02T13:15:50Z</time>
      </trkpt>
      <trkpt lat="44.80846" lon="4.62643">
        <ele>218</ele>
        <time>2015-04-02T13:15:54Z</time>
      </trkpt>
      <trkpt lat="44.80842" lon="4.62649">
        <ele>217</ele>
        <time>2015-04-02T13:15:58Z</time>
      </trkpt>
      <trkpt lat="44.80838" lon="4.62653">
        <ele>217</ele>
        <time>2015-04-02T13:16:03Z</time>
      </trkpt>
      <trkpt lat="44.80834" lon="4.62658">
        <ele>216</ele>
        <time>2015-04-02T13:16:08Z</time>
      </trkpt>
      <trkpt lat="44.80831" lon="4.62664">
        <ele>214</ele>
        <time>2015-04-02T13:16:12Z</time>
      </trkpt>
      <trkpt lat="44.80828" lon="4.6267">
        <ele>213</ele>
        <time>2015-04-02T13:16:15Z</time>
      </trkpt>
      <trkpt lat="44.80824" lon="4.62676">
        <ele>211</ele>
        <time>2015-04-02T13:16:19Z</time>
      </trkpt>
      <trkpt lat="44.80821" lon="4.6268">
        <ele>211</ele>
        <time>2015-04-02T13:16:22Z</time>
      </trkpt>
      <trkpt lat="44.80816" lon="4.62685">
        <ele>210</ele>
        <time>2015-04-02T13:16:26Z</time>
      </trkpt>
      <trkpt lat="44.80811" lon="4.62687">
        <ele>210</ele>
        <time>2015-04-02T13:16:30Z</time>
      </trkpt>
      <trkpt lat="44.80807" lon="4.62683">
        <ele>209</ele>
        <time>2015-04-02T13:16:33Z</time>
      </trkpt>
      <trkpt lat="44.80805" lon="4.62677">
        <ele>210</ele>
        <time>2015-04-02T13:16:36Z</time>
      </trkpt>
      <trkpt lat="44.80803" lon="4.62669">
        <ele>209</ele>
        <time>2015-04-02T13:16:40Z</time>
      </trkpt>
      <trkpt lat="44.80803" lon="4.62661">
        <ele>212</ele>
        <time>2015-04-02T13:16:44Z</time>
      </trkpt>
      <trkpt lat="44.80801" lon="4.62653">
        <ele>212</ele>
        <time>2015-04-02T13:16:48Z</time>
      </trkpt>
      <trkpt lat="44.80798" lon="4.62647">
        <ele>212</ele>
        <time>2015-04-02T13:16:52Z</time>
      </trkpt>
      <trkpt lat="44.80795" lon="4.62641">
        <ele>212</ele>
        <time>2015-04-02T13:16:56Z</time>
      </trkpt>
      <trkpt lat="44.80793" lon="4.62635">
        <ele>212</ele>
        <time>2015-04-02T13:17:01Z</time>
      </trkpt>
      <trkpt lat="44.80793" lon="4.62628">
        <ele>212</ele>
        <time>2015-04-02T13:17:06Z</time>
      </trkpt>
      <trkpt lat="44.80792" lon="4.6262">
        <ele>212</ele>
        <time>2015-04-02T13:17:10Z</time>
      </trkpt>
      <trkpt lat="44.80792" lon="4.62612">
        <ele>212</ele>
        <time>2015-04-02T13:17:14Z</time>
      </trkpt>
      <trkpt lat="44.80788" lon="4.62606">
        <ele>212</ele>
        <time>2015-04-02T13:17:18Z</time>
      </trkpt>
      <trkpt lat="44.80787" lon="4.626">
        <ele>212</ele>
        <time>2015-04-02T13:17:24Z</time>
      </trkpt>
      <trkpt lat="44.80785" lon="4.62588">
        <ele>212</ele>
        <time>2015-04-02T13:17:34Z</time>
      </trkpt>
      <trkpt lat="44.80782" lon="4.62582">
        <ele>216</ele>
        <time>2015-04-02T13:17:37Z</time>
      </trkpt>
      <trkpt lat="44.8078" lon="4.62576">
        <ele>215</ele>
        <time>2015-04-02T13:17:40Z</time>
      </trkpt>
      <trkpt lat="44.80778" lon="4.62569">
        <ele>215</ele>
        <time>2015-04-02T13:17:44Z</time>
      </trkpt>
      <trkpt lat="44.80774" lon="4.62563">
        <ele>215</ele>
        <time>2015-04-02T13:17:48Z</time>
      </trkpt>
      <trkpt lat="44.80771" lon="4.62559">
        <ele>215</ele>
        <time>2015-04-02T13:17:52Z</time>
      </trkpt>
      <trkpt lat="44.80767" lon="4.62554">
        <ele>216</ele>
        <time>2015-04-02T13:17:56Z</time>
      </trkpt>
      <trkpt lat="44.80763" lon="4.6255">
        <ele>216</ele>
        <time>2015-04-02T13:18:00Z</time>
      </trkpt>
      <trkpt lat="44.80758" lon="4.62547">
        <ele>216</ele>
        <time>2015-04-02T13:18:04Z</time>
      </trkpt>
      <trkpt lat="44.80753" lon="4.62545">
        <ele>216</ele>
        <time>2015-04-02T13:18:08Z</time>
      </trkpt>
      <trkpt lat="44.80751" lon="4.62539">
        <ele>216</ele>
        <time>2015-04-02T13:18:12Z</time>
      </trkpt>
      <trkpt lat="44.80748" lon="4.62533">
        <ele>210</ele>
        <time>2015-04-02T13:18:16Z</time>
      </trkpt>
      <trkpt lat="44.80745" lon="4.62529">
        <ele>210</ele>
        <time>2015-04-02T13:18:20Z</time>
      </trkpt>
      <trkpt lat="44.80745" lon="4.62522">
        <ele>211</ele>
        <time>2015-04-02T13:18:26Z</time>
      </trkpt>
      <trkpt lat="44.80741" lon="4.62518">
        <ele>212</ele>
        <time>2015-04-02T13:18:29Z</time>
      </trkpt>
      <trkpt lat="44.80738" lon="4.62514">
        <ele>212</ele>
        <time>2015-04-02T13:18:32Z</time>
      </trkpt>
      <trkpt lat="44.80735" lon="4.62508">
        <ele>212</ele>
        <time>2015-04-02T13:18:36Z</time>
      </trkpt>
      <trkpt lat="44.80733" lon="4.62502">
        <ele>212</ele>
        <time>2015-04-02T13:18:40Z</time>
      </trkpt>
      <trkpt lat="44.80729" lon="4.62497">
        <ele>216</ele>
        <time>2015-04-02T13:18:45Z</time>
      </trkpt>
      <trkpt lat="44.80727" lon="4.6249">
        <ele>216</ele>
        <time>2015-04-02T13:18:51Z</time>
      </trkpt>
      <trkpt lat="44.80724" lon="4.62483">
        <ele>216</ele>
        <time>2015-04-02T13:18:55Z</time>
      </trkpt>
      <trkpt lat="44.80721" lon="4.62478">
        <ele>216</ele>
        <time>2015-04-02T13:18:58Z</time>
      </trkpt>
      <trkpt lat="44.80718" lon="4.62472">
        <ele>216</ele>
        <time>2015-04-02T13:19:02Z</time>
      </trkpt>
      <trkpt lat="44.80716" lon="4.62466">
        <ele>216</ele>
        <time>2015-04-02T13:19:05Z</time>
      </trkpt>
      <trkpt lat="44.80715" lon="4.62458">
        <ele>217</ele>
        <time>2015-04-02T13:19:09Z</time>
      </trkpt>
      <trkpt lat="44.80715" lon="4.62451">
        <ele>217</ele>
        <time>2015-04-02T13:19:14Z</time>
      </trkpt>
      <trkpt lat="44.80714" lon="4.62444">
        <ele>218</ele>
        <time>2015-04-02T13:19:19Z</time>
      </trkpt>
      <trkpt lat="44.80712" lon="4.62437">
        <ele>218</ele>
        <time>2015-04-02T13:19:25Z</time>
      </trkpt>
      <trkpt lat="44.80708" lon="4.62434">
        <ele>217</ele>
        <time>2015-04-02T13:19:31Z</time>
      </trkpt>
      <trkpt lat="44.80705" lon="4.62427">
        <ele>217</ele>
        <time>2015-04-02T13:19:36Z</time>
      </trkpt>
      <trkpt lat="44.80703" lon="4.6242">
        <ele>217</ele>
        <time>2015-04-02T13:19:41Z</time>
      </trkpt>
      <trkpt lat="44.807" lon="4.62414">
        <ele>220</ele>
        <time>2015-04-02T13:19:44Z</time>
      </trkpt>
      <trkpt lat="44.80698" lon="4.62406">
        <ele>220</ele>
        <time>2015-04-02T13:19:47Z</time>
      </trkpt>
      <trkpt lat="44.80696" lon="4.62399">
        <ele>220</ele>
        <time>2015-04-02T13:19:50Z</time>
      </trkpt>
      <trkpt lat="44.80694" lon="4.62393">
        <ele>220</ele>
        <time>2015-04-02T13:19:53Z</time>
      </trkpt>
      <trkpt lat="44.80693" lon="4.62385">
        <ele>220</ele>
        <time>2015-04-02T13:19:58Z</time>
      </trkpt>
      <trkpt lat="44.80691" lon="4.62378">
        <ele>220</ele>
        <time>2015-04-02T13:20:02Z</time>
      </trkpt>
      <trkpt lat="44.80689" lon="4.62372">
        <ele>220</ele>
        <time>2015-04-02T13:20:05Z</time>
      </trkpt>
      <trkpt lat="44.80687" lon="4.62364">
        <ele>220</ele>
        <time>2015-04-02T13:20:09Z</time>
      </trkpt>
      <trkpt lat="44.80685" lon="4.62358">
        <ele>219</ele>
        <time>2015-04-02T13:20:12Z</time>
      </trkpt>
      <trkpt lat="44.80682" lon="4.62351">
        <ele>218</ele>
        <time>2015-04-02T13:20:16Z</time>
      </trkpt>
      <trkpt lat="44.80681" lon="4.62344">
        <ele>218</ele>
        <time>2015-04-02T13:20:20Z</time>
      </trkpt>
      <trkpt lat="44.80679" lon="4.62338">
        <ele>217</ele>
        <time>2015-04-02T13:20:24Z</time>
      </trkpt>
      <trkpt lat="44.80678" lon="4.62331">
        <ele>217</ele>
        <time>2015-04-02T13:20:29Z</time>
      </trkpt>
      <trkpt lat="44.80679" lon="4.62324">
        <ele>218</ele>
        <time>2015-04-02T13:20:37Z</time>
      </trkpt>
      <trkpt lat="44.80682" lon="4.62319">
        <ele>219</ele>
        <time>2015-04-02T13:20:41Z</time>
      </trkpt>
      <trkpt lat="44.80682" lon="4.62312">
        <ele>220</ele>
        <time>2015-04-02T13:20:44Z</time>
      </trkpt>
      <trkpt lat="44.80682" lon="4.62305">
        <ele>220</ele>
        <time>2015-04-02T13:20:48Z</time>
      </trkpt>
      <trkpt lat="44.80682" lon="4.62298">
        <ele>221</ele>
        <time>2015-04-02T13:20:52Z</time>
      </trkpt>
      <trkpt lat="44.80681" lon="4.62291">
        <ele>221</ele>
        <time>2015-04-02T13:20:57Z</time>
      </trkpt>
      <trkpt lat="44.80678" lon="4.62284">
        <ele>221</ele>
        <time>2015-04-02T13:21:02Z</time>
      </trkpt>
      <trkpt lat="44.80676" lon="4.62276">
        <ele>220</ele>
        <time>2015-04-02T13:21:08Z</time>
      </trkpt>
      <trkpt lat="44.80675" lon="4.6227">
        <ele>220</ele>
        <time>2015-04-02T13:21:12Z</time>
      </trkpt>
      <trkpt lat="44.80673" lon="4.62264">
        <ele>219</ele>
        <time>2015-04-02T13:21:16Z</time>
      </trkpt>
      <trkpt lat="44.8067" lon="4.62258">
        <ele>218</ele>
        <time>2015-04-02T13:21:20Z</time>
      </trkpt>
      <trkpt lat="44.80668" lon="4.62253">
        <ele>217</ele>
        <time>2015-04-02T13:21:24Z</time>
      </trkpt>
      <trkpt lat="44.80665" lon="4.62247">
        <ele>216</ele>
        <time>2015-04-02T13:21:28Z</time>
      </trkpt>
      <trkpt lat="44.80664" lon="4.6224">
        <ele>215</ele>
        <time>2015-04-02T13:21:33Z</time>
      </trkpt>
      <trkpt lat="44.80662" lon="4.62234">
        <ele>214</ele>
        <time>2015-04-02T13:21:37Z</time>
      </trkpt>
      <trkpt lat="44.80661" lon="4.62226">
        <ele>214</ele>
        <time>2015-04-02T13:21:42Z</time>
      </trkpt>
      <trkpt lat="44.8066" lon="4.6222">
        <ele>214</ele>
        <time>2015-04-02T13:21:47Z</time>
      </trkpt>
      <trkpt lat="44.80659" lon="4.62213">
        <ele>214</ele>
        <time>2015-04-02T13:21:51Z</time>
      </trkpt>
      <trkpt lat="44.80657" lon="4.62207">
        <ele>214</ele>
        <time>2015-04-02T13:21:55Z</time>
      </trkpt>
      <trkpt lat="44.80656" lon="4.62199">
        <ele>214</ele>
        <time>2015-04-02T13:22:00Z</time>
      </trkpt>
      <trkpt lat="44.80655" lon="4.62193">
        <ele>214</ele>
        <time>2015-04-02T13:22:04Z</time>
      </trkpt>
      <trkpt lat="44.80653" lon="4.62186">
        <ele>214</ele>
        <time>2015-04-02T13:22:09Z</time>
      </trkpt>
      <trkpt lat="44.80649" lon="4.62183">
        <ele>214</ele>
        <time>2015-04-02T13:22:14Z</time>
      </trkpt>
      <trkpt lat="44.80642" lon="4.62187">
        <ele>214</ele>
        <time>2015-04-02T13:22:21Z</time>
      </trkpt>
      <trkpt lat="44.80637" lon="4.62189">
        <ele>213</ele>
        <time>2015-04-02T13:22:25Z</time>
      </trkpt>
      <trkpt lat="44.80632" lon="4.62192">
        <ele>213</ele>
        <time>2015-04-02T13:22:29Z</time>
      </trkpt>
      <trkpt lat="44.80628" lon="4.62196">
        <ele>213</ele>
        <time>2015-04-02T13:22:33Z</time>
      </trkpt>
      <trkpt lat="44.80623" lon="4.62199">
        <ele>213</ele>
        <time>2015-04-02T13:22:37Z</time>
      </trkpt>
      <trkpt lat="44.80619" lon="4.62201">
        <ele>213</ele>
        <time>2015-04-02T13:22:41Z</time>
      </trkpt>
      <trkpt lat="44.80614" lon="4.62202">
        <ele>212</ele>
        <time>2015-04-02T13:22:46Z</time>
      </trkpt>
      <trkpt lat="44.80609" lon="4.62204">
        <ele>212</ele>
        <time>2015-04-02T13:22:51Z</time>
      </trkpt>
      <trkpt lat="44.80614" lon="4.62202">
        <ele>212</ele>
        <time>2015-04-02T13:23:03Z</time>
      </trkpt>
      <trkpt lat="44.80616" lon="4.62196">
        <ele>212</ele>
        <time>2015-04-02T13:23:07Z</time>
      </trkpt>
      <trkpt lat="44.80621" lon="4.62192">
        <ele>213</ele>
        <time>2015-04-02T13:23:11Z</time>
      </trkpt>
      <trkpt lat="44.80625" lon="4.62188">
        <ele>213</ele>
        <time>2015-04-02T13:23:16Z</time>
      </trkpt>
      <trkpt lat="44.80629" lon="4.62185">
        <ele>213</ele>
        <time>2015-04-02T13:23:22Z</time>
      </trkpt>
      <trkpt lat="44.80634" lon="4.62182">
        <ele>213</ele>
        <time>2015-04-02T13:23:27Z</time>
      </trkpt>
      <trkpt lat="44.80639" lon="4.6218">
        <ele>214</ele>
        <time>2015-04-02T13:23:31Z</time>
      </trkpt>
      <trkpt lat="44.80643" lon="4.62177">
        <ele>214</ele>
        <time>2015-04-02T13:23:35Z</time>
      </trkpt>
      <trkpt lat="44.80647" lon="4.62172">
        <ele>214</ele>
        <time>2015-04-02T13:23:40Z</time>
      </trkpt>
      <trkpt lat="44.80649" lon="4.62166">
        <ele>214</ele>
        <time>2015-04-02T13:23:44Z</time>
      </trkpt>
      <trkpt lat="44.80651" lon="4.62159">
        <ele>214</ele>
        <time>2015-04-02T13:23:48Z</time>
      </trkpt>
      <trkpt lat="44.80653" lon="4.62153">
        <ele>214</ele>
        <time>2015-04-02T13:23:52Z</time>
      </trkpt>
      <trkpt lat="44.80655" lon="4.62147">
        <ele>213</ele>
        <time>2015-04-02T13:23:56Z</time>
      </trkpt>
      <trkpt lat="44.80656" lon="4.6214">
        <ele>213</ele>
        <time>2015-04-02T13:24:00Z</time>
      </trkpt>
      <trkpt lat="44.80655" lon="4.62133">
        <ele>213</ele>
        <time>2015-04-02T13:24:04Z</time>
      </trkpt>
      <trkpt lat="44.80655" lon="4.62126">
        <ele>212</ele>
        <time>2015-04-02T13:24:08Z</time>
      </trkpt>
      <trkpt lat="44.80656" lon="4.62119">
        <ele>212</ele>
        <time>2015-04-02T13:24:13Z</time>
      </trkpt>
      <trkpt lat="44.80656" lon="4.62111">
        <ele>212</ele>
        <time>2015-04-02T13:24:18Z</time>
      </trkpt>
      <trkpt lat="44.80656" lon="4.62103">
        <ele>212</ele>
        <time>2015-04-02T13:24:22Z</time>
      </trkpt>
      <trkpt lat="44.80655" lon="4.62094">
        <ele>212</ele>
        <time>2015-04-02T13:24:26Z</time>
      </trkpt>
      <trkpt lat="44.80655" lon="4.62086">
        <ele>212</ele>
        <time>2015-04-02T13:24:30Z</time>
      </trkpt>
      <trkpt lat="44.80656" lon="4.62079">
        <ele>211</ele>
        <time>2015-04-02T13:24:34Z</time>
      </trkpt>
      <trkpt lat="44.80656" lon="4.62071">
        <ele>210</ele>
        <time>2015-04-02T13:24:39Z</time>
      </trkpt>
      <trkpt lat="44.80655" lon="4.62063">
        <ele>210</ele>
        <time>2015-04-02T13:24:43Z</time>
      </trkpt>
      <trkpt lat="44.80655" lon="4.62056">
        <ele>210</ele>
        <time>2015-04-02T13:24:47Z</time>
      </trkpt>
      <trkpt lat="44.80656" lon="4.62049">
        <ele>210</ele>
        <time>2015-04-02T13:24:52Z</time>
      </trkpt>
      <trkpt lat="44.80655" lon="4.62043">
        <ele>209</ele>
        <time>2015-04-02T13:24:56Z</time>
      </trkpt>
      <trkpt lat="44.80654" lon="4.62036">
        <ele>209</ele>
        <time>2015-04-02T13:25:00Z</time>
      </trkpt>
      <trkpt lat="44.80654" lon="4.62029">
        <ele>209</ele>
        <time>2015-04-02T13:25:04Z</time>
      </trkpt>
      <trkpt lat="44.80653" lon="4.62022">
        <ele>209</ele>
        <time>2015-04-02T13:25:09Z</time>
      </trkpt>
      <trkpt lat="44.80654" lon="4.62015">
        <ele>209</ele>
        <time>2015-04-02T13:25:14Z</time>
      </trkpt>
      <trkpt lat="44.80654" lon="4.62008">
        <ele>208</ele>
        <time>2015-04-02T13:25:19Z</time>
      </trkpt>
      <trkpt lat="44.80655" lon="4.62002">
        <ele>208</ele>
        <time>2015-04-02T13:25:24Z</time>
      </trkpt>
      <trkpt lat="44.80656" lon="4.61995">
        <ele>208</ele>
        <time>2015-04-02T13:25:29Z</time>
      </trkpt>
      <trkpt lat="44.80657" lon="4.61989">
        <ele>208</ele>
        <time>2015-04-02T13:25:34Z</time>
      </trkpt>
      <trkpt lat="44.80656" lon="4.61982">
        <ele>208</ele>
        <time>2015-04-02T13:25:38Z</time>
      </trkpt>
      <trkpt lat="44.80654" lon="4.61976">
        <ele>208</ele>
        <time>2015-04-02T13:25:43Z</time>
      </trkpt>
      <trkpt lat="44.80655" lon="4.61969">
        <ele>208</ele>
        <time>2015-04-02T13:25:47Z</time>
      </trkpt>
      <trkpt lat="44.80653" lon="4.61961">
        <ele>208</ele>
        <time>2015-04-02T13:25:51Z</time>
      </trkpt>
      <trkpt lat="44.80651" lon="4.61955">
        <ele>208</ele>
        <time>2015-04-02T13:25:56Z</time>
      </trkpt>
      <trkpt lat="44.80654" lon="4.6195">
        <ele>208</ele>
        <time>2015-04-02T13:26:03Z</time>
      </trkpt>
      <trkpt lat="44.80652" lon="4.61945">
        <ele>208</ele>
        <time>2015-04-02T13:26:06Z</time>
      </trkpt>
      <trkpt lat="44.80648" lon="4.61939">
        <ele>208</ele>
        <time>2015-04-02T13:26:09Z</time>
      </trkpt>
      <trkpt lat="44.80645" lon="4.61934">
        <ele>208</ele>
        <time>2015-04-02T13:26:12Z</time>
      </trkpt>
      <trkpt lat="44.80642" lon="4.61928">
        <ele>208</ele>
        <time>2015-04-02T13:26:16Z</time>
      </trkpt>
      <trkpt lat="44.8064" lon="4.61922">
        <ele>208</ele>
        <time>2015-04-02T13:26:20Z</time>
      </trkpt>
      <trkpt lat="44.80636" lon="4.61917">
        <ele>208</ele>
        <time>2015-04-02T13:26:24Z</time>
      </trkpt>
      <trkpt lat="44.80631" lon="4.61912">
        <ele>208</ele>
        <time>2015-04-02T13:26:28Z</time>
      </trkpt>
      <trkpt lat="44.80627" lon="4.61911">
        <ele>207</ele>
        <time>2015-04-02T13:26:32Z</time>
      </trkpt>
      <trkpt lat="44.80622" lon="4.61909">
        <ele>207</ele>
        <time>2015-04-02T13:26:36Z</time>
      </trkpt>
      <trkpt lat="44.80618" lon="4.61906">
        <ele>207</ele>
        <time>2015-04-02T13:26:40Z</time>
      </trkpt>
      <trkpt lat="44.80613" lon="4.61903">
        <ele>207</ele>
        <time>2015-04-02T13:26:44Z</time>
      </trkpt>
      <trkpt lat="44.80608" lon="4.619">
        <ele>206</ele>
        <time>2015-04-02T13:26:49Z</time>
      </trkpt>
      <trkpt lat="44.80604" lon="4.61897">
        <ele>206</ele>
        <time>2015-04-02T13:26:54Z</time>
      </trkpt>
      <trkpt lat="44.806" lon="4.61894">
        <ele>206</ele>
        <time>2015-04-02T13:26:59Z</time>
      </trkpt>
      <trkpt lat="44.80595" lon="4.61892">
        <ele>206</ele>
        <time>2015-04-02T13:27:04Z</time>
      </trkpt>
      <trkpt lat="44.8059" lon="4.6189">
        <ele>206</ele>
        <time>2015-04-02T13:27:08Z</time>
      </trkpt>
      <trkpt lat="44.80586" lon="4.61888">
        <ele>206</ele>
        <time>2015-04-02T13:27:13Z</time>
      </trkpt>
      <trkpt lat="44.8058" lon="4.61885">
        <ele>202</ele>
        <time>2015-04-02T13:27:18Z</time>
      </trkpt>
      <trkpt lat="44.80576" lon="4.61882">
        <ele>201</ele>
        <time>2015-04-02T13:27:22Z</time>
      </trkpt>
      <trkpt lat="44.80572" lon="4.61877">
        <ele>201</ele>
        <time>2015-04-02T13:27:26Z</time>
      </trkpt>
      <trkpt lat="44.8057" lon="4.61872">
        <ele>201</ele>
        <time>2015-04-02T13:27:30Z</time>
      </trkpt>
      <trkpt lat="44.8057" lon="4.61866">
        <ele>202</ele>
        <time>2015-04-02T13:27:35Z</time>
      </trkpt>
      <trkpt lat="44.80568" lon="4.61863">
        <ele>202</ele>
        <time>2015-04-02T13:27:50Z</time>
      </trkpt>
      <trkpt lat="44.80569" lon="4.61864">
        <ele>202</ele>
        <time>2015-04-02T13:28:05Z</time>
      </trkpt>
      <trkpt lat="44.8057" lon="4.61865">
        <ele>202</ele>
        <time>2015-04-02T13:28:22Z</time>
      </trkpt>
      <trkpt lat="44.8057" lon="4.61865">
        <ele>202</ele>
        <time>2015-04-02T13:28:40Z</time>
      </trkpt>
      <trkpt lat="44.8057" lon="4.61865">
        <ele>202</ele>
        <time>2015-04-02T13:28:55Z</time>
      </trkpt>
      <trkpt lat="44.80571" lon="4.61861">
        <ele>202</ele>
        <time>2015-04-02T13:29:10Z</time>
      </trkpt>
      <trkpt lat="44.80572" lon="4.6186">
        <ele>202</ele>
        <time>2015-04-02T13:29:11Z</time>
      </trkpt>
      <trkpt lat="44.80571" lon="4.6186">
        <ele>202</ele>
        <time>2015-04-02T13:29:26Z</time>
      </trkpt>
      <trkpt lat="44.80571" lon="4.6186">
        <ele>202</ele>
        <time>2015-04-02T13:29:45Z</time>
      </trkpt>
      <trkpt lat="44.80571" lon="4.6186">
        <ele>202</ele>
        <time>2015-04-02T13:30:00Z</time>
      </trkpt>
      <trkpt lat="44.80571" lon="4.6186">
        <ele>202</ele>
        <time>2015-04-02T13:30:15Z</time>
      </trkpt>
    </trkseg>
  </trk>
</gpx>